BCO-DMO ERDDAP
Accessing BCO-DMO data
log in    
Brought to you by BCO-DMO    
 
 
date_utc time_utc latitude longitude sog cog time
unitless HHMM.mmmmm degrees_north degrees_east m/s degrees clockwise from North UTC
20100318 0000.00675 25.73133433 -80.16208933 0.02 180.0 2010-03-18T00:00:00.405Z
20100318 0001.00673 25.731334 -80.16208433 0.0 0.0 2010-03-18T00:01:00.404Z
20100318 0002.00670 25.7313365 -80.1620875 0.0 0.0 2010-03-18T00:02:00.402Z
20100318 0003.00668 25.7313415 -80.16208567 0.02 0.0 2010-03-18T00:03:00.401Z
20100318 0004.00665 25.73134317 -80.16208867 0.02 0.0 2010-03-18T00:04:00.399Z
20100318 0005.00663 25.73134333 -80.16208633 0.02 90.0 2010-03-18T00:05:00.398Z
20100318 0006.00660 25.73134267 -80.162088 0.02 90.0 2010-03-18T00:06:00.396Z
20100318 0007.00658 25.731343 -80.162089 0.02 90.0 2010-03-18T00:07:00.395Z
20100318 0008.00655 25.731342 -80.16209333 0.02 270.0 2010-03-18T00:08:00.393Z
20100318 0009.00653 25.73134533 -80.16209633 0.04 298.9 2010-03-18T00:09:00.392Z
20100318 0010.00650 25.7313425 -80.16209833 0.02 180.0 2010-03-18T00:10:00.390Z
20100318 0011.00647 25.7313385 -80.16209783 0.02 90.0 2010-03-18T00:11:00.388Z
20100318 0012.00645 25.73133867 -80.16209533 0.03 139.553 2010-03-18T00:12:00.387Z
20100318 0013.00642 25.731342 -80.1620945 0.02 0.0 2010-03-18T00:13:00.385Z
20100318 0014.00640 25.7313425 -80.16209567 0.0 0.0 2010-03-18T00:14:00.384Z
20100318 0015.00637 25.73134417 -80.16209467 0.02 0.0 2010-03-18T00:15:00.382Z
20100318 0016.00635 25.73134433 -80.16209517 0.02 0.0 2010-03-18T00:16:00.381Z
20100318 0017.00632 25.73134233 -80.16208933 0.02 90.0 2010-03-18T00:17:00.379Z
20100318 0018.00630 25.73134117 -80.1620875 0.0 0.0 2010-03-18T00:18:00.378Z
20100318 0019.00627 25.73133983 -80.16208567 0.03 42.169 2010-03-18T00:19:00.376Z
20100318 0020.00625 25.73134167 -80.16208567 0.02 317.831 2010-03-18T00:20:00.375Z
20100318 0021.00622 25.731343 -80.162088 0.03 137.831 2010-03-18T00:21:00.373Z
20100318 0022.00620 25.73133883 -80.16209017 0.03 136.099 2010-03-18T00:22:00.372Z
20100318 0023.00617 25.73133667 -80.16208833 0.02 180.0 2010-03-18T00:23:00.370Z
20100318 0024.00615 25.73133317 -80.1620855 0.0 0.0 2010-03-18T00:24:00.369Z
20100318 0025.00612 25.73133083 -80.16208333 0.02 90.0 2010-03-18T00:25:00.367Z
20100318 0026.00610 25.73133283 -80.16207783 0.04 60.371 2010-03-18T00:26:00.366Z
20100318 0027.00607 25.7313305 -80.162076 0.02 90.0 2010-03-18T00:27:00.364Z
20100318 0028.00605 25.73132767 -80.16207183 0.03 222.169 2010-03-18T00:28:00.363Z
20100318 0029.00602 25.73132667 -80.16207333 0.02 270.0 2010-03-18T00:29:00.361Z
20100318 0030.00600 25.73132933 -80.162075 0.02 0.0 2010-03-18T00:30:00.360Z
20100318 0031.00597 25.73132917 -80.1620785 0.02 0.0 2010-03-18T00:31:00.358Z
20100318 0032.00595 25.73133517 -80.16208083 0.02 270.0 2010-03-18T00:32:00.357Z
20100318 0033.00592 25.731335 -80.1620845 0.03 42.169 2010-03-18T00:33:00.355Z
20100318 0034.00590 25.73133283 -80.16208817 0.03 270.0 2010-03-18T00:34:00.354Z
20100318 0035.00587 25.73133167 -80.16209417 0.05 221.319 2010-03-18T00:35:00.352Z
20100318 0036.00585 25.73132967 -80.16210233 0.02 0.0 2010-03-18T00:36:00.351Z
20100318 0037.00582 25.73132517 -80.162104 0.03 90.0 2010-03-18T00:37:00.349Z
20100318 0038.00580 25.73132783 -80.1621035 0.04 241.84 2010-03-18T00:38:00.348Z
20100318 0039.00577 25.73133067 -80.16210067 0.02 180.0 2010-03-18T00:39:00.346Z
20100318 0040.00575 25.7313325 -80.162098 0.03 137.831 2010-03-18T00:40:00.345Z
20100318 0041.00572 25.73133567 -80.16209083 0.02 90.0 2010-03-18T00:41:00.343Z
20100318 0042.00570 25.73133833 -80.16208467 0.02 90.0 2010-03-18T00:42:00.342Z
20100318 0043.00567 25.73134033 -80.16208483 0.03 223.901 2010-03-18T00:43:00.340Z
20100318 0044.00565 25.7313415 -80.16208867 0.03 220.447 2010-03-18T00:44:00.339Z
20100318 0045.00562 25.73133967 -80.16208917 0.0 0.0 2010-03-18T00:45:00.337Z
20100318 0046.00560 25.731338 -80.1620895 0.03 42.169 2010-03-18T00:46:00.336Z
20100318 0047.00557 25.731335 -80.16209267 0.03 90.0 2010-03-18T00:47:00.334Z
20100318 0048.00555 25.73133317 -80.16208883 0.0 0.0 2010-03-18T00:48:00.333Z
20100318 0049.00552 25.73133483 -80.16208333 0.02 270.0 2010-03-18T00:49:00.331Z
20100318 0050.00550 25.73133533 -80.16208283 0.03 40.447 2010-03-18T00:50:00.330Z
20100318 0051.00547 25.73133317 -80.16208317 0.03 220.447 2010-03-18T00:51:00.328Z
20100318 0052.00545 25.73133233 -80.16208283 0.0 0.0 2010-03-18T00:52:00.327Z
20100318 0053.00542 25.73133033 -80.1620855 0.03 317.831 2010-03-18T00:53:00.325Z
20100318 0054.00540 25.73133317 -80.16208683 0.03 316.099 2010-03-18T00:54:00.324Z
20100318 0055.00537 25.73133583 -80.16209017 0.03 136.099 2010-03-18T00:55:00.322Z
20100318 0056.00535 25.731338 -80.16208967 0.07 285.874 2010-03-18T00:56:00.321Z
20100318 0057.00532 25.7313395 -80.1620915 0.03 270.0 2010-03-18T00:57:00.319Z
20100318 0058.00530 25.73134033 -80.16209233 0.05 90.0 2010-03-18T00:58:00.318Z
20100318 0059.00527 25.73133683 -80.162094 0.05 250.542 2010-03-18T00:59:00.316Z
20100318 0100.00525 25.73133683 -80.16209467 0.04 61.1 2010-03-18T01:00:00.315Z
20100318 0101.00522 25.73133483 -80.1620925 0.03 42.169 2010-03-18T01:01:00.313Z
20100318 0102.00520 25.7313335 -80.16209317 0.03 42.169 2010-03-18T01:02:00.312Z
20100318 0103.00517 25.73133467 -80.16209483 0.02 0.0 2010-03-18T01:03:00.310Z
20100318 0104.00515 25.73133683 -80.1620935 0.03 223.901 2010-03-18T01:04:00.309Z
20100318 0105.00512 25.73133733 -80.1620925 0.04 241.84 2010-03-18T01:05:00.307Z
20100318 0106.00510 25.73133667 -80.162091 0.03 43.901 2010-03-18T01:06:00.306Z
20100318 0107.00507 25.73133383 -80.16209183 0.02 137.831 2010-03-18T01:07:00.304Z
20100318 0108.00505 25.73132767 -80.16208967 0.04 240.371 2010-03-18T01:08:00.303Z
20100318 0109.00502 25.73133067 -80.162088 0.03 43.901 2010-03-18T01:09:00.301Z
20100318 0110.00500 25.73133217 -80.1620835 0.03 222.169 2010-03-18T01:10:00.300Z
20100318 0111.00497 25.731333 -80.16208417 0.05 69.425 2010-03-18T01:11:00.298Z
20100318 0112.00495 25.73133533 -80.16208333 0.0 0.0 2010-03-18T01:12:00.297Z
20100318 0113.00492 25.73133433 -80.16208267 0.02 270.0 2010-03-18T01:13:00.295Z
20100318 0114.00490 25.73133467 -80.1620835 0.02 180.0 2010-03-18T01:14:00.294Z
20100318 0115.00487 25.73133217 -80.16208817 0.02 180.0 2010-03-18T01:15:00.292Z
20100318 0116.00485 25.7313295 -80.16209067 0.03 319.553 2010-03-18T01:16:00.291Z
20100318 0117.00482 25.73133067 -80.16209083 0.02 270.0 2010-03-18T01:17:00.289Z
20100318 0118.00480 25.7313295 -80.162091 0.02 180.0 2010-03-18T01:18:00.288Z
20100318 0119.00477 25.73132783 -80.1620895 0.02 90.0 2010-03-18T01:19:00.286Z
20100318 0120.00475 25.73133 -80.1620905 0.03 317.831 2010-03-18T01:20:00.285Z
20100318 0121.00472 25.73133183 -80.162093 0.03 136.099 2010-03-18T01:21:00.283Z
20100318 0122.00470 25.731333 -80.16209317 0.0 0.0 2010-03-18T01:22:00.282Z
20100318 0123.00467 25.73133533 -80.16208967 0.0 0.0 2010-03-18T01:23:00.280Z
20100318 0124.00463 25.73133917 -80.1620865 0.03 316.099 2010-03-18T01:24:00.278Z
20100318 0125.00462 25.73134083 -80.16208883 0.04 242.546 2010-03-18T01:25:00.277Z
20100318 0126.00458 25.73133883 -80.16209217 0.04 24.365 2010-03-18T01:26:00.275Z
20100318 0127.00457 25.7313355 -80.16209467 0.02 180.0 2010-03-18T01:27:00.274Z
20100318 0128.00453 25.7313335 -80.1620915 0.02 180.0 2010-03-18T01:28:00.272Z
20100318 0129.00452 25.73133333 -80.16208817 0.04 0.0 2010-03-18T01:29:00.271Z
20100318 0130.00448 25.73133133 -80.16208467 0.03 42.169 2010-03-18T01:30:00.269Z
20100318 0131.00447 25.731332 -80.16208267 0.03 220.447 2010-03-18T01:31:00.268Z
20100318 0132.00443 25.7313325 -80.16208517 0.03 42.169 2010-03-18T01:32:00.266Z
20100318 0133.00442 25.73133167 -80.16208767 0.03 43.901 2010-03-18T01:33:00.265Z
20100318 0134.00438 25.73133367 -80.162089 0.03 43.901 2010-03-18T01:34:00.263Z
20100318 0135.00437 25.731337 -80.16208583 0.02 270.0 2010-03-18T01:35:00.262Z
20100318 0136.00433 25.73133433 -80.16208717 0.03 319.553 2010-03-18T01:36:00.260Z
20100318 0137.00432 25.73133417 -80.16208717 0.0 0.0 2010-03-18T01:37:00.259Z
20100318 0138.00428 25.731332 -80.162087 0.0 0.0 2010-03-18T01:38:00.257Z
20100318 0139.00427 25.731336 -80.16208667 0.04 336.291 2010-03-18T01:39:00.256Z
20100318 0140.00423 25.7313355 -80.16208783 0.02 270.0 2010-03-18T01:40:00.254Z
20100318 0141.00422 25.73133567 -80.16208633 0.04 297.454 2010-03-18T01:41:00.253Z
20100318 0142.00418 25.731333 -80.16208783 0.02 270.0 2010-03-18T01:42:00.251Z
20100318 0143.00417 25.73133317 -80.16208817 0.02 270.0 2010-03-18T01:43:00.250Z
20100318 0144.00413 25.73133367 -80.1620855 0.0 0.0 2010-03-18T01:44:00.248Z
20100318 0145.00412 25.7313365 -80.16208367 0.0 0.0 2010-03-18T01:45:00.247Z
20100318 0146.00408 25.73133533 -80.162081 0.02 0.0 2010-03-18T01:46:00.245Z
20100318 0147.00407 25.731339 -80.16207983 0.02 270.0 2010-03-18T01:47:00.244Z
20100318 0148.00403 25.73134033 -80.16207983 0.02 0.0 2010-03-18T01:48:00.242Z
20100318 0149.00402 25.73133683 -80.16207683 0.02 90.0 2010-03-18T01:49:00.241Z
20100318 0150.00398 25.73133583 -80.162077 0.0 0.0 2010-03-18T01:50:00.239Z
20100318 0151.00397 25.731334 -80.16207983 0.02 90.0 2010-03-18T01:51:00.238Z
20100318 0152.00393 25.73133267 -80.16208233 0.0 0.0 2010-03-18T01:52:00.236Z
20100318 0153.00392 25.73132967 -80.16208367 0.03 43.901 2010-03-18T01:53:00.235Z
20100318 0154.00388 25.73132767 -80.16208633 0.0 0.0 2010-03-18T01:54:00.233Z
20100318 0155.00387 25.73132533 -80.16208567 0.02 222.169 2010-03-18T01:55:00.232Z
20100318 0156.00383 25.73132517 -80.16208633 0.04 61.84 2010-03-18T01:56:00.230Z
20100318 0157.00382 25.73132783 -80.16208733 0.02 180.0 2010-03-18T01:57:00.229Z
20100318 0158.00378 25.73132833 -80.16208967 0.0 0.0 2010-03-18T01:58:00.227Z
20100318 0159.00377 25.73132867 -80.16209383 0.02 90.0 2010-03-18T01:59:00.226Z
20100318 0200.00373 25.73132817 -80.16209867 0.02 90.0 2010-03-18T02:00:00.224Z
20100318 0201.00372 25.73133267 -80.16210017 0.02 90.0 2010-03-18T02:01:00.223Z
20100318 0202.00368 25.73133533 -80.1621015 0.02 270.0 2010-03-18T02:02:00.221Z
20100318 0203.00367 25.731337 -80.16210267 0.0 0.0 2010-03-18T02:03:00.220Z
20100318 0204.00363 25.73133767 -80.16210317 0.02 270.0 2010-03-18T02:04:00.218Z
20100318 0205.00362 25.73133767 -80.162102 0.02 180.0 2010-03-18T02:05:00.217Z
20100318 0206.00358 25.73133583 -80.16209967 0.0 0.0 2010-03-18T02:06:00.215Z
20100318 0207.00357 25.7313365 -80.1620965 0.03 90.0 2010-03-18T02:07:00.214Z
20100318 0208.00353 25.731335 -80.16209333 0.0 0.0 2010-03-18T02:08:00.212Z
20100318 0209.00352 25.73133283 -80.16209133 0.02 90.0 2010-03-18T02:09:00.211Z
20100318 0210.00348 25.73133083 -80.16209 0.0 0.0 2010-03-18T02:10:00.209Z
20100318 0211.00347 25.731332 -80.16208733 0.02 270.0 2010-03-18T02:11:00.208Z
20100318 0212.00343 25.73133367 -80.162088 0.02 270.0 2010-03-18T02:12:00.206Z
20100318 0213.00342 25.73132983 -80.16209267 0.02 0.0 2010-03-18T02:13:00.205Z
20100318 0214.00338 25.73133233 -80.162097 0.0 0.0 2010-03-18T02:14:00.203Z
20100318 0215.00337 25.731332 -80.16209633 0.03 317.831 2010-03-18T02:15:00.202Z
20100318 0216.00333 25.7313305 -80.1620995 0.02 270.0 2010-03-18T02:16:00.200Z
20100318 0217.00332 25.73132883 -80.16210517 0.0 0.0 2010-03-18T02:17:00.199Z
20100318 0218.00328 25.7313275 -80.16210117 0.02 180.0 2010-03-18T02:18:00.197Z
20100318 0219.00327 25.73132717 -80.16209967 0.02 317.831 2010-03-18T02:19:00.196Z
20100318 0220.00323 25.731329 -80.16209733 0.03 270.0 2010-03-18T02:20:00.194Z
20100318 0221.00322 25.7313335 -80.16209767 0.02 90.0 2010-03-18T02:21:00.193Z
20100318 0222.00318 25.73133767 -80.16209517 0.02 180.0 2010-03-18T02:22:00.191Z
20100318 0223.00317 25.73133783 -80.1620935 0.0 0.0 2010-03-18T02:23:00.190Z
20100318 0224.00313 25.73133767 -80.1620945 0.02 90.0 2010-03-18T02:24:00.188Z
20100318 0225.00312 25.73133633 -80.16209367 0.03 319.553 2010-03-18T02:25:00.187Z
20100318 0226.00308 25.7313365 -80.1620915 0.02 270.0 2010-03-18T02:26:00.185Z
20100318 0227.00307 25.73133817 -80.16208867 0.0 0.0 2010-03-18T02:27:00.184Z
20100318 0228.00303 25.73134083 -80.1620905 0.04 0.0 2010-03-18T02:28:00.182Z
20100318 0229.00302 25.731339 -80.16209133 0.02 90.0 2010-03-18T02:29:00.181Z
20100318 0230.00298 25.73133417 -80.16209217 0.02 180.0 2010-03-18T02:30:00.179Z
20100318 0231.00297 25.73133017 -80.16209317 0.0 0.0 2010-03-18T02:31:00.178Z
20100318 0232.00293 25.73133167 -80.162093 0.03 90.0 2010-03-18T02:32:00.176Z
20100318 0233.00292 25.73133567 -80.16209217 0.03 270.0 2010-03-18T02:33:00.175Z
20100318 0234.00288 25.7313365 -80.16209067 0.0 0.0 2010-03-18T02:34:00.173Z
20100318 0235.00287 25.73133217 -80.16209017 0.0 0.0 2010-03-18T02:35:00.172Z
20100318 0236.00283 25.73132867 -80.16209067 0.02 90.0 2010-03-18T02:36:00.170Z
20100318 0237.00282 25.73132467 -80.16208783 0.02 0.0 2010-03-18T02:37:00.169Z
20100318 0238.00278 25.73132283 -80.16208683 0.02 0.0 2010-03-18T02:38:00.167Z
20100318 0239.00277 25.73132067 -80.1620865 0.02 270.0 2010-03-18T02:39:00.166Z
20100318 0240.00273 25.73132017 -80.16208933 0.03 270.0 2010-03-18T02:40:00.164Z
20100318 0241.00270 25.73132517 -80.16208967 0.04 0.0 2010-03-18T02:41:00.162Z
20100318 0242.00268 25.73133017 -80.16209083 0.03 316.099 2010-03-18T02:42:00.161Z
20100318 0243.00265 25.731337 -80.16209183 0.04 241.1 2010-03-18T02:43:00.159Z
20100318 0244.00263 25.7313385 -80.16209183 0.02 180.0 2010-03-18T02:44:00.158Z
20100318 0245.00260 25.73134083 -80.16208917 0.0 0.0 2010-03-18T02:45:00.156Z
20100318 0246.00258 25.73134033 -80.16208833 0.0 0.0 2010-03-18T02:46:00.155Z
20100318 0247.00255 25.73134167 -80.16208567 0.02 270.0 2010-03-18T02:47:00.153Z
20100318 0248.00253 25.73134083 -80.16208367 0.02 180.0 2010-03-18T02:48:00.152Z
20100318 0249.00250 25.73133733 -80.16208283 0.0 0.0 2010-03-18T02:49:00.150Z
20100318 0250.00248 25.73133583 -80.16208467 0.03 42.169 2010-03-18T02:50:00.149Z
20100318 0251.00245 25.731336 -80.16208483 0.02 180.0 2010-03-18T02:51:00.147Z
20100318 0252.00243 25.73133383 -80.16208617 0.02 180.0 2010-03-18T02:52:00.146Z
20100318 0253.00240 25.73133583 -80.16208883 0.05 270.0 2010-03-18T02:53:00.144Z
20100318 0254.00238 25.731335 -80.1620875 0.0 0.0 2010-03-18T02:54:00.143Z
20100318 0255.00235 25.731335 -80.16209133 0.03 270.0 2010-03-18T02:55:00.141Z
20100318 0256.00233 25.73133467 -80.1620915 0.04 61.84 2010-03-18T02:56:00.140Z
20100318 0257.00230 25.7313325 -80.162092 0.03 90.0 2010-03-18T02:57:00.138Z
20100318 0258.00228 25.73132867 -80.16209033 0.02 90.0 2010-03-18T02:58:00.137Z
20100318 0259.00225 25.73132617 -80.16208833 0.02 90.0 2010-03-18T02:59:00.135Z
20100318 0300.00223 25.73132783 -80.16208883 0.02 180.0 2010-03-18T03:00:00.134Z
20100318 0301.00220 25.73133067 -80.16208767 0.02 270.0 2010-03-18T03:01:00.132Z
20100318 0302.00218 25.73133267 -80.16208517 0.02 270.0 2010-03-18T03:02:00.131Z
20100318 0303.00215 25.73133517 -80.16208283 0.02 90.0 2010-03-18T03:03:00.129Z
20100318 0304.00213 25.7313315 -80.16208167 0.0 0.0 2010-03-18T03:04:00.128Z
20100318 0305.00210 25.7313315 -80.1620855 0.02 270.0 2010-03-18T03:05:00.126Z
20100318 0306.00208 25.7313315 -80.16209033 0.02 0.0 2010-03-18T03:06:00.125Z
20100318 0307.00205 25.73133033 -80.16209083 0.04 0.0 2010-03-18T03:07:00.123Z
20100318 0308.00203 25.73133483 -80.16209283 0.02 90.0 2010-03-18T03:08:00.122Z
20100318 0309.00200 25.731335 -80.16209067 0.03 42.169 2010-03-18T03:09:00.120Z
20100318 0310.00198 25.73133667 -80.1620915 0.0 0.0 2010-03-18T03:10:00.119Z
20100318 0311.00195 25.731333 -80.16208967 0.03 137.831 2010-03-18T03:11:00.117Z
20100318 0312.00193 25.73133333 -80.162084 0.0 0.0 2010-03-18T03:12:00.116Z
20100318 0313.00190 25.73132917 -80.162082 0.02 180.0 2010-03-18T03:13:00.114Z
20100318 0314.00188 25.731326 -80.16208567 0.03 220.447 2010-03-18T03:14:00.113Z
20100318 0315.00185 25.731323 -80.16209 0.02 180.0 2010-03-18T03:15:00.111Z
20100318 0316.00183 25.73131783 -80.16209533 0.04 298.9 2010-03-18T03:16:00.110Z
20100318 0317.00180 25.73132067 -80.16209467 0.03 43.901 2010-03-18T03:17:00.108Z
20100318 0318.00178 25.73132183 -80.16209383 0.03 223.901 2010-03-18T03:18:00.107Z
20100318 0319.00175 25.73132317 -80.16209217 0.02 90.0 2010-03-18T03:19:00.105Z
20100318 0320.00173 25.73132417 -80.16209483 0.0 0.0 2010-03-18T03:20:00.104Z
20100318 0321.00170 25.73132533 -80.16209517 0.0 0.0 2010-03-18T03:21:00.102Z
20100318 0322.00168 25.73132367 -80.16209617 0.05 249.425 2010-03-18T03:22:00.101Z
20100318 0323.00165 25.73132267 -80.16209533 0.02 270.0 2010-03-18T03:23:00.099Z
20100318 0324.00163 25.7313245 -80.16209633 0.03 40.447 2010-03-18T03:24:00.098Z
20100318 0325.00160 25.73132733 -80.16209383 0.03 223.901 2010-03-18T03:25:00.096Z
20100318 0326.00158 25.7313285 -80.16209567 0.03 42.169 2010-03-18T03:26:00.095Z
20100318 0327.00155 25.73132783 -80.162098 0.0 0.0 2010-03-18T03:27:00.093Z
20100318 0328.00153 25.7313265 -80.16209633 0.03 270.0 2010-03-18T03:28:00.092Z
20100318 0329.00150 25.731329 -80.16209367 0.02 0.0 2010-03-18T03:29:00.090Z
20100318 0330.00148 25.73133383 -80.162092 0.02 90.0 2010-03-18T03:30:00.089Z
20100318 0331.00145 25.731334 -80.16208967 0.04 240.371 2010-03-18T03:31:00.087Z
20100318 0332.00143 25.73133233 -80.16208833 0.05 90.0 2010-03-18T03:32:00.086Z
20100318 0333.00140 25.73133183 -80.16208733 0.03 270.0 2010-03-18T03:33:00.084Z
20100318 0334.00138 25.73133217 -80.16208483 0.05 316.979 2010-03-18T03:34:00.083Z
20100318 0335.00135 25.73133367 -80.16208517 0.02 90.0 2010-03-18T03:35:00.081Z
20100318 0336.00133 25.73133 -80.162081 0.02 270.0 2010-03-18T03:36:00.080Z
20100318 0337.00130 25.73133083 -80.162082 0.0 0.0 2010-03-18T03:37:00.078Z
20100318 0338.00128 25.73132867 -80.16208117 0.02 270.0 2010-03-18T03:38:00.077Z
20100318 0339.00125 25.73132917 -80.16208383 0.04 0.0 2010-03-18T03:39:00.075Z
20100318 0340.00123 25.73132783 -80.16208567 0.03 136.099 2010-03-18T03:40:00.074Z
20100318 0341.00120 25.7313225 -80.1620865 0.04 60.371 2010-03-18T03:41:00.072Z
20100318 0342.00118 25.731324 -80.1620835 0.03 317.831 2010-03-18T03:42:00.071Z
20100318 0343.00115 25.73132567 -80.16208283 0.05 316.979 2010-03-18T03:43:00.069Z
20100318 0344.00113 25.731326 -80.16208733 0.02 270.0 2010-03-18T03:44:00.068Z
20100318 0345.00110 25.7313205 -80.16208867 0.02 180.0 2010-03-18T03:45:00.066Z
20100318 0346.00108 25.73131483 -80.16209517 0.03 319.553 2010-03-18T03:46:00.065Z
20100318 0347.00105 25.73131283 -80.16209917 0.04 154.986 2010-03-18T03:47:00.063Z
20100318 0348.00103 25.73131117 -80.16210067 0.04 203.086 2010-03-18T03:48:00.062Z
20100318 0349.00100 25.73131167 -80.16209633 0.05 70.542 2010-03-18T03:49:00.060Z
20100318 0350.00098 25.73131783 -80.16209217 0.02 0.0 2010-03-18T03:50:00.059Z
20100318 0351.00095 25.73132217 -80.16209333 0.03 316.099 2010-03-18T03:51:00.057Z
20100318 0352.00092 25.731327 -80.16209417 0.07 270.0 2010-03-18T03:52:00.055Z
20100318 0353.00090 25.73133017 -80.1620925 0.04 0.0 2010-03-18T03:53:00.054Z
20100318 0354.00087 25.73133083 -80.16209317 0.0 0.0 2010-03-18T03:54:00.052Z
20100318 0355.00085 25.731332 -80.16209267 0.02 270.0 2010-03-18T03:55:00.051Z
20100318 0356.00082 25.7313335 -80.16209 0.0 0.0 2010-03-18T03:56:00.049Z
20100318 0357.00080 25.73133167 -80.16208883 0.0 0.0 2010-03-18T03:57:00.048Z
20100318 0358.00077 25.73133 -80.16208967 0.02 180.0 2010-03-18T03:58:00.046Z
20100318 0359.00075 25.73132883 -80.16209133 0.0 0.0 2010-03-18T03:59:00.045Z
20100318 0400.00072 25.73132883 -80.1620945 0.02 180.0 2010-03-18T04:00:00.043Z
20100318 0401.00070 25.73133 -80.16209567 0.02 270.0 2010-03-18T04:01:00.042Z
20100318 0402.00067 25.7313315 -80.1620975 0.03 317.831 2010-03-18T04:02:00.040Z
20100318 0403.00065 25.73133533 -80.16209667 0.02 0.0 2010-03-18T04:03:00.039Z
20100318 0404.00062 25.731338 -80.16209467 0.03 137.831 2010-03-18T04:04:00.037Z
20100318 0405.00060 25.73133817 -80.16209117 0.03 220.447 2010-03-18T04:05:00.036Z
20100318 0406.00057 25.731333 -80.16209083 0.02 90.0 2010-03-18T04:06:00.034Z
20100318 0407.00055 25.73132467 -80.16209233 0.03 139.553 2010-03-18T04:07:00.033Z
20100318 0408.00052 25.73132617 -80.16209433 0.03 222.169 2010-03-18T04:08:00.031Z
20100318 0409.00050 25.73132867 -80.16209417 0.02 317.831 2010-03-18T04:09:00.030Z
20100318 0410.00047 25.73132817 -80.1620915 0.0 0.0 2010-03-18T04:10:00.028Z
20100318 0411.00045 25.73132967 -80.16208933 0.02 42.169 2010-03-18T04:11:00.027Z
20100318 0412.00042 25.73133183 -80.1620915 0.03 317.831 2010-03-18T04:12:00.025Z
20100318 0413.00040 25.731332 -80.16209533 0.03 317.831 2010-03-18T04:13:00.024Z
20100318 0414.00037 25.731333 -80.1620985 0.0 0.0 2010-03-18T04:14:00.022Z
20100318 0415.00035 25.73133333 -80.16209617 0.0 0.0 2010-03-18T04:15:00.021Z
20100318 0416.00032 25.731336 -80.16209533 0.05 69.425 2010-03-18T04:16:00.019Z
20100318 0417.00030 25.73133817 -80.1620925 0.03 270.0 2010-03-18T04:17:00.018Z
20100318 0418.00027 25.73133767 -80.16209017 0.02 270.0 2010-03-18T04:18:00.016Z
20100318 0419.00025 25.7313415 -80.162092 0.02 270.0 2010-03-18T04:19:00.015Z
20100318 0420.00022 25.73133983 -80.16209183 0.05 109.458 2010-03-18T04:20:00.013Z
20100318 0421.00020 25.73133883 -80.1620925 0.02 270.0 2010-03-18T04:21:00.012Z
20100318 0422.00017 25.73134367 -80.16208667 0.02 270.0 2010-03-18T04:22:00.010Z
20100318 0423.00015 25.73134583 -80.1620855 0.04 241.84 2010-03-18T04:23:00.009Z
20100318 0424.00012 25.73134683 -80.16208583 0.04 118.16 2010-03-18T04:24:00.007Z
20100318 0425.00010 25.73134717 -80.162085 0.02 90.0 2010-03-18T04:25:00.006Z
20100318 0426.00007 25.731347 -80.16208433 0.0 0.0 2010-03-18T04:26:00.004Z
20100318 0427.00005 25.73134617 -80.1620835 0.03 270.0 2010-03-18T04:27:00.003Z
20100318 0428.00002 25.7313465 -80.16208433 0.02 270.0 2010-03-18T04:28:00.001Z
20100318 0429.00000 25.73134517 -80.16208633 0.02 180.0 2010-03-18T04:29:00.000Z
20100318 0429.99997 25.73134083 -80.16208567 0.02 180.0 2010-03-18T04:29:59.998Z
20100318 0430.99995 25.7313375 -80.16209133 0.03 90.0 2010-03-18T04:30:59.997Z
20100318 0431.99992 25.731333 -80.16209217 0.02 180.0 2010-03-18T04:31:59.995Z
20100318 0432.99990 25.73133033 -80.162093 0.02 180.0 2010-03-18T04:32:59.994Z
20100318 0433.99987 25.73133283 -80.16209417 0.0 0.0 2010-03-18T04:33:59.992Z
20100318 0434.99985 25.7313375 -80.16209583 0.02 90.0 2010-03-18T04:34:59.991Z
20100318 0435.99982 25.73134083 -80.16209367 0.02 222.169 2010-03-18T04:35:59.989Z
20100318 0436.99980 25.73134017 -80.16209533 0.03 316.099 2010-03-18T04:36:59.988Z
20100318 0437.99977 25.731338 -80.16210067 0.02 90.0 2010-03-18T04:37:59.986Z
20100318 0438.99975 25.73133717 -80.16209683 0.02 42.169 2010-03-18T04:38:59.985Z
20100318 0439.99972 25.7313395 -80.16208933 0.0 0.0 2010-03-18T04:39:59.983Z
20100318 0440.99970 25.73134117 -80.16208417 0.03 43.901 2010-03-18T04:40:59.982Z
20100318 0441.99967 25.73134217 -80.1620805 0.0 0.0 2010-03-18T04:41:59.980Z
20100318 0442.99965 25.73134167 -80.16208067 0.03 137.831 2010-03-18T04:42:59.979Z
20100318 0443.99962 25.7313385 -80.162079 0.02 180.0 2010-03-18T04:43:59.977Z
20100318 0444.99960 25.73133783 -80.162083 0.02 270.0 2010-03-18T04:44:59.976Z
20100318 0445.99957 25.7313355 -80.1620875 0.0 0.0 2010-03-18T04:45:59.974Z
20100318 0446.99955 25.73133467 -80.162087 0.02 0.0 2010-03-18T04:46:59.973Z
20100318 0447.99952 25.73133233 -80.1620895 0.02 270.0 2010-03-18T04:47:59.971Z
20100318 0448.99950 25.73133067 -80.16209017 0.02 270.0 2010-03-18T04:48:59.970Z
20100318 0449.99947 25.73133 -80.16209233 0.02 270.0 2010-03-18T04:49:59.968Z
20100318 0450.99945 25.73132683 -80.1620935 0.02 0.0 2010-03-18T04:50:59.967Z
20100318 0451.99942 25.73132917 -80.16209283 0.03 316.099 2010-03-18T04:51:59.965Z
20100318 0452.99940 25.73133083 -80.16209067 0.02 180.0 2010-03-18T04:52:59.964Z
20100318 0453.99937 25.73133083 -80.16208917 0.0 0.0 2010-03-18T04:53:59.962Z
20100318 0454.99935 25.73133133 -80.16208883 0.02 0.0 2010-03-18T04:54:59.961Z
20100318 0455.99932 25.73133117 -80.16208667 0.02 90.0 2010-03-18T04:55:59.959Z
20100318 0456.99928 25.7313345 -80.16208583 0.0 0.0 2010-03-18T04:56:59.957Z
20100318 0457.99927 25.731332 -80.16208617 0.02 270.0 2010-03-18T04:57:59.956Z
20100318 0458.99923 25.73132933 -80.16209033 0.02 180.0 2010-03-18T04:58:59.954Z
20100318 0459.99922 25.73132767 -80.16208967 0.02 317.831 2010-03-18T04:59:59.953Z
20100318 0500.99918 25.73132983 -80.16209033 0.0 0.0 2010-03-18T05:00:59.951Z
20100318 0501.99917 25.73133167 -80.16209117 0.0 0.0 2010-03-18T05:01:59.950Z
20100318 0502.99913 25.73133233 -80.16209333 0.0 0.0 2010-03-18T05:02:59.948Z
20100318 0503.99912 25.73133333 -80.16209383 0.02 0.0 2010-03-18T05:03:59.947Z
20100318 0504.99908 25.73133433 -80.162091 0.0 0.0 2010-03-18T05:04:59.945Z
20100318 0505.99907 25.73133333 -80.16209233 0.0 0.0 2010-03-18T05:05:59.944Z
20100318 0506.99903 25.73133083 -80.16209083 0.02 90.0 2010-03-18T05:06:59.942Z
20100318 0507.99902 25.731329 -80.16208817 0.03 137.831 2010-03-18T05:07:59.941Z
20100318 0508.99898 25.73132983 -80.162085 0.04 0.0 2010-03-18T05:08:59.939Z
20100318 0509.99897 25.73133183 -80.1620825 0.0 0.0 2010-03-18T05:09:59.938Z
20100318 0510.99893 25.73133533 -80.1620815 0.0 0.0 2010-03-18T05:10:59.936Z
20100318 0511.99892 25.7313345 -80.16208133 0.02 90.0 2010-03-18T05:11:59.935Z
20100318 0512.99888 25.7313335 -80.16208517 0.0 0.0 2010-03-18T05:12:59.933Z
20100318 0513.99887 25.73133317 -80.16208717 0.03 43.901 2010-03-18T05:13:59.932Z
20100318 0514.99883 25.731332 -80.16208983 0.03 222.169 2010-03-18T05:14:59.930Z
20100318 0515.99882 25.73133183 -80.16209317 0.02 270.0 2010-03-18T05:15:59.929Z
20100318 0516.99878 25.7313325 -80.162099 0.03 317.831 2010-03-18T05:16:59.927Z
20100318 0517.99877 25.73133533 -80.1621005 0.02 270.0 2010-03-18T05:17:59.926Z
20100318 0518.99873 25.73133783 -80.162101 0.0 0.0 2010-03-18T05:18:59.924Z
20100318 0519.99872 25.73133817 -80.1621005 0.0 0.0 2010-03-18T05:19:59.923Z
20100318 0520.99868 25.731335 -80.16209883 0.02 0.0 2010-03-18T05:20:59.921Z
20100318 0521.99867 25.73133333 -80.1620955 0.02 270.0 2010-03-18T05:21:59.920Z
20100318 0522.99863 25.73133433 -80.162093 0.02 0.0 2010-03-18T05:22:59.918Z
20100318 0523.99862 25.73133867 -80.162092 0.03 316.099 2010-03-18T05:23:59.917Z
20100318 0524.99858 25.73133917 -80.1620925 0.0 0.0 2010-03-18T05:24:59.915Z
20100318 0525.99857 25.73133917 -80.1620905 0.03 43.901 2010-03-18T05:25:59.914Z
20100318 0526.99853 25.7313415 -80.162091 0.02 90.0 2010-03-18T05:26:59.912Z
20100318 0527.99852 25.73134 -80.16209233 0.02 270.0 2010-03-18T05:27:59.911Z
20100318 0528.99848 25.73133817 -80.1620925 0.0 0.0 2010-03-18T05:28:59.909Z
20100318 0529.99847 25.73133917 -80.16209367 0.0 0.0 2010-03-18T05:29:59.908Z
20100318 0530.99843 25.73133983 -80.1620945 0.02 180.0 2010-03-18T05:30:59.906Z
20100318 0531.99842 25.73133967 -80.16209383 0.0 0.0 2010-03-18T05:31:59.905Z
20100318 0532.99838 25.73134083 -80.16209267 0.02 180.0 2010-03-18T05:32:59.903Z
20100318 0533.99837 25.73134133 -80.16209167 0.0 0.0 2010-03-18T05:33:59.902Z
20100318 0534.99833 25.73133967 -80.1620885 0.02 180.0 2010-03-18T05:34:59.900Z
20100318 0535.99832 25.73133633 -80.16208733 0.0 0.0 2010-03-18T05:35:59.899Z
20100318 0536.99828 25.73133433 -80.16208983 0.0 0.0 2010-03-18T05:36:59.897Z
20100318 0537.99827 25.73133183 -80.16208883 0.0 0.0 2010-03-18T05:37:59.896Z
20100318 0538.99823 25.7313365 -80.162088 0.02 0.0 2010-03-18T05:38:59.894Z
20100318 0539.99822 25.73134 -80.16208817 0.02 270.0 2010-03-18T05:39:59.893Z
20100318 0540.99818 25.73133983 -80.16209 0.0 0.0 2010-03-18T05:40:59.891Z
20100318 0541.99817 25.73133917 -80.16209283 0.0 0.0 2010-03-18T05:41:59.890Z
20100318 0542.99813 25.73133983 -80.162095 0.02 90.0 2010-03-18T05:42:59.888Z
20100318 0543.99812 25.73134 -80.16209333 0.02 270.0 2010-03-18T05:43:59.887Z
20100318 0544.99808 25.73134117 -80.16209267 0.02 90.0 2010-03-18T05:44:59.885Z
20100318 0545.99807 25.73134 -80.16209333 0.0 0.0 2010-03-18T05:45:59.884Z
20100318 0546.99803 25.73133967 -80.16209283 0.0 0.0 2010-03-18T05:46:59.882Z
20100318 0547.99802 25.73134033 -80.1620945 0.02 90.0 2010-03-18T05:47:59.881Z
20100318 0548.99798 25.73134167 -80.1620955 0.02 90.0 2010-03-18T05:48:59.879Z
20100318 0549.99797 25.7313375 -80.1620965 0.0 0.0 2010-03-18T05:49:59.878Z
20100318 0550.99793 25.731332 -80.16209683 0.0 0.0 2010-03-18T05:50:59.876Z
20100318 0551.99792 25.73132983 -80.16209417 0.0 0.0 2010-03-18T05:51:59.875Z
20100318 0552.99788 25.7313285 -80.16209767 0.02 90.0 2010-03-18T05:52:59.873Z
20100318 0553.99787 25.73132733 -80.16209567 0.02 222.169 2010-03-18T05:53:59.872Z
20100318 0554.99783 25.73132933 -80.16209033 0.02 137.831 2010-03-18T05:54:59.870Z
20100318 0555.99782 25.73132667 -80.16208617 0.0 0.0 2010-03-18T05:55:59.869Z
20100318 0556.99778 25.73132583 -80.1620815 0.02 270.0 2010-03-18T05:56:59.867Z
20100318 0557.99777 25.73132567 -80.16208017 0.0 0.0 2010-03-18T05:57:59.866Z
20100318 0558.99773 25.731328 -80.162079 0.03 317.831 2010-03-18T05:58:59.864Z
20100318 0559.99772 25.73132917 -80.1620795 0.02 180.0 2010-03-18T05:59:59.863Z
20100318 0600.99768 25.73133 -80.16208117 0.02 180.0 2010-03-18T06:00:59.861Z
20100318 0601.99767 25.73133317 -80.162084 0.02 0.0 2010-03-18T06:01:59.860Z
20100318 0602.99763 25.73133483 -80.16208633 0.03 223.901 2010-03-18T06:02:59.858Z
20100318 0603.99762 25.73133533 -80.16208933 0.02 0.0 2010-03-18T06:03:59.857Z
20100318 0604.99758 25.731338 -80.16209467 0.02 270.0 2010-03-18T06:04:59.855Z
20100318 0605.99755 25.73133483 -80.1620965 0.0 0.0 2010-03-18T06:05:59.853Z
20100318 0606.99753 25.7313305 -80.16209467 0.0 0.0 2010-03-18T06:06:59.852Z
20100318 0607.99750 25.73133 -80.162095 0.0 0.0 2010-03-18T06:07:59.850Z
20100318 0608.99748 25.73132967 -80.16209117 0.02 0.0 2010-03-18T06:08:59.849Z
20100318 0609.99745 25.7313315 -80.1620885 0.02 180.0 2010-03-18T06:09:59.847Z
20100318 0610.99743 25.73132967 -80.16208783 0.02 90.0 2010-03-18T06:10:59.846Z
20100318 0611.99740 25.73132767 -80.16208817 0.0 0.0 2010-03-18T06:11:59.844Z
20100318 0612.99738 25.73132633 -80.162087 0.03 136.099 2010-03-18T06:12:59.843Z
20100318 0613.99735 25.73132517 -80.16208183 0.03 139.553 2010-03-18T06:13:59.841Z
20100318 0614.99733 25.73132633 -80.16208133 0.03 317.831 2010-03-18T06:14:59.840Z
20100318 0615.99730 25.73132717 -80.16208733 0.03 222.169 2010-03-18T06:15:59.838Z
20100318 0616.99728 25.73132633 -80.16209167 0.02 222.169 2010-03-18T06:16:59.837Z
20100318 0617.99725 25.731326 -80.1620975 0.02 90.0 2010-03-18T06:17:59.835Z
20100318 0618.99723 25.7313295 -80.16210017 0.02 90.0 2010-03-18T06:18:59.834Z
20100318 0619.99720 25.73132983 -80.16209867 0.0 0.0 2010-03-18T06:19:59.832Z
20100318 0620.99718 25.73132717 -80.162095 0.03 137.831 2010-03-18T06:20:59.831Z
20100318 0621.99715 25.73132583 -80.16209483 0.02 270.0 2010-03-18T06:21:59.829Z
20100318 0622.99713 25.73132717 -80.16209733 0.0 0.0 2010-03-18T06:22:59.828Z
20100318 0623.99710 25.73133133 -80.16209933 0.0 0.0 2010-03-18T06:23:59.826Z
20100318 0624.99708 25.73133467 -80.16209883 0.02 42.169 2010-03-18T06:24:59.825Z
20100318 0625.99705 25.73133983 -80.16209783 0.02 180.0 2010-03-18T06:25:59.823Z
20100318 0626.99703 25.73134067 -80.16209533 0.02 0.0 2010-03-18T06:26:59.822Z
20100318 0627.99700 25.73134433 -80.1620925 0.02 180.0 2010-03-18T06:27:59.820Z
20100318 0628.99698 25.7313445 -80.16209233 0.0 0.0 2010-03-18T06:28:59.819Z
20100318 0629.99695 25.73134533 -80.1620905 0.02 270.0 2010-03-18T06:29:59.817Z
20100318 0630.99693 25.7313395 -80.16209167 0.03 137.831 2010-03-18T06:30:59.816Z
20100318 0631.99690 25.73133733 -80.162091 0.03 42.169 2010-03-18T06:31:59.814Z
20100318 0632.99688 25.731338 -80.16209433 0.0 0.0 2010-03-18T06:32:59.813Z
20100318 0633.99685 25.73134083 -80.16209533 0.02 0.0 2010-03-18T06:33:59.811Z
20100318 0634.99683 25.73134133 -80.16209567 0.02 0.0 2010-03-18T06:34:59.810Z
20100318 0635.99680 25.73134 -80.16209567 0.03 137.831 2010-03-18T06:35:59.808Z
20100318 0636.99678 25.73134083 -80.16209983 0.03 317.831 2010-03-18T06:36:59.807Z
20100318 0637.99675 25.731342 -80.16210283 0.0 0.0 2010-03-18T06:37:59.805Z
20100318 0638.99673 25.73134267 -80.16210033 0.02 0.0 2010-03-18T06:38:59.804Z
20100318 0639.99670 25.731344 -80.16209883 0.0 0.0 2010-03-18T06:39:59.802Z
20100318 0640.99668 25.73134717 -80.16209433 0.03 139.553 2010-03-18T06:40:59.801Z
20100318 0641.99665 25.73134417 -80.16208983 0.02 0.0 2010-03-18T06:41:59.799Z
20100318 0642.99663 25.7313445 -80.1620825 0.02 90.0 2010-03-18T06:42:59.798Z
20100318 0643.99660 25.73134383 -80.16207967 0.0 0.0 2010-03-18T06:43:59.796Z
20100318 0644.99658 25.73134467 -80.162079 0.0 0.0 2010-03-18T06:44:59.795Z
20100318 0645.99655 25.7313505 -80.16208 0.0 0.0 2010-03-18T06:45:59.793Z
20100318 0646.99653 25.73134967 -80.16207833 0.0 0.0 2010-03-18T06:46:59.792Z
20100318 0647.99650 25.73134767 -80.16208233 0.02 270.0 2010-03-18T06:47:59.790Z
20100318 0648.99648 25.73134167 -80.16208533 0.02 180.0 2010-03-18T06:48:59.789Z
20100318 0649.99645 25.731337 -80.16209133 0.02 270.0 2010-03-18T06:49:59.787Z
20100318 0650.99643 25.73133417 -80.16209483 0.03 222.169 2010-03-18T06:50:59.786Z
20100318 0651.99640 25.7313335 -80.1620995 0.02 180.0 2010-03-18T06:51:59.784Z
20100318 0652.99638 25.73133033 -80.16209933 0.0 0.0 2010-03-18T06:52:59.783Z
20100318 0653.99635 25.73133267 -80.16210317 0.02 180.0 2010-03-18T06:53:59.781Z
20100318 0654.99633 25.73133333 -80.16210367 0.02 90.0 2010-03-18T06:54:59.780Z
20100318 0655.99630 25.73133217 -80.162101 0.0 0.0 2010-03-18T06:55:59.778Z
20100318 0656.99628 25.73132833 -80.162104 0.02 180.0 2010-03-18T06:56:59.777Z
20100318 0657.99625 25.7313245 -80.16210167 0.02 90.0 2010-03-18T06:57:59.775Z
20100318 0658.99623 25.73132283 -80.16210467 0.0 0.0 2010-03-18T06:58:59.774Z
20100318 0659.99620 25.7313225 -80.16210617 0.03 220.447 2010-03-18T06:59:59.772Z
20100318 0700.99618 25.73132433 -80.16210417 0.0 0.0 2010-03-18T07:00:59.771Z
20100318 0701.99615 25.73132817 -80.16210233 0.02 42.169 2010-03-18T07:01:59.769Z
20100318 0702.99613 25.73132867 -80.1620945 0.03 43.901 2010-03-18T07:02:59.768Z
20100318 0703.99610 25.73133417 -80.16208767 0.0 0.0 2010-03-18T07:03:59.766Z
20100318 0704.99608 25.7313375 -80.1620815 0.0 0.0 2010-03-18T07:04:59.765Z
20100318 0705.99605 25.73134133 -80.16207867 0.02 90.0 2010-03-18T07:05:59.763Z
20100318 0706.99603 25.73134117 -80.16207517 0.0 0.0 2010-03-18T07:06:59.762Z
20100318 0707.99600 25.73134017 -80.1620715 0.02 90.0 2010-03-18T07:07:59.760Z
20100318 0708.99598 25.73133783 -80.162077 0.02 180.0 2010-03-18T07:08:59.759Z
20100318 0709.99595 25.73133733 -80.16208117 0.02 0.0 2010-03-18T07:09:59.757Z
20100318 0710.99593 25.73133683 -80.1620835 0.0 0.0 2010-03-18T07:10:59.756Z
20100318 0711.99590 25.7313355 -80.16208567 0.0 0.0 2010-03-18T07:11:59.754Z
20100318 0712.99588 25.73133433 -80.1620825 0.02 180.0 2010-03-18T07:12:59.753Z
20100318 0713.99585 25.73133567 -80.16208667 0.0 0.0 2010-03-18T07:13:59.751Z
20100318 0714.99583 25.73133717 -80.1620905 0.0 0.0 2010-03-18T07:14:59.750Z
20100318 0715.99580 25.73133733 -80.1620965 0.03 223.901 2010-03-18T07:15:59.748Z
20100318 0716.99578 25.73133333 -80.162101 0.0 0.0 2010-03-18T07:16:59.747Z
20100318 0717.99575 25.73132967 -80.16210133 0.0 0.0 2010-03-18T07:17:59.745Z
20100318 0718.99572 25.7313265 -80.16209717 0.02 90.0 2010-03-18T07:18:59.743Z
20100318 0719.99570 25.73132733 -80.162092 0.02 270.0 2010-03-18T07:19:59.742Z
20100318 0720.99567 25.731328 -80.16209 0.02 90.0 2010-03-18T07:20:59.740Z
20100318 0721.99565 25.73132783 -80.16208683 0.02 90.0 2010-03-18T07:21:59.739Z
20100318 0722.99562 25.73133083 -80.16208817 0.0 0.0 2010-03-18T07:22:59.737Z
20100318 0723.99560 25.73133233 -80.16209433 0.03 317.831 2010-03-18T07:23:59.736Z
20100318 0724.99557 25.73133067 -80.16209917 0.02 180.0 2010-03-18T07:24:59.734Z
20100318 0725.99555 25.731331 -80.16209983 0.02 0.0 2010-03-18T07:25:59.733Z
20100318 0726.99552 25.73133233 -80.16209733 0.02 90.0 2010-03-18T07:26:59.731Z
20100318 0727.99550 25.73133183 -80.162092 0.0 0.0 2010-03-18T07:27:59.730Z
20100318 0728.99547 25.731332 -80.16208883 0.02 90.0 2010-03-18T07:28:59.728Z
20100318 0729.99545 25.7313315 -80.16208917 0.0 0.0 2010-03-18T07:29:59.727Z
20100318 0730.99542 25.73133017 -80.1620915 0.02 90.0 2010-03-18T07:30:59.725Z
20100318 0731.99540 25.731331 -80.16209167 0.03 137.831 2010-03-18T07:31:59.724Z
20100318 0732.99537 25.73133133 -80.16209117 0.0 0.0 2010-03-18T07:32:59.722Z
20100318 0733.99535 25.731332 -80.16208933 0.03 40.447 2010-03-18T07:33:59.721Z
20100318 0734.99532 25.7313345 -80.1620885 0.02 270.0 2010-03-18T07:34:59.719Z
20100318 0735.99530 25.73133583 -80.16209133 0.02 90.0 2010-03-18T07:35:59.718Z
20100318 0736.99527 25.73133283 -80.162094 0.02 270.0 2010-03-18T07:36:59.716Z
20100318 0737.99525 25.73132933 -80.162096 0.0 0.0 2010-03-18T07:37:59.715Z
20100318 0738.99522 25.73132617 -80.16209417 0.02 90.0 2010-03-18T07:38:59.713Z
20100318 0739.99520 25.731324 -80.1620895 0.0 0.0 2010-03-18T07:39:59.712Z
20100318 0740.99517 25.73132433 -80.16208083 0.02 90.0 2010-03-18T07:40:59.710Z
20100318 0741.99515 25.7313245 -80.16207983 0.0 0.0 2010-03-18T07:41:59.709Z
20100318 0742.99512 25.7313265 -80.1620815 0.02 270.0 2010-03-18T07:42:59.707Z
20100318 0743.99510 25.7313245 -80.16208517 0.02 0.0 2010-03-18T07:43:59.706Z
20100318 0744.99507 25.731326 -80.162087 0.02 270.0 2010-03-18T07:44:59.704Z
20100318 0745.99505 25.73133117 -80.16208767 0.02 0.0 2010-03-18T07:45:59.703Z
20100318 0746.99502 25.73133683 -80.16209 0.03 317.831 2010-03-18T07:46:59.701Z
20100318 0747.99500 25.73134133 -80.162089 0.03 42.169 2010-03-18T07:47:59.700Z
20100318 0748.99497 25.73134333 -80.162094 0.02 90.0 2010-03-18T07:48:59.698Z
20100318 0749.99495 25.73134083 -80.16209333 0.02 180.0 2010-03-18T07:49:59.697Z
20100318 0750.99492 25.73133883 -80.16209 0.02 90.0 2010-03-18T07:50:59.695Z
20100318 0751.99490 25.73134183 -80.16209433 0.0 0.0 2010-03-18T07:51:59.694Z
20100318 0752.99487 25.73134383 -80.16209883 0.0 0.0 2010-03-18T07:52:59.692Z
20100318 0753.99485 25.7313435 -80.16209733 0.0 0.0 2010-03-18T07:53:59.691Z
20100318 0754.99482 25.73134233 -80.162098 0.02 0.0 2010-03-18T07:54:59.689Z
20100318 0755.99480 25.73134217 -80.16209617 0.0 0.0 2010-03-18T07:55:59.688Z
20100318 0756.99477 25.731338 -80.16209067 0.02 0.0 2010-03-18T07:56:59.686Z
20100318 0757.99475 25.73133833 -80.162088 0.03 317.831 2010-03-18T07:57:59.685Z
20100318 0758.99472 25.73134017 -80.16208983 0.0 0.0 2010-03-18T07:58:59.683Z
20100318 0759.99470 25.73134117 -80.16209133 0.02 270.0 2010-03-18T07:59:59.682Z
20100318 0800.99467 25.73133967 -80.1620905 0.02 0.0 2010-03-18T08:00:59.680Z
20100318 0801.99465 25.7313395 -80.1620905 0.0 0.0 2010-03-18T08:01:59.679Z
20100318 0802.99462 25.73133817 -80.16209317 0.02 270.0 2010-03-18T08:02:59.677Z
20100318 0803.99460 25.731338 -80.16209217 0.02 0.0 2010-03-18T08:03:59.676Z
20100318 0804.99457 25.73133583 -80.16209333 0.0 0.0 2010-03-18T08:04:59.674Z
20100318 0805.99455 25.73133433 -80.1620945 0.0 0.0 2010-03-18T08:05:59.673Z
20100318 0806.99452 25.73133683 -80.16209483 0.02 0.0 2010-03-18T08:06:59.671Z
20100318 0807.99450 25.731337 -80.16209383 0.03 139.553 2010-03-18T08:07:59.670Z
20100318 0808.99447 25.7313355 -80.16209417 0.02 270.0 2010-03-18T08:08:59.668Z
20100318 0809.99445 25.73133583 -80.16209833 0.02 90.0 2010-03-18T08:09:59.667Z
20100318 0810.99442 25.73133583 -80.1621 0.03 136.099 2010-03-18T08:10:59.665Z
20100318 0811.99440 25.73133283 -80.1621 0.03 42.169 2010-03-18T08:11:59.664Z
20100318 0812.99437 25.73133433 -80.162098 0.0 0.0 2010-03-18T08:12:59.662Z
20100318 0813.99435 25.73133367 -80.16209767 0.02 317.831 2010-03-18T08:13:59.661Z
20100318 0814.99432 25.73133483 -80.16209467 0.02 180.0 2010-03-18T08:14:59.659Z
20100318 0815.99430 25.7313325 -80.16209417 0.0 0.0 2010-03-18T08:15:59.658Z
20100318 0816.99427 25.731333 -80.16209383 0.03 139.553 2010-03-18T08:16:59.656Z
20100318 0817.99425 25.73133133 -80.16209 0.0 0.0 2010-03-18T08:17:59.655Z
20100318 0818.99422 25.73133217 -80.16208867 0.02 180.0 2010-03-18T08:18:59.653Z
20100318 0819.99420 25.7313315 -80.16208833 0.0 0.0 2010-03-18T08:19:59.652Z
20100318 0820.99417 25.73133 -80.16208633 0.02 90.0 2010-03-18T08:20:59.650Z
20100318 0821.99415 25.7313275 -80.162082 0.02 0.0 2010-03-18T08:21:59.649Z
20100318 0822.99412 25.73132617 -80.16208117 0.04 180.0 2010-03-18T08:22:59.647Z
20100318 0823.99410 25.73132467 -80.16207733 0.02 0.0 2010-03-18T08:23:59.646Z
20100318 0824.99407 25.731324 -80.16207283 0.02 90.0 2010-03-18T08:24:59.644Z
20100318 0825.99405 25.73132617 -80.1620725 0.04 119.629 2010-03-18T08:25:59.643Z
20100318 0826.99402 25.73132467 -80.16207317 0.02 270.0 2010-03-18T08:26:59.641Z
20100318 0827.99400 25.7313235 -80.16207583 0.0 0.0 2010-03-18T08:27:59.640Z
20100318 0828.99397 25.7313205 -80.16208033 0.02 270.0 2010-03-18T08:28:59.638Z
20100318 0829.99395 25.731318 -80.16208467 0.0 0.0 2010-03-18T08:29:59.637Z
20100318 0830.99392 25.73131683 -80.16208417 0.03 136.099 2010-03-18T08:30:59.635Z
20100318 0831.99388 25.73131433 -80.162082 0.02 90.0 2010-03-18T08:31:59.633Z
20100318 0832.99387 25.731316 -80.16207883 0.02 90.0 2010-03-18T08:32:59.632Z
20100318 0833.99383 25.73131567 -80.16207917 0.0 0.0 2010-03-18T08:33:59.630Z
20100318 0834.99382 25.73131733 -80.16208567 0.02 0.0 2010-03-18T08:34:59.629Z
20100318 0835.99378 25.73131633 -80.16208833 0.02 0.0 2010-03-18T08:35:59.627Z
20100318 0836.99377 25.731318 -80.16208533 0.02 0.0 2010-03-18T08:36:59.626Z
20100318 0837.99373 25.73132417 -80.16208633 0.0 0.0 2010-03-18T08:37:59.624Z
20100318 0838.99372 25.7313295 -80.16208333 0.02 90.0 2010-03-18T08:38:59.623Z
20100318 0839.99368 25.73133133 -80.1620785 0.0 0.0 2010-03-18T08:39:59.621Z
20100318 0840.99367 25.731329 -80.16206933 0.03 139.553 2010-03-18T08:40:59.620Z
20100318 0841.99363 25.73132367 -80.16206683 0.02 270.0 2010-03-18T08:41:59.618Z
20100318 0842.99362 25.731321 -80.162067 0.03 222.169 2010-03-18T08:42:59.617Z
20100318 0843.99358 25.731321 -80.16206867 0.0 0.0 2010-03-18T08:43:59.615Z
20100318 0844.99357 25.731325 -80.16207183 0.03 317.831 2010-03-18T08:44:59.614Z
20100318 0845.99353 25.7313275 -80.16207967 0.0 0.0 2010-03-18T08:45:59.612Z
20100318 0846.99352 25.7313285 -80.16208067 0.0 0.0 2010-03-18T08:46:59.611Z
20100318 0847.99348 25.731327 -80.1620825 0.0 0.0 2010-03-18T08:47:59.609Z
20100318 0848.99347 25.73132433 -80.1620835 0.02 0.0 2010-03-18T08:48:59.608Z
20100318 0849.99343 25.73132733 -80.16208517 0.0 0.0 2010-03-18T08:49:59.606Z
20100318 0850.99342 25.7313265 -80.16209 0.0 0.0 2010-03-18T08:50:59.605Z
20100318 0851.99338 25.73132583 -80.162095 0.02 270.0 2010-03-18T08:51:59.603Z
20100318 0852.99337 25.7313325 -80.16210067 0.02 0.0 2010-03-18T08:52:59.602Z
20100318 0853.99333 25.731335 -80.16210333 0.0 0.0 2010-03-18T08:53:59.600Z
20100318 0854.99332 25.73133283 -80.162099 0.02 90.0 2010-03-18T08:54:59.599Z
20100318 0855.99328 25.73133017 -80.16209533 0.0 0.0 2010-03-18T08:55:59.597Z
20100318 0856.99327 25.7313295 -80.16209133 0.02 90.0 2010-03-18T08:56:59.596Z
20100318 0857.99323 25.73132983 -80.16209183 0.02 90.0 2010-03-18T08:57:59.594Z
20100318 0858.99322 25.73133117 -80.162089 0.02 0.0 2010-03-18T08:58:59.593Z
20100318 0859.99318 25.73133383 -80.16208767 0.02 0.0 2010-03-18T08:59:59.591Z
20100318 0900.99317 25.73133467 -80.16208583 0.02 90.0 2010-03-18T09:00:59.590Z
20100318 0901.99313 25.7313395 -80.16208367 0.02 90.0 2010-03-18T09:01:59.588Z
20100318 0902.99312 25.73134267 -80.16208367 0.02 270.0 2010-03-18T09:02:59.587Z
20100318 0903.99308 25.73134317 -80.1620855 0.03 316.099 2010-03-18T09:03:59.585Z
20100318 0904.99307 25.73134083 -80.16208833 0.03 223.901 2010-03-18T09:04:59.584Z
20100318 0905.99303 25.731338 -80.162091 0.0 0.0 2010-03-18T09:05:59.582Z
20100318 0906.99302 25.73133883 -80.16209217 0.0 0.0 2010-03-18T09:06:59.581Z
20100318 0907.99298 25.73133817 -80.162091 0.0 0.0 2010-03-18T09:07:59.579Z
20100318 0908.99297 25.73133733 -80.16208967 0.02 180.0 2010-03-18T09:08:59.578Z
20100318 0909.99293 25.73133317 -80.16209283 0.02 270.0 2010-03-18T09:09:59.576Z
20100318 0910.99292 25.7313295 -80.162094 0.0 0.0 2010-03-18T09:10:59.575Z
20100318 0911.99288 25.7313295 -80.16209433 0.02 270.0 2010-03-18T09:11:59.573Z
20100318 0912.99287 25.73132967 -80.16209883 0.02 270.0 2010-03-18T09:12:59.572Z
20100318 0913.99283 25.73132817 -80.16210183 0.02 270.0 2010-03-18T09:13:59.570Z
20100318 0914.99282 25.7313285 -80.162107 0.03 42.169 2010-03-18T09:14:59.569Z
20100318 0915.99278 25.7313315 -80.16210717 0.04 336.291 2010-03-18T09:15:59.567Z
20100318 0916.99277 25.73133417 -80.1621085 0.02 0.0 2010-03-18T09:16:59.566Z
20100318 0917.99273 25.73133483 -80.16211 0.02 270.0 2010-03-18T09:17:59.564Z
20100318 0918.99272 25.73133533 -80.1621075 0.04 118.16 2010-03-18T09:18:59.563Z
20100318 0919.99268 25.73133383 -80.16209733 0.02 90.0 2010-03-18T09:19:59.561Z
20100318 0920.99267 25.731335 -80.16209017 0.0 0.0 2010-03-18T09:20:59.560Z
20100318 0921.99263 25.73133583 -80.16208833 0.0 0.0 2010-03-18T09:21:59.558Z
20100318 0922.99262 25.7313335 -80.162089 0.03 137.831 2010-03-18T09:22:59.557Z
20100318 0923.99258 25.73132867 -80.16208933 0.03 139.553 2010-03-18T09:23:59.555Z
20100318 0924.99257 25.73132983 -80.162082 0.02 90.0 2010-03-18T09:24:59.554Z
20100318 0925.99253 25.731329 -80.16208267 0.02 90.0 2010-03-18T09:25:59.552Z
20100318 0926.99252 25.73132883 -80.1620825 0.02 270.0 2010-03-18T09:26:59.551Z
20100318 0927.99248 25.73132783 -80.16208533 0.02 180.0 2010-03-18T09:27:59.549Z
20100318 0928.99247 25.731327 -80.162083 0.02 0.0 2010-03-18T09:28:59.548Z
20100318 0929.99243 25.73133017 -80.16208433 0.0 0.0 2010-03-18T09:29:59.546Z
20100318 0930.99242 25.73133267 -80.16208467 0.02 270.0 2010-03-18T09:30:59.545Z
20100318 0931.99238 25.73133133 -80.16208817 0.02 222.169 2010-03-18T09:31:59.543Z
20100318 0932.99237 25.73133233 -80.16208567 0.03 136.099 2010-03-18T09:32:59.542Z
20100318 0933.99233 25.73133117 -80.16208367 0.02 180.0 2010-03-18T09:33:59.540Z
20100318 0934.99232 25.73132833 -80.1620855 0.03 317.831 2010-03-18T09:34:59.539Z
20100318 0935.99228 25.7313325 -80.162089 0.0 0.0 2010-03-18T09:35:59.537Z
20100318 0936.99227 25.73133483 -80.1620915 0.0 0.0 2010-03-18T09:36:59.536Z
20100318 0937.99223 25.73133317 -80.16209083 0.02 90.0 2010-03-18T09:37:59.534Z
20100318 0938.99222 25.73133083 -80.162087 0.0 0.0 2010-03-18T09:38:59.533Z
20100318 0939.99218 25.73133183 -80.1620885 0.03 136.099 2010-03-18T09:39:59.531Z
20100318 0940.99217 25.73133083 -80.16208983 0.0 0.0 2010-03-18T09:40:59.530Z
20100318 0941.99213 25.73133 -80.16209117 0.03 319.553 2010-03-18T09:41:59.528Z
20100318 0942.99212 25.73133033 -80.16209183 0.0 0.0 2010-03-18T09:42:59.527Z
20100318 0943.99208 25.73133167 -80.16209283 0.02 90.0 2010-03-18T09:43:59.525Z
20100318 0944.99207 25.73133283 -80.1620905 0.02 90.0 2010-03-18T09:44:59.524Z
20100318 0945.99203 25.73133083 -80.16208467 0.02 90.0 2010-03-18T09:45:59.522Z
20100318 0946.99202 25.73133367 -80.1620795 0.02 0.0 2010-03-18T09:46:59.521Z
20100318 0947.99198 25.7313345 -80.16207883 0.0 0.0 2010-03-18T09:47:59.519Z
20100318 0948.99195 25.73133267 -80.162079 0.03 222.169 2010-03-18T09:48:59.517Z
20100318 0949.99193 25.73132933 -80.16208167 0.02 0.0 2010-03-18T09:49:59.516Z
20100318 0950.99190 25.73132867 -80.16207967 0.03 90.0 2010-03-18T09:50:59.514Z
20100318 0951.99188 25.73133267 -80.16207617 0.02 0.0 2010-03-18T09:51:59.513Z
20100318 0952.99185 25.73133817 -80.16206983 0.02 0.0 2010-03-18T09:52:59.511Z
20100318 0953.99183 25.73133733 -80.16206433 0.02 90.0 2010-03-18T09:53:59.510Z
20100318 0954.99180 25.731336 -80.16206117 0.0 0.0 2010-03-18T09:54:59.508Z
20100318 0955.99178 25.73133583 -80.162064 0.02 180.0 2010-03-18T09:55:59.507Z
20100318 0956.99175 25.73133417 -80.16206983 0.02 270.0 2010-03-18T09:56:59.505Z
20100318 0957.99173 25.73133233 -80.162076 0.02 180.0 2010-03-18T09:57:59.504Z
20100318 0958.99170 25.731329 -80.16207967 0.04 299.629 2010-03-18T09:58:59.502Z
20100318 0959.99168 25.7313285 -80.16208483 0.02 0.0 2010-03-18T09:59:59.501Z
20100318 1001.00832 25.73132833 -80.16208617 0.02 90.0 2010-03-18T10:01:00.499Z
20100318 1002.00830 25.73133067 -80.16208317 0.0 0.0 2010-03-18T10:02:00.498Z
20100318 1003.00827 25.73133217 -80.16208183 0.0 0.0 2010-03-18T10:03:00.496Z
20100318 1004.00825 25.7313355 -80.16207817 0.02 270.0 2010-03-18T10:04:00.495Z
20100318 1005.00822 25.73133283 -80.16208083 0.04 205.014 2010-03-18T10:05:00.493Z
20100318 1006.00820 25.7313295 -80.16208183 0.0 0.0 2010-03-18T10:06:00.492Z
20100318 1007.00817 25.73132817 -80.1620795 0.03 43.901 2010-03-18T10:07:00.490Z
20100318 1008.00815 25.7313305 -80.162078 0.02 270.0 2010-03-18T10:08:00.489Z
20100318 1009.00812 25.73133117 -80.1620845 0.02 180.0 2010-03-18T10:09:00.487Z
20100318 1010.00810 25.731326 -80.1620895 0.0 0.0 2010-03-18T10:10:00.486Z
20100318 1011.00807 25.73132533 -80.16209483 0.0 0.0 2010-03-18T10:11:00.484Z
20100318 1012.00805 25.73132833 -80.16209567 0.0 0.0 2010-03-18T10:12:00.483Z
20100318 1013.00802 25.73133483 -80.16210117 0.02 270.0 2010-03-18T10:13:00.481Z
20100318 1014.00800 25.73134083 -80.1621035 0.02 0.0 2010-03-18T10:14:00.480Z
20100318 1015.00797 25.73134317 -80.16210117 0.02 270.0 2010-03-18T10:15:00.478Z
20100318 1016.00795 25.73134433 -80.1620995 0.03 136.099 2010-03-18T10:16:00.477Z
20100318 1017.00792 25.73134617 -80.16209967 0.02 317.831 2010-03-18T10:17:00.475Z
20100318 1018.00790 25.731344 -80.1620975 0.0 0.0 2010-03-18T10:18:00.474Z
20100318 1019.00787 25.731339 -80.162091 0.0 0.0 2010-03-18T10:19:00.472Z
20100318 1020.00785 25.73133033 -80.16208767 0.03 136.099 2010-03-18T10:20:00.471Z
20100318 1021.00782 25.73132683 -80.16208533 0.02 137.831 2010-03-18T10:21:00.469Z
20100318 1022.00780 25.731325 -80.16208733 0.0 0.0 2010-03-18T10:22:00.468Z
20100318 1023.00777 25.7313255 -80.1620895 0.0 0.0 2010-03-18T10:23:00.466Z
20100318 1024.00775 25.73132717 -80.162088 0.03 43.901 2010-03-18T10:24:00.465Z
20100318 1025.00772 25.73133167 -80.1620845 0.03 43.901 2010-03-18T10:25:00.463Z
20100318 1026.00770 25.73133817 -80.16208383 0.0 0.0 2010-03-18T10:26:00.462Z
20100318 1027.00767 25.73133817 -80.16208217 0.0 0.0 2010-03-18T10:27:00.460Z
20100318 1028.00765 25.7313395 -80.16208417 0.03 137.831 2010-03-18T10:28:00.459Z
20100318 1029.00762 25.731336 -80.162081 0.02 180.0 2010-03-18T10:29:00.457Z
20100318 1030.00760 25.7313345 -80.1620815 0.02 270.0 2010-03-18T10:30:00.456Z
20100318 1031.00757 25.73133433 -80.16208533 0.02 270.0 2010-03-18T10:31:00.454Z
20100318 1032.00755 25.731332 -80.16208767 0.02 0.0 2010-03-18T10:32:00.453Z
20100318 1033.00752 25.73133033 -80.16209167 0.03 42.169 2010-03-18T10:33:00.451Z
20100318 1034.00750 25.7313295 -80.16208833 0.0 0.0 2010-03-18T10:34:00.450Z
20100318 1035.00747 25.73132717 -80.16209217 0.02 180.0 2010-03-18T10:35:00.448Z
20100318 1036.00745 25.73132917 -80.16209067 0.02 90.0 2010-03-18T10:36:00.447Z
20100318 1037.00742 25.73133283 -80.1620865 0.03 136.099 2010-03-18T10:37:00.445Z
20100318 1038.00740 25.73133283 -80.16208633 0.0 0.0 2010-03-18T10:38:00.444Z
20100318 1039.00737 25.731335 -80.162084 0.0 0.0 2010-03-18T10:39:00.442Z
20100318 1040.00735 25.73133733 -80.162085 0.0 0.0 2010-03-18T10:40:00.441Z
20100318 1041.00732 25.73133817 -80.16208183 0.0 0.0 2010-03-18T10:41:00.439Z
20100318 1042.00730 25.731336 -80.162086 0.02 180.0 2010-03-18T10:42:00.438Z
20100318 1043.00727 25.73133383 -80.1620895 0.02 90.0 2010-03-18T10:43:00.436Z
20100318 1044.00725 25.73133267 -80.16208483 0.0 0.0 2010-03-18T10:44:00.435Z
20100318 1045.00722 25.731334 -80.162082 0.02 270.0 2010-03-18T10:45:00.433Z
20100318 1046.00720 25.7313365 -80.16208167 0.02 270.0 2010-03-18T10:46:00.432Z
20100318 1047.00717 25.73133867 -80.16208583 0.03 316.099 2010-03-18T10:47:00.430Z
20100318 1048.00715 25.73133567 -80.16208433 0.02 270.0 2010-03-18T10:48:00.429Z
20100318 1049.00712 25.7313335 -80.16209217 0.02 270.0 2010-03-18T10:49:00.427Z
20100318 1050.00710 25.73133267 -80.16209833 0.02 270.0 2010-03-18T10:50:00.426Z
20100318 1051.00707 25.73133417 -80.162102 0.0 0.0 2010-03-18T10:51:00.424Z
20100318 1052.00705 25.731336 -80.16209967 0.0 0.0 2010-03-18T10:52:00.423Z
20100318 1053.00702 25.7313375 -80.16209617 0.02 90.0 2010-03-18T10:53:00.421Z
20100318 1054.00700 25.7313385 -80.16209767 0.02 90.0 2010-03-18T10:54:00.420Z
20100318 1055.00697 25.73134067 -80.162094 0.0 0.0 2010-03-18T10:55:00.418Z
20100318 1056.00695 25.73133767 -80.16209133 0.0 0.0 2010-03-18T10:56:00.417Z
20100318 1057.00692 25.7313375 -80.16209133 0.03 90.0 2010-03-18T10:57:00.415Z
20100318 1058.00690 25.73133683 -80.16209033 0.0 0.0 2010-03-18T10:58:00.414Z
20100318 1059.00687 25.73133833 -80.16209067 0.02 180.0 2010-03-18T10:59:00.412Z
20100318 1100.00685 25.731338 -80.16209183 0.02 180.0 2010-03-18T11:00:00.411Z
20100318 1101.00682 25.73133967 -80.162088 0.04 155.635 2010-03-18T11:01:00.409Z
20100318 1102.00680 25.73134117 -80.162087 0.0 0.0 2010-03-18T11:02:00.408Z
20100318 1103.00677 25.73134183 -80.16208467 0.02 90.0 2010-03-18T11:03:00.406Z
20100318 1104.00675 25.73134317 -80.162084 0.0 0.0 2010-03-18T11:04:00.405Z
20100318 1105.00672 25.7313425 -80.162084 0.03 222.169 2010-03-18T11:05:00.403Z
20100318 1106.00670 25.7313415 -80.16208483 0.0 0.0 2010-03-18T11:06:00.402Z
20100318 1107.00667 25.73134083 -80.16208817 0.0 0.0 2010-03-18T11:07:00.400Z
20100318 1108.00665 25.73133683 -80.16208733 0.03 317.831 2010-03-18T11:08:00.399Z
20100318 1109.00662 25.73133133 -80.16208483 0.02 0.0 2010-03-18T11:09:00.397Z
20100318 1110.00660 25.73133267 -80.16208717 0.03 137.831 2010-03-18T11:10:00.396Z
20100318 1111.00657 25.7313335 -80.1620875 0.03 137.831 2010-03-18T11:11:00.394Z
20100318 1112.00653 25.73133367 -80.16208633 0.02 180.0 2010-03-18T11:12:00.392Z
20100318 1113.00652 25.7313345 -80.16208633 0.02 180.0 2010-03-18T11:13:00.391Z
20100318 1114.00648 25.73133533 -80.16208467 0.02 180.0 2010-03-18T11:14:00.389Z
20100318 1115.00647 25.73133667 -80.16208867 0.02 0.0 2010-03-18T11:15:00.388Z
20100318 1116.00643 25.7313395 -80.162093 0.02 90.0 2010-03-18T11:16:00.386Z
20100318 1117.00642 25.73134033 -80.162094 0.02 0.0 2010-03-18T11:17:00.385Z
20100318 1118.00638 25.73133967 -80.1620955 0.02 270.0 2010-03-18T11:18:00.383Z
20100318 1119.00637 25.7313405 -80.162094 0.03 42.169 2010-03-18T11:19:00.382Z
20100318 1120.00633 25.73134 -80.16209217 0.02 180.0 2010-03-18T11:20:00.380Z
20100318 1121.00632 25.73133517 -80.1620965 0.03 270.0 2010-03-18T11:21:00.379Z
20100318 1122.00628 25.73133217 -80.1620995 0.02 270.0 2010-03-18T11:22:00.377Z
20100318 1123.00627 25.73133083 -80.16210117 0.04 299.629 2010-03-18T11:23:00.376Z
20100318 1124.00623 25.73133167 -80.16210183 0.0 0.0 2010-03-18T11:24:00.374Z
20100318 1125.00622 25.73133067 -80.16210083 0.02 0.0 2010-03-18T11:25:00.373Z
20100318 1126.00618 25.731328 -80.162096 0.02 270.0 2010-03-18T11:26:00.371Z
20100318 1127.00617 25.731328 -80.16208867 0.02 90.0 2010-03-18T11:27:00.370Z
20100318 1128.00613 25.7313295 -80.16208533 0.02 0.0 2010-03-18T11:28:00.368Z
20100318 1129.00612 25.73132733 -80.162086 0.02 90.0 2010-03-18T11:29:00.367Z
20100318 1130.00608 25.731328 -80.1620855 0.0 0.0 2010-03-18T11:30:00.365Z
20100318 1131.00607 25.731329 -80.162088 0.0 0.0 2010-03-18T11:31:00.364Z
20100318 1132.00603 25.73133117 -80.16209283 0.02 90.0 2010-03-18T11:32:00.362Z
20100318 1133.00602 25.73132833 -80.16209583 0.02 270.0 2010-03-18T11:33:00.361Z
20100318 1134.00598 25.73133167 -80.1621025 0.02 0.0 2010-03-18T11:34:00.359Z
20100318 1135.00597 25.73133517 -80.1621065 0.03 316.099 2010-03-18T11:35:00.358Z
20100318 1136.00593 25.73133933 -80.162108 0.0 0.0 2010-03-18T11:36:00.356Z
20100318 1137.00592 25.7313365 -80.16210583 0.02 180.0 2010-03-18T11:37:00.355Z
20100318 1138.00588 25.73133517 -80.16210233 0.02 90.0 2010-03-18T11:38:00.353Z
20100318 1139.00587 25.73133683 -80.16209233 0.02 0.0 2010-03-18T11:39:00.352Z
20100318 1140.00583 25.7313375 -80.16209133 0.03 139.553 2010-03-18T11:40:00.350Z
20100318 1141.00582 25.73133867 -80.16208983 0.02 0.0 2010-03-18T11:41:00.349Z
20100318 1142.00578 25.7313415 -80.16209183 0.02 90.0 2010-03-18T11:42:00.347Z
20100318 1143.00577 25.7313405 -80.162097 0.03 270.0 2010-03-18T11:43:00.346Z
20100318 1144.00573 25.73134167 -80.16210483 0.02 270.0 2010-03-18T11:44:00.344Z
20100318 1145.00572 25.7313395 -80.1621085 0.0 0.0 2010-03-18T11:45:00.343Z
20100318 1146.00568 25.73133767 -80.16210617 0.02 90.0 2010-03-18T11:46:00.341Z
20100318 1147.00567 25.73133633 -80.16210183 0.02 0.0 2010-03-18T11:47:00.340Z
20100318 1148.00563 25.731343 -80.16210383 0.02 0.0 2010-03-18T11:48:00.338Z
20100318 1149.00562 25.73134083 -80.16209917 0.04 117.454 2010-03-18T11:49:00.337Z
20100318 1150.00558 25.73133717 -80.16209217 0.03 137.831 2010-03-18T11:50:00.335Z
20100318 1151.00557 25.73133267 -80.162089 0.03 137.831 2010-03-18T11:51:00.334Z
20100318 1152.00553 25.731327 -80.16209183 0.02 180.0 2010-03-18T11:52:00.332Z
20100318 1153.00552 25.73132917 -80.1620925 0.0 0.0 2010-03-18T11:53:00.331Z
20100318 1154.00548 25.73132883 -80.16209217 0.0 0.0 2010-03-18T11:54:00.329Z
20100318 1155.00547 25.73132467 -80.16209017 0.02 0.0 2010-03-18T11:55:00.328Z
20100318 1156.00543 25.73132333 -80.162087 0.02 270.0 2010-03-18T11:56:00.326Z
20100318 1157.00542 25.73132233 -80.1620905 0.04 299.629 2010-03-18T11:57:00.325Z
20100318 1158.00538 25.731322 -80.16209333 0.02 0.0 2010-03-18T11:58:00.323Z
20100318 1159.00537 25.7313245 -80.16209617 0.02 270.0 2010-03-18T11:59:00.322Z
20100318 1200.00533 25.73132683 -80.16209883 0.03 317.831 2010-03-18T12:00:00.320Z
20100318 1201.00532 25.73132633 -80.16210067 0.02 222.169 2010-03-18T12:01:00.319Z
20100318 1202.00528 25.731327 -80.16209683 0.02 90.0 2010-03-18T12:02:00.317Z
20100318 1203.00527 25.7313295 -80.16209483 0.03 222.169 2010-03-18T12:03:00.316Z
20100318 1204.00523 25.731331 -80.16209567 0.0 0.0 2010-03-18T12:04:00.314Z
20100318 1205.00522 25.7313325 -80.162099 0.0 0.0 2010-03-18T12:05:00.313Z
20100318 1206.00518 25.73133267 -80.16209833 0.02 270.0 2010-03-18T12:06:00.311Z
20100318 1207.00517 25.73133167 -80.16209817 0.03 220.447 2010-03-18T12:07:00.310Z
20100318 1208.00513 25.73132983 -80.16210183 0.02 270.0 2010-03-18T12:08:00.308Z
20100318 1209.00512 25.73133167 -80.1621055 0.0 0.0 2010-03-18T12:09:00.307Z
20100318 1210.00508 25.73133217 -80.16210417 0.0 0.0 2010-03-18T12:10:00.305Z
20100318 1211.00507 25.73133033 -80.162103 0.02 270.0 2010-03-18T12:11:00.304Z
20100318 1212.00503 25.73133417 -80.16210733 0.03 222.169 2010-03-18T12:12:00.302Z
20100318 1213.00502 25.7313385 -80.16210567 0.0 0.0 2010-03-18T12:13:00.301Z
20100318 1214.00498 25.73133683 -80.162101 0.02 180.0 2010-03-18T12:14:00.299Z
20100318 1215.00497 25.7313355 -80.1621005 0.0 0.0 2010-03-18T12:15:00.298Z
20100318 1216.00493 25.731334 -80.16210283 0.03 40.447 2010-03-18T12:16:00.296Z
20100318 1217.00492 25.731334 -80.16210267 0.02 270.0 2010-03-18T12:17:00.295Z
20100318 1218.00488 25.73133417 -80.16210283 0.0 0.0 2010-03-18T12:18:00.293Z
20100318 1219.00487 25.73133567 -80.16210033 0.02 180.0 2010-03-18T12:19:00.292Z
20100318 1220.00483 25.73133967 -80.162101 0.03 316.099 2010-03-18T12:20:00.290Z
20100318 1221.00482 25.73133967 -80.162103 0.02 180.0 2010-03-18T12:21:00.289Z
20100318 1222.00478 25.73133817 -80.16210017 0.02 0.0 2010-03-18T12:22:00.287Z
20100318 1223.00477 25.73133633 -80.162097 0.02 180.0 2010-03-18T12:23:00.286Z
20100318 1224.00473 25.731333 -80.162095 0.03 222.169 2010-03-18T12:24:00.284Z
20100318 1225.00472 25.73133017 -80.1620955 0.02 270.0 2010-03-18T12:25:00.283Z
20100318 1226.00468 25.73132833 -80.16209767 0.0 0.0 2010-03-18T12:26:00.281Z
20100318 1227.00467 25.73133083 -80.162095 0.02 90.0 2010-03-18T12:27:00.280Z
20100318 1228.00463 25.73133167 -80.1620965 0.02 180.0 2010-03-18T12:28:00.278Z
20100318 1229.00462 25.73132767 -80.162099 0.02 90.0 2010-03-18T12:29:00.277Z
20100318 1230.00458 25.73132517 -80.16210117 0.0 0.0 2010-03-18T12:30:00.275Z
20100318 1231.00457 25.73132183 -80.16210367 0.0 0.0 2010-03-18T12:31:00.274Z
20100318 1232.00453 25.7313245 -80.1621045 0.03 270.0 2010-03-18T12:32:00.272Z
20100318 1233.00452 25.7313285 -80.1620995 0.02 270.0 2010-03-18T12:33:00.271Z
20100318 1234.00448 25.73128833 -80.16211033 0.23 108.642 2010-03-18T12:34:00.269Z
20100318 1235.00447 25.73123633 -80.16208733 0.29 145.158 2010-03-18T12:35:00.268Z
20100318 1236.00443 25.73111717 -80.161717 0.69 96.181 2010-03-18T12:36:00.266Z
20100318 1237.00442 25.730844 -80.16175217 2.45 174.895 2010-03-18T12:37:00.265Z
20100318 1238.00438 25.729309 -80.16097017 2.25 155.821 2010-03-18T12:38:00.263Z
20100318 1239.00435 25.7278315 -80.16076533 3.39 191.669 2010-03-18T12:39:00.261Z
20100318 1240.00433 25.72609267 -80.161587 3.51 214.868 2010-03-18T12:40:00.260Z
20100318 1241.00430 25.7246875 -80.162915 3.39 222.171 2010-03-18T12:41:00.258Z
20100318 1242.00428 25.72333267 -80.16424933 3.3 220.878 2010-03-18T12:42:00.257Z
20100318 1243.00425 25.72198067 -80.16552917 3.24 220.631 2010-03-18T12:43:00.255Z
20100318 1244.00423 25.72072483 -80.16683817 3.19 223.733 2010-03-18T12:44:00.254Z
20100318 1245.00420 25.7195245 -80.16815117 3.14 226.018 2010-03-18T12:45:00.252Z
20100318 1246.00418 25.71833167 -80.16951983 3.24 225.028 2010-03-18T12:46:00.251Z
20100318 1247.00415 25.71712467 -80.17091483 3.27 228.697 2010-03-18T12:47:00.249Z
20100318 1248.00413 25.7160655 -80.17251017 3.34 240.129 2010-03-18T12:48:00.248Z
20100318 1249.00410 25.71520233 -80.17424917 3.32 241.807 2010-03-18T12:49:00.246Z
20100318 1250.00408 25.71445067 -80.17606017 3.37 248.815 2010-03-18T12:50:00.245Z
20100318 1251.00405 25.71390467 -80.17794517 3.29 256.036 2010-03-18T12:51:00.243Z
20100318 1252.00403 25.71356217 -80.17986933 3.19 262.021 2010-03-18T12:52:00.242Z
20100318 1253.00400 25.71309233 -80.18165667 3.1 242.751 2010-03-18T12:53:00.240Z
20100318 1254.00398 25.71215167 -80.18325317 3.23 237.073 2010-03-18T12:54:00.239Z
20100318 1255.00395 25.711184 -80.18487717 3.27 236.428 2010-03-18T12:55:00.237Z
20100318 1256.00393 25.71017967 -80.18642617 3.1 226.288 2010-03-18T12:56:00.236Z
20100318 1257.00390 25.70885967 -80.18756867 2.95 206.569 2010-03-18T12:57:00.234Z
20100318 1258.00388 25.70725 -80.18801433 3.18 190.922 2010-03-18T12:58:00.233Z
20100318 1259.00385 25.7055515 -80.18834383 3.12 190.208 2010-03-18T12:59:00.231Z
20100318 1300.00383 25.7038885 -80.18864283 3.15 189.497 2010-03-18T13:00:00.230Z
20100318 1301.00380 25.70222 -80.18892683 3.11 187.419 2010-03-18T13:01:00.228Z
20100318 1302.00378 25.70056117 -80.18917933 3.07 187.507 2010-03-18T13:02:00.227Z
20100318 1303.00375 25.698911 -80.18943417 3.06 188.485 2010-03-18T13:03:00.225Z
20100318 1304.00373 25.69726883 -80.18969667 3.12 188.335 2010-03-18T13:04:00.224Z
20100318 1305.00370 25.69564483 -80.1899765 2.99 189.018 2010-03-18T13:05:00.222Z
20100318 1306.00368 25.69403517 -80.19025217 3.06 188.779 2010-03-18T13:06:00.221Z
20100318 1307.00365 25.69242083 -80.19052667 3.01 189.584 2010-03-18T13:07:00.219Z
20100318 1308.00363 25.69080367 -80.19080633 3.05 189.169 2010-03-18T13:08:00.218Z
20100318 1309.00360 25.689186 -80.19108433 3.02 188.588 2010-03-18T13:09:00.216Z
20100318 1310.00358 25.68759133 -80.1913565 2.97 189.072 2010-03-18T13:10:00.215Z
20100318 1311.00355 25.68600433 -80.19166017 3.02 190.523 2010-03-18T13:11:00.213Z
20100318 1312.00353 25.6844215 -80.19200067 3.0 191.594 2010-03-18T13:12:00.212Z
20100318 1313.00350 25.68283233 -80.19236317 3.01 190.889 2010-03-18T13:13:00.210Z
20100318 1314.00348 25.681231 -80.1927005 3.09 189.356 2010-03-18T13:14:00.209Z
20100318 1315.00345 25.67960417 -80.19300733 3.07 189.41 2010-03-18T13:15:00.207Z
20100318 1316.00343 25.677986 -80.193322 3.05 189.783 2010-03-18T13:16:00.206Z
20100318 1317.00340 25.67634617 -80.193606 3.05 188.853 2010-03-18T13:17:00.204Z
20100318 1318.00338 25.67469833 -80.19389633 3.1 189.303 2010-03-18T13:18:00.203Z
20100318 1319.00335 25.6730625 -80.19407983 3.02 184.14 2010-03-18T13:19:00.201Z
20100318 1320.00333 25.671442 -80.19414733 3.01 180.0 2010-03-18T13:20:00.200Z
20100318 1321.00330 25.6698015 -80.19410483 3.03 177.153 2010-03-18T13:21:00.198Z
20100318 1322.00328 25.6681685 -80.19391467 3.04 172.082 2010-03-18T13:22:00.197Z
20100318 1323.00325 25.66656867 -80.193631 2.99 169.026 2010-03-18T13:23:00.195Z
20100318 1324.00323 25.6649855 -80.19321933 2.96 163.929 2010-03-18T13:24:00.194Z
20100318 1325.00320 25.66347083 -80.19261133 3.01 156.788 2010-03-18T13:25:00.192Z
20100318 1326.00318 25.6620145 -80.1918265 3.03 154.472 2010-03-18T13:26:00.191Z
20100318 1327.00315 25.6605525 -80.1910225 3.04 153.175 2010-03-18T13:27:00.189Z
20100318 1328.00313 25.6590695 -80.19017533 3.05 152.189 2010-03-18T13:28:00.188Z
20100318 1329.00310 25.65775783 -80.18918983 2.71 132.83 2010-03-18T13:29:00.186Z
20100318 1330.00308 25.65679517 -80.1878005 3.05 120.551 2010-03-18T13:30:00.185Z
20100318 1331.00305 25.6560265 -80.1862185 2.96 117.944 2010-03-18T13:31:00.183Z
20100318 1332.00303 25.65526517 -80.18454567 3.27 113.643 2010-03-18T13:32:00.182Z
20100318 1333.00300 25.65455533 -80.182754 3.25 113.441 2010-03-18T13:33:00.180Z
20100318 1334.00298 25.65387933 -80.18090583 3.45 107.11 2010-03-18T13:34:00.179Z
20100318 1335.00295 25.65356567 -80.17885733 3.5 96.357 2010-03-18T13:35:00.177Z
20100318 1336.00293 25.6533485 -80.17677333 3.45 93.366 2010-03-18T13:36:00.176Z
20100318 1337.00290 25.65331933 -80.17468167 3.5 88.785 2010-03-18T13:37:00.174Z
20100318 1338.00288 25.65337883 -80.17259667 3.5 87.878 2010-03-18T13:38:00.173Z
20100318 1339.00285 25.65337167 -80.17049317 3.47 92.143 2010-03-18T13:39:00.171Z
20100318 1340.00283 25.653358 -80.16838833 3.5 88.784 2010-03-18T13:40:00.170Z
20100318 1341.00280 25.65337583 -80.16628983 3.45 89.374 2010-03-18T13:41:00.168Z
20100318 1342.00278 25.65341 -80.16421883 3.45 89.687 2010-03-18T13:42:00.167Z
20100318 1343.00275 25.6534425 -80.16216817 3.38 90.62 2010-03-18T13:43:00.165Z
20100318 1344.00273 25.65346567 -80.16011433 3.55 90.608 2010-03-18T13:44:00.164Z
20100318 1345.00270 25.65349533 -80.15800533 3.51 89.693 2010-03-18T13:45:00.162Z
20100318 1346.00268 25.653554 -80.15591033 3.51 89.693 2010-03-18T13:46:00.161Z
20100318 1347.00265 25.65334383 -80.15382033 3.56 98.657 2010-03-18T13:47:00.159Z
20100318 1348.00263 25.653117 -80.1517155 3.57 96.82 2010-03-18T13:48:00.158Z
20100318 1349.00260 25.65285617 -80.149587 3.65 99.612 2010-03-18T13:49:00.156Z
20100318 1350.00258 25.65242833 -80.147467 3.61 100.889 2010-03-18T13:50:00.155Z
20100318 1351.00255 25.65195867 -80.14536183 3.68 102.45 2010-03-18T13:51:00.153Z
20100318 1352.00253 25.65116383 -80.1433685 3.63 114.292 2010-03-18T13:52:00.152Z
20100318 1353.00250 25.65017 -80.14146233 3.68 119.14 2010-03-18T13:53:00.150Z
20100318 1354.00248 25.6491855 -80.13959617 3.61 121.447 2010-03-18T13:54:00.149Z
20100318 1355.00245 25.64817033 -80.1377145 3.71 120.508 2010-03-18T13:55:00.147Z
20100318 1356.00243 25.6471495 -80.13582017 3.7 120.634 2010-03-18T13:56:00.146Z
20100318 1357.00240 25.64608533 -80.13386117 3.85 119.589 2010-03-18T13:57:00.144Z
20100318 1358.00238 25.64511167 -80.13177683 4.04 116.933 2010-03-18T13:58:00.143Z
20100318 1359.00235 25.644147 -80.1293845 4.64 110.263 2010-03-18T13:59:00.141Z
20100318 1400.00233 25.64340967 -80.12670517 4.81 101.968 2010-03-18T14:00:00.140Z
20100318 1401.00230 25.6432325 -80.12387533 4.86 84.543 2010-03-18T14:01:00.138Z
20100318 1402.00228 25.64338667 -80.1210025 4.75 88.892 2010-03-18T14:02:00.137Z
20100318 1403.00225 25.64356117 -80.11814067 4.82 88.473 2010-03-18T14:03:00.135Z
20100318 1404.00223 25.64372183 -80.11528267 4.84 84.304 2010-03-18T14:04:00.134Z
20100318 1405.00220 25.643883 -80.11241717 4.87 85.212 2010-03-18T14:05:00.132Z
20100318 1406.00218 25.64399567 -80.10957817 4.73 86.642 2010-03-18T14:06:00.131Z
20100318 1407.00215 25.64412783 -80.10672833 4.79 87.124 2010-03-18T14:07:00.129Z
20100318 1408.00213 25.64424317 -80.10387633 4.76 87.331 2010-03-18T14:08:00.128Z
20100318 1409.00210 25.64435883 -80.101058 4.82 89.118 2010-03-18T14:09:00.126Z
20100318 1410.00208 25.64448017 -80.09820667 4.8 89.128 2010-03-18T14:10:00.125Z
20100318 1411.00205 25.64456733 -80.09534733 4.88 86.304 2010-03-18T14:11:00.123Z
20100318 1412.00203 25.64465317 -80.09245967 4.77 87.566 2010-03-18T14:12:00.122Z
20100318 1413.00200 25.644748 -80.089585 4.82 88.249 2010-03-18T14:13:00.120Z
20100318 1414.00198 25.64502033 -80.086701 4.87 85.64 2010-03-18T14:14:00.119Z
20100318 1415.00195 25.64531017 -80.08380983 4.86 84.986 2010-03-18T14:15:00.117Z
20100318 1416.00193 25.64564233 -80.080899 4.91 83.074 2010-03-18T14:16:00.116Z
20100318 1417.00190 25.64601367 -80.07799817 4.89 82.845 2010-03-18T14:17:00.114Z
20100318 1418.00188 25.6464635 -80.0751005 4.93 80.069 2010-03-18T14:18:00.113Z
20100318 1419.00185 25.646941 -80.0722045 4.98 79.094 2010-03-18T14:19:00.111Z
20100318 1420.00183 25.6474415 -80.0692845 4.98 80.83 2010-03-18T14:20:00.110Z
20100318 1421.00180 25.64808283 -80.06637667 5.04 77.311 2010-03-18T14:21:00.108Z
20100318 1422.00178 25.64844217 -80.06344183 5.02 82.182 2010-03-18T14:22:00.107Z
20100318 1423.00175 25.64875683 -80.06051783 4.98 83.619 2010-03-18T14:23:00.105Z
20100318 1424.00173 25.64903783 -80.05759067 4.99 81.488 2010-03-18T14:24:00.104Z
20100318 1425.00170 25.6493785 -80.0546695 5.04 82.645 2010-03-18T14:25:00.102Z
20100318 1426.00168 25.64975383 -80.05176133 4.87 81.709 2010-03-18T14:26:00.101Z
20100318 1427.00165 25.64997567 -80.04885133 4.87 83.038 2010-03-18T14:27:00.099Z
20100318 1428.00163 25.65021917 -80.04592183 4.88 86.096 2010-03-18T14:28:00.098Z
20100318 1429.00160 25.65044817 -80.04298233 5.1 85.641 2010-03-18T14:29:00.096Z
20100318 1430.00158 25.65065233 -80.040038 4.88 82.175 2010-03-18T14:30:00.095Z
20100318 1431.00155 25.65084733 -80.03710783 4.96 86.161 2010-03-18T14:31:00.093Z
20100318 1432.00153 25.65103433 -80.034159 4.85 87.377 2010-03-18T14:32:00.092Z
20100318 1433.00150 25.65122683 -80.03120783 4.83 84.283 2010-03-18T14:33:00.090Z
20100318 1434.00148 25.65140517 -80.028285 4.85 84.316 2010-03-18T14:34:00.089Z
20100318 1435.00145 25.65158817 -80.0253805 4.86 84.115 2010-03-18T14:35:00.087Z
20100318 1436.00143 25.6517675 -80.022507 4.77 86.226 2010-03-18T14:36:00.086Z
20100318 1437.00140 25.65195367 -80.019653 4.9 85.903 2010-03-18T14:37:00.084Z
20100318 1438.00137 25.65213583 -80.01679217 4.78 83.788 2010-03-18T14:38:00.082Z
20100318 1439.00135 25.6523315 -80.0139455 4.7 85.499 2010-03-18T14:39:00.081Z
20100318 1440.00132 25.65252617 -80.01111533 4.75 85.985 2010-03-18T14:40:00.079Z
20100318 1441.00130 25.65271733 -80.00828983 4.94 82.916 2010-03-18T14:41:00.078Z
20100318 1442.00127 25.65291467 -80.00543333 4.62 87.487 2010-03-18T14:42:00.076Z
20100318 1443.00125 25.653131 -80.002583 4.8 86.253 2010-03-18T14:43:00.075Z
20100318 1444.00122 25.65330183 -79.99973767 4.75 89.105 2010-03-18T14:44:00.073Z
20100318 1445.00120 25.65348167 -79.99688917 4.73 86.199 2010-03-18T14:45:00.072Z
20100318 1446.00117 25.653655 -79.99404417 4.77 89.108 2010-03-18T14:46:00.070Z
20100318 1447.00115 25.6538255 -79.99117 4.88 82.82 2010-03-18T14:47:00.069Z
20100318 1448.00112 25.65401267 -79.9882895 4.87 83.04 2010-03-18T14:48:00.067Z
20100318 1449.00110 25.65421817 -79.98541767 4.78 84.462 2010-03-18T14:49:00.066Z
20100318 1450.00107 25.65442367 -79.98255033 4.85 86.068 2010-03-18T14:50:00.064Z
20100318 1451.00105 25.6546225 -79.979667 4.82 85.161 2010-03-18T14:51:00.063Z
20100318 1452.00102 25.654838 -79.97677233 4.89 90.0 2010-03-18T14:52:00.061Z
20100318 1453.00100 25.65502367 -79.973882 4.79 84.916 2010-03-18T14:53:00.060Z
20100318 1454.00097 25.655248 -79.97097417 5.02 83.662 2010-03-18T14:54:00.058Z
20100318 1455.00095 25.65546433 -79.968039 4.91 86.548 2010-03-18T14:55:00.057Z
20100318 1456.00092 25.65569133 -79.965093 5.04 84.743 2010-03-18T14:56:00.055Z
20100318 1457.00090 25.6559425 -79.962161 4.82 83.399 2010-03-18T14:57:00.054Z
20100318 1458.00087 25.65631233 -79.95928417 4.87 84.783 2010-03-18T14:58:00.052Z
20100318 1459.00085 25.65672267 -79.95644683 4.7 79.138 2010-03-18T14:59:00.051Z
20100318 1500.00082 25.65711217 -79.95362467 4.49 87.878 2010-03-18T15:00:00.049Z
20100318 1501.00080 25.65719833 -79.9509005 4.62 83.331 2010-03-18T15:01:00.048Z
20100318 1502.00077 25.65731767 -79.94812817 4.58 87.002 2010-03-18T15:02:00.046Z
20100318 1503.00075 25.65744567 -79.94534933 4.66 83.644 2010-03-18T15:03:00.045Z
20100318 1504.00072 25.65762433 -79.94257783 4.75 85.532 2010-03-18T15:04:00.043Z
20100318 1505.00070 25.65781983 -79.939802 4.75 86.199 2010-03-18T15:05:00.042Z
20100318 1506.00067 25.65803417 -79.937053 4.57 83.271 2010-03-18T15:06:00.040Z
20100318 1507.00065 25.6582865 -79.93425467 4.62 82.88 2010-03-18T15:07:00.039Z
20100318 1508.00062 25.65856483 -79.93146483 4.66 79.728 2010-03-18T15:08:00.037Z
20100318 1509.00060 25.65884067 -79.9287045 4.48 81.714 2010-03-18T15:09:00.036Z
20100318 1510.00057 25.65912583 -79.92591717 4.65 81.998 2010-03-18T15:10:00.034Z
20100318 1511.00055 25.65940517 -79.92312117 4.71 80.064 2010-03-18T15:11:00.033Z
20100318 1512.00052 25.65969683 -79.92031583 4.48 86.212 2010-03-18T15:12:00.031Z
20100318 1513.00050 25.6599805 -79.9175455 4.65 78.311 2010-03-18T15:13:00.030Z
20100318 1514.00047 25.660257 -79.91476333 4.84 84.969 2010-03-18T15:14:00.028Z
20100318 1515.00045 25.66053633 -79.9119925 4.51 84.119 2010-03-18T15:15:00.027Z
20100318 1516.00042 25.66082683 -79.90920317 4.46 85.958 2010-03-18T15:16:00.025Z
20100318 1517.00040 25.66113283 -79.90642067 4.74 83.056 2010-03-18T15:17:00.024Z
20100318 1518.00037 25.66142083 -79.90361783 4.76 83.764 2010-03-18T15:18:00.022Z
20100318 1519.00035 25.66170317 -79.90078967 4.82 81.414 2010-03-18T15:19:00.021Z
20100318 1520.00032 25.66201533 -79.89793683 4.63 80.366 2010-03-18T15:20:00.019Z
20100318 1521.00030 25.662297 -79.89509683 4.82 85.607 2010-03-18T15:21:00.018Z
20100318 1522.00027 25.66257233 -79.8922505 4.97 80.797 2010-03-18T15:22:00.016Z
20100318 1523.00025 25.66282667 -79.8893735 4.79 84.48 2010-03-18T15:23:00.015Z
20100318 1524.00022 25.66311167 -79.8865085 4.87 85.431 2010-03-18T15:24:00.013Z
20100318 1525.00020 25.6633515 -79.88363733 4.98 84.252 2010-03-18T15:25:00.012Z
20100318 1526.00017 25.66362017 -79.88075683 4.59 86.088 2010-03-18T15:26:00.010Z
20100318 1527.00015 25.66387067 -79.87790567 4.63 83.818 2010-03-18T15:27:00.009Z
20100318 1528.00012 25.66411933 -79.8750215 4.73 86.413 2010-03-18T15:28:00.007Z
20100318 1529.00010 25.664374 -79.87210133 5.12 91.239 2010-03-18T15:29:00.006Z
20100318 1530.00007 25.66463933 -79.86925333 5.05 86.224 2010-03-18T15:30:00.004Z
20100318 1531.00005 25.66494683 -79.866441 5.17 85.697 2010-03-18T15:31:00.003Z
20100318 1532.00002 25.66521467 -79.86360633 4.79 86.912 2010-03-18T15:32:00.001Z
20100318 1533.00000 25.66549633 -79.86078533 4.63 86.335 2010-03-18T15:33:00.000Z
20100318 1533.99997 25.665767 -79.85798467 4.86 86.956 2010-03-18T15:33:59.998Z
20100318 1534.99995 25.66603183 -79.85515933 4.58 85.369 2010-03-18T15:34:59.997Z
20100318 1535.99992 25.6662995 -79.85229333 5.01 81.514 2010-03-18T15:35:59.995Z
20100318 1536.99990 25.6665545 -79.849412 4.82 80.302 2010-03-18T15:36:59.994Z
20100318 1537.99987 25.666839 -79.846528 5.06 91.884 2010-03-18T15:37:59.992Z
20100318 1538.99985 25.66707983 -79.84366083 4.81 86.91 2010-03-18T15:38:59.991Z
20100318 1539.99982 25.66734867 -79.84078867 4.86 83.907 2010-03-18T15:39:59.989Z
20100318 1540.99980 25.667612 -79.8379325 4.93 86.559 2010-03-18T15:40:59.988Z
20100318 1541.99977 25.66784533 -79.83507933 4.88 81.064 2010-03-18T15:41:59.986Z
20100318 1542.99975 25.66809433 -79.83219367 4.9 83.291 2010-03-18T15:42:59.985Z
20100318 1543.99972 25.668331 -79.82929183 4.84 82.548 2010-03-18T15:43:59.983Z
20100318 1544.99970 25.66857067 -79.82643617 5.1 83.765 2010-03-18T15:44:59.982Z
20100318 1545.99967 25.66878117 -79.82355317 4.88 85.447 2010-03-18T15:45:59.980Z
20100318 1546.99965 25.66900817 -79.82066717 4.87 85.653 2010-03-18T15:46:59.979Z
20100318 1547.99962 25.66921117 -79.8177575 4.58 85.148 2010-03-18T15:47:59.977Z
20100318 1548.99958 25.66941933 -79.81485 4.97 85.091 2010-03-18T15:48:59.975Z
20100318 1549.99957 25.66961017 -79.81193633 4.86 87.177 2010-03-18T15:49:59.974Z
20100318 1550.99953 25.6698055 -79.80907667 4.85 89.346 2010-03-18T15:50:59.972Z
20100318 1551.99952 25.670007 -79.806217 4.6 83.086 2010-03-18T15:51:59.971Z
20100318 1552.99948 25.67020533 -79.803357 4.95 85.509 2010-03-18T15:52:59.969Z
20100318 1553.99947 25.6703825 -79.80047833 4.96 81.644 2010-03-18T15:53:59.968Z
20100318 1554.99943 25.670573 -79.79758317 5.05 85.385 2010-03-18T15:54:59.966Z
20100318 1555.99942 25.6707475 -79.79468983 4.98 82.115 2010-03-18T15:55:59.965Z
20100318 1556.99938 25.6709315 -79.79179117 5.02 85.783 2010-03-18T15:56:59.963Z
20100318 1557.99937 25.67108 -79.78889683 4.75 84.879 2010-03-18T15:57:59.962Z
20100318 1558.99933 25.67122217 -79.78594317 5.05 83.291 2010-03-18T15:58:59.960Z
20100318 1559.99932 25.6713855 -79.7830335 4.6 88.166 2010-03-18T15:59:59.959Z
20100318 1600.99928 25.67157583 -79.780108 4.79 88.449 2010-03-18T16:00:59.957Z
20100318 1601.99927 25.67170333 -79.77716883 4.91 86.547 2010-03-18T16:01:59.956Z
20100318 1602.99923 25.67186667 -79.7742595 4.8 86.252 2010-03-18T16:02:59.954Z
20100318 1603.99922 25.67202817 -79.77135167 4.83 84.519 2010-03-18T16:03:59.953Z
20100318 1604.99918 25.6722925 -79.76842133 5.15 79.684 2010-03-18T16:04:59.951Z
20100318 1605.99917 25.67252283 -79.765458 4.9 85.669 2010-03-18T16:05:59.950Z
20100318 1606.99913 25.672728 -79.7625295 4.97 91.277 2010-03-18T16:06:59.948Z
20100318 1607.99912 25.6729 -79.75959917 4.83 83.852 2010-03-18T16:07:59.947Z
20100318 1608.99908 25.67304683 -79.75666467 5.11 87.713 2010-03-18T16:08:59.945Z
20100318 1609.99907 25.673254 -79.75370017 4.82 82.966 2010-03-18T16:09:59.944Z
20100318 1610.99903 25.67346817 -79.75077567 5.15 80.084 2010-03-18T16:10:59.942Z
20100318 1611.99902 25.67366433 -79.74782033 5.04 87.053 2010-03-18T16:11:59.941Z
20100318 1612.99898 25.67385667 -79.74487133 4.93 86.996 2010-03-18T16:12:59.939Z
20100318 1613.99897 25.67404167 -79.74193833 4.74 86.652 2010-03-18T16:13:59.938Z
20100318 1614.99893 25.67423817 -79.73902183 4.81 84.498 2010-03-18T16:14:59.936Z
20100318 1615.99892 25.67442267 -79.73608933 4.78 86.464 2010-03-18T16:15:59.935Z
20100318 1616.99888 25.67462467 -79.73319533 4.79 88.674 2010-03-18T16:16:59.933Z
20100318 1617.99887 25.6748085 -79.7302855 5.06 84.347 2010-03-18T16:17:59.932Z
20100318 1618.99883 25.6750045 -79.7273075 5.16 91.847 2010-03-18T16:18:59.930Z
20100318 1619.99882 25.67517433 -79.724394 4.7 89.77 2010-03-18T16:19:59.929Z
20100318 1620.99878 25.675337 -79.72150533 5.03 78.134 2010-03-18T16:20:59.927Z
20100318 1621.99877 25.67550167 -79.7186035 5.14 84.648 2010-03-18T16:21:59.926Z
20100318 1622.99873 25.67567617 -79.7157055 5.07 90.626 2010-03-18T16:22:59.924Z
20100318 1623.99872 25.675812 -79.71276067 4.64 86.349 2010-03-18T16:23:59.923Z
20100318 1624.99868 25.67593083 -79.70978183 4.89 85.227 2010-03-18T16:24:59.921Z
20100318 1625.99867 25.6761145 -79.70682333 5.06 86.863 2010-03-18T16:25:59.920Z
20100318 1626.99863 25.67639783 -79.7038415 5.08 84.564 2010-03-18T16:26:59.918Z
20100318 1627.99862 25.6765995 -79.70084983 4.9 85.888 2010-03-18T16:27:59.917Z
20100318 1628.99858 25.67682733 -79.69786983 4.91 84.817 2010-03-18T16:28:59.915Z
20100318 1629.99857 25.67704933 -79.69486917 5.1 84.582 2010-03-18T16:29:59.914Z
20100318 1630.99853 25.6772785 -79.69189167 5.08 86.461 2010-03-18T16:30:59.912Z
20100318 1631.99850 25.6774405 -79.68888517 5.02 83.247 2010-03-18T16:31:59.910Z
20100318 1632.99848 25.67764183 -79.68593583 5.11 87.514 2010-03-18T16:32:59.909Z
20100318 1633.99845 25.67782617 -79.682942 4.86 87.176 2010-03-18T16:33:59.907Z
20100318 1634.99843 25.67807083 -79.679942 4.95 85.713 2010-03-18T16:34:59.906Z
20100318 1635.99840 25.67834183 -79.67695383 4.85 84.971 2010-03-18T16:35:59.904Z
20100318 1636.99838 25.67861867 -79.673948 5.19 81.621 2010-03-18T16:36:59.903Z
20100318 1637.99835 25.67892183 -79.67091433 5.12 84.827 2010-03-18T16:37:59.901Z
20100318 1638.99833 25.67929783 -79.6679105 4.8 85.368 2010-03-18T16:38:59.900Z
20100318 1639.99830 25.67967017 -79.66489267 5.29 78.931 2010-03-18T16:39:59.898Z
20100318 1640.99828 25.68013683 -79.66188667 5.13 80.248 2010-03-18T16:40:59.897Z
20100318 1641.99825 25.6805335 -79.65885333 4.96 77.973 2010-03-18T16:41:59.895Z
20100318 1642.99823 25.68097217 -79.65586733 4.92 82.89 2010-03-18T16:42:59.894Z
20100318 1643.99820 25.68139467 -79.65283933 5.05 77.111 2010-03-18T16:43:59.892Z
20100318 1644.99818 25.6818085 -79.64975967 5.25 77.83 2010-03-18T16:44:59.891Z
20100318 1645.99815 25.68223533 -79.64669417 5.07 80.769 2010-03-18T16:45:59.889Z
20100318 1646.99813 25.682667 -79.64367667 5.05 77.099 2010-03-18T16:46:59.888Z
20100318 1647.99810 25.68300083 -79.64062283 4.99 82.771 2010-03-18T16:47:59.886Z
20100318 1648.99808 25.68333233 -79.6375775 5.22 80.636 2010-03-18T16:48:59.885Z
20100318 1649.99805 25.68369083 -79.63457067 4.96 86.799 2010-03-18T16:49:59.883Z
20100318 1650.99803 25.68404233 -79.63154783 5.12 85.852 2010-03-18T16:50:59.882Z
20100318 1651.99800 25.68440733 -79.628505 5.14 84.844 2010-03-18T16:51:59.880Z
20100318 1652.99798 25.68472083 -79.62546733 5.22 88.177 2010-03-18T16:52:59.879Z
20100318 1653.99795 25.6850475 -79.62243233 5.14 85.053 2010-03-18T16:53:59.877Z
20100318 1654.99793 25.68536683 -79.61941183 4.9 82.199 2010-03-18T16:54:59.876Z
20100318 1655.99790 25.68571167 -79.61641133 5.06 79.919 2010-03-18T16:55:59.874Z
20100318 1656.99788 25.68604567 -79.61339217 5.32 84.019 2010-03-18T16:56:59.873Z
20100318 1657.99785 25.6863545 -79.61035667 5.12 77.514 2010-03-18T16:57:59.871Z
20100318 1658.99783 25.686679 -79.607357 5.0 81.94 2010-03-18T16:58:59.870Z
20100318 1659.99780 25.68701717 -79.60433517 4.95 83.791 2010-03-18T16:59:59.868Z
20100318 1700.99778 25.68731983 -79.60132917 5.13 86.076 2010-03-18T17:00:59.867Z
20100318 1701.99775 25.6876365 -79.59834233 4.99 85.119 2010-03-18T17:01:59.865Z
20100318 1702.99773 25.68794067 -79.59532533 5.04 87.48 2010-03-18T17:02:59.864Z
20100318 1703.99770 25.688245 -79.592323 4.95 83.154 2010-03-18T17:03:59.862Z
20100318 1704.99768 25.68854217 -79.5893115 5.26 81.725 2010-03-18T17:04:59.861Z
20100318 1705.99765 25.68884667 -79.586311 5.0 81.071 2010-03-18T17:05:59.859Z
20100318 1706.99762 25.68916467 -79.583325 4.95 82.277 2010-03-18T17:06:59.857Z
20100318 1707.99760 25.68943867 -79.580343 5.07 84.987 2010-03-18T17:07:59.856Z
20100318 1708.99757 25.68974 -79.57732533 5.14 83.19 2010-03-18T17:08:59.854Z
20100318 1709.99755 25.69000983 -79.57430817 5.27 83.962 2010-03-18T17:09:59.853Z
20100318 1710.99752 25.6902935 -79.57129417 5.05 77.963 2010-03-18T17:10:59.851Z
20100318 1711.99750 25.69060817 -79.5682795 4.66 85.695 2010-03-18T17:11:59.850Z
20100318 1712.99747 25.69090983 -79.5653195 5.17 78.872 2010-03-18T17:12:59.848Z
20100318 1713.99745 25.691265 -79.56232217 5.05 83.29 2010-03-18T17:13:59.847Z
20100318 1714.99742 25.69165567 -79.55934667 5.12 81.719 2010-03-18T17:14:59.845Z
20100318 1715.99740 25.69201867 -79.55633883 5.16 84.259 2010-03-18T17:15:59.844Z
20100318 1716.99737 25.692333 -79.55334717 5.05 78.617 2010-03-18T17:16:59.842Z
20100318 1717.99735 25.692644 -79.55034433 5.19 80.383 2010-03-18T17:17:59.841Z
20100318 1718.99732 25.69294817 -79.54729917 5.2 78.118 2010-03-18T17:18:59.839Z
20100318 1719.99730 25.693267 -79.54429533 4.79 86.687 2010-03-18T17:19:59.838Z
20100318 1720.99727 25.69360883 -79.5412715 4.64 84.518 2010-03-18T17:20:59.836Z
20100318 1721.99725 25.69393867 -79.53824583 5.18 83.864 2010-03-18T17:21:59.835Z
20100318 1722.99722 25.69426233 -79.53523033 5.29 85.193 2010-03-18T17:22:59.833Z
20100318 1723.99720 25.6945845 -79.53222033 4.96 83.811 2010-03-18T17:23:59.832Z
20100318 1724.99717 25.69488567 -79.52919583 5.09 84.594 2010-03-18T17:24:59.830Z
20100318 1725.99715 25.69521433 -79.5261365 5.23 86.756 2010-03-18T17:25:59.829Z
20100318 1726.99712 25.69551283 -79.5231005 4.95 82.277 2010-03-18T17:26:59.827Z
20100318 1727.99710 25.69580017 -79.5200955 5.23 79.014 2010-03-18T17:27:59.826Z
20100318 1728.99707 25.69611433 -79.51705733 5.3 83.595 2010-03-18T17:28:59.824Z
20100318 1729.99705 25.69638883 -79.51402617 5.44 85.128 2010-03-18T17:29:59.823Z
20100318 1730.99702 25.69667883 -79.51096633 5.3 81.992 2010-03-18T17:30:59.821Z
20100318 1731.99700 25.69694383 -79.50792383 5.06 84.545 2010-03-18T17:31:59.820Z
20100318 1732.99697 25.69720317 -79.50491783 5.06 81.187 2010-03-18T17:32:59.818Z
20100318 1733.99695 25.697472 -79.50188083 5.03 84.308 2010-03-18T17:33:59.817Z
20100318 1734.99692 25.69773567 -79.498843 5.25 83.75 2010-03-18T17:34:59.815Z
20100318 1735.99690 25.6979915 -79.49580633 4.97 87.663 2010-03-18T17:35:59.814Z
20100318 1736.99687 25.69823433 -79.4927475 5.3 85.602 2010-03-18T17:36:59.812Z
20100318 1737.99683 25.69847567 -79.48963333 5.22 85.737 2010-03-18T17:37:59.810Z
20100318 1738.99682 25.698746 -79.48655683 5.3 86.402 2010-03-18T17:38:59.809Z
20100318 1739.99678 25.698951 -79.4835235 5.12 88.141 2010-03-18T17:39:59.807Z
20100318 1740.99677 25.69918233 -79.48048717 5.02 83.446 2010-03-18T17:40:59.806Z
20100318 1741.99673 25.6993505 -79.47742267 5.27 81.13 2010-03-18T17:41:59.804Z
20100318 1742.99672 25.69957383 -79.47433117 4.99 88.091 2010-03-18T17:42:59.803Z
20100318 1743.99668 25.69977617 -79.4712765 4.89 89.142 2010-03-18T17:43:59.801Z
20100318 1744.99667 25.69995133 -79.46823517 5.06 83.922 2010-03-18T17:44:59.800Z
20100318 1745.99663 25.700114 -79.465175 5.26 87.79 2010-03-18T17:45:59.798Z
20100318 1746.99662 25.70027083 -79.4620635 5.22 88.979 2010-03-18T17:46:59.797Z
20100318 1748.01325 25.70045783 -79.45895017 5.19 84.893 2010-03-18T17:48:00.795Z
20100318 1748.99657 25.70057467 -79.45594183 5.37 82.291 2010-03-18T17:48:59.794Z
20100318 1749.99653 25.70070767 -79.4528935 5.08 83.544 2010-03-18T17:49:59.792Z
20100318 1750.99652 25.70088667 -79.4498145 5.24 85.147 2010-03-18T17:50:59.791Z
20100318 1751.99648 25.7010625 -79.44676983 5.1 83.974 2010-03-18T17:51:59.789Z
20100318 1752.99647 25.701077 -79.44372867 5.02 91.05 2010-03-18T17:52:59.788Z
20100318 1753.99643 25.70108333 -79.4407045 4.99 86.604 2010-03-18T17:53:59.786Z
20100318 1754.99642 25.7012275 -79.4376745 5.24 89.188 2010-03-18T17:54:59.785Z
20100318 1755.99638 25.70138033 -79.43463767 5.18 86.113 2010-03-18T17:55:59.783Z
20100318 1756.99637 25.701515 -79.43158367 5.16 88.153 2010-03-18T17:56:59.782Z
20100318 1757.99633 25.7016305 -79.428543 5.01 86.83 2010-03-18T17:57:59.780Z
20100318 1758.99632 25.70176067 -79.42548917 5.17 87.349 2010-03-18T17:58:59.779Z
20100318 1759.99628 25.70191917 -79.42242817 5.21 86.552 2010-03-18T17:59:59.777Z
20100318 1800.99627 25.70204667 -79.41934417 5.19 85.1 2010-03-18T18:00:59.776Z
20100318 1801.99623 25.7022005 -79.41633033 4.99 86.604 2010-03-18T18:01:59.774Z
20100318 1802.99622 25.70238417 -79.413363 5.03 80.929 2010-03-18T18:02:59.773Z
20100318 1803.99618 25.7025275 -79.4103875 5.25 88.586 2010-03-18T18:03:59.771Z
20100318 1804.99617 25.70286983 -79.40733417 5.2 83.883 2010-03-18T18:04:59.770Z
20100318 1805.99613 25.70317717 -79.40437783 5.28 82.573 2010-03-18T18:05:59.768Z
20100318 1806.99612 25.70345067 -79.40138917 4.92 85.696 2010-03-18T18:06:59.767Z
20100318 1807.99608 25.70374867 -79.39839867 4.76 87.117 2010-03-18T18:07:59.765Z
20100318 1808.99607 25.7040805 -79.395378 5.34 82.444 2010-03-18T18:08:59.764Z
20100318 1809.99603 25.704341 -79.39239 4.85 83.441 2010-03-18T18:09:59.762Z
20100318 1810.99600 25.704635 -79.38937167 5.05 85.384 2010-03-18T18:10:59.760Z
20100318 1811.99598 25.70492483 -79.3863735 5.33 86.615 2010-03-18T18:11:59.759Z
20100318 1812.99595 25.7052045 -79.3833895 5.12 88.549 2010-03-18T18:12:59.757Z
20100318 1813.99593 25.7054565 -79.3803565 4.94 83.13 2010-03-18T18:13:59.756Z
20100318 1814.99590 25.70571217 -79.37738483 4.68 89.105 2010-03-18T18:14:59.754Z
20100318 1815.99588 25.70597933 -79.37443 4.81 86.698 2010-03-18T18:15:59.753Z
20100318 1816.99585 25.70622483 -79.3714255 5.04 92.092 2010-03-18T18:16:59.751Z
20100318 1817.99583 25.70647917 -79.36843917 4.93 83.988 2010-03-18T18:17:59.750Z
20100318 1818.99580 25.7067205 -79.36545767 4.93 83.975 2010-03-18T18:18:59.748Z
20100318 1819.99578 25.70694567 -79.36252 4.97 89.796 2010-03-18T18:19:59.747Z
20100318 1820.99575 25.70715817 -79.359576 4.72 84.4 2010-03-18T18:20:59.745Z
20100318 1821.99573 25.70741033 -79.35662467 5.0 91.687 2010-03-18T18:21:59.744Z
20100318 1822.99570 25.70758233 -79.353686 5.16 86.923 2010-03-18T18:22:59.742Z
20100318 1823.99568 25.70779583 -79.35074483 4.91 85.901 2010-03-18T18:23:59.741Z
20100318 1824.99565 25.70804367 -79.34784283 4.95 82.276 2010-03-18T18:24:59.739Z
20100318 1825.99563 25.70838183 -79.34490783 4.9 82.197 2010-03-18T18:25:59.738Z
20100318 1826.99560 25.70870583 -79.34193667 5.11 80.017 2010-03-18T18:26:59.736Z
20100318 1827.99558 25.70901867 -79.3389645 4.98 82.127 2010-03-18T18:27:59.735Z
20100318 1828.99555 25.70929883 -79.33601217 4.78 78.633 2010-03-18T18:28:59.733Z
20100318 1829.99553 25.70955117 -79.33305483 4.84 84.314 2010-03-18T18:29:59.732Z
20100318 1830.99550 25.7098285 -79.33006933 4.9 84.815 2010-03-18T18:30:59.730Z
20100318 1831.99548 25.71010417 -79.32706233 5.33 83.846 2010-03-18T18:31:59.729Z
20100318 1832.99545 25.7103455 -79.32402983 4.95 80.344 2010-03-18T18:32:59.727Z
20100318 1833.99543 25.71081117 -79.32104417 5.37 82.29 2010-03-18T18:33:59.726Z
20100318 1834.99540 25.71192667 -79.31823783 5.19 62.894 2010-03-18T18:34:59.724Z
20100318 1835.99538 25.71318483 -79.31542683 5.04 65.058 2010-03-18T18:35:59.723Z
20100318 1836.99535 25.71435633 -79.312582 5.15 58.398 2010-03-18T18:36:59.721Z
20100318 1837.99533 25.715625 -79.30993483 4.58 62.622 2010-03-18T18:37:59.720Z
20100318 1838.99530 25.71634917 -79.30782333 3.63 105.921 2010-03-18T18:38:59.718Z
20100318 1839.99527 25.71507917 -79.307232 2.43 216.303 2010-03-18T18:39:59.716Z
20100318 1840.99525 25.71480983 -79.30801733 0.59 286.28 2010-03-18T18:40:59.715Z
20100318 1841.99522 25.71489783 -79.3081095 0.19 5.269 2010-03-18T18:41:59.713Z
20100318 1842.99520 25.71492633 -79.30793083 0.43 77.434 2010-03-18T18:42:59.712Z
20100318 1843.99517 25.715025 -79.30777217 0.47 90.0 2010-03-18T18:43:59.710Z
20100318 1844.99515 25.715101 -79.30759167 0.46 71.31 2010-03-18T18:44:59.709Z
20100318 1845.99512 25.71525567 -79.30756367 0.23 333.664 2010-03-18T18:45:59.707Z
20100318 1846.99510 25.71538867 -79.307711 0.4 337.802 2010-03-18T18:46:59.706Z
20100318 1847.99507 25.71545917 -79.30765733 0.25 47.86 2010-03-18T18:47:59.704Z
20100318 1848.99505 25.71556533 -79.30759567 0.29 315.443 2010-03-18T18:48:59.703Z
20100318 1849.99502 25.71563267 -79.30759267 0.1 100.629 2010-03-18T18:49:59.701Z
20100318 1850.99500 25.71569983 -79.307568 0.28 169.731 2010-03-18T18:50:59.700Z
20100318 1851.99497 25.71559683 -79.30776017 0.83 250.585 2010-03-18T18:51:59.698Z
20100318 1852.99495 25.715353 -79.3083645 1.34 242.117 2010-03-18T18:52:59.697Z
20100318 1853.99492 25.715067 -79.30895433 0.5 219.368 2010-03-18T18:53:59.695Z
20100318 1854.99490 25.71500983 -79.30893033 0.24 72.389 2010-03-18T18:54:59.694Z
20100318 1855.99487 25.71496667 -79.30872217 0.76 177.422 2010-03-18T18:55:59.692Z
20100318 1856.99485 25.714885 -79.30921833 1.15 304.115 2010-03-18T18:56:59.691Z
20100318 1857.99482 25.715392 -79.30967433 1.26 325.156 2010-03-18T18:57:59.689Z
20100318 1858.99480 25.71591883 -79.31009767 0.97 322.967 2010-03-18T18:58:59.688Z
20100318 1859.99477 25.71632817 -79.3102435 0.74 352.254 2010-03-18T18:59:59.686Z
20100318 1900.99475 25.716826 -79.310313 1.05 350.79 2010-03-18T19:00:59.685Z
20100318 1901.99472 25.71748767 -79.31062783 1.64 331.352 2010-03-18T19:01:59.683Z
20100318 1902.99470 25.71809917 -79.311182 1.52 307.463 2010-03-18T19:02:59.682Z
20100318 1903.99467 25.71865617 -79.31188583 1.56 305.412 2010-03-18T19:03:59.680Z
20100318 1904.99465 25.71923 -79.3126175 1.71 308.688 2010-03-18T19:04:59.679Z
20100318 1905.99462 25.7198435 -79.313378 1.66 314.416 2010-03-18T19:05:59.677Z
20100318 1906.99460 25.72045533 -79.314162 1.65 307.908 2010-03-18T19:06:59.676Z
20100318 1907.99457 25.72107367 -79.3149245 1.79 315.444 2010-03-18T19:07:59.674Z
20100318 1908.99455 25.72168933 -79.31561983 1.67 316.14 2010-03-18T19:08:59.673Z
20100318 1909.99452 25.72228617 -79.31630233 1.32 302.03 2010-03-18T19:09:59.671Z
20100318 1910.99448 25.722884 -79.31700133 1.79 317.829 2010-03-18T19:10:59.669Z
20100318 1911.99447 25.72348 -79.31771117 1.79 320.613 2010-03-18T19:11:59.668Z
20100318 1912.99443 25.724056 -79.31836717 1.62 316.959 2010-03-18T19:12:59.666Z
20100318 1913.99442 25.72461183 -79.319014 1.29 314.526 2010-03-18T19:13:59.665Z
20100318 1914.99438 25.7251465 -79.31959283 1.49 312.09 2010-03-18T19:14:59.663Z
20100318 1915.99437 25.72572 -79.32028 1.22 303.077 2010-03-18T19:15:59.662Z
20100318 1916.99433 25.726307 -79.3209515 1.56 312.365 2010-03-18T19:16:59.660Z
20100318 1917.99432 25.7268865 -79.3216235 1.54 308.577 2010-03-18T19:17:59.659Z
20100318 1918.99428 25.72765483 -79.32212433 1.63 355.27 2010-03-18T19:18:59.657Z
20100318 1919.99427 25.72856983 -79.32183233 1.85 28.599 2010-03-18T19:19:59.656Z
20100318 1920.99423 25.729627 -79.32137517 1.96 21.02 2010-03-18T19:20:59.654Z
20100318 1921.99422 25.7306605 -79.32100533 1.8 17.817 2010-03-18T19:21:59.653Z
20100318 1922.99418 25.731732 -79.32068683 2.24 15.152 2010-03-18T19:22:59.651Z
20100318 1923.99417 25.73278717 -79.32035917 1.95 14.46 2010-03-18T19:23:59.650Z
20100318 1924.99413 25.73380083 -79.320045 2.11 16.062 2010-03-18T19:24:59.648Z
20100318 1925.99412 25.73486317 -79.31973917 2.08 10.647 2010-03-18T19:25:59.647Z
20100318 1926.99408 25.73596633 -79.31945767 2.17 16.09 2010-03-18T19:26:59.645Z
20100318 1927.99407 25.737061 -79.31919867 2.18 7.514 2010-03-18T19:27:59.644Z
20100318 1928.99403 25.73811667 -79.31894067 1.92 7.517 2010-03-18T19:28:59.642Z
20100318 1929.99402 25.73915533 -79.31886967 1.83 3.142 2010-03-18T19:29:59.641Z
20100318 1930.99398 25.73994417 -79.31884433 1.37 3.489 2010-03-18T19:30:59.639Z
20100318 1931.99397 25.74062183 -79.3187865 1.21 11.981 2010-03-18T19:31:59.638Z
20100318 1932.99393 25.741254 -79.31861817 1.09 18.765 2010-03-18T19:32:59.636Z
20100318 1933.99392 25.74191133 -79.3183285 1.6 16.408 2010-03-18T19:33:59.635Z
20100318 1934.99388 25.74266383 -79.31810817 1.02 7.539 2010-03-18T19:34:59.633Z
20100318 1935.99387 25.74314567 -79.3180515 0.92 3.112 2010-03-18T19:35:59.632Z
20100318 1936.99383 25.74349983 -79.31818567 0.45 272.389 2010-03-18T19:36:59.630Z
20100318 1937.99382 25.7434295 -79.3184705 0.68 201.768 2010-03-18T19:37:59.629Z
20100318 1938.99378 25.74286283 -79.31883317 1.61 203.271 2010-03-18T19:38:59.627Z
20100318 1939.99377 25.74221833 -79.3193275 1.27 214.354 2010-03-18T19:39:59.626Z
20100318 1940.99373 25.74171533 -79.31958617 0.85 176.617 2010-03-18T19:40:59.624Z
20100318 1941.99370 25.741254 -79.3196165 1.29 181.467 2010-03-18T19:41:59.622Z
20100318 1942.99368 25.74063367 -79.3196765 1.05 190.063 2010-03-18T19:42:59.621Z
20100318 1943.99365 25.74000083 -79.319757 1.15 190.948 2010-03-18T19:43:59.619Z
20100318 1944.99363 25.73937083 -79.319821 1.29 182.979 2010-03-18T19:44:59.618Z
20100318 1945.99360 25.73872967 -79.3198805 0.95 188.066 2010-03-18T19:45:59.616Z
20100318 1946.99358 25.73808583 -79.31992117 0.89 181.038 2010-03-18T19:46:59.615Z
20100318 1947.99355 25.73747617 -79.319965 1.19 175.97 2010-03-18T19:47:59.613Z
20100318 1948.99353 25.73685383 -79.320015 1.06 184.524 2010-03-18T19:48:59.612Z
20100318 1949.99350 25.73623133 -79.3200935 1.5 182.574 2010-03-18T19:49:59.610Z
20100318 1950.99348 25.7356025 -79.32016633 1.25 188.486 2010-03-18T19:50:59.609Z
20100318 1951.99345 25.7345335 -79.31985467 3.9 139.645 2010-03-18T19:51:59.607Z
20100318 1952.99343 25.7330085 -79.31811433 4.38 134.433 2010-03-18T19:52:59.606Z
20100318 1953.99340 25.73109567 -79.31636617 4.76 146.063 2010-03-18T19:53:59.604Z
20100318 1954.99338 25.7292175 -79.31458 4.14 142.126 2010-03-18T19:54:59.603Z
20100318 1955.99335 25.72710533 -79.31313583 4.58 147.327 2010-03-18T19:55:59.601Z
20100318 1956.99333 25.72490033 -79.31201133 4.63 158.184 2010-03-18T19:56:59.600Z
20100318 1957.99330 25.722617 -79.31114083 4.41 160.291 2010-03-18T19:57:59.598Z
20100318 1958.99328 25.72034883 -79.31033883 4.44 158.089 2010-03-18T19:58:59.597Z
20100318 1959.99325 25.71813 -79.30933317 3.43 179.715 2010-03-18T19:59:59.595Z
20100318 2000.99323 25.71744917 -79.31012333 1.32 287.912 2010-03-18T20:00:59.594Z
20100318 2001.99320 25.71762117 -79.31046017 0.51 316.405 2010-03-18T20:01:59.592Z
20100318 2002.99318 25.7179105 -79.31054017 0.5 15.66 2010-03-18T20:02:59.591Z
20100318 2003.99315 25.7182015 -79.310388 0.53 39.418 2010-03-18T20:03:59.589Z
20100318 2004.99313 25.71833133 -79.31014267 0.58 48.323 2010-03-18T20:04:59.588Z
20100318 2005.99310 25.718453 -79.3098645 0.46 61.103 2010-03-18T20:05:59.586Z
20100318 2006.99308 25.71857367 -79.30956467 0.47 83.259 2010-03-18T20:06:59.585Z
20100318 2007.99305 25.71899517 -79.30950317 1.33 354.996 2010-03-18T20:07:59.583Z
20100318 2008.99303 25.71942033 -79.30946533 0.9 9.64 2010-03-18T20:08:59.582Z
20100318 2009.99300 25.7205805 -79.30967567 3.23 346.515 2010-03-18T20:09:59.580Z
20100318 2010.99298 25.7224715 -79.31034383 4.22 336.876 2010-03-18T20:10:59.579Z
20100318 2011.99295 25.7248145 -79.31099933 4.66 3.493 2010-03-18T20:11:59.577Z
20100318 2012.99292 25.72727633 -79.311028 4.76 355.37 2010-03-18T20:12:59.575Z
20100318 2013.99290 25.72974633 -79.311304 4.62 353.982 2010-03-18T20:13:59.574Z
20100318 2014.99287 25.73221283 -79.31136283 4.51 5.531 2010-03-18T20:14:59.572Z
20100318 2015.99285 25.734671 -79.31118 4.59 3.974 2010-03-18T20:15:59.571Z
20100318 2016.99282 25.73714317 -79.311034 4.63 4.97 2010-03-18T20:16:59.569Z
20100318 2017.99280 25.7396145 -79.31083933 4.51 359.566 2010-03-18T20:17:59.568Z
20100318 2018.99277 25.7420585 -79.31064367 4.75 21.286 2010-03-18T20:18:59.566Z
20100318 2019.99275 25.74437167 -79.309435 4.86 25.268 2010-03-18T20:19:59.565Z
20100318 2020.99272 25.74668633 -79.3083245 4.58 24.356 2010-03-18T20:20:59.563Z
20100318 2021.99270 25.74909783 -79.3076475 4.55 13.373 2010-03-18T20:21:59.562Z
20100318 2022.99267 25.75145733 -79.306627 4.69 26.683 2010-03-18T20:22:59.560Z
20100318 2023.99265 25.7536395 -79.30518133 4.58 37.343 2010-03-18T20:23:59.559Z
20100318 2024.99262 25.75558433 -79.3033685 4.6 41.7 2010-03-18T20:24:59.557Z
20100318 2025.99260 25.75752617 -79.30155383 4.71 40.201 2010-03-18T20:25:59.556Z
20100318 2026.99257 25.75944833 -79.29978133 4.65 41.393 2010-03-18T20:26:59.554Z
20100318 2027.99255 25.76135883 -79.29800267 4.55 43.407 2010-03-18T20:27:59.553Z
20100318 2028.99252 25.76330067 -79.29639417 4.59 31.122 2010-03-18T20:28:59.551Z
20100318 2029.99250 25.76531783 -79.2948495 4.52 32.682 2010-03-18T20:29:59.550Z
20100318 2030.99247 25.76735017 -79.29341033 4.41 27.832 2010-03-18T20:30:59.548Z
20100318 2031.99245 25.76942033 -79.29205567 4.35 29.488 2010-03-18T20:31:59.547Z
20100318 2032.99242 25.77160167 -79.2909035 4.45 30.257 2010-03-18T20:32:59.545Z
20100318 2033.99240 25.77377333 -79.28972733 4.32 27.883 2010-03-18T20:33:59.544Z
20100318 2034.99237 25.77599133 -79.28862283 4.58 23.682 2010-03-18T20:34:59.542Z
20100318 2035.99235 25.778219 -79.28751367 4.62 25.495 2010-03-18T20:35:59.541Z
20100318 2036.99232 25.780358 -79.286197 4.49 38.996 2010-03-18T20:36:59.539Z
20100318 2037.99230 25.78239667 -79.28466917 4.42 32.794 2010-03-18T20:37:59.538Z
20100318 2038.99227 25.78441833 -79.28314267 4.66 34.815 2010-03-18T20:38:59.536Z
20100318 2039.99225 25.78642133 -79.28155667 4.6 35.818 2010-03-18T20:39:59.535Z
20100318 2040.99222 25.788405 -79.27995467 4.67 34.225 2010-03-18T20:40:59.533Z
20100318 2041.99220 25.79039617 -79.27835067 4.58 32.976 2010-03-18T20:41:59.532Z
20100318 2042.99217 25.79241017 -79.27674367 4.35 39.38 2010-03-18T20:42:59.530Z
20100318 2043.99213 25.79439833 -79.27516383 4.39 39.229 2010-03-18T20:43:59.528Z
20100318 2044.99212 25.7964045 -79.27356383 4.59 41.531 2010-03-18T20:44:59.527Z
20100318 2045.99208 25.79833517 -79.271889 4.62 36.926 2010-03-18T20:45:59.525Z
20100318 2046.99207 25.80028133 -79.27021033 4.7 40.33 2010-03-18T20:46:59.524Z
20100318 2047.99203 25.8022225 -79.26854417 4.69 37.008 2010-03-18T20:47:59.522Z
20100318 2048.99202 25.80417267 -79.26687483 4.37 37.757 2010-03-18T20:48:59.521Z
20100318 2049.99198 25.80610267 -79.265202 4.55 37.62 2010-03-18T20:49:59.519Z
20100318 2050.99197 25.80804267 -79.26352483 4.63 39.996 2010-03-18T20:50:59.518Z
20100318 2051.99193 25.80974417 -79.26153083 4.54 44.655 2010-03-18T20:51:59.516Z
20100318 2052.99192 25.81146583 -79.25956033 4.47 47.71 2010-03-18T20:52:59.515Z
20100318 2053.99188 25.81319683 -79.25760133 4.73 47.25 2010-03-18T20:53:59.513Z
20100318 2054.99187 25.813986 -79.255038 4.66 93.861 2010-03-18T20:54:59.512Z
20100318 2055.99183 25.81374183 -79.252259 4.79 92.866 2010-03-18T20:55:59.510Z
20100318 2056.99182 25.81348533 -79.2494175 4.69 96.546 2010-03-18T20:56:59.509Z
20100318 2057.99178 25.813227 -79.24661217 4.73 97.166 2010-03-18T20:57:59.507Z
20100318 2058.99177 25.812945 -79.24383783 4.5 97.314 2010-03-18T20:58:59.506Z
20100318 2059.99173 25.81251483 -79.24106217 4.83 100.356 2010-03-18T20:59:59.504Z
20100318 2100.99172 25.81203483 -79.238282 4.62 102.232 2010-03-18T21:00:59.503Z
20100318 2101.99168 25.8115915 -79.23544217 5.05 108.777 2010-03-18T21:01:59.501Z
20100318 2102.99167 25.81035917 -79.23293633 5.11 122.368 2010-03-18T21:02:59.500Z
20100318 2104.00830 25.80904767 -79.23041033 4.58 122.964 2010-03-18T21:04:00.498Z
20100318 2105.00828 25.8084895 -79.227857 4.64 83.832 2010-03-18T21:05:00.497Z
20100318 2106.00825 25.80871467 -79.22511283 4.6 84.706 2010-03-18T21:06:00.495Z
20100318 2107.00823 25.80891867 -79.2223705 4.65 88.416 2010-03-18T21:07:00.494Z
20100318 2108.00820 25.8091195 -79.21962717 4.77 86.234 2010-03-18T21:08:00.492Z
20100318 2109.00818 25.8093475 -79.21687683 4.42 86.881 2010-03-18T21:09:00.491Z
20100318 2110.00815 25.80951467 -79.2140945 4.55 93.487 2010-03-18T21:10:00.489Z
20100318 2111.00812 25.8090355 -79.21137033 4.43 98.633 2010-03-18T21:11:00.487Z
20100318 2112.00810 25.80865967 -79.20865367 4.52 102.734 2010-03-18T21:12:00.486Z
20100318 2113.00807 25.80829167 -79.2059185 4.37 98.012 2010-03-18T21:13:00.484Z
20100318 2114.00805 25.80762633 -79.20327633 4.63 111.792 2010-03-18T21:14:00.483Z
20100318 2115.00802 25.80685183 -79.20068283 4.38 108.696 2010-03-18T21:15:00.481Z
20100318 2116.00800 25.80610783 -79.19802933 4.76 109.034 2010-03-18T21:16:00.480Z
20100318 2117.00797 25.80535983 -79.19539183 4.47 107.033 2010-03-18T21:17:00.478Z
20100318 2118.00795 25.80459917 -79.19276333 4.73 107.278 2010-03-18T21:18:00.477Z
20100318 2119.00792 25.8038435 -79.19012417 4.67 107.24 2010-03-18T21:19:00.475Z
20100318 2120.00790 25.80307267 -79.18749233 4.76 108.073 2010-03-18T21:20:00.474Z
20100318 2121.00787 25.8023185 -79.18482567 4.51 109.111 2010-03-18T21:21:00.472Z
20100318 2122.00785 25.80153967 -79.18218967 4.76 109.244 2010-03-18T21:22:00.471Z
20100318 2123.00782 25.80075533 -79.1795535 4.57 108.113 2010-03-18T21:23:00.469Z
20100318 2124.00780 25.8000255 -79.1769105 4.62 108.426 2010-03-18T21:24:00.468Z
20100318 2125.00777 25.79927983 -79.17431617 4.49 109.476 2010-03-18T21:25:00.466Z
20100318 2126.00775 25.79854633 -79.17170333 4.66 106.088 2010-03-18T21:26:00.465Z
20100318 2127.00772 25.79776517 -79.16909283 4.5 110.144 2010-03-18T21:27:00.463Z
20100318 2128.00770 25.797015 -79.16647117 4.49 105.489 2010-03-18T21:28:00.462Z
20100318 2129.00767 25.79624167 -79.16385433 4.5 109.407 2010-03-18T21:29:00.460Z
20100318 2130.00765 25.79561767 -79.16131117 4.13 82.816 2010-03-18T21:30:00.459Z
20100318 2131.00762 25.79634867 -79.1588625 4.4 68.06 2010-03-18T21:31:00.457Z
20100318 2132.00760 25.797179 -79.156345 4.56 68.622 2010-03-18T21:32:00.456Z
20100318 2133.00757 25.79798217 -79.15380317 4.59 71.73 2010-03-18T21:33:00.454Z
20100318 2134.00755 25.79877617 -79.15131367 4.46 72.677 2010-03-18T21:34:00.453Z
20100318 2135.00752 25.79950317 -79.14876833 4.55 73.279 2010-03-18T21:35:00.451Z
20100318 2136.00750 25.79987783 -79.14611683 4.39 72.871 2010-03-18T21:36:00.450Z
20100318 2137.00747 25.80061717 -79.143624 4.44 73.824 2010-03-18T21:37:00.448Z
20100318 2138.00745 25.80137417 -79.14114017 4.26 72.357 2010-03-18T21:38:00.447Z
20100318 2139.00742 25.802152 -79.1386345 4.34 69.862 2010-03-18T21:39:00.445Z
20100318 2140.00740 25.8029255 -79.13609967 4.56 68.847 2010-03-18T21:40:00.444Z
20100318 2141.00737 25.80373017 -79.13355133 4.42 73.762 2010-03-18T21:41:00.442Z
20100318 2142.00733 25.8045135 -79.13099017 4.5 69.559 2010-03-18T21:42:00.440Z
20100318 2143.00732 25.80531267 -79.12843733 4.55 70.591 2010-03-18T21:43:00.439Z
20100318 2144.00728 25.80610517 -79.12586833 4.56 71.095 2010-03-18T21:44:00.437Z
20100318 2145.00727 25.80689333 -79.12332083 4.43 75.01 2010-03-18T21:45:00.436Z
20100318 2146.00723 25.80768583 -79.1207585 4.42 70.983 2010-03-18T21:46:00.434Z
20100318 2147.00722 25.80846833 -79.11820517 4.5 71.839 2010-03-18T21:47:00.433Z
20100318 2148.00718 25.80939567 -79.1157265 4.46 68.893 2010-03-18T21:48:00.431Z
20100318 2149.00717 25.81030817 -79.11323817 4.45 68.606 2010-03-18T21:49:00.430Z
20100318 2150.00713 25.8112905 -79.11079233 4.54 68.246 2010-03-18T21:50:00.428Z
20100318 2151.00712 25.81226717 -79.10830867 4.64 66.583 2010-03-18T21:51:00.427Z
20100318 2152.00708 25.8132565 -79.10579067 4.63 66.998 2010-03-18T21:52:00.425Z
20100318 2153.00707 25.81407767 -79.10322967 4.57 68.417 2010-03-18T21:53:00.424Z
20100318 2154.00703 25.81494567 -79.10066783 4.66 70.068 2010-03-18T21:54:00.422Z
20100318 2155.00702 25.81576567 -79.09809683 4.5 68.307 2010-03-18T21:55:00.421Z
20100318 2156.00698 25.81661933 -79.09548283 4.71 67.672 2010-03-18T21:56:00.419Z
20100318 2157.00697 25.81747317 -79.09291133 4.7 69.288 2010-03-18T21:57:00.418Z
20100318 2158.00693 25.8183585 -79.0902955 4.66 69.564 2010-03-18T21:58:00.416Z
20100318 2159.00692 25.81918867 -79.0877125 4.46 70.905 2010-03-18T21:59:00.415Z
20100318 2200.00688 25.82003267 -79.08516717 4.58 70.437 2010-03-18T22:00:00.413Z
20100318 2201.00687 25.82081017 -79.08253933 4.58 74.559 2010-03-18T22:01:00.412Z
20100318 2202.00683 25.8215855 -79.0798575 4.7 73.583 2010-03-18T22:02:00.410Z
20100318 2203.00682 25.82224583 -79.0771435 4.86 74.341 2010-03-18T22:03:00.409Z
20100318 2204.00678 25.8229025 -79.07441683 4.77 75.892 2010-03-18T22:04:00.407Z
20100318 2205.00677 25.82356967 -79.07166767 4.76 77.458 2010-03-18T22:05:00.406Z
20100318 2206.00673 25.82421667 -79.06893967 4.76 77.237 2010-03-18T22:06:00.404Z
20100318 2207.00672 25.82490633 -79.0661955 4.92 78.295 2010-03-18T22:07:00.403Z
20100318 2208.00668 25.82555967 -79.06348333 4.67 77.897 2010-03-18T22:08:00.401Z
20100318 2209.00667 25.82624283 -79.06074467 4.87 77.065 2010-03-18T22:09:00.400Z
20100318 2210.00663 25.82688983 -79.0579645 4.79 75.034 2010-03-18T22:10:00.398Z
20100318 2211.00662 25.827584 -79.05522133 4.75 74.177 2010-03-18T22:11:00.397Z
20100318 2212.00658 25.82825083 -79.05247767 4.73 74.124 2010-03-18T22:12:00.395Z
20100318 2213.00655 25.82893267 -79.049721 4.69 74.023 2010-03-18T22:13:00.393Z
20100318 2214.00653 25.8295955 -79.04696467 4.8 75.303 2010-03-18T22:14:00.392Z
20100318 2215.00650 25.83028217 -79.04417883 4.81 75.568 2010-03-18T22:15:00.390Z
20100318 2216.00648 25.83094517 -79.0415185 4.67 76.043 2010-03-18T22:16:00.389Z
20100318 2217.00645 25.83155483 -79.03887383 4.47 73.181 2010-03-18T22:17:00.387Z
20100318 2218.00643 25.83219567 -79.03623617 4.62 75.666 2010-03-18T22:18:00.386Z
20100318 2219.00640 25.83283783 -79.0335955 4.53 73.655 2010-03-18T22:19:00.384Z
20100318 2220.00638 25.83348283 -79.03095517 4.64 74.989 2010-03-18T22:20:00.383Z
20100318 2221.00635 25.8341115 -79.02831867 4.5 74.275 2010-03-18T22:21:00.381Z
20100318 2222.00633 25.83474217 -79.0256885 4.41 74.966 2010-03-18T22:22:00.380Z
20100318 2223.00630 25.8353685 -79.02304567 4.51 76.251 2010-03-18T22:23:00.378Z
20100318 2224.00628 25.83577583 -79.0203445 4.52 78.682 2010-03-18T22:24:00.377Z
20100318 2225.00625 25.83620067 -79.01765267 4.52 79.883 2010-03-18T22:25:00.375Z
20100318 2226.00623 25.83665683 -79.01495983 4.64 78.294 2010-03-18T22:26:00.374Z
20100318 2227.00620 25.8370825 -79.01224433 4.54 79.45 2010-03-18T22:27:00.372Z
20100318 2228.00618 25.83751567 -79.00954317 4.71 80.523 2010-03-18T22:28:00.371Z
20100318 2229.00615 25.83778167 -79.00686783 4.4 114.295 2010-03-18T22:29:00.369Z
20100318 2230.00613 25.83640317 -79.00454567 4.62 117.116 2010-03-18T22:30:00.368Z
20100318 2231.00610 25.8351105 -79.002122 4.64 120.119 2010-03-18T22:31:00.366Z
20100318 2232.00608 25.83381817 -78.99973517 4.74 122.25 2010-03-18T22:32:00.365Z
20100318 2233.00605 25.832531 -78.99732467 4.58 121.843 2010-03-18T22:33:00.363Z
20100318 2234.00603 25.83124533 -78.994922 4.76 122.129 2010-03-18T22:34:00.362Z
20100318 2235.00600 25.82995117 -78.99249517 4.72 124.037 2010-03-18T22:35:00.360Z
20100318 2236.00598 25.828651 -78.99007267 4.62 123.733 2010-03-18T22:36:00.359Z
20100318 2237.00595 25.82736083 -78.98764167 4.74 118.908 2010-03-18T22:37:00.357Z
20100318 2238.00593 25.82604133 -78.985247 4.6 118.816 2010-03-18T22:38:00.356Z
20100318 2239.00590 25.824752 -78.982838 4.73 117.158 2010-03-18T22:39:00.354Z
20100318 2240.00588 25.82346117 -78.98039567 4.74 118.626 2010-03-18T22:40:00.353Z
20100318 2241.00585 25.82213617 -78.97803033 4.76 119.508 2010-03-18T22:41:00.351Z
20100318 2242.00583 25.82083817 -78.97563567 4.62 121.325 2010-03-18T22:42:00.350Z
20100318 2243.00580 25.81954417 -78.97323733 4.57 122.78 2010-03-18T22:43:00.348Z
20100318 2244.00578 25.818235 -78.9708135 4.64 123.008 2010-03-18T22:44:00.347Z
20100318 2245.00575 25.81694017 -78.96836683 4.71 120.892 2010-03-18T22:45:00.345Z
20100318 2246.00573 25.81564367 -78.96600033 4.62 119.723 2010-03-18T22:46:00.344Z
20100318 2247.00570 25.81431567 -78.96356967 4.78 119.881 2010-03-18T22:47:00.342Z
20100318 2248.00567 25.81297733 -78.96117883 4.68 121.088 2010-03-18T22:48:00.340Z
20100318 2249.00565 25.8117095 -78.95877583 4.54 121.364 2010-03-18T22:49:00.339Z
20100318 2249.98895 25.81041683 -78.95642783 4.84 120.639 2010-03-18T22:49:59.337Z
20100318 2251.00560 25.80908767 -78.95399867 4.61 121.632 2010-03-18T22:51:00.336Z
20100318 2252.00557 25.80778283 -78.951631 4.6 121.421 2010-03-18T22:52:00.334Z
20100318 2253.00555 25.80647167 -78.94920517 4.64 121.418 2010-03-18T22:53:00.333Z
20100318 2254.00552 25.80516383 -78.9468085 4.62 122.625 2010-03-18T22:54:00.331Z
20100318 2255.00550 25.8038255 -78.94439367 4.89 121.665 2010-03-18T22:55:00.330Z
20100318 2256.00547 25.802478 -78.94196 4.63 121.515 2010-03-18T22:56:00.328Z
20100318 2257.00545 25.8011915 -78.939591 4.68 121.39 2010-03-18T22:57:00.327Z
20100318 2258.00542 25.79988467 -78.93720983 4.66 120.213 2010-03-18T22:58:00.325Z
20100318 2259.00540 25.7986115 -78.93484383 4.72 120.586 2010-03-18T22:59:00.324Z
20100318 2300.00537 25.79730317 -78.93247333 4.65 120.807 2010-03-18T23:00:00.322Z
20100318 2301.00535 25.795997 -78.93011767 4.58 121.028 2010-03-18T23:01:00.321Z
20100318 2302.00532 25.794697 -78.92776567 4.5 123.649 2010-03-18T23:02:00.319Z
20100318 2303.00530 25.79339233 -78.9254275 4.64 122.199 2010-03-18T23:03:00.318Z
20100318 2304.00527 25.79207733 -78.92304933 4.75 121.149 2010-03-18T23:04:00.316Z
20100318 2305.00525 25.79077817 -78.92068767 4.52 122.599 2010-03-18T23:05:00.315Z
20100318 2306.00522 25.789481 -78.91829983 4.89 120.615 2010-03-18T23:06:00.313Z
20100318 2307.00520 25.78814567 -78.915877 4.59 119.619 2010-03-18T23:07:00.312Z
20100318 2308.00517 25.78680133 -78.91349 4.65 121.896 2010-03-18T23:08:00.310Z
20100318 2309.00515 25.78552167 -78.911123 4.64 123.613 2010-03-18T23:09:00.309Z
20100318 2310.00512 25.784199 -78.90871567 4.79 121.62 2010-03-18T23:10:00.307Z
20100318 2311.00510 25.78287933 -78.90633317 4.61 119.513 2010-03-18T23:11:00.306Z
20100318 2312.00507 25.78156267 -78.90394017 4.64 120.609 2010-03-18T23:12:00.304Z
20100318 2313.00505 25.78035067 -78.9014715 4.78 119.398 2010-03-18T23:13:00.303Z
20100318 2314.00502 25.779168 -78.89906283 4.67 117.524 2010-03-18T23:14:00.301Z
20100318 2315.00500 25.7779905 -78.89663767 4.5 116.546 2010-03-18T23:15:00.300Z
20100318 2316.00497 25.77679917 -78.89417583 4.63 117.014 2010-03-18T23:16:00.298Z
20100318 2317.00495 25.77560317 -78.89170483 4.8 116.987 2010-03-18T23:17:00.297Z
20100318 2318.00492 25.77438283 -78.88918917 4.83 116.314 2010-03-18T23:18:00.295Z
20100318 2319.00490 25.77317517 -78.88667117 4.65 116.912 2010-03-18T23:19:00.294Z
20100318 2320.00487 25.77200617 -78.8841825 4.63 116.515 2010-03-18T23:20:00.292Z
20100318 2321.00485 25.770864 -78.88171067 4.6 118.303 2010-03-18T23:21:00.291Z
20100318 2322.00482 25.76968433 -78.87929983 4.61 117.396 2010-03-18T23:22:00.289Z
20100318 2323.00478 25.7685135 -78.87688467 4.56 117.482 2010-03-18T23:23:00.287Z
20100318 2324.00477 25.76736267 -78.87446233 4.61 116.399 2010-03-18T23:24:00.286Z
20100318 2325.00473 25.76619583 -78.8720265 4.75 115.585 2010-03-18T23:25:00.284Z
20100318 2326.00472 25.7649945 -78.86954067 4.71 117.533 2010-03-18T23:26:00.283Z
20100318 2327.00468 25.76382033 -78.86709783 4.64 119.002 2010-03-18T23:27:00.281Z
20100318 2328.00467 25.7629055 -78.86456117 4.65 107.071 2010-03-18T23:28:00.280Z
20100318 2329.00463 25.76207933 -78.86197433 4.59 107.545 2010-03-18T23:29:00.278Z
20100318 2330.00462 25.7612695 -78.85939533 4.59 107.545 2010-03-18T23:30:00.277Z
20100318 2331.00458 25.76045767 -78.85682383 4.59 108.054 2010-03-18T23:31:00.275Z
20100318 2332.00457 25.75963867 -78.854233 4.56 108.394 2010-03-18T23:32:00.274Z
20100318 2333.00453 25.758843 -78.85164517 4.53 106.837 2010-03-18T23:33:00.272Z
20100318 2334.00452 25.758032 -78.84902733 4.66 107.517 2010-03-18T23:34:00.271Z
20100318 2335.00448 25.75721733 -78.84639483 4.66 108.497 2010-03-18T23:35:00.269Z
20100318 2336.00447 25.75640233 -78.843833 4.58 110.996 2010-03-18T23:36:00.268Z
20100318 2337.00443 25.755618 -78.841205 4.7 110.212 2010-03-18T23:37:00.266Z
20100318 2338.00442 25.75479283 -78.8385965 4.53 110.497 2010-03-18T23:38:00.265Z
20100318 2339.00438 25.75396383 -78.83600267 4.58 110.996 2010-03-18T23:39:00.263Z
20100318 2340.00437 25.75316183 -78.8334025 4.55 108.673 2010-03-18T23:40:00.262Z
20100318 2341.00433 25.752348 -78.830849 4.5 107.925 2010-03-18T23:41:00.260Z
20100318 2342.00432 25.75151433 -78.82829183 4.38 108.163 2010-03-18T23:42:00.259Z
20100318 2343.00428 25.75068583 -78.82572417 4.61 107.476 2010-03-18T23:43:00.257Z
20100318 2344.00427 25.74985217 -78.82309533 4.74 108.891 2010-03-18T23:44:00.256Z
20100318 2345.00423 25.74904167 -78.82051617 4.57 107.393 2010-03-18T23:45:00.254Z
20100318 2346.00422 25.74822683 -78.8179335 4.68 109.358 2010-03-18T23:46:00.253Z
20100318 2347.00418 25.747427 -78.81534617 4.55 110.421 2010-03-18T23:47:00.251Z
20100318 2348.00417 25.74660517 -78.81279917 4.57 108.616 2010-03-18T23:48:00.250Z
20100318 2349.00413 25.74576983 -78.81026 4.54 107.277 2010-03-18T23:49:00.248Z
20100318 2350.00412 25.74492183 -78.80768767 4.54 109.256 2010-03-18T23:50:00.247Z
20100318 2351.00408 25.74411467 -78.805126 4.52 108.819 2010-03-18T23:51:00.245Z
20100318 2352.00407 25.74327967 -78.80255017 4.5 110.939 2010-03-18T23:52:00.244Z
20100318 2353.00403 25.74245717 -78.7999725 4.57 109.119 2010-03-18T23:53:00.242Z
20100318 2354.00402 25.74162967 -78.7974355 4.59 111.213 2010-03-18T23:54:00.241Z
20100318 2355.00398 25.74079967 -78.79487783 4.59 109.994 2010-03-18T23:55:00.239Z
20100318 2356.00397 25.73999117 -78.79233717 4.56 110.136 2010-03-18T23:56:00.238Z
20100318 2357.00393 25.73913883 -78.78979333 4.48 107.761 2010-03-18T23:57:00.236Z
20100318 2358.00392 25.73832317 -78.78725117 4.5 109.394 2010-03-18T23:58:00.235Z
20100318 2359.00388 25.73750267 -78.78473633 4.56 110.14 2010-03-18T23:59:00.233Z
20100319 0000.00387 25.73666983 -78.78222067 4.51 110.642 2010-03-19T00:00:00.232Z
20100319 0001.00383 25.73588117 -78.77965717 4.32 111.813 2010-03-19T00:01:00.230Z
20100319 0002.00380 25.73509917 -78.77708433 4.6 108.26 2010-03-19T00:02:00.228Z
20100319 0003.00378 25.7343235 -78.77479917 3.84 106.756 2010-03-19T00:03:00.227Z
20100319 0004.00375 25.733624 -78.77270767 3.67 110.015 2010-03-19T00:04:00.225Z
20100319 0005.00373 25.7329145 -78.77062983 3.74 112.322 2010-03-19T00:05:00.224Z
20100319 0006.00370 25.73219017 -78.76854933 3.72 111.549 2010-03-19T00:06:00.222Z
20100319 0007.00368 25.731479 -78.76648233 3.69 110.829 2010-03-19T00:07:00.221Z
20100319 0008.00365 25.73076017 -78.76440667 3.82 110.995 2010-03-19T00:08:00.219Z
20100319 0009.00363 25.73004283 -78.762325 3.68 111.192 2010-03-19T00:09:00.218Z
20100319 0010.00360 25.72932617 -78.76025217 3.72 110.913 2010-03-19T00:10:00.216Z
20100319 0011.00358 25.72861867 -78.75818783 3.74 109.938 2010-03-19T00:11:00.215Z
20100319 0012.00355 25.72789183 -78.756123 3.72 110.913 2010-03-19T00:12:00.213Z
20100319 0013.00353 25.7271725 -78.75405983 3.62 111.207 2010-03-19T00:13:00.212Z
20100319 0014.00350 25.7264575 -78.75199317 3.67 110.29 2010-03-19T00:14:00.210Z
20100319 0015.00348 25.72573783 -78.7499435 3.77 111.252 2010-03-19T00:15:00.209Z
20100319 0016.00345 25.72493067 -78.74758867 4.45 108.866 2010-03-19T00:16:00.207Z
20100319 0017.00343 25.72413817 -78.74501717 4.51 107.123 2010-03-19T00:17:00.206Z
20100319 0018.00340 25.7234655 -78.74242917 4.69 102.274 2010-03-19T00:18:00.204Z
20100319 0019.00338 25.72282467 -78.7397855 4.54 101.5 2010-03-19T00:19:00.203Z
20100319 0020.00335 25.722178 -78.73716917 4.4 103.346 2010-03-19T00:20:00.201Z
20100319 0021.00333 25.72155917 -78.73459083 4.56 104.314 2010-03-19T00:21:00.200Z
20100319 0022.00330 25.720933 -78.731968 4.42 107.738 2010-03-19T00:22:00.198Z
20100319 0023.00328 25.72029933 -78.72936633 4.54 105.314 2010-03-19T00:23:00.197Z
20100319 0024.00325 25.71966333 -78.7267705 4.44 105.946 2010-03-19T00:24:00.195Z
20100319 0025.00323 25.719022 -78.724146 4.59 104.932 2010-03-19T00:25:00.194Z
20100319 0026.00320 25.71840417 -78.72151517 4.42 105.034 2010-03-19T00:26:00.192Z
20100319 0027.00318 25.7177555 -78.7189255 4.36 103.725 2010-03-19T00:27:00.191Z
20100319 0028.00315 25.71712817 -78.71634767 4.42 104.505 2010-03-19T00:28:00.189Z
20100319 0029.00313 25.71649567 -78.71374533 4.53 104.868 2010-03-19T00:29:00.188Z
20100319 0030.00310 25.71585967 -78.71113783 4.52 104.92 2010-03-19T00:30:00.186Z
20100319 0031.00308 25.71522883 -78.70853867 4.45 107.888 2010-03-19T00:31:00.185Z
20100319 0032.00305 25.71458683 -78.70593283 4.63 108.846 2010-03-19T00:32:00.183Z
20100319 0033.00303 25.71394783 -78.703294 4.54 105.081 2010-03-19T00:33:00.182Z
20100319 0034.00300 25.713308 -78.70068367 4.56 102.629 2010-03-19T00:34:00.180Z
20100319 0035.00298 25.71265633 -78.69808267 4.62 102.45 2010-03-19T00:35:00.179Z
20100319 0036.00295 25.7120215 -78.69547167 4.53 103.902 2010-03-19T00:36:00.177Z
20100319 0037.00293 25.7113945 -78.692875 4.54 103.405 2010-03-19T00:37:00.176Z
20100319 0038.00290 25.71076333 -78.69030133 4.54 104.136 2010-03-19T00:38:00.174Z
20100319 0039.00288 25.71011567 -78.68773417 4.53 104.417 2010-03-19T00:39:00.173Z
20100319 0040.00285 25.70951267 -78.68518283 4.45 105.668 2010-03-19T00:40:00.171Z
20100319 0041.00283 25.70889183 -78.6826355 4.53 106.83 2010-03-19T00:41:00.170Z
20100319 0042.00280 25.70827667 -78.68008283 4.43 106.473 2010-03-19T00:42:00.168Z
20100319 0043.00278 25.70764283 -78.67751883 4.55 104.352 2010-03-19T00:43:00.167Z
20100319 0044.00275 25.707 -78.67495467 4.42 106.519 2010-03-19T00:44:00.165Z
20100319 0045.00272 25.70636567 -78.67239433 4.6 106.318 2010-03-19T00:45:00.163Z
20100319 0046.00270 25.70574167 -78.669829 4.38 105.144 2010-03-19T00:46:00.162Z
20100319 0047.00267 25.70511833 -78.66727217 4.38 105.65 2010-03-19T00:47:00.160Z
20100319 0048.00265 25.70446867 -78.66467467 4.42 107.284 2010-03-19T00:48:00.159Z
20100319 0049.00262 25.7038395 -78.66210233 4.36 104.725 2010-03-19T00:49:00.157Z
20100319 0050.00260 25.70322367 -78.6595865 4.26 104.289 2010-03-19T00:50:00.156Z
20100319 0051.00257 25.70261817 -78.65705817 4.33 105.077 2010-03-19T00:51:00.154Z
20100319 0052.00255 25.70202167 -78.65453383 4.33 105.843 2010-03-19T00:52:00.153Z
20100319 0053.00252 25.70140267 -78.6519835 4.47 112.565 2010-03-19T00:53:00.151Z
20100319 0054.00250 25.700327 -78.64959817 4.48 112.259 2010-03-19T00:54:00.150Z
20100319 0055.00247 25.69932333 -78.64718283 4.4 113.512 2010-03-19T00:55:00.148Z
20100319 0056.00245 25.69809067 -78.64490117 4.43 121.927 2010-03-19T00:56:00.147Z
20100319 0057.00242 25.69679983 -78.642649 4.46 122.518 2010-03-19T00:57:00.145Z
20100319 0058.00240 25.69548933 -78.64043017 4.43 122.554 2010-03-19T00:58:00.144Z
20100319 0059.00237 25.69418183 -78.63820417 4.42 121.511 2010-03-19T00:59:00.142Z
20100319 0100.00235 25.692865 -78.63597367 4.45 120.978 2010-03-19T01:00:00.141Z
20100319 0101.00232 25.6915375 -78.63373767 4.52 122.07 2010-03-19T01:01:00.139Z
20100319 0102.00230 25.690214 -78.63149367 4.39 125.766 2010-03-19T01:02:00.138Z
20100319 0103.00227 25.68888317 -78.62926333 4.52 124.337 2010-03-19T01:03:00.136Z
20100319 0104.00225 25.68757283 -78.62698833 4.55 121.836 2010-03-19T01:04:00.135Z
20100319 0105.00222 25.68626367 -78.62472117 4.48 122.41 2010-03-19T01:05:00.133Z
20100319 0106.00220 25.68497417 -78.622426 4.48 122.096 2010-03-19T01:06:00.132Z
20100319 0107.00217 25.68367867 -78.62015917 4.45 123.475 2010-03-19T01:07:00.130Z
20100319 0108.00215 25.68239017 -78.61789933 4.5 121.158 2010-03-19T01:08:00.129Z
20100319 0109.00212 25.68108667 -78.61565567 4.42 120.36 2010-03-19T01:09:00.127Z
20100319 0110.00210 25.67978867 -78.613392 4.51 122.691 2010-03-19T01:10:00.126Z
20100319 0111.00207 25.67850183 -78.61111717 4.56 123.656 2010-03-19T01:11:00.124Z
20100319 0112.00205 25.67719217 -78.60884267 4.55 123.47 2010-03-19T01:12:00.123Z
20100319 0113.00202 25.675884 -78.6065715 4.56 121.732 2010-03-19T01:13:00.121Z
20100319 0114.00200 25.67457583 -78.6042895 4.43 121.909 2010-03-19T01:14:00.120Z
20100319 0115.00197 25.67326533 -78.60200133 4.52 122.061 2010-03-19T01:15:00.118Z
20100319 0116.00195 25.6719355 -78.59973167 4.48 122.087 2010-03-19T01:16:00.117Z
20100319 0117.00192 25.67063117 -78.59746233 4.47 122.21 2010-03-19T01:17:00.115Z
20100319 0118.00190 25.66932917 -78.59520383 4.5 121.155 2010-03-19T01:18:00.114Z
20100319 0119.00187 25.6680055 -78.59295033 4.43 121.397 2010-03-19T01:19:00.112Z
20100319 0120.00185 25.666692 -78.59069533 4.47 122.714 2010-03-19T01:20:00.111Z
20100319 0121.00182 25.66539417 -78.58844567 4.41 124.566 2010-03-19T01:21:00.109Z
20100319 0122.00180 25.66409167 -78.58619617 4.61 124.421 2010-03-19T01:22:00.108Z
20100319 0123.00177 25.66277017 -78.58394033 4.52 124.023 2010-03-19T01:23:00.106Z
20100319 0124.00175 25.66145983 -78.58168267 4.44 121.596 2010-03-19T01:24:00.105Z
20100319 0125.00172 25.66014167 -78.57944867 4.44 121.596 2010-03-19T01:25:00.103Z
20100319 0126.00170 25.65884267 -78.57719783 4.51 122.178 2010-03-19T01:26:00.102Z
20100319 0127.00167 25.657557 -78.57494967 4.48 121.259 2010-03-19T01:27:00.100Z
20100319 0128.00165 25.65622967 -78.5727045 4.63 123.39 2010-03-19T01:28:00.099Z
20100319 0129.00162 25.65492467 -78.57043967 4.47 125.007 2010-03-19T01:29:00.097Z
20100319 0130.00160 25.65359633 -78.56819683 4.52 124.329 2010-03-19T01:30:00.096Z
20100319 0131.00157 25.65228167 -78.56595917 4.48 124.373 2010-03-19T01:31:00.094Z
20100319 0132.00155 25.6509615 -78.56370683 4.47 125.641 2010-03-19T01:32:00.093Z
20100319 0133.00152 25.64963983 -78.56146 4.43 123.061 2010-03-19T01:33:00.091Z
20100319 0134.00148 25.648308 -78.55920533 4.49 122.913 2010-03-19T01:34:00.089Z
20100319 0135.00147 25.6469925 -78.55697417 4.49 122.081 2010-03-19T01:35:00.088Z
20100319 0136.00143 25.64587567 -78.5546245 4.48 120.432 2010-03-19T01:36:00.086Z
20100319 0137.00142 25.64474467 -78.55223417 4.46 120.34 2010-03-19T01:37:00.085Z
20100319 0138.00138 25.6435965 -78.54985617 4.63 117.778 2010-03-19T01:38:00.083Z
20100319 0139.00137 25.642428 -78.547461 4.46 115.764 2010-03-19T01:39:00.082Z
20100319 0140.00133 25.64134517 -78.545074 4.44 111.979 2010-03-19T01:40:00.080Z
20100319 0141.00132 25.64031783 -78.54264083 4.47 115.145 2010-03-19T01:41:00.079Z
20100319 0142.00128 25.63930017 -78.54023383 4.47 114.641 2010-03-19T01:42:00.077Z
20100319 0143.00127 25.63827283 -78.53781133 4.48 114.323 2010-03-19T01:43:00.076Z
20100319 0144.00123 25.63727083 -78.5353695 4.51 115.177 2010-03-19T01:44:00.074Z
20100319 0145.00122 25.636226 -78.5329455 4.45 115.545 2010-03-19T01:45:00.073Z
20100319 0146.00118 25.63521333 -78.53050783 4.33 115.779 2010-03-19T01:46:00.071Z
20100319 0147.00117 25.634213 -78.52810433 4.33 114.169 2010-03-19T01:47:00.070Z
20100319 0148.00113 25.63319967 -78.5256835 4.54 116.023 2010-03-19T01:48:00.068Z
20100319 0149.00112 25.63218267 -78.52327383 4.45 116.076 2010-03-19T01:49:00.067Z
20100319 0150.00108 25.63116683 -78.52087183 4.41 115.825 2010-03-19T01:50:00.065Z
20100319 0151.00107 25.63013633 -78.51847533 4.51 115.688 2010-03-19T01:51:00.064Z
20100319 0152.00103 25.62912233 -78.51607167 4.54 113.464 2010-03-19T01:52:00.062Z
20100319 0153.00102 25.62810533 -78.5136665 4.41 113.719 2010-03-19T01:53:00.061Z
20100319 0154.00098 25.62709933 -78.5112525 4.55 113.16 2010-03-19T01:54:00.059Z
20100319 0155.00097 25.626077 -78.50880417 4.45 115.024 2010-03-19T01:55:00.058Z
20100319 0156.00093 25.62506867 -78.506398 4.35 114.833 2010-03-19T01:56:00.056Z
20100319 0157.00092 25.6240795 -78.50400817 4.38 115.707 2010-03-19T01:57:00.055Z
20100319 0158.00088 25.62307867 -78.50161983 4.36 113.989 2010-03-19T01:58:00.053Z
20100319 0159.00087 25.622073 -78.49922833 4.41 114.78 2010-03-19T01:59:00.052Z
20100319 0200.00083 25.62080417 -78.49698317 4.45 122.116 2010-03-19T02:00:00.050Z
20100319 0201.00082 25.619503 -78.49474933 4.4 126.266 2010-03-19T02:01:00.049Z
20100319 0202.00078 25.6181455 -78.492535 4.52 125.449 2010-03-19T02:02:00.047Z
20100319 0203.00077 25.61677233 -78.49031617 4.53 125.631 2010-03-19T02:03:00.046Z
20100319 0204.00073 25.61540783 -78.48809667 4.52 125.757 2010-03-19T02:04:00.044Z
20100319 0205.00072 25.61403683 -78.48587833 4.51 125.261 2010-03-19T02:05:00.043Z
20100319 0206.00068 25.6126825 -78.4836545 4.55 125.206 2010-03-19T02:06:00.041Z
20100319 0207.00067 25.61130467 -78.48143583 4.34 124.438 2010-03-19T02:07:00.040Z
20100319 0208.00063 25.60993733 -78.479207 4.59 124.832 2010-03-19T02:08:00.038Z
20100319 0209.00062 25.6085665 -78.476981 4.44 123.256 2010-03-19T02:09:00.037Z
20100319 0210.00058 25.60721133 -78.47477133 4.52 122.357 2010-03-19T02:10:00.035Z
20100319 0211.00057 25.60583783 -78.47253417 4.48 126.131 2010-03-19T02:11:00.034Z
20100319 0212.00053 25.60446667 -78.47031633 4.45 127.034 2010-03-19T02:12:00.032Z
20100319 0213.00052 25.60310667 -78.4680965 4.43 125.693 2010-03-19T02:13:00.031Z
20100319 0214.00048 25.60173917 -78.46587983 4.58 125.461 2010-03-19T02:14:00.029Z
20100319 0215.00047 25.60036683 -78.46367317 4.47 124.473 2010-03-19T02:15:00.028Z
20100319 0216.00043 25.59900217 -78.461455 4.49 124.046 2010-03-19T02:16:00.026Z
20100319 0217.00042 25.59764683 -78.45923783 4.55 124.575 2010-03-19T02:17:00.025Z
20100319 0218.00038 25.5962925 -78.45705417 4.45 123.76 2010-03-19T02:18:00.023Z
20100319 0219.00037 25.5949335 -78.454853 4.5 123.611 2010-03-19T02:19:00.022Z
20100319 0220.00033 25.59356817 -78.452633 4.4 123.611 2010-03-19T02:20:00.020Z
20100319 0221.00032 25.59219933 -78.45039867 4.59 123.721 2010-03-19T02:21:00.019Z
20100319 0222.00028 25.590824 -78.448177 4.54 123.569 2010-03-19T02:22:00.017Z
20100319 0223.00027 25.58944483 -78.44594567 4.52 123.79 2010-03-19T02:23:00.016Z
20100319 0224.00023 25.58809983 -78.443721 4.56 123.141 2010-03-19T02:24:00.014Z
20100319 0225.00022 25.58674283 -78.44150633 4.56 122.33 2010-03-19T02:25:00.013Z
20100319 0226.00018 25.58537383 -78.439289 4.47 121.87 2010-03-19T02:26:00.011Z
20100319 0227.00015 25.58401433 -78.43708483 4.47 122.493 2010-03-19T02:27:00.009Z
20100319 0228.00013 25.5826535 -78.43486917 4.53 121.73 2010-03-19T02:28:00.008Z
20100319 0229.00010 25.58128617 -78.43264867 4.44 122.734 2010-03-19T02:29:00.006Z
20100319 0230.00008 25.57993767 -78.43043467 4.41 122.454 2010-03-19T02:30:00.005Z
20100319 0231.00005 25.578603 -78.428231 4.4 123.088 2010-03-19T02:31:00.003Z
20100319 0232.00003 25.57726967 -78.42602967 4.42 122.335 2010-03-19T02:32:00.002Z
20100319 0233.00000 25.57591833 -78.4238345 4.37 124.495 2010-03-19T02:33:00.000Z
20100319 0233.99998 25.57457717 -78.42165717 4.38 124.38 2010-03-19T02:33:59.999Z
20100319 0234.99995 25.57324633 -78.41948783 4.35 124.946 2010-03-19T02:34:59.997Z
20100319 0235.99993 25.57190733 -78.41729617 4.45 124.908 2010-03-19T02:35:59.996Z
20100319 0236.99990 25.57057767 -78.41512067 4.42 122.851 2010-03-19T02:36:59.994Z
20100319 0237.99988 25.56924383 -78.41293067 4.37 124.486 2010-03-19T02:37:59.993Z
20100319 0238.99985 25.56791333 -78.4107325 4.45 126.374 2010-03-19T02:38:59.991Z
20100319 0239.99983 25.56658983 -78.40853717 4.46 126.568 2010-03-19T02:39:59.990Z
20100319 0240.99980 25.56525617 -78.40633817 4.37 125.992 2010-03-19T02:40:59.988Z
20100319 0241.99978 25.56391083 -78.4041405 4.37 125.668 2010-03-19T02:41:59.987Z
20100319 0242.99975 25.56258817 -78.4019815 4.39 122.035 2010-03-19T02:42:59.985Z
20100319 0243.99973 25.56126017 -78.399805 4.44 123.569 2010-03-19T02:43:59.984Z
20100319 0244.99970 25.55993283 -78.397631 4.43 124.199 2010-03-19T02:44:59.982Z
20100319 0245.99968 25.55859017 -78.39546417 4.54 124.178 2010-03-19T02:45:59.981Z
20100319 0246.99965 25.55724133 -78.393253 4.4 126.252 2010-03-19T02:46:59.979Z
20100319 0247.99963 25.55592567 -78.391057 4.38 125.866 2010-03-19T02:47:59.978Z
20100319 0248.99960 25.55465333 -78.38886483 4.35 119.176 2010-03-19T02:48:59.976Z
20100319 0249.99958 25.55341867 -78.3866345 4.38 120.991 2010-03-19T02:49:59.975Z
20100319 0250.99955 25.55218883 -78.384366 4.4 123.07 2010-03-19T02:50:59.973Z
20100319 0251.99953 25.55096917 -78.38211183 4.48 121.555 2010-03-19T02:51:59.972Z
20100319 0252.99950 25.549766 -78.379849 4.38 121.508 2010-03-19T02:52:59.970Z
20100319 0253.99948 25.5485435 -78.3776215 4.39 120.02 2010-03-19T02:53:59.969Z
20100319 0254.99945 25.54734317 -78.37537017 4.36 122.801 2010-03-19T02:54:59.967Z
20100319 0255.99943 25.54614067 -78.3731065 4.37 120.778 2010-03-19T02:55:59.966Z
20100319 0256.99940 25.5449305 -78.37085633 4.35 120.893 2010-03-19T02:56:59.964Z
20100319 0257.99938 25.5437085 -78.36859917 4.38 120.125 2010-03-19T02:57:59.963Z
20100319 0258.99935 25.5425115 -78.36634383 4.39 121.187 2010-03-19T02:58:59.961Z
20100319 0259.99933 25.54130267 -78.3640815 4.42 121.49 2010-03-19T02:59:59.960Z
20100319 0300.99930 25.54010583 -78.3618125 4.29 121.667 2010-03-19T03:00:59.958Z
20100319 0301.99928 25.53890267 -78.35953633 4.5 120.616 2010-03-19T03:01:59.957Z
20100319 0302.99925 25.53768367 -78.35728617 4.37 118.006 2010-03-19T03:02:59.955Z
20100319 0303.99923 25.536485 -78.355023 4.36 117.794 2010-03-19T03:03:59.954Z
20100319 0304.99920 25.53528617 -78.3527645 4.34 119.288 2010-03-19T03:04:59.952Z
20100319 0305.99918 25.53410783 -78.35051383 4.4 119.694 2010-03-19T03:05:59.951Z
20100319 0306.99915 25.53290967 -78.34825117 4.33 120.254 2010-03-19T03:06:59.949Z
20100319 0307.99913 25.5317025 -78.345991 4.35 122.589 2010-03-19T03:07:59.948Z
20100319 0308.99910 25.53047517 -78.34374333 4.42 123.481 2010-03-19T03:08:59.946Z
20100319 0309.99908 25.52925717 -78.34148833 4.45 122.934 2010-03-19T03:09:59.945Z
20100319 0310.99905 25.5280235 -78.33920517 4.53 121.409 2010-03-19T03:10:59.943Z
20100319 0311.99903 25.52680533 -78.33695683 4.37 120.447 2010-03-19T03:11:59.942Z
20100319 0312.99900 25.52557133 -78.33470683 4.41 119.065 2010-03-19T03:12:59.940Z
20100319 0313.99898 25.5243295 -78.33244117 4.42 120.631 2010-03-19T03:13:59.939Z
20100319 0314.99895 25.52310033 -78.33016167 4.51 119.67 2010-03-19T03:14:59.937Z
20100319 0315.99893 25.521843 -78.32787867 4.39 120.008 2010-03-19T03:15:59.936Z
20100319 0316.99890 25.52062167 -78.32558367 4.43 121.681 2010-03-19T03:16:59.934Z
20100319 0317.99888 25.51939067 -78.32327483 4.49 120.723 2010-03-19T03:17:59.933Z
20100319 0318.99885 25.5181615 -78.320958 4.46 121.457 2010-03-19T03:18:59.931Z
20100319 0319.99883 25.5169415 -78.31867317 4.39 122.025 2010-03-19T03:19:59.930Z
20100319 0320.99880 25.51573467 -78.31641717 4.3 123.062 2010-03-19T03:20:59.928Z
20100319 0321.99877 25.514545 -78.31419267 4.32 120.034 2010-03-19T03:21:59.926Z
20100319 0322.99875 25.51330833 -78.31190017 4.49 121.228 2010-03-19T03:22:59.925Z
20100319 0323.99872 25.5120645 -78.30957433 4.59 121.279 2010-03-19T03:23:59.923Z
20100319 0324.99870 25.51080233 -78.30722467 4.54 121.905 2010-03-19T03:24:59.922Z
20100319 0325.99867 25.5095445 -78.3048785 4.62 118.956 2010-03-19T03:25:59.920Z
20100319 0326.99865 25.50827517 -78.3025225 4.55 118.347 2010-03-19T03:26:59.919Z
20100319 0327.99862 25.506986 -78.30016967 4.52 121.008 2010-03-19T03:27:59.917Z
20100319 0328.99860 25.5057285 -78.29781217 4.64 121.951 2010-03-19T03:28:59.916Z
20100319 0329.99857 25.5044895 -78.295455 4.53 121.72 2010-03-19T03:29:59.914Z
20100319 0330.99855 25.50323183 -78.29312317 4.55 119.659 2010-03-19T03:30:59.913Z
20100319 0331.99852 25.5019855 -78.29076833 4.54 120.285 2010-03-19T03:31:59.911Z
20100319 0332.99850 25.500767 -78.2884135 4.58 116.832 2010-03-19T03:32:59.910Z
20100319 0333.99847 25.49960683 -78.28601533 4.48 119.367 2010-03-19T03:33:59.908Z
20100319 0334.99845 25.49849133 -78.28359717 4.59 116.525 2010-03-19T03:34:59.907Z
20100319 0335.99842 25.49728633 -78.2812265 4.55 115.188 2010-03-19T03:35:59.905Z
20100319 0336.99840 25.496241 -78.27877817 4.53 116.395 2010-03-19T03:36:59.904Z
20100319 0337.99837 25.49517583 -78.27636767 4.5 114.203 2010-03-19T03:37:59.902Z
20100319 0338.99835 25.494129 -78.27399067 4.44 116.661 2010-03-19T03:38:59.901Z
20100319 0339.99832 25.49310567 -78.27155733 4.52 117.726 2010-03-19T03:39:59.899Z
20100319 0340.99830 25.49204 -78.26911883 4.67 114.279 2010-03-19T03:40:59.898Z
20100319 0341.99827 25.4909555 -78.26667683 4.44 115.613 2010-03-19T03:41:59.896Z
20100319 0342.99825 25.48991283 -78.2642535 4.57 115.601 2010-03-19T03:42:59.895Z
20100319 0343.99822 25.488867 -78.2618185 4.45 115.311 2010-03-19T03:43:59.893Z
20100319 0344.99820 25.48781017 -78.25938417 4.5 115.037 2010-03-19T03:44:59.892Z
20100319 0345.99817 25.48677517 -78.25695917 4.46 114.174 2010-03-19T03:45:59.890Z
20100319 0346.99815 25.48570883 -78.25452683 4.5 117.614 2010-03-19T03:46:59.889Z
20100319 0347.99812 25.48464033 -78.25212217 4.43 116.224 2010-03-19T03:47:59.887Z
20100319 0348.99810 25.48355967 -78.24970633 4.51 115.982 2010-03-19T03:48:59.886Z
20100319 0349.99807 25.48248983 -78.24727017 4.53 115.566 2010-03-19T03:49:59.884Z
20100319 0350.99805 25.4815725 -78.2448065 4.4 101.868 2010-03-19T03:50:59.883Z
20100319 0351.99802 25.48129983 -78.24217417 4.5 96.588 2010-03-19T03:51:59.881Z
20100319 0352.99800 25.48103933 -78.239493 4.53 93.265 2010-03-19T03:52:59.880Z
20100319 0353.99797 25.48079383 -78.23677667 4.56 95.572 2010-03-19T03:53:59.878Z
20100319 0354.99795 25.48058133 -78.2340665 4.55 94.407 2010-03-19T03:54:59.877Z
20100319 0355.99792 25.48032183 -78.23135017 4.55 93.948 2010-03-19T03:55:59.875Z
20100319 0356.99790 25.4801045 -78.2286325 4.56 95.572 2010-03-19T03:56:59.874Z
20100319 0357.99787 25.479882 -78.22590867 4.55 96.287 2010-03-19T03:57:59.872Z
20100319 0358.99785 25.47967133 -78.22319 4.65 95.472 2010-03-19T03:58:59.871Z
20100319 0359.99782 25.47944417 -78.22046317 4.63 95.273 2010-03-19T03:59:59.869Z
20100319 0400.99780 25.4792115 -78.21775783 4.54 93.963 2010-03-19T04:00:59.868Z
20100319 0401.99777 25.47899367 -78.21504483 4.56 95.352 2010-03-19T04:01:59.866Z
20100319 0402.99775 25.47877617 -78.21232583 4.58 94.862 2010-03-19T04:02:59.865Z
20100319 0403.99772 25.47854917 -78.20962583 4.53 95.391 2010-03-19T04:03:59.863Z
20100319 0404.99770 25.47832117 -78.20693283 4.49 96.859 2010-03-19T04:04:59.862Z
20100319 0405.99767 25.47802967 -78.20425267 4.46 100.993 2010-03-19T04:05:59.860Z
20100319 0406.99765 25.47763483 -78.20161033 4.51 98.704 2010-03-19T04:06:59.859Z
20100319 0407.99762 25.47716783 -78.198978 4.53 102.467 2010-03-19T04:07:59.857Z
20100319 0408.99760 25.47673983 -78.1963355 4.47 101.913 2010-03-19T04:08:59.856Z
20100319 0409.99757 25.47627467 -78.19369417 4.6 100.635 2010-03-19T04:09:59.854Z
20100319 0410.99755 25.47582517 -78.19103617 4.55 98.887 2010-03-19T04:10:59.853Z
20100319 0411.99752 25.47540567 -78.18837433 4.52 94.454 2010-03-19T04:11:59.851Z
20100319 0412.99750 25.47524117 -78.18565167 4.53 94.691 2010-03-19T04:12:59.850Z
20100319 0413.99747 25.4750875 -78.18292117 4.61 94.139 2010-03-19T04:13:59.848Z
20100319 0414.99745 25.47491733 -78.18020133 4.63 92.509 2010-03-19T04:14:59.847Z
20100319 0415.99742 25.47475367 -78.17746417 4.69 93.849 2010-03-19T04:15:59.845Z
20100319 0416.99738 25.474574 -78.17470383 4.59 94.61 2010-03-19T04:16:59.843Z
20100319 0417.99737 25.474409 -78.1719635 4.68 95.663 2010-03-19T04:17:59.842Z
20100319 0418.99733 25.4741885 -78.1692025 4.66 96.598 2010-03-19T04:18:59.840Z
20100319 0419.99732 25.473915 -78.16645633 4.66 96.598 2010-03-19T04:19:59.839Z
20100319 0420.99728 25.47357217 -78.16373383 4.74 96.708 2010-03-19T04:20:59.837Z
20100319 0421.99727 25.4731055 -78.16100183 4.6 103.463 2010-03-19T04:21:59.836Z
20100319 0422.99723 25.4726685 -78.15830233 4.76 100.509 2010-03-19T04:22:59.834Z
20100319 0423.99722 25.4718115 -78.1557075 4.67 107.477 2010-03-19T04:23:59.833Z
20100319 0424.99718 25.47095617 -78.15307317 4.7 115.095 2010-03-19T04:24:59.831Z
20100319 0425.99717 25.46945333 -78.15090183 4.57 127.592 2010-03-19T04:25:59.830Z
20100319 0426.99713 25.46782933 -78.1488205 4.53 134.783 2010-03-19T04:26:59.828Z
20100319 0427.99712 25.466161 -78.146742 4.61 135.454 2010-03-19T04:27:59.827Z
20100319 0428.99708 25.46443217 -78.14472183 4.69 135.8 2010-03-19T04:28:59.825Z
20100319 0429.99707 25.46261533 -78.1427955 4.71 135.501 2010-03-19T04:29:59.824Z
20100319 0430.99703 25.46078333 -78.14089783 4.63 135.921 2010-03-19T04:30:59.822Z
20100319 0431.99702 25.458955 -78.13899183 4.63 135.159 2010-03-19T04:31:59.821Z
20100319 0432.99698 25.45711433 -78.13708683 4.64 135.463 2010-03-19T04:32:59.819Z
20100319 0433.99697 25.45526917 -78.13521983 4.56 137.465 2010-03-19T04:33:59.818Z
20100319 0434.99693 25.45343033 -78.13336833 4.6 137.921 2010-03-19T04:34:59.816Z
20100319 0435.99692 25.45158317 -78.13149833 4.59 139.474 2010-03-19T04:35:59.815Z
20100319 0436.99688 25.44970933 -78.1296115 4.67 140.047 2010-03-19T04:36:59.813Z
20100319 0437.99687 25.447841 -78.127736 4.67 138.977 2010-03-19T04:37:59.812Z
20100319 0438.99683 25.44597783 -78.12585717 4.66 137.753 2010-03-19T04:38:59.810Z
20100319 0439.99682 25.44409883 -78.123984 4.71 138.06 2010-03-19T04:39:59.809Z
20100319 0440.99678 25.44221683 -78.12210183 4.67 138.975 2010-03-19T04:40:59.807Z
20100319 0441.99677 25.440339 -78.12022267 4.73 138.509 2010-03-19T04:41:59.806Z
20100319 0442.99673 25.4384 -78.11842383 4.67 138.373 2010-03-19T04:42:59.804Z
20100319 0443.99672 25.436471 -78.11663317 4.66 138.52 2010-03-19T04:43:59.803Z
20100319 0444.99668 25.43454967 -78.11485017 4.63 137.612 2010-03-19T04:44:59.801Z
20100319 0445.99667 25.43264917 -78.11308 4.62 137.297 2010-03-19T04:45:59.800Z
20100319 0446.99663 25.43073 -78.11128483 4.65 138.217 2010-03-19T04:46:59.798Z
20100319 0447.99662 25.428787 -78.10947817 4.74 139.1 2010-03-19T04:47:59.797Z
20100319 0448.99658 25.42685933 -78.10767233 4.63 140.369 2010-03-19T04:48:59.795Z
20100319 0449.99657 25.42495433 -78.1059 4.6 141.93 2010-03-19T04:49:59.794Z
20100319 0450.99653 25.42305183 -78.104122 4.6 141.468 2010-03-19T04:50:59.792Z
20100319 0451.99652 25.42113683 -78.10232233 4.66 141.737 2010-03-19T04:51:59.791Z
20100319 0452.99648 25.4192575 -78.10048417 4.69 135.169 2010-03-19T04:52:59.789Z
20100319 0453.99647 25.41736567 -78.09863017 4.68 137.91 2010-03-19T04:53:59.788Z
20100319 0454.99643 25.41550383 -78.09673183 4.68 138.511 2010-03-19T04:54:59.786Z
20100319 0455.99642 25.41365717 -78.094835 4.67 138.668 2010-03-19T04:55:59.785Z
20100319 0456.99638 25.411809 -78.09294017 4.64 138.36 2010-03-19T04:56:59.783Z
20100319 0457.99637 25.40994717 -78.0910595 4.64 136.678 2010-03-19T04:57:59.782Z
20100319 0458.99633 25.40808083 -78.08917683 4.69 135.777 2010-03-19T04:58:59.780Z
20100319 0459.99632 25.4062195 -78.087295 4.66 136.836 2010-03-19T04:59:59.779Z
20100319 0500.99628 25.40433933 -78.08544283 4.58 136.513 2010-03-19T05:00:59.777Z
20100319 0501.99627 25.40246817 -78.08359317 4.63 136.212 2010-03-19T05:01:59.776Z
20100319 0502.99623 25.40058883 -78.08172833 4.71 138.811 2010-03-19T05:02:59.774Z
20100319 0503.99622 25.398707 -78.07985 4.61 140.222 2010-03-19T05:03:59.773Z
20100319 0504.99618 25.39683933 -78.07797383 4.65 139.282 2010-03-19T05:04:59.771Z
20100319 0505.99617 25.39494983 -78.0761345 4.64 138.827 2010-03-19T05:05:59.770Z
20100319 0506.99613 25.39306767 -78.0742875 4.7 138.358 2010-03-19T05:06:59.768Z
20100319 0507.99612 25.39117533 -78.072448 4.66 137.593 2010-03-19T05:07:59.767Z
20100319 0508.99608 25.38928733 -78.07059817 4.69 135.161 2010-03-19T05:08:59.765Z
20100319 0509.99607 25.38737067 -78.0687755 4.64 136.522 2010-03-19T05:09:59.764Z
20100319 0510.99603 25.3854665 -78.06694067 4.61 138.821 2010-03-19T05:10:59.762Z
20100319 0511.99600 25.38354617 -78.06511733 4.67 139.43 2010-03-19T05:11:59.760Z
20100319 0512.99598 25.38162667 -78.06329583 4.64 139.741 2010-03-19T05:12:59.759Z
20100319 0513.99595 25.37971 -78.06148933 4.65 141.117 2010-03-19T05:13:59.757Z
20100319 0514.99593 25.37778817 -78.05967317 4.68 140.637 2010-03-19T05:14:59.756Z
20100319 0515.99590 25.37586567 -78.05787917 4.64 140.504 2010-03-19T05:15:59.754Z
20100319 0516.99588 25.37392567 -78.05609933 4.67 138.357 2010-03-19T05:16:59.753Z
20100319 0517.99585 25.3719735 -78.05430467 4.69 138.801 2010-03-19T05:17:59.751Z
20100319 0518.99583 25.3700015 -78.05251067 4.75 138.939 2010-03-19T05:18:59.750Z
20100319 0519.99580 25.3680155 -78.0507225 4.72 138.954 2010-03-19T05:19:59.748Z
20100319 0520.99578 25.36605517 -78.04889683 4.8 139.976 2010-03-19T05:20:59.747Z
20100319 0521.99575 25.3640825 -78.04709133 4.75 138.651 2010-03-19T05:21:59.745Z
20100319 0522.99573 25.36208183 -78.04525533 4.89 138.03 2010-03-19T05:22:59.744Z
20100319 0523.99570 25.36008767 -78.04341917 4.75 138.641 2010-03-19T05:23:59.742Z
20100319 0524.99568 25.35810583 -78.0415695 4.82 141.439 2010-03-19T05:24:59.741Z
20100319 0525.99565 25.3561085 -78.039721 4.8 141.749 2010-03-19T05:25:59.739Z
20100319 0526.99563 25.3541375 -78.03787983 4.73 140.296 2010-03-19T05:26:59.738Z
20100319 0527.99560 25.3521575 -78.036037 4.78 140.278 2010-03-19T05:27:59.736Z
20100319 0528.99558 25.35017867 -78.03416183 4.75 137.29 2010-03-19T05:28:59.735Z
20100319 0529.99555 25.34827217 -78.032208 4.8 135.667 2010-03-19T05:29:59.733Z
20100319 0530.99553 25.346435 -78.0302105 4.85 135.096 2010-03-19T05:30:59.732Z
20100319 0531.99550 25.34457283 -78.02819483 4.89 135.265 2010-03-19T05:31:59.730Z
20100319 0532.99548 25.34267417 -78.02624317 4.81 134.336 2010-03-19T05:32:59.729Z
20100319 0533.99545 25.34077467 -78.02427183 4.81 134.629 2010-03-19T05:33:59.727Z
20100319 0534.99543 25.33893617 -78.02228733 4.73 133.674 2010-03-19T05:34:59.726Z
20100319 0535.99540 25.33713883 -78.02028767 4.69 135.45 2010-03-19T05:35:59.724Z
20100319 0536.99538 25.33534567 -78.018284 4.67 136.977 2010-03-19T05:36:59.723Z
20100319 0537.99535 25.33355583 -78.01629467 4.68 135.901 2010-03-19T05:37:59.721Z
20100319 0538.99533 25.33175933 -78.01431517 4.71 136.519 2010-03-19T05:38:59.720Z
20100319 0539.99530 25.32994917 -78.012381 4.73 133.672 2010-03-19T05:39:59.718Z
20100319 0540.99528 25.32813533 -78.010438 4.72 134.105 2010-03-19T05:40:59.717Z
20100319 0541.99525 25.32632433 -78.008468 4.66 135.132 2010-03-19T05:41:59.715Z
20100319 0542.99523 25.32453017 -78.006504 4.62 134.963 2010-03-19T05:42:59.714Z
20100319 0543.99520 25.322737 -78.00455417 4.6 135.869 2010-03-19T05:43:59.712Z
20100319 0544.99518 25.32095267 -78.00261267 4.58 136.801 2010-03-19T05:44:59.711Z
20100319 0545.99515 25.319145 -78.00068983 4.66 137.43 2010-03-19T05:45:59.709Z
20100319 0546.99513 25.31733317 -77.99877533 4.61 136.814 2010-03-19T05:46:59.708Z
20100319 0547.99510 25.31550933 -77.996873 4.67 134.678 2010-03-19T05:47:59.706Z
20100319 0548.99508 25.31367567 -77.99494683 4.7 135.314 2010-03-19T05:48:59.705Z
20100319 0549.99505 25.3118595 -77.9930355 4.61 136.804 2010-03-19T05:49:59.703Z
20100319 0550.99503 25.31005467 -77.99111567 4.64 137.426 2010-03-19T05:50:59.702Z
20100319 0551.99500 25.30824133 -77.98920367 4.67 138.332 2010-03-19T05:51:59.700Z
20100319 0552.99498 25.3064315 -77.98730667 4.66 137.115 2010-03-19T05:52:59.699Z
20100319 0553.99495 25.3046035 -77.98539717 4.68 135.894 2010-03-19T05:53:59.697Z
20100319 0554.99493 25.30283633 -77.9835095 4.52 133.314 2010-03-19T05:54:59.696Z
20100319 0555.99490 25.30108883 -77.981613 4.57 134.299 2010-03-19T05:55:59.694Z
20100319 0556.99488 25.29933933 -77.97971333 4.52 134.726 2010-03-19T05:56:59.693Z
20100319 0557.99485 25.29759033 -77.97781617 4.48 136.45 2010-03-19T05:57:59.691Z
20100319 0558.99482 25.29584933 -77.9759145 4.5 136.615 2010-03-19T05:58:59.689Z
20100319 0559.99480 25.29407567 -77.97399583 4.6 136.964 2010-03-19T05:59:59.688Z
20100319 0600.99477 25.292287 -77.97208967 4.54 136.316 2010-03-19T06:00:59.686Z
20100319 0601.99475 25.29053117 -77.970193 4.57 133.988 2010-03-19T06:01:59.685Z
20100319 0602.99472 25.28875467 -77.96831217 4.5 135.201 2010-03-19T06:02:59.683Z
20100319 0603.99470 25.28698333 -77.96641833 4.58 135.859 2010-03-19T06:03:59.682Z
20100319 0604.99467 25.2851955 -77.96450917 4.55 135.848 2010-03-19T06:04:59.680Z
20100319 0605.99465 25.28340467 -77.9625975 4.62 134.953 2010-03-19T06:05:59.679Z
20100319 0606.99462 25.2816135 -77.9606845 4.59 137.416 2010-03-19T06:06:59.677Z
20100319 0607.99460 25.2798215 -77.95878 4.64 134.497 2010-03-19T06:07:59.676Z
20100319 0608.99457 25.27801883 -77.95689433 4.59 136.02 2010-03-19T06:08:59.674Z
20100319 0609.99455 25.2761765 -77.95508967 4.68 135.283 2010-03-19T06:09:59.673Z
20100319 0610.99452 25.27430583 -77.95327217 4.61 136.479 2010-03-19T06:10:59.671Z
20100319 0611.99450 25.27243183 -77.9514385 4.67 138.333 2010-03-19T06:11:59.670Z
20100319 0612.99447 25.270562 -77.94959583 4.6 140.355 2010-03-19T06:12:59.668Z
20100319 0613.99445 25.2686895 -77.94776267 4.6 140.814 2010-03-19T06:13:59.667Z
20100319 0614.99442 25.26681233 -77.94593617 4.68 139.234 2010-03-19T06:14:59.665Z
20100319 0615.99440 25.2649325 -77.94410383 4.68 138.484 2010-03-19T06:15:59.664Z
20100319 0616.99437 25.26305017 -77.94229917 4.64 139.865 2010-03-19T06:16:59.662Z
20100319 0617.99435 25.26118617 -77.940496 4.58 140.367 2010-03-19T06:17:59.661Z
20100319 0618.99432 25.25932083 -77.93870033 4.59 139.113 2010-03-19T06:18:59.659Z
20100319 0619.99430 25.25743283 -77.9369 4.72 138.016 2010-03-19T06:19:59.658Z
20100319 0620.99427 25.25553933 -77.93510683 4.63 137.873 2010-03-19T06:20:59.656Z
20100319 0621.99425 25.25364817 -77.933323 4.62 139.104 2010-03-19T06:21:59.655Z
20100319 0622.99422 25.25175983 -77.93154367 4.59 140.191 2010-03-19T06:22:59.653Z
20100319 0623.99420 25.24986067 -77.92976683 4.64 139.871 2010-03-19T06:23:59.652Z
20100319 0624.99417 25.24794083 -77.92797583 4.63 142.478 2010-03-19T06:24:59.650Z
20100319 0625.99415 25.246035 -77.92619167 4.65 140.312 2010-03-19T06:25:59.649Z
20100319 0626.99412 25.24413 -77.92441367 4.7 139.678 2010-03-19T06:26:59.647Z
20100319 0627.99410 25.24223683 -77.92261483 4.64 139.396 2010-03-19T06:27:59.646Z
20100319 0628.99407 25.24033567 -77.9208225 4.65 138.329 2010-03-19T06:28:59.644Z
20100319 0629.99405 25.238438 -77.91905367 4.59 139.882 2010-03-19T06:29:59.643Z
20100319 0630.99402 25.23650683 -77.917269 4.59 138.792 2010-03-19T06:30:59.641Z
20100319 0631.99400 25.23458883 -77.9154805 4.62 140.183 2010-03-19T06:31:59.640Z
20100319 0632.99397 25.23266833 -77.91369033 4.62 140.487 2010-03-19T06:32:59.638Z
20100319 0633.99395 25.23074733 -77.91189167 4.64 141.229 2010-03-19T06:33:59.637Z
20100319 0634.99392 25.22881883 -77.91011417 4.61 139.25 2010-03-19T06:34:59.635Z
20100319 0635.99390 25.22688417 -77.90833183 4.69 138.785 2010-03-19T06:35:59.634Z
20100319 0636.99387 25.22495267 -77.906546 4.62 138.792 2010-03-19T06:36:59.632Z
20100319 0637.99385 25.22302167 -77.90477967 4.68 139.533 2010-03-19T06:37:59.631Z
20100319 0638.99382 25.22108617 -77.90303217 4.6 137.551 2010-03-19T06:38:59.629Z
20100319 0639.99380 25.21917233 -77.90128017 4.54 138.179 2010-03-19T06:39:59.628Z
20100319 0640.99377 25.21725717 -77.8995205 4.59 138.48 2010-03-19T06:40:59.626Z
20100319 0641.99373 25.215281 -77.8978275 4.59 142.362 2010-03-19T06:41:59.624Z
20100319 0642.99372 25.21329967 -77.8961385 4.63 142.947 2010-03-19T06:42:59.623Z
20100319 0643.99368 25.21130117 -77.8944645 4.63 140.629 2010-03-19T06:43:59.621Z
20100319 0644.99367 25.20931883 -77.8927875 4.66 141.378 2010-03-19T06:44:59.620Z
20100319 0645.99363 25.20733317 -77.8911145 4.57 143.165 2010-03-19T06:45:59.618Z
20100319 0646.99362 25.2053595 -77.88944933 4.53 141.478 2010-03-19T06:46:59.617Z
20100319 0647.99358 25.203331 -77.88787733 4.61 142.814 2010-03-19T06:47:59.615Z
20100319 0648.99357 25.201309 -77.8863035 4.6 145.306 2010-03-19T06:48:59.614Z
20100319 0649.99353 25.19927817 -77.88474383 4.62 145.439 2010-03-19T06:49:59.612Z
20100319 0650.99352 25.19723317 -77.88318517 4.59 143.616 2010-03-19T06:50:59.611Z
20100319 0651.99348 25.19520567 -77.8816355 4.62 147.453 2010-03-19T06:51:59.609Z
20100319 0652.99347 25.19320033 -77.88002017 4.66 142.439 2010-03-19T06:52:59.608Z
20100319 0653.99343 25.19118317 -77.87838567 4.59 142.355 2010-03-19T06:53:59.606Z
20100319 0654.99342 25.18916183 -77.8767705 4.56 143.334 2010-03-19T06:54:59.605Z
20100319 0655.99338 25.187158 -77.87514233 4.6 141.109 2010-03-19T06:55:59.603Z
20100319 0656.99337 25.18516133 -77.87353 4.53 142.577 2010-03-19T06:56:59.602Z
20100319 0657.99333 25.1831545 -77.87192867 4.55 142.235 2010-03-19T06:57:59.600Z
20100319 0658.99332 25.18116733 -77.87031133 4.65 143.679 2010-03-19T06:58:59.599Z
20100319 0659.99328 25.17915667 -77.868716 4.59 143.139 2010-03-19T06:59:59.597Z
20100319 0700.99327 25.177133 -77.86712067 4.61 144.043 2010-03-19T07:00:59.596Z
20100319 0701.99323 25.1751085 -77.86552317 4.53 144.147 2010-03-19T07:01:59.594Z
20100319 0702.99322 25.17313683 -77.86389667 4.57 139.408 2010-03-19T07:02:59.593Z
20100319 0703.99318 25.17120567 -77.862197 4.57 140.511 2010-03-19T07:03:59.591Z
20100319 0704.99317 25.169352 -77.86037933 4.53 140.056 2010-03-19T07:04:59.590Z
20100319 0705.99313 25.1675025 -77.858568 4.6 138.93 2010-03-19T07:05:59.588Z
20100319 0706.99312 25.16564517 -77.8567605 4.61 139.244 2010-03-19T07:06:59.587Z
20100319 0707.99308 25.16377433 -77.85497167 4.56 137.845 2010-03-19T07:07:59.585Z
20100319 0708.99307 25.16189867 -77.85320833 4.62 138.009 2010-03-19T07:08:59.584Z
20100319 0709.99303 25.16001883 -77.851429 4.67 140.13 2010-03-19T07:09:59.582Z
20100319 0710.99302 25.158134 -77.84964433 4.58 139.251 2010-03-19T07:10:59.581Z
20100319 0711.99298 25.1562325 -77.8478715 4.62 138.312 2010-03-19T07:11:59.579Z
20100319 0712.99297 25.15434183 -77.846093 4.55 138.003 2010-03-19T07:12:59.578Z
20100319 0713.99293 25.15243633 -77.8443105 4.56 139.874 2010-03-19T07:13:59.576Z
20100319 0714.99292 25.15052067 -77.84253633 4.63 141.082 2010-03-19T07:14:59.575Z
20100319 0715.99288 25.148608 -77.84075883 4.53 140.37 2010-03-19T07:15:59.573Z
20100319 0716.99287 25.14672233 -77.83897267 4.59 138.771 2010-03-19T07:16:59.572Z
20100319 0717.99283 25.144849 -77.83711817 4.64 138.455 2010-03-19T07:17:59.570Z
20100319 0718.99282 25.14299417 -77.8352605 4.69 137.389 2010-03-19T07:18:59.569Z
20100319 0719.99278 25.14112733 -77.8334055 4.68 137.233 2010-03-19T07:19:59.567Z
20100319 0720.99277 25.1392485 -77.83156583 4.63 136.922 2010-03-19T07:20:59.566Z
20100319 0721.99273 25.13737267 -77.829728 4.54 135.025 2010-03-19T07:21:59.564Z
20100319 0722.99272 25.13565733 -77.8277435 4.67 132.327 2010-03-19T07:22:59.563Z
20100319 0723.99268 25.13390567 -77.825754 4.65 134.011 2010-03-19T07:23:59.561Z
20100319 0724.99267 25.13223567 -77.82371917 4.59 130.061 2010-03-19T07:24:59.560Z
20100319 0725.99263 25.1305935 -77.82163333 4.64 130.456 2010-03-19T07:25:59.558Z
20100319 0726.99260 25.12896533 -77.81954017 4.74 130.906 2010-03-19T07:26:59.556Z
20100319 0727.99258 25.127308 -77.81745967 4.61 131.029 2010-03-19T07:27:59.555Z
20100319 0728.99255 25.1256585 -77.81538567 4.68 129.43 2010-03-19T07:28:59.553Z
20100319 0729.99253 25.12404067 -77.8132995 4.64 132.305 2010-03-19T07:29:59.552Z
20100319 0730.99250 25.1224145 -77.81122983 4.64 131.683 2010-03-19T07:30:59.550Z
20100319 0731.99248 25.12077233 -77.80913183 4.67 131.272 2010-03-19T07:31:59.549Z
20100319 0732.99245 25.11911767 -77.8070375 4.73 130.132 2010-03-19T07:32:59.547Z
20100319 0733.99243 25.117451 -77.80489717 4.66 131.402 2010-03-19T07:33:59.546Z
20100319 0734.99240 25.1158135 -77.80275133 4.75 131.371 2010-03-19T07:34:59.544Z
20100319 0735.99238 25.11417867 -77.800621 4.66 132.332 2010-03-19T07:35:59.543Z
20100319 0736.99235 25.112528 -77.79848267 4.7 127.479 2010-03-19T07:36:59.541Z
20100319 0737.99233 25.11088433 -77.79635533 4.78 128.711 2010-03-19T07:37:59.540Z
20100319 0738.99230 25.109245 -77.7941995 4.66 131.713 2010-03-19T07:38:59.538Z
20100319 0739.99228 25.107575 -77.79201267 4.81 137.53 2010-03-19T07:39:59.537Z
20100319 0740.99225 25.105796 -77.78991933 4.81 130.114 2010-03-19T07:40:59.535Z
20100319 0741.99223 25.10402967 -77.787828 4.82 131.174 2010-03-19T07:41:59.534Z
20100319 0742.99220 25.10230633 -77.7856565 4.84 133.692 2010-03-19T07:42:59.532Z
20100319 0743.99218 25.10056733 -77.78351817 4.9 132.429 2010-03-19T07:43:59.531Z
20100319 0744.99215 25.09879483 -77.78138467 4.89 131.387 2010-03-19T07:44:59.529Z
20100319 0745.99213 25.09705967 -77.779213 4.85 133.569 2010-03-19T07:45:59.528Z
20100319 0746.99210 25.09531267 -77.77708417 4.86 130.481 2010-03-19T07:46:59.526Z
20100319 0747.99208 25.0935535 -77.774921 4.86 131.953 2010-03-19T07:47:59.525Z
20100319 0748.99205 25.09177633 -77.77279033 4.88 131.983 2010-03-19T07:48:59.523Z
20100319 0749.99203 25.09000933 -77.770636 4.89 130.515 2010-03-19T07:49:59.522Z
20100319 0750.99200 25.088226 -77.7684345 4.97 133.661 2010-03-19T07:50:59.520Z
20100319 0751.99198 25.08644167 -77.766259 4.99 131.528 2010-03-19T07:51:59.519Z
20100319 0752.99195 25.08465817 -77.76405667 4.92 132.173 2010-03-19T07:52:59.517Z
20100319 0753.99193 25.08285733 -77.76185033 5.02 128.409 2010-03-19T07:53:59.516Z
20100319 0754.99190 25.08104967 -77.75963183 4.99 128.948 2010-03-19T07:54:59.514Z
20100319 0755.99188 25.07927467 -77.75745333 4.84 128.969 2010-03-19T07:55:59.513Z
20100319 0756.99185 25.077525 -77.75522533 5.06 132.744 2010-03-19T07:56:59.511Z
20100319 0757.99183 25.075802 -77.75298583 4.95 131.625 2010-03-19T07:57:59.510Z
20100319 0758.99180 25.07400483 -77.7508545 4.89 131.68 2010-03-19T07:58:59.508Z
20100319 0759.99178 25.07218917 -77.748716 4.84 131.334 2010-03-19T07:59:59.507Z
20100319 0800.99175 25.07039117 -77.74654367 4.9 133.018 2010-03-19T08:00:59.505Z
20100319 0801.99173 25.0685595 -77.74445167 4.85 136.641 2010-03-19T08:01:59.504Z
20100319 0802.99170 25.06659833 -77.74252267 4.87 136.348 2010-03-19T08:02:59.502Z
20100319 0803.99168 25.06461783 -77.740615 4.93 137.819 2010-03-19T08:03:59.501Z
20100319 0805.00832 25.06260033 -77.73866433 4.98 139.818 2010-03-19T08:05:00.499Z
20100319 0806.00828 25.060597 -77.73675817 4.83 137.228 2010-03-19T08:06:00.497Z
20100319 0807.00827 25.0586065 -77.73482367 4.86 138.11 2010-03-19T08:07:00.496Z
20100319 0808.00823 25.0566325 -77.73293583 4.87 137.38 2010-03-19T08:08:00.494Z
20100319 0809.00822 25.05469833 -77.73101483 4.85 139.871 2010-03-19T08:09:00.493Z
20100319 0810.00818 25.0527595 -77.72906217 4.91 135.342 2010-03-19T08:10:00.491Z
20100319 0811.00817 25.05081033 -77.7270605 5.04 137.1 2010-03-19T08:11:00.490Z
20100319 0812.00813 25.04883 -77.72502783 5.05 133.431 2010-03-19T08:12:00.488Z
20100319 0813.00812 25.04686067 -77.72303667 4.96 136.237 2010-03-19T08:13:00.487Z
20100319 0814.00808 25.0448755 -77.72106667 4.89 137.081 2010-03-19T08:14:00.485Z
20100319 0815.00807 25.04289917 -77.71908683 4.99 134.959 2010-03-19T08:15:00.484Z
20100319 0816.00803 25.04089017 -77.71712 4.91 136.805 2010-03-19T08:16:00.482Z
20100319 0817.00802 25.03890133 -77.7151255 4.76 135.562 2010-03-19T08:17:00.481Z
20100319 0818.00798 25.03690083 -77.71315483 4.96 137.088 2010-03-19T08:18:00.479Z
20100319 0819.00797 25.03487533 -77.711202 4.98 138.515 2010-03-19T08:19:00.478Z
20100319 0820.00793 25.03286833 -77.7092505 4.97 138.24 2010-03-19T08:20:00.476Z
20100319 0821.00792 25.0308745 -77.70728933 4.97 136.374 2010-03-19T08:21:00.475Z
20100319 0822.00788 25.02887217 -77.70533167 4.81 135.885 2010-03-19T08:22:00.473Z
20100319 0823.00787 25.026874 -77.70338033 4.94 136.797 2010-03-19T08:23:00.472Z
20100319 0824.00783 25.02489317 -77.70141317 4.99 139.94 2010-03-19T08:24:00.470Z
20100319 0825.00782 25.02287833 -77.699433 5.0 136.661 2010-03-19T08:25:00.469Z
20100319 0826.00778 25.02087983 -77.69749717 4.94 137.367 2010-03-19T08:26:00.467Z
20100319 0827.00777 25.0188585 -77.69550617 5.07 137.652 2010-03-19T08:27:00.466Z
20100319 0828.00773 25.0168265 -77.6935285 4.93 138.242 2010-03-19T08:28:00.464Z
20100319 0829.00772 25.014776 -77.69154217 5.01 137.796 2010-03-19T08:29:00.463Z
20100319 0830.00768 25.01273967 -77.68956667 5.06 139.062 2010-03-19T08:30:00.461Z
20100319 0831.00767 25.01071667 -77.68761083 5.02 140.502 2010-03-19T08:31:00.460Z
20100319 0832.00763 25.008691 -77.68566367 5.05 137.235 2010-03-19T08:32:00.458Z
20100319 0833.00762 25.00665883 -77.68372667 4.95 136.353 2010-03-19T08:33:00.457Z
20100319 0834.00758 25.00460717 -77.68177167 4.8 142.419 2010-03-19T08:34:00.455Z
20100319 0835.00757 25.00259567 -77.679849 4.71 137.512 2010-03-19T08:35:00.454Z
20100319 0836.00753 25.00056267 -77.67793433 4.94 139.397 2010-03-19T08:36:00.452Z
20100319 0837.00752 24.9985185 -77.67602717 5.05 139.206 2010-03-19T08:37:00.451Z
20100319 0838.00748 24.99638067 -77.67421883 4.97 141.679 2010-03-19T08:38:00.449Z
20100319 0839.00747 24.99428417 -77.67242833 4.94 140.978 2010-03-19T08:39:00.448Z
20100319 0840.00743 24.99215367 -77.670654 4.87 140.732 2010-03-19T08:40:00.446Z
20100319 0841.00742 24.99006317 -77.66883883 4.79 140.495 2010-03-19T08:41:00.445Z
20100319 0842.00738 24.98803833 -77.66684383 5.02 139.211 2010-03-19T08:42:00.443Z
20100319 0843.00737 24.98597967 -77.66488433 5.0 139.789 2010-03-19T08:43:00.442Z
20100319 0844.00733 24.983949 -77.662944 4.97 140.233 2010-03-19T08:44:00.440Z
20100319 0845.00732 24.98191033 -77.6610015 4.98 139.508 2010-03-19T08:45:00.439Z
20100319 0846.00728 24.97990833 -77.65906967 4.68 136.884 2010-03-19T08:46:00.437Z
20100319 0847.00727 24.97793933 -77.6571615 4.86 135.591 2010-03-19T08:47:00.436Z
20100319 0848.00723 24.97598333 -77.65521433 4.74 140.81 2010-03-19T08:48:00.434Z
20100319 0849.00720 24.9740195 -77.65329467 4.86 135.59 2010-03-19T08:49:00.432Z
20100319 0850.00718 24.9719915 -77.65136467 4.75 139.603 2010-03-19T08:50:00.431Z
20100319 0851.00715 24.96999683 -77.649409 4.93 141.841 2010-03-19T08:51:00.429Z
20100319 0852.00713 24.9680095 -77.64746617 4.99 138.077 2010-03-19T08:52:00.428Z
20100319 0853.00710 24.966008 -77.64555383 4.98 136.652 2010-03-19T08:53:00.426Z
20100319 0853.99042 24.96405 -77.64365233 5.06 138.143 2010-03-19T08:53:59.425Z
20100319 0855.00705 24.96201517 -77.64166883 4.88 140.578 2010-03-19T08:55:00.423Z
20100319 0856.00703 24.95999983 -77.63973717 4.92 139.228 2010-03-19T08:56:00.422Z
20100319 0857.00700 24.957998 -77.63779217 4.86 137.206 2010-03-19T08:57:00.420Z
20100319 0858.00698 24.95596133 -77.63586767 4.96 140.37 2010-03-19T08:58:00.419Z
20100319 0859.00695 24.95397667 -77.6339185 4.86 139.115 2010-03-19T08:59:00.417Z
20100319 0900.00693 24.951992 -77.63198667 5.04 139.343 2010-03-19T09:00:00.416Z
20100319 0901.00690 24.9499735 -77.63006633 5.0 137.935 2010-03-19T09:01:00.414Z
20100319 0902.00688 24.94799233 -77.62813367 4.93 140.089 2010-03-19T09:02:00.413Z
20100319 0903.00685 24.9459625 -77.62621233 4.99 139.076 2010-03-19T09:03:00.411Z
20100319 0904.00683 24.9439365 -77.62430283 5.03 140.048 2010-03-19T09:04:00.410Z
20100319 0905.00680 24.94194367 -77.62238467 4.93 138.796 2010-03-19T09:05:00.408Z
20100319 0906.00678 24.93989433 -77.6204665 4.84 138.666 2010-03-19T09:06:00.407Z
20100319 0907.00675 24.937874 -77.618566 4.86 135.299 2010-03-19T09:07:00.405Z
20100319 0908.00673 24.93581317 -77.61662533 5.03 135.381 2010-03-19T09:08:00.404Z
20100319 0909.00670 24.93379867 -77.61466917 4.96 137.787 2010-03-19T09:09:00.402Z
20100319 0910.00668 24.93178633 -77.612696 4.96 141.812 2010-03-19T09:10:00.401Z
20100319 0911.00665 24.9297585 -77.610727 4.95 140.234 2010-03-19T09:11:00.399Z
20100319 0912.00663 24.92773283 -77.60882183 4.85 139.254 2010-03-19T09:12:00.398Z
20100319 0913.00660 24.92574967 -77.60689483 4.88 138.813 2010-03-19T09:13:00.396Z
20100319 0914.00658 24.92374817 -77.60495583 5.06 138.061 2010-03-19T09:14:00.395Z
20100319 0915.00655 24.9217415 -77.60304967 4.82 137.93 2010-03-19T09:15:00.393Z
20100319 0916.00653 24.91972883 -77.60110567 5.12 135.817 2010-03-19T09:16:00.392Z
20100319 0917.00650 24.917661 -77.59915383 5.03 139.056 2010-03-19T09:17:00.390Z
20100319 0918.00648 24.915629 -77.59720767 5.01 140.334 2010-03-19T09:18:00.389Z
20100319 0919.00645 24.91352633 -77.59541483 4.86 144.688 2010-03-19T09:19:00.387Z
20100319 0920.00643 24.91141217 -77.59365483 4.82 145.509 2010-03-19T09:20:00.386Z
20100319 0921.00640 24.9092545 -77.59190167 5.04 142.584 2010-03-19T09:21:00.384Z
20100319 0922.00638 24.90714333 -77.59011933 4.92 139.956 2010-03-19T09:22:00.383Z
20100319 0923.00635 24.905108 -77.58825583 4.98 138.776 2010-03-19T09:23:00.381Z
20100319 0924.00633 24.90304183 -77.58639417 4.88 142.6 2010-03-19T09:24:00.380Z
20100319 0925.00630 24.90101133 -77.58451233 4.85 141.603 2010-03-19T09:25:00.378Z
20100319 0926.00628 24.89896733 -77.58262667 5.02 139.9 2010-03-19T09:26:00.377Z
20100319 0927.00625 24.89691467 -77.58072467 4.99 137.058 2010-03-19T09:27:00.375Z
20100319 0928.00623 24.89493783 -77.57877817 4.91 140.824 2010-03-19T09:28:00.374Z
20100319 0929.00620 24.89289017 -77.57691233 4.92 142.714 2010-03-19T09:29:00.372Z
20100319 0930.00618 24.89083617 -77.575028 5.0 140.912 2010-03-19T09:30:00.371Z
20100319 0931.00615 24.88874917 -77.57314083 5.03 137.92 2010-03-19T09:31:00.369Z
20100319 0932.00612 24.88668883 -77.5712885 4.91 140.096 2010-03-19T09:32:00.367Z
20100319 0933.00610 24.88464767 -77.56938267 4.91 139.809 2010-03-19T09:33:00.366Z
20100319 0934.00607 24.88256983 -77.567531 4.98 138.479 2010-03-19T09:34:00.364Z
20100319 0935.00605 24.8805075 -77.565662 5.14 139.293 2010-03-19T09:35:00.363Z
20100319 0936.00602 24.87843083 -77.56380233 5.06 138.753 2010-03-19T09:36:00.361Z
20100319 0937.00600 24.87633283 -77.56190333 4.88 142.89 2010-03-19T09:37:00.360Z
20100319 0938.00597 24.87430083 -77.5600355 4.87 141.28 2010-03-19T09:38:00.358Z
20100319 0939.00595 24.87222 -77.55817933 4.84 142.204 2010-03-19T09:39:00.357Z
20100319 0940.00592 24.87017283 -77.55629433 4.91 141.84 2010-03-19T09:40:00.355Z
20100319 0941.00590 24.86813917 -77.55440933 4.85 139.547 2010-03-19T09:41:00.354Z
20100319 0942.00587 24.86614233 -77.55243 5.0 136.625 2010-03-19T09:42:00.352Z
20100319 0943.00585 24.86412167 -77.55051517 4.96 143.966 2010-03-19T09:43:00.351Z
20100319 0944.00582 24.8620765 -77.548648 4.84 141.464 2010-03-19T09:44:00.349Z
20100319 0945.00580 24.8599885 -77.54680433 4.92 140.964 2010-03-19T09:45:00.348Z
20100319 0946.00577 24.8579065 -77.54495483 4.86 137.773 2010-03-19T09:46:00.346Z
20100319 0947.00575 24.85584683 -77.54311133 4.88 139.814 2010-03-19T09:47:00.345Z
20100319 0948.00572 24.85377833 -77.54132817 4.87 143.188 2010-03-19T09:48:00.343Z
20100319 0949.00570 24.851716 -77.5395115 4.95 144.124 2010-03-19T09:49:00.342Z
20100319 0950.00567 24.84967517 -77.53769867 4.94 142.388 2010-03-19T09:50:00.340Z
20100319 0951.00565 24.847602 -77.53592683 4.77 141.066 2010-03-19T09:51:00.339Z
20100319 0952.00562 24.8455585 -77.534167 4.7 141.111 2010-03-19T09:52:00.337Z
20100319 0953.00560 24.843525 -77.5323825 4.67 142.976 2010-03-19T09:53:00.336Z
20100319 0954.00557 24.84149917 -77.53060767 4.79 141.782 2010-03-19T09:54:00.334Z
20100319 0955.00555 24.83949 -77.52888067 4.88 139.513 2010-03-19T09:55:00.333Z
20100319 0956.00552 24.83751117 -77.527188 4.66 141.301 2010-03-19T09:56:00.331Z
20100319 0957.00550 24.83553033 -77.52542167 4.6 143.828 2010-03-19T09:57:00.330Z
20100319 0958.00547 24.83356067 -77.52370733 4.6 138.24 2010-03-19T09:58:00.328Z
20100319 0959.00545 24.83167167 -77.521891 4.76 138.516 2010-03-19T09:59:00.327Z
20100319 1000.00542 24.829786 -77.520004 4.81 139.093 2010-03-19T10:00:00.325Z
20100319 1001.00540 24.82791883 -77.51811867 4.82 134.205 2010-03-19T10:01:00.324Z
20100319 1002.00537 24.826071 -77.5161735 4.72 135.35 2010-03-19T10:02:00.322Z
20100319 1003.00535 24.82420017 -77.51421867 4.66 138.534 2010-03-19T10:03:00.321Z
20100319 1004.00532 24.8222955 -77.51227633 5.0 134.194 2010-03-19T10:04:00.319Z
20100319 1005.00530 24.8203965 -77.5102725 4.78 136.271 2010-03-19T10:05:00.318Z
20100319 1006.00527 24.81847333 -77.50827917 4.89 137.028 2010-03-19T10:06:00.316Z
20100319 1007.00525 24.81657467 -77.5063085 4.77 136.725 2010-03-19T10:07:00.315Z
20100319 1008.00522 24.814659 -77.50435017 4.84 136.721 2010-03-19T10:08:00.313Z
20100319 1009.00520 24.8128685 -77.50228417 4.81 130.768 2010-03-19T10:09:00.312Z
20100319 1010.00517 24.811183 -77.500065 4.95 126.886 2010-03-19T10:10:00.310Z
20100319 1011.00515 24.80953183 -77.497772 4.79 128.338 2010-03-19T10:11:00.309Z
20100319 1012.00512 24.80790017 -77.49552 4.91 128.122 2010-03-19T10:12:00.307Z
20100319 1013.00510 24.80621217 -77.4932505 4.83 129.155 2010-03-19T10:13:00.306Z
20100319 1014.00507 24.8046575 -77.49093017 4.77 127.992 2010-03-19T10:14:00.304Z
20100319 1015.00503 24.80307767 -77.4885915 4.95 128.51 2010-03-19T10:15:00.302Z
20100319 1016.00502 24.80152067 -77.48623967 4.8 126.078 2010-03-19T10:16:00.301Z
20100319 1017.00498 24.80000917 -77.48382533 5.05 125.25 2010-03-19T10:17:00.299Z
20100319 1018.00497 24.79858883 -77.48135033 5.12 117.254 2010-03-19T10:18:00.298Z
20100319 1019.00493 24.7973175 -77.4787265 4.97 119.367 2010-03-19T10:19:00.296Z
20100319 1020.00492 24.79606767 -77.47614383 4.71 117.536 2010-03-19T10:20:00.295Z
20100319 1021.00488 24.79489467 -77.47354967 4.92 112.291 2010-03-19T10:21:00.293Z
20100319 1022.00487 24.7937145 -77.470931 4.98 113.583 2010-03-19T10:22:00.292Z
20100319 1023.00483 24.792714 -77.46824183 5.07 114.775 2010-03-19T10:23:00.290Z
20100319 1024.00482 24.79165517 -77.4654925 4.89 114.056 2010-03-19T10:24:00.289Z
20100319 1025.00478 24.79062217 -77.462806 4.94 111.271 2010-03-19T10:25:00.287Z
20100319 1026.00477 24.7895665 -77.46010183 4.75 112.852 2010-03-19T10:26:00.286Z
20100319 1027.00473 24.78855183 -77.4574095 5.0 111.913 2010-03-19T10:27:00.284Z
20100319 1028.00472 24.7876655 -77.45463117 5.08 104.959 2010-03-19T10:28:00.283Z
20100319 1029.00468 24.7868955 -77.45178267 4.82 105.315 2010-03-19T10:29:00.281Z
20100319 1030.00467 24.78636467 -77.44887633 5.07 103.254 2010-03-19T10:30:00.280Z
20100319 1031.00463 24.78575167 -77.445963 5.02 104.913 2010-03-19T10:31:00.278Z
20100319 1032.00462 24.7850465 -77.44304933 5.11 102.725 2010-03-19T10:32:00.277Z
20100319 1033.00458 24.78448567 -77.44009617 4.86 102.742 2010-03-19T10:33:00.275Z
20100319 1034.00457 24.78403833 -77.43712433 5.08 102.796 2010-03-19T10:34:00.274Z
20100319 1035.00453 24.7835635 -77.43413667 5.15 98.66 2010-03-19T10:35:00.272Z
20100319 1036.00452 24.7830365 -77.43111967 4.95 100.31 2010-03-19T10:36:00.271Z
20100319 1037.00448 24.78257967 -77.42811667 5.06 100.932 2010-03-19T10:37:00.269Z
20100319 1038.00447 24.782055 -77.425167 5.16 101.359 2010-03-19T10:38:00.268Z
20100319 1039.00443 24.781573 -77.42217483 5.14 103.285 2010-03-19T10:39:00.266Z
20100319 1040.00442 24.7810935 -77.4191585 5.07 102.851 2010-03-19T10:40:00.265Z
20100319 1041.00438 24.7805925 -77.41620633 5.21 101.643 2010-03-19T10:41:00.263Z
20100319 1042.00437 24.78011783 -77.4132275 5.04 99.062 2010-03-19T10:42:00.262Z
20100319 1043.00433 24.77959967 -77.41021867 5.01 99.76 2010-03-19T10:43:00.260Z
20100319 1044.00432 24.77910633 -77.4072145 5.21 100.208 2010-03-19T10:44:00.259Z
20100319 1045.00428 24.77861633 -77.404213 5.14 99.494 2010-03-19T10:45:00.257Z
20100319 1046.00427 24.77812817 -77.40119883 5.09 102.366 2010-03-19T10:46:00.256Z
20100319 1047.00423 24.77769533 -77.39819517 5.14 98.245 2010-03-19T10:47:00.254Z
20100319 1048.00422 24.77728217 -77.395195 5.22 97.318 2010-03-19T10:48:00.253Z
20100319 1049.00418 24.7768545 -77.3921345 5.14 98.051 2010-03-19T10:49:00.251Z
20100319 1050.00417 24.77646033 -77.38909917 5.15 97.414 2010-03-19T10:50:00.250Z
20100319 1051.00413 24.77607583 -77.38608067 5.12 98.077 2010-03-19T10:51:00.248Z
20100319 1052.00412 24.7756785 -77.383046 4.99 97.88 2010-03-19T10:52:00.247Z
20100319 1053.00408 24.77527033 -77.38005667 5.12 97.659 2010-03-19T10:53:00.245Z
20100319 1054.00407 24.77484083 -77.37707133 5.06 96.917 2010-03-19T10:54:00.244Z
20100319 1055.00403 24.77446117 -77.374032 5.5 97.133 2010-03-19T10:55:00.242Z
20100319 1056.00402 24.77405067 -77.37102983 5.24 98.727 2010-03-19T10:56:00.241Z
20100319 1057.00398 24.7736205 -77.36799133 4.96 98.768 2010-03-19T10:57:00.239Z
20100319 1058.00397 24.7732325 -77.3649825 5.11 98.104 2010-03-19T10:58:00.238Z
20100319 1059.00393 24.77285317 -77.36198517 5.17 99.045 2010-03-19T10:59:00.236Z
20100319 1100.00390 24.77245117 -77.35895817 5.2 97.342 2010-03-19T11:00:00.234Z
20100319 1101.00388 24.77204933 -77.35595967 5.08 95.828 2010-03-19T11:01:00.233Z
20100319 1102.00385 24.77167867 -77.352893 5.24 98.1 2010-03-19T11:02:00.231Z
20100319 1103.00383 24.7712715 -77.34986083 5.12 97.673 2010-03-19T11:03:00.230Z
20100319 1104.00380 24.770896 -77.3468525 5.1 98.956 2010-03-19T11:04:00.228Z
20100319 1105.00378 24.77049483 -77.343811 5.28 100.28 2010-03-19T11:05:00.227Z
20100319 1106.00375 24.77011317 -77.340765 5.3 97.012 2010-03-19T11:06:00.225Z
20100319 1107.00373 24.7696925 -77.3377595 5.11 98.509 2010-03-19T11:07:00.224Z
20100319 1108.00370 24.769316 -77.33470967 5.04 100.349 2010-03-19T11:08:00.222Z
20100319 1109.00368 24.76893133 -77.33165783 5.35 99.723 2010-03-19T11:09:00.221Z
20100319 1110.00365 24.76852033 -77.32859383 5.26 99.092 2010-03-19T11:10:00.219Z
20100319 1111.00363 24.768178 -77.32553533 5.16 96.378 2010-03-19T11:11:00.218Z
20100319 1112.00360 24.76784467 -77.32248317 5.2 99.618 2010-03-19T11:12:00.216Z
20100319 1113.00358 24.76749583 -77.31946783 5.26 97.87 2010-03-19T11:13:00.215Z
20100319 1114.00355 24.76714067 -77.31640583 5.27 97.452 2010-03-19T11:14:00.213Z
20100319 1115.00353 24.76681733 -77.313341 5.06 94.812 2010-03-19T11:15:00.212Z
20100319 1116.00350 24.7664635 -77.31028967 5.14 97.841 2010-03-19T11:16:00.210Z
20100319 1117.00348 24.76612983 -77.30727917 5.16 94.717 2010-03-19T11:17:00.209Z
20100319 1118.00345 24.76578567 -77.3042625 5.17 97.389 2010-03-19T11:18:00.207Z
20100319 1119.00343 24.765479 -77.30122067 5.07 97.747 2010-03-19T11:19:00.206Z
20100319 1120.00340 24.7651155 -77.298213 5.06 94.612 2010-03-19T11:20:00.204Z
20100319 1121.00338 24.764786 -77.295177 5.28 99.264 2010-03-19T11:21:00.203Z
20100319 1122.00335 24.76445633 -77.2921295 5.31 99.194 2010-03-19T11:22:00.201Z
20100319 1123.00333 24.76409217 -77.28906983 5.16 97.829 2010-03-19T11:23:00.200Z
20100319 1124.00330 24.76376083 -77.2860305 5.13 97.021 2010-03-19T11:24:00.198Z
20100319 1125.00328 24.76342533 -77.28297817 5.07 93.76 2010-03-19T11:25:00.197Z
20100319 1126.00325 24.763117 -77.279945 5.14 96.397 2010-03-19T11:26:00.195Z
20100319 1127.00323 24.76277783 -77.27692733 5.42 95.28 2010-03-19T11:27:00.194Z
20100319 1128.00320 24.76244717 -77.2738805 5.15 97.621 2010-03-19T11:28:00.192Z
20100319 1129.00318 24.76212183 -77.270842 5.07 97.536 2010-03-19T11:29:00.191Z
20100319 1130.00315 24.76178467 -77.267818 5.21 96.108 2010-03-19T11:30:00.189Z
20100319 1131.00313 24.76144883 -77.2647665 4.98 98.523 2010-03-19T11:31:00.188Z
20100319 1132.00310 24.76113217 -77.261738 4.99 97.879 2010-03-19T11:32:00.186Z
20100319 1133.00308 24.76081233 -77.25872 5.24 94.641 2010-03-19T11:33:00.185Z
20100319 1134.00305 24.76045933 -77.25570233 5.12 96.0 2010-03-19T11:34:00.183Z
20100319 1135.00303 24.76016067 -77.25265417 5.14 96.188 2010-03-19T11:35:00.182Z
20100319 1136.00300 24.75980933 -77.24965667 5.11 94.973 2010-03-19T11:36:00.180Z
20100319 1137.00298 24.75946367 -77.24668567 5.08 98.576 2010-03-19T11:37:00.179Z
20100319 1138.00295 24.75914117 -77.24365417 5.12 97.462 2010-03-19T11:38:00.177Z
20100319 1139.00293 24.758811 -77.240665 5.26 95.227 2010-03-19T11:39:00.176Z
20100319 1140.00290 24.758485 -77.2376295 5.32 95.772 2010-03-19T11:40:00.174Z
20100319 1141.00288 24.758133 -77.23458267 5.14 95.574 2010-03-19T11:41:00.173Z
20100319 1142.00285 24.75777967 -77.2315315 5.16 97.828 2010-03-19T11:42:00.171Z
20100319 1143.00282 24.757471 -77.228534 5.09 97.92 2010-03-19T11:43:00.169Z
20100319 1144.00280 24.75711517 -77.22553433 5.02 96.133 2010-03-19T11:44:00.168Z
20100319 1145.00277 24.75680683 -77.222492 5.24 97.691 2010-03-19T11:45:00.166Z
20100319 1146.00275 24.756456 -77.21948283 5.02 96.748 2010-03-19T11:46:00.165Z
20100319 1147.00272 24.75613217 -77.2164785 4.99 99.579 2010-03-19T11:47:00.163Z
20100319 1148.00270 24.75580367 -77.21348183 5.31 96.397 2010-03-19T11:48:00.162Z
20100319 1149.00267 24.75546867 -77.21045583 5.29 96.214 2010-03-19T11:49:00.160Z
20100319 1150.00265 24.75511967 -77.2074545 5.25 98.9 2010-03-19T11:50:00.159Z
20100319 1151.00262 24.75480667 -77.20444 5.1 95.61 2010-03-19T11:51:00.157Z
20100319 1152.00260 24.75442767 -77.201438 5.23 97.295 2010-03-19T11:52:00.156Z
20100319 1153.00257 24.75412 -77.19836533 5.14 99.506 2010-03-19T11:53:00.154Z
20100319 1154.00255 24.75378767 -77.1953325 5.05 95.666 2010-03-19T11:54:00.153Z
20100319 1155.00252 24.7534435 -77.1923395 5.14 94.326 2010-03-19T11:55:00.151Z
20100319 1156.00250 24.75309417 -77.18932917 5.11 99.161 2010-03-19T11:56:00.150Z
20100319 1157.00247 24.75275817 -77.18632367 5.07 97.957 2010-03-19T11:57:00.148Z
20100319 1158.00245 24.75243333 -77.1833225 5.04 97.999 2010-03-19T11:58:00.147Z
20100319 1159.00242 24.75206833 -77.18032817 5.08 97.089 2010-03-19T11:59:00.145Z
20100319 1200.00240 24.75173783 -77.177328 5.22 97.112 2010-03-19T12:00:00.144Z
20100319 1201.00237 24.751409 -77.17431983 5.03 96.961 2010-03-19T12:01:00.142Z
20100319 1202.00235 24.75108783 -77.17131133 5.14 96.801 2010-03-19T12:02:00.141Z
20100319 1203.00232 24.7507405 -77.16829083 5.36 97.721 2010-03-19T12:03:00.139Z
20100319 1204.00230 24.75011017 -77.16537 5.09 100.65 2010-03-19T12:04:00.138Z
20100319 1205.00227 24.74955683 -77.162384 5.14 103.077 2010-03-19T12:05:00.136Z
20100319 1206.00225 24.74898933 -77.15944433 4.9 103.948 2010-03-19T12:06:00.135Z
20100319 1207.00222 24.748413 -77.15649683 5.14 102.037 2010-03-19T12:07:00.133Z
20100319 1208.00220 24.7478585 -77.153527 5.17 101.114 2010-03-19T12:08:00.132Z
20100319 1209.00217 24.7472685 -77.15057267 5.05 100.965 2010-03-19T12:09:00.130Z
20100319 1210.00215 24.74669633 -77.14760667 5.02 106.215 2010-03-19T12:10:00.129Z
20100319 1211.00212 24.74613833 -77.14465917 5.13 104.365 2010-03-19T12:11:00.127Z
20100319 1212.00210 24.745537 -77.14170817 5.14 100.339 2010-03-19T12:12:00.126Z
20100319 1213.00207 24.74494967 -77.138771 5.26 99.293 2010-03-19T12:13:00.124Z
20100319 1214.00205 24.74438267 -77.13579617 5.09 101.503 2010-03-19T12:14:00.123Z
20100319 1215.00202 24.74376933 -77.1328555 5.01 102.556 2010-03-19T12:15:00.121Z
20100319 1216.00200 24.74322383 -77.12990817 5.14 103.911 2010-03-19T12:16:00.120Z
20100319 1217.00197 24.74261767 -77.12692333 5.04 102.276 2010-03-19T12:17:00.118Z
20100319 1218.00195 24.742063 -77.12394783 5.18 105.708 2010-03-19T12:18:00.117Z
20100319 1219.00192 24.741456 -77.1209975 5.13 100.981 2010-03-19T12:19:00.115Z
20100319 1220.00190 24.740852 -77.11805817 5.07 101.985 2010-03-19T12:20:00.114Z
20100319 1221.00187 24.74026433 -77.115105 5.18 101.305 2010-03-19T12:21:00.112Z
20100319 1222.00185 24.739668 -77.11213083 5.04 103.336 2010-03-19T12:22:00.111Z
20100319 1223.00182 24.73908317 -77.10917917 5.09 102.36 2010-03-19T12:23:00.109Z
20100319 1224.00180 24.738469 -77.106244 5.19 101.078 2010-03-19T12:24:00.108Z
20100319 1225.00177 24.7378685 -77.10332033 4.92 104.327 2010-03-19T12:25:00.106Z
20100319 1226.00175 24.73732667 -77.10037867 4.93 104.536 2010-03-19T12:26:00.105Z
20100319 1227.00172 24.73673683 -77.09744167 4.98 104.587 2010-03-19T12:27:00.103Z
20100319 1228.00168 24.7361355 -77.09456583 5.07 101.126 2010-03-19T12:28:00.101Z
20100319 1229.00167 24.73553183 -77.09161717 5.09 104.698 2010-03-19T12:29:00.100Z
20100319 1230.00163 24.734943 -77.0886765 4.89 104.209 2010-03-19T12:30:00.098Z
20100319 1231.00162 24.734391 -77.08572933 5.17 105.306 2010-03-19T12:31:00.097Z
20100319 1232.00158 24.73381417 -77.08280467 5.12 102.718 2010-03-19T12:32:00.095Z
20100319 1233.00157 24.7332055 -77.07990683 5.17 102.788 2010-03-19T12:33:00.094Z
20100319 1234.00153 24.73258633 -77.07698283 5.02 102.105 2010-03-19T12:34:00.092Z
20100319 1235.00152 24.73199567 -77.07410317 4.98 100.697 2010-03-19T12:35:00.091Z
20100319 1236.00148 24.7314005 -77.07116733 5.24 105.11 2010-03-19T12:36:00.089Z
20100319 1237.00147 24.73081283 -77.068215 5.27 100.699 2010-03-19T12:37:00.088Z
20100319 1238.00143 24.730146 -77.06525667 5.14 100.978 2010-03-19T12:38:00.086Z
20100319 1239.00142 24.72957317 -77.06233533 4.92 105.672 2010-03-19T12:39:00.085Z
20100319 1240.00138 24.72896717 -77.05942317 4.95 103.148 2010-03-19T12:40:00.083Z
20100319 1241.00137 24.7283575 -77.05648233 4.93 101.011 2010-03-19T12:41:00.082Z
20100319 1242.00133 24.727716 -77.0535775 5.12 103.763 2010-03-19T12:42:00.080Z
20100319 1243.00132 24.72716467 -77.050661 5.05 103.75 2010-03-19T12:43:00.079Z
20100319 1244.00128 24.72654483 -77.047748 4.89 103.744 2010-03-19T12:44:00.077Z
20100319 1245.00127 24.72596883 -77.04482017 5.12 102.705 2010-03-19T12:45:00.076Z
20100319 1246.00123 24.72532417 -77.041898 4.84 103.683 2010-03-19T12:46:00.074Z
20100319 1247.00122 24.72472167 -77.03897017 5.1 104.456 2010-03-19T12:47:00.073Z
20100319 1248.00118 24.72410033 -77.03610483 4.92 103.439 2010-03-19T12:48:00.071Z
20100319 1249.00117 24.7234985 -77.03316283 4.96 100.723 2010-03-19T12:49:00.070Z
20100319 1250.00113 24.722861 -77.030246 5.04 103.126 2010-03-19T12:50:00.068Z
20100319 1251.00112 24.72226833 -77.02735983 5.03 102.065 2010-03-19T12:51:00.067Z
20100319 1252.00108 24.72167117 -77.0244465 4.98 102.65 2010-03-19T12:52:00.065Z
20100319 1253.00107 24.721056 -77.021547 5.1 105.106 2010-03-19T12:53:00.064Z
20100319 1254.00103 24.72043417 -77.01866717 5.17 101.751 2010-03-19T12:54:00.062Z
20100319 1255.00102 24.71979783 -77.015752 5.05 102.873 2010-03-19T12:55:00.061Z
20100319 1256.00098 24.71921417 -77.01284533 4.85 104.786 2010-03-19T12:56:00.059Z
20100319 1257.00097 24.71858567 -77.00996233 5.0 102.807 2010-03-19T12:57:00.058Z
20100319 1258.00093 24.71797617 -77.007051 5.1 102.552 2010-03-19T12:58:00.056Z
20100319 1259.00092 24.71738017 -77.004185 4.96 105.982 2010-03-19T12:59:00.055Z
20100319 1300.00088 24.71674883 -77.00130817 4.92 103.222 2010-03-19T13:00:00.053Z
20100319 1301.00087 24.7161435 -76.99845117 4.99 100.449 2010-03-19T13:01:00.052Z
20100319 1302.00083 24.71550333 -76.99554467 5.1 102.746 2010-03-19T13:02:00.050Z
20100319 1303.00082 24.71488917 -76.99263383 4.96 104.437 2010-03-19T13:03:00.049Z
20100319 1304.00078 24.71427683 -76.98977517 4.97 104.845 2010-03-19T13:04:00.047Z
20100319 1305.00077 24.71365033 -76.98686417 5.16 106.636 2010-03-19T13:05:00.046Z
20100319 1306.00073 24.71302817 -76.98395133 4.88 102.017 2010-03-19T13:06:00.044Z
20100319 1307.00072 24.71239433 -76.98106967 4.97 102.225 2010-03-19T13:07:00.043Z
20100319 1308.00068 24.71175417 -76.97819583 5.12 104.217 2010-03-19T13:08:00.041Z
20100319 1309.00067 24.71113783 -76.9753125 5.16 103.673 2010-03-19T13:09:00.040Z
20100319 1310.00063 24.71051283 -76.97240733 4.82 105.09 2010-03-19T13:10:00.038Z
20100319 1311.00062 24.70985267 -76.96953933 4.88 104.269 2010-03-19T13:11:00.037Z
20100319 1312.00058 24.70924417 -76.96664067 5.26 106.085 2010-03-19T13:12:00.035Z
20100319 1313.00055 24.70860367 -76.9637595 4.95 102.733 2010-03-19T13:13:00.033Z
20100319 1314.00053 24.70796967 -76.96085717 4.94 103.403 2010-03-19T13:14:00.032Z
20100319 1315.00050 24.70735517 -76.9579655 5.07 102.844 2010-03-19T13:15:00.030Z
20100319 1316.00048 24.7066825 -76.9550885 5.15 100.542 2010-03-19T13:16:00.029Z
20100319 1317.00045 24.70607533 -76.95220617 5.05 101.159 2010-03-19T13:17:00.027Z
20100319 1318.00043 24.705421 -76.94935633 5.02 101.446 2010-03-19T13:18:00.026Z
20100319 1319.00040 24.70479833 -76.946484 4.99 106.32 2010-03-19T13:19:00.024Z
20100319 1320.00038 24.70416017 -76.94362267 4.95 99.007 2010-03-19T13:20:00.023Z
20100319 1321.00035 24.70399433 -76.94066667 5.03 94.841 2010-03-19T13:21:00.021Z
20100319 1322.00033 24.70379367 -76.93774983 4.88 92.174 2010-03-19T13:22:00.020Z
20100319 1323.00030 24.70357783 -76.934818 4.97 94.254 2010-03-19T13:23:00.018Z
20100319 1324.00028 24.70343017 -76.93190617 4.91 96.482 2010-03-19T13:24:00.017Z
20100319 1325.00025 24.70323217 -76.9289645 4.74 94.92 2010-03-19T13:25:00.015Z
20100319 1326.00023 24.703063 -76.9260775 4.98 95.106 2010-03-19T13:26:00.014Z
20100319 1327.00020 24.702886 -76.923103 4.99 93.821 2010-03-19T13:27:00.012Z
20100319 1328.00018 24.702687 -76.920159 4.91 92.159 2010-03-19T13:28:00.011Z
20100319 1329.00015 24.70249483 -76.91716167 4.81 92.85 2010-03-19T13:29:00.009Z
20100319 1330.00013 24.70232067 -76.9142185 4.99 94.886 2010-03-19T13:30:00.008Z
20100319 1331.00010 24.70212517 -76.911261 4.85 93.719 2010-03-19T13:31:00.006Z
20100319 1332.00008 24.70190967 -76.908301 5.04 94.624 2010-03-19T13:32:00.005Z
20100319 1333.00005 24.701737 -76.90536083 5.12 93.51 2010-03-19T13:33:00.003Z
20100319 1334.00003 24.70154933 -76.902408 4.8 94.404 2010-03-19T13:34:00.002Z
20100319 1335.00000 24.70134467 -76.8994525 4.99 96.373 2010-03-19T13:35:00.000Z
20100319 1335.99998 24.70117383 -76.89649117 5.23 92.22 2010-03-19T13:35:59.999Z
20100319 1336.99995 24.70099783 -76.89354067 4.99 94.024 2010-03-19T13:36:59.997Z
20100319 1337.99993 24.70079967 -76.890574 4.83 93.731 2010-03-19T13:37:59.996Z
20100319 1338.99990 24.70061467 -76.887662 4.93 93.655 2010-03-19T13:38:59.994Z
20100319 1339.99988 24.700425 -76.88479417 4.85 92.842 2010-03-19T13:39:59.993Z
20100319 1340.99985 24.70024667 -76.88181917 5.1 92.08 2010-03-19T13:40:59.991Z
20100319 1341.99983 24.7000605 -76.878858 5.07 93.545 2010-03-19T13:41:59.990Z
20100319 1342.99980 24.69988517 -76.87592083 5.11 93.944 2010-03-19T13:42:59.988Z
20100319 1343.99978 24.6997025 -76.87298283 4.98 93.186 2010-03-19T13:43:59.987Z
20100319 1344.99975 24.69976533 -76.8700715 4.91 81.351 2010-03-19T13:44:59.985Z
20100319 1345.99973 24.70004967 -76.867151 4.78 84.678 2010-03-19T13:45:59.984Z
20100319 1346.99970 24.70036733 -76.86425967 4.84 81.881 2010-03-19T13:46:59.982Z
20100319 1347.99968 24.7008055 -76.86137467 5.0 77.197 2010-03-19T13:47:59.981Z
20100319 1348.99965 24.70124617 -76.85848767 4.82 79.41 2010-03-19T13:48:59.979Z
20100319 1349.99963 24.70172733 -76.85567067 5.11 77.037 2010-03-19T13:49:59.978Z
20100319 1350.99960 24.702189 -76.85281867 4.94 79.446 2010-03-19T13:50:59.976Z
20100319 1351.99958 24.7026475 -76.850006 4.86 78.379 2010-03-19T13:51:59.975Z
20100319 1352.99955 24.70312583 -76.84717417 4.71 77.559 2010-03-19T13:52:59.973Z
20100319 1353.99953 24.70360067 -76.844393 4.61 82.19 2010-03-19T13:53:59.972Z
20100319 1354.99950 24.70405617 -76.841689 4.59 79.098 2010-03-19T13:54:59.970Z
20100319 1355.99948 24.70455283 -76.83898483 4.74 67.78 2010-03-19T13:55:59.969Z
20100319 1356.99945 24.7053915 -76.8363335 4.66 70.098 2010-03-19T13:56:59.967Z
20100319 1357.99943 24.7061015 -76.8335875 4.73 75.073 2010-03-19T13:57:59.966Z
20100319 1358.99940 24.70677733 -76.83089417 4.58 70.674 2010-03-19T13:58:59.964Z
20100319 1359.99937 24.707147 -76.8291835 0.97 77.882 2010-03-19T13:59:59.962Z
20100319 1400.99935 24.70718117 -76.827684 3.14 90.0 2010-03-19T14:00:59.961Z
20100319 1401.99932 24.70714883 -76.82590983 3.24 93.25 2010-03-19T14:01:59.959Z
20100319 1402.99930 24.70702717 -76.82403283 2.75 86.54 2010-03-19T14:02:59.958Z
20100319 1403.99927 24.70816833 -76.82318333 3.83 353.926 2010-03-19T14:03:59.956Z
20100319 1404.99925 24.70961867 -76.8232495 1.43 6.096 2010-03-19T14:04:59.955Z
20100319 1405.99922 24.71006167 -76.82306667 0.6 54.445 2010-03-19T14:05:59.953Z
20100319 1406.99920 24.7100935 -76.822906 0.12 118.694 2010-03-19T14:06:59.952Z
20100319 1407.99917 24.71008433 -76.82290117 0.05 42.411 2010-03-19T14:07:59.950Z
20100319 1408.99915 24.71009367 -76.82288217 0.06 180.0 2010-03-19T14:08:59.949Z
20100319 1409.99912 24.7100875 -76.82289017 0.02 180.0 2010-03-19T14:09:59.947Z
20100319 1410.99910 24.71007983 -76.8228715 0.07 90.0 2010-03-19T14:10:59.946Z
20100319 1411.99907 24.71007317 -76.8228595 0.02 180.0 2010-03-19T14:11:59.944Z
20100319 1412.99905 24.710071 -76.82285433 0.03 139.313 2010-03-19T14:12:59.943Z
20100319 1413.99902 24.71007133 -76.82284583 0.02 270.0 2010-03-19T14:13:59.941Z
20100319 1414.99900 24.71006983 -76.8228485 0.04 154.799 2010-03-19T14:14:59.940Z
20100319 1415.99897 24.71006483 -76.82285617 0.1 236.596 2010-03-19T14:15:59.938Z
20100319 1416.99895 24.7100615 -76.82285317 0.12 233.741 2010-03-19T14:16:59.937Z
20100319 1417.99892 24.71006033 -76.8228415 0.04 117.958 2010-03-19T14:17:59.935Z
20100319 1418.99890 24.71005333 -76.82285067 0.05 222.411 2010-03-19T14:18:59.934Z
20100319 1419.99887 24.71005483 -76.82284633 0.03 40.687 2010-03-19T14:19:59.932Z
20100319 1420.99885 24.71005583 -76.82284933 0.02 0.0 2010-03-19T14:20:59.931Z
20100319 1421.99882 24.71005867 -76.8228465 0.0 0.0 2010-03-19T14:21:59.929Z
20100319 1422.99880 24.71005633 -76.822847 0.02 180.0 2010-03-19T14:22:59.928Z
20100319 1423.99877 24.7100515 -76.82285067 0.03 270.0 2010-03-19T14:23:59.926Z
20100319 1424.99875 24.71005117 -76.8228525 0.02 180.0 2010-03-19T14:24:59.925Z
20100319 1425.99872 24.7100505 -76.82285783 0.03 222.411 2010-03-19T14:25:59.923Z
20100319 1426.99870 24.710049 -76.82286567 0.02 270.0 2010-03-19T14:26:59.922Z
20100319 1427.99867 24.71004833 -76.822871 0.03 135.856 2010-03-19T14:27:59.920Z
20100319 1428.99865 24.71004767 -76.82287417 0.02 90.0 2010-03-19T14:28:59.919Z
20100319 1429.99862 24.710046 -76.82287167 0.03 319.313 2010-03-19T14:29:59.917Z
20100319 1430.99860 24.71004467 -76.82286783 0.02 270.0 2010-03-19T14:30:59.916Z
20100319 1431.99857 24.71004283 -76.82287017 0.02 90.0 2010-03-19T14:31:59.914Z
20100319 1432.99855 24.71004417 -76.82287067 0.04 297.958 2010-03-19T14:32:59.913Z
20100319 1433.99852 24.71004633 -76.822872 0.02 180.0 2010-03-19T14:33:59.911Z
20100319 1434.99850 24.710047 -76.82287133 0.02 90.0 2010-03-19T14:34:59.910Z
20100319 1435.99847 24.71004817 -76.8228715 0.0 0.0 2010-03-19T14:35:59.908Z
20100319 1436.99845 24.7100505 -76.82287317 0.03 319.313 2010-03-19T14:36:59.907Z
20100319 1437.99842 24.71004783 -76.82287517 0.02 180.0 2010-03-19T14:37:59.905Z
20100319 1438.99840 24.71004767 -76.82287767 0.02 0.0 2010-03-19T14:38:59.904Z
20100319 1439.99837 24.71005167 -76.822877 0.0 0.0 2010-03-19T14:39:59.902Z
20100319 1440.99835 24.7100535 -76.8228765 0.02 90.0 2010-03-19T14:40:59.901Z
20100319 1441.99832 24.71005433 -76.822874 0.0 0.0 2010-03-19T14:41:59.899Z
20100319 1442.99830 24.71005967 -76.82287367 0.02 90.0 2010-03-19T14:42:59.898Z
20100319 1443.99827 24.71006017 -76.82287517 0.02 0.0 2010-03-19T14:43:59.896Z
20100319 1444.99823 24.71006183 -76.82287683 0.0 0.0 2010-03-19T14:44:59.894Z
20100319 1445.99822 24.710063 -76.82287833 0.0 0.0 2010-03-19T14:45:59.893Z
20100319 1446.99818 24.71006667 -76.82287667 0.0 0.0 2010-03-19T14:46:59.891Z
20100319 1447.99817 24.71007167 -76.822875 0.0 0.0 2010-03-19T14:47:59.890Z
20100319 1448.99813 24.71006783 -76.8228725 0.02 180.0 2010-03-19T14:48:59.888Z
20100319 1449.99812 24.71006117 -76.82287083 0.04 204.548 2010-03-19T14:49:59.887Z
20100319 1450.99808 24.71005667 -76.82286783 0.0 0.0 2010-03-19T14:50:59.885Z
20100319 1451.99807 24.71005567 -76.82286517 0.02 180.0 2010-03-19T14:51:59.884Z
20100319 1452.99803 24.71005267 -76.8228665 0.02 180.0 2010-03-19T14:52:59.882Z
20100319 1453.99802 24.7100505 -76.82286583 0.02 90.0 2010-03-19T14:53:59.881Z
20100319 1454.99798 24.7100505 -76.82286767 0.0 0.0 2010-03-19T14:54:59.879Z
20100319 1455.99797 24.7100485 -76.82286617 0.02 180.0 2010-03-19T14:55:59.878Z
20100319 1456.99793 24.7100485 -76.82286517 0.02 0.0 2010-03-19T14:56:59.876Z
20100319 1457.99792 24.71005033 -76.822862 0.03 224.144 2010-03-19T14:57:59.875Z
20100319 1458.99788 24.71005133 -76.82286117 0.0 0.0 2010-03-19T14:58:59.873Z
20100319 1459.99787 24.71005383 -76.822862 0.0 0.0 2010-03-19T14:59:59.872Z
20100319 1500.99783 24.7100545 -76.82286417 0.0 0.0 2010-03-19T15:00:59.870Z
20100319 1501.99782 24.71005367 -76.82286583 0.02 0.0 2010-03-19T15:01:59.869Z
20100319 1502.99778 24.71005267 -76.82286533 0.02 270.0 2010-03-19T15:02:59.867Z
20100319 1503.99777 24.71005517 -76.822868 0.02 270.0 2010-03-19T15:03:59.866Z
20100319 1504.99773 24.71005567 -76.82286883 0.02 42.411 2010-03-19T15:04:59.864Z
20100319 1505.99772 24.71005517 -76.82286267 0.02 180.0 2010-03-19T15:05:59.863Z
20100319 1506.99768 24.71005567 -76.82286617 0.02 317.589 2010-03-19T15:06:59.861Z
20100319 1507.99767 24.71005733 -76.822871 0.02 270.0 2010-03-19T15:07:59.860Z
20100319 1508.99763 24.71005633 -76.82286967 0.02 270.0 2010-03-19T15:08:59.858Z
20100319 1509.99762 24.71005667 -76.8228705 0.02 0.0 2010-03-19T15:09:59.857Z
20100319 1510.99758 24.710059 -76.82287083 0.0 0.0 2010-03-19T15:10:59.855Z
20100319 1511.99757 24.710061 -76.8228715 0.02 270.0 2010-03-19T15:11:59.854Z
20100319 1512.99753 24.7100615 -76.822879 0.02 270.0 2010-03-19T15:12:59.852Z
20100319 1513.99752 24.71005933 -76.8228835 0.02 180.0 2010-03-19T15:13:59.851Z
20100319 1514.99748 24.71006217 -76.822886 0.03 222.411 2010-03-19T15:14:59.849Z
20100319 1515.99747 24.71006267 -76.82288767 0.0 0.0 2010-03-19T15:15:59.848Z
20100319 1516.99743 24.7100645 -76.82288667 0.02 0.0 2010-03-19T15:16:59.846Z
20100319 1517.99742 24.710067 -76.8228845 0.0 0.0 2010-03-19T15:17:59.845Z
20100319 1518.99738 24.71006467 -76.82288367 0.02 180.0 2010-03-19T15:18:59.843Z
20100319 1519.99737 24.71006317 -76.82288383 0.0 0.0 2010-03-19T15:19:59.842Z
20100319 1520.99733 24.71006333 -76.82288133 0.02 0.0 2010-03-19T15:20:59.840Z
20100319 1521.99732 24.71006483 -76.82287267 0.02 90.0 2010-03-19T15:21:59.839Z
20100319 1522.99728 24.710065 -76.82286567 0.02 0.0 2010-03-19T15:22:59.837Z
20100319 1523.99727 24.71006733 -76.82286317 0.02 180.0 2010-03-19T15:23:59.836Z
20100319 1524.99723 24.7100635 -76.82286717 0.02 270.0 2010-03-19T15:24:59.834Z
20100319 1525.99720 24.71006217 -76.82287017 0.02 90.0 2010-03-19T15:25:59.832Z
20100319 1526.99718 24.71006233 -76.82287217 0.03 135.856 2010-03-19T15:26:59.831Z
20100319 1527.99715 24.71006333 -76.822875 0.02 180.0 2010-03-19T15:27:59.829Z
20100319 1528.99713 24.71006033 -76.822878 0.0 0.0 2010-03-19T15:28:59.828Z
20100319 1529.99710 24.71005667 -76.8228835 0.03 222.411 2010-03-19T15:29:59.826Z
20100319 1530.99708 24.71005533 -76.82288483 0.02 90.0 2010-03-19T15:30:59.825Z
20100319 1531.99705 24.71005317 -76.8228825 0.02 0.0 2010-03-19T15:31:59.823Z
20100319 1532.99703 24.71006017 -76.82288383 0.0 0.0 2010-03-19T15:32:59.822Z
20100319 1533.99700 24.71006233 -76.82288267 0.02 180.0 2010-03-19T15:33:59.820Z
20100319 1534.99698 24.710062 -76.82288383 0.02 180.0 2010-03-19T15:34:59.819Z
20100319 1535.99695 24.7100595 -76.82287867 0.02 270.0 2010-03-19T15:35:59.817Z
20100319 1536.99693 24.71005767 -76.82287933 0.02 42.411 2010-03-19T15:36:59.816Z
20100319 1537.99690 24.71006117 -76.822877 0.03 44.144 2010-03-19T15:37:59.814Z
20100319 1538.99688 24.71006433 -76.82287233 0.0 0.0 2010-03-19T15:38:59.813Z
20100319 1539.99685 24.71006967 -76.82287033 0.02 0.0 2010-03-19T15:39:59.811Z
20100319 1540.99683 24.71006883 -76.82286933 0.0 0.0 2010-03-19T15:40:59.810Z
20100319 1541.99680 24.71006683 -76.82286567 0.0 0.0 2010-03-19T15:41:59.808Z
20100319 1542.99678 24.7100655 -76.82286283 0.02 180.0 2010-03-19T15:42:59.807Z
20100319 1543.99675 24.710065 -76.82286217 0.02 270.0 2010-03-19T15:43:59.805Z
20100319 1544.99673 24.71006367 -76.822865 0.03 315.856 2010-03-19T15:44:59.804Z
20100319 1545.99670 24.71006517 -76.82287067 0.02 270.0 2010-03-19T15:45:59.802Z
20100319 1546.99668 24.71006583 -76.822869 0.02 180.0 2010-03-19T15:46:59.801Z
20100319 1547.99665 24.71006533 -76.82286817 0.02 222.411 2010-03-19T15:47:59.799Z
20100319 1548.99663 24.71006733 -76.82286633 0.0 0.0 2010-03-19T15:48:59.798Z
20100319 1549.99660 24.710069 -76.82286533 0.03 222.411 2010-03-19T15:49:59.796Z
20100319 1550.99658 24.71006317 -76.82286467 0.02 180.0 2010-03-19T15:50:59.795Z
20100319 1551.99655 24.71006183 -76.8228665 0.02 180.0 2010-03-19T15:51:59.793Z
20100319 1552.99653 24.71006017 -76.82286633 0.03 222.411 2010-03-19T15:52:59.792Z
20100319 1553.99650 24.71006133 -76.82286767 0.03 319.313 2010-03-19T15:53:59.790Z
20100319 1554.99648 24.7100635 -76.82286683 0.02 180.0 2010-03-19T15:54:59.789Z
20100319 1555.99645 24.71006267 -76.82286533 0.0 0.0 2010-03-19T15:55:59.787Z
20100319 1556.99643 24.71006233 -76.8228625 0.02 270.0 2010-03-19T15:56:59.786Z
20100319 1557.99640 24.71006167 -76.822866 0.02 0.0 2010-03-19T15:57:59.784Z
20100319 1558.99638 24.71006167 -76.82286733 0.02 180.0 2010-03-19T15:58:59.783Z
20100319 1559.99635 24.71006283 -76.82286933 0.02 270.0 2010-03-19T15:59:59.781Z
20100319 1600.99633 24.71006417 -76.82286933 0.0 0.0 2010-03-19T16:00:59.780Z
20100319 1601.99630 24.71006117 -76.82286983 0.02 180.0 2010-03-19T16:01:59.778Z
20100319 1602.99628 24.7100585 -76.82287067 0.0 0.0 2010-03-19T16:02:59.777Z
20100319 1603.99625 24.71005683 -76.822874 0.02 270.0 2010-03-19T16:03:59.775Z
20100319 1604.99623 24.710053 -76.82287667 0.02 270.0 2010-03-19T16:04:59.774Z
20100319 1605.99620 24.71005083 -76.822878 0.0 0.0 2010-03-19T16:05:59.772Z
20100319 1606.99618 24.71004933 -76.82288133 0.02 270.0 2010-03-19T16:06:59.771Z
20100319 1607.99615 24.7100495 -76.82288367 0.02 270.0 2010-03-19T16:07:59.769Z
20100319 1608.99613 24.71005167 -76.8228855 0.02 270.0 2010-03-19T16:08:59.768Z
20100319 1609.99610 24.71005517 -76.82288633 0.0 0.0 2010-03-19T16:09:59.766Z
20100319 1610.99607 24.71005733 -76.82288583 0.02 90.0 2010-03-19T16:10:59.764Z
20100319 1611.99605 24.71006033 -76.82288133 0.02 90.0 2010-03-19T16:11:59.763Z
20100319 1612.99602 24.7100635 -76.82288283 0.02 90.0 2010-03-19T16:12:59.761Z
20100319 1613.99600 24.71006333 -76.82288017 0.02 90.0 2010-03-19T16:13:59.760Z
20100319 1614.99597 24.71006067 -76.82287867 0.02 270.0 2010-03-19T16:14:59.758Z
20100319 1615.99595 24.71006317 -76.82288167 0.0 0.0 2010-03-19T16:15:59.757Z
20100319 1616.99592 24.710066 -76.822883 0.02 90.0 2010-03-19T16:16:59.755Z
20100319 1617.99590 24.71006783 -76.82287867 0.02 90.0 2010-03-19T16:17:59.754Z
20100319 1618.99587 24.7100655 -76.822875 0.02 270.0 2010-03-19T16:18:59.752Z
20100319 1619.99585 24.71006767 -76.82287317 0.02 0.0 2010-03-19T16:19:59.751Z
20100319 1620.99582 24.710068 -76.82287233 0.03 139.313 2010-03-19T16:20:59.749Z
20100319 1621.99580 24.710066 -76.82286833 0.02 90.0 2010-03-19T16:21:59.748Z
20100319 1622.99577 24.71006867 -76.82286733 0.02 180.0 2010-03-19T16:22:59.746Z
20100319 1623.99575 24.71006883 -76.82286817 0.02 0.0 2010-03-19T16:23:59.745Z
20100319 1624.99572 24.71006783 -76.82286633 0.02 180.0 2010-03-19T16:24:59.743Z
20100319 1625.99570 24.71006567 -76.82286633 0.03 139.313 2010-03-19T16:25:59.742Z
20100319 1626.99567 24.710063 -76.82286417 0.02 270.0 2010-03-19T16:26:59.740Z
20100319 1627.99565 24.7100605 -76.82287117 0.02 270.0 2010-03-19T16:27:59.739Z
20100319 1628.99562 24.71005717 -76.82287567 0.0 0.0 2010-03-19T16:28:59.737Z
20100319 1629.99560 24.71005483 -76.82287717 0.02 90.0 2010-03-19T16:29:59.736Z
20100319 1630.99557 24.7100535 -76.82287583 0.0 0.0 2010-03-19T16:30:59.734Z
20100319 1631.99555 24.7100545 -76.822873 0.0 0.0 2010-03-19T16:31:59.733Z
20100319 1632.99552 24.71005733 -76.8228675 0.02 0.0 2010-03-19T16:32:59.731Z
20100319 1633.99550 24.7100595 -76.82286617 0.02 0.0 2010-03-19T16:33:59.730Z
20100319 1634.99547 24.7100585 -76.82286717 0.03 220.687 2010-03-19T16:34:59.728Z
20100319 1635.99545 24.71005717 -76.822869 0.03 315.856 2010-03-19T16:35:59.727Z
20100319 1636.99542 24.7100545 -76.82287433 0.02 270.0 2010-03-19T16:36:59.725Z
20100319 1637.99540 24.710052 -76.82287983 0.02 0.0 2010-03-19T16:37:59.724Z
20100319 1638.99537 24.71004867 -76.82288417 0.02 180.0 2010-03-19T16:38:59.722Z
20100319 1639.99535 24.710044 -76.822883 0.0 0.0 2010-03-19T16:39:59.721Z
20100319 1640.99532 24.71004383 -76.82288117 0.03 42.411 2010-03-19T16:40:59.719Z
20100319 1641.99530 24.71004733 -76.8228795 0.0 0.0 2010-03-19T16:41:59.718Z
20100319 1642.99527 24.71004883 -76.82287767 0.02 0.0 2010-03-19T16:42:59.716Z
20100319 1643.99525 24.71005167 -76.82287767 0.0 0.0 2010-03-19T16:43:59.715Z
20100319 1644.99522 24.71004983 -76.82287517 0.03 319.313 2010-03-19T16:44:59.713Z
20100319 1645.99520 24.710053 -76.82287767 0.02 270.0 2010-03-19T16:45:59.712Z
20100319 1646.99517 24.7100545 -76.8228765 0.02 270.0 2010-03-19T16:46:59.710Z
20100319 1647.99515 24.71005667 -76.8228765 0.02 0.0 2010-03-19T16:47:59.709Z
20100319 1648.99512 24.71005983 -76.82287333 0.03 40.687 2010-03-19T16:48:59.707Z
20100319 1649.99510 24.71005833 -76.82287217 0.0 0.0 2010-03-19T16:49:59.706Z
20100319 1650.99507 24.7100575 -76.8228725 0.02 0.0 2010-03-19T16:50:59.704Z
20100319 1651.99505 24.7100575 -76.82287217 0.0 0.0 2010-03-19T16:51:59.703Z
20100319 1652.99502 24.7100585 -76.822876 0.03 42.411 2010-03-19T16:52:59.701Z
20100319 1653.99500 24.71005783 -76.822874 0.0 0.0 2010-03-19T16:53:59.700Z
20100319 1654.99497 24.7100575 -76.82287083 0.0 0.0 2010-03-19T16:54:59.698Z
20100319 1655.99493 24.7100585 -76.82286817 0.02 180.0 2010-03-19T16:55:59.696Z
20100319 1656.99492 24.71005833 -76.82287167 0.04 242.042 2010-03-19T16:56:59.695Z
20100319 1657.99488 24.7100565 -76.8228735 0.02 0.0 2010-03-19T16:57:59.693Z
20100319 1658.99487 24.71005683 -76.82287383 0.0 0.0 2010-03-19T16:58:59.692Z
20100319 1659.99483 24.71005633 -76.822873 0.03 42.411 2010-03-19T16:59:59.690Z
20100319 1700.99482 24.71005767 -76.82287633 0.02 90.0 2010-03-19T17:00:59.689Z
20100319 1701.99478 24.71005733 -76.822872 0.02 180.0 2010-03-19T17:01:59.687Z
20100319 1702.99477 24.71005367 -76.82286983 0.02 42.411 2010-03-19T17:02:59.686Z
20100319 1703.99473 24.71005317 -76.82287117 0.03 44.144 2010-03-19T17:03:59.684Z
20100319 1704.99472 24.71005083 -76.82287183 0.02 90.0 2010-03-19T17:04:59.683Z
20100319 1705.99468 24.7100515 -76.822872 0.0 0.0 2010-03-19T17:05:59.681Z
20100319 1706.99467 24.71005267 -76.82287433 0.02 270.0 2010-03-19T17:06:59.680Z
20100319 1707.99463 24.71005433 -76.82287733 0.02 90.0 2010-03-19T17:07:59.678Z
20100319 1708.99462 24.71005583 -76.82287733 0.02 90.0 2010-03-19T17:08:59.677Z
20100319 1709.99458 24.71005667 -76.82287617 0.02 90.0 2010-03-19T17:09:59.675Z
20100319 1710.99457 24.71005917 -76.82287517 0.02 317.589 2010-03-19T17:10:59.674Z
20100319 1711.99453 24.71005983 -76.82287483 0.0 0.0 2010-03-19T17:11:59.672Z
20100319 1712.99452 24.71005967 -76.82287367 0.02 317.589 2010-03-19T17:12:59.671Z
20100319 1713.99448 24.71006467 -76.8228755 0.02 270.0 2010-03-19T17:13:59.669Z
20100319 1714.99447 24.71006367 -76.82287967 0.02 270.0 2010-03-19T17:14:59.668Z
20100319 1715.99443 24.71006333 -76.82287867 0.0 0.0 2010-03-19T17:15:59.666Z
20100319 1716.99442 24.71006417 -76.82287483 0.02 90.0 2010-03-19T17:16:59.665Z
20100319 1717.99438 24.71006683 -76.82286967 0.0 0.0 2010-03-19T17:17:59.663Z
20100319 1718.99437 24.71006767 -76.82287033 0.0 0.0 2010-03-19T17:18:59.662Z
20100319 1719.99433 24.7100655 -76.82287283 0.02 90.0 2010-03-19T17:19:59.660Z
20100319 1720.99432 24.71006117 -76.82287333 0.02 90.0 2010-03-19T17:20:59.659Z
20100319 1721.99428 24.710062 -76.82286767 0.03 42.411 2010-03-19T17:21:59.657Z
20100319 1722.99427 24.71006433 -76.8228615 0.02 90.0 2010-03-19T17:22:59.656Z
20100319 1723.99423 24.71006583 -76.82285967 0.0 0.0 2010-03-19T17:23:59.654Z
20100319 1724.99422 24.710065 -76.82286367 0.02 180.0 2010-03-19T17:24:59.653Z
20100319 1725.99418 24.71006283 -76.82286183 0.02 270.0 2010-03-19T17:25:59.651Z
20100319 1726.99417 24.71006233 -76.82286233 0.02 137.589 2010-03-19T17:26:59.650Z
20100319 1727.99413 24.71006267 -76.822862 0.02 90.0 2010-03-19T17:27:59.648Z
20100319 1728.99412 24.71006317 -76.82286483 0.0 0.0 2010-03-19T17:28:59.647Z
20100319 1729.99408 24.71006483 -76.8228685 0.02 180.0 2010-03-19T17:29:59.645Z
20100319 1730.99407 24.71006317 -76.82287467 0.03 220.687 2010-03-19T17:30:59.644Z
20100319 1731.99403 24.71006417 -76.822874 0.02 0.0 2010-03-19T17:31:59.642Z
20100319 1732.99402 24.71006583 -76.8228735 0.0 0.0 2010-03-19T17:32:59.641Z
20100319 1733.99398 24.71006783 -76.82287383 0.0 0.0 2010-03-19T17:33:59.639Z
20100319 1734.99397 24.71006733 -76.8228735 0.0 0.0 2010-03-19T17:34:59.638Z
20100319 1735.99393 24.71006867 -76.8228735 0.0 0.0 2010-03-19T17:35:59.636Z
20100319 1736.99392 24.71007183 -76.822874 0.02 90.0 2010-03-19T17:36:59.635Z
20100319 1737.99388 24.71006967 -76.8228715 0.0 0.0 2010-03-19T17:37:59.633Z
20100319 1738.99385 24.71007067 -76.82287083 0.02 270.0 2010-03-19T17:38:59.631Z
20100319 1739.99383 24.7100665 -76.82287117 0.0 0.0 2010-03-19T17:39:59.630Z
20100319 1740.99380 24.71006383 -76.82287417 0.0 0.0 2010-03-19T17:40:59.628Z
20100319 1741.99378 24.71006233 -76.82287933 0.0 0.0 2010-03-19T17:41:59.627Z
20100319 1742.99375 24.71005983 -76.82288133 0.02 180.0 2010-03-19T17:42:59.625Z
20100319 1743.99373 24.71005617 -76.82288033 0.02 180.0 2010-03-19T17:43:59.624Z
20100319 1744.99370 24.7100575 -76.82287933 0.02 270.0 2010-03-19T17:44:59.622Z
20100319 1745.99368 24.7100605 -76.82288417 0.0 0.0 2010-03-19T17:45:59.621Z
20100319 1746.99365 24.71006117 -76.82288717 0.02 90.0 2010-03-19T17:46:59.619Z
20100319 1747.99363 24.71006467 -76.82288467 0.02 90.0 2010-03-19T17:47:59.618Z
20100319 1748.99360 24.71006567 -76.822881 0.02 90.0 2010-03-19T17:48:59.616Z
20100319 1749.99358 24.71006667 -76.82287583 0.02 270.0 2010-03-19T17:49:59.615Z
20100319 1750.99355 24.71006833 -76.822873 0.02 90.0 2010-03-19T17:50:59.613Z
20100319 1751.99353 24.7100675 -76.82286883 0.0 0.0 2010-03-19T17:51:59.612Z
20100319 1752.99350 24.7100665 -76.82286617 0.0 0.0 2010-03-19T17:52:59.610Z
20100319 1753.99348 24.7100645 -76.82286467 0.02 180.0 2010-03-19T17:53:59.609Z
20100319 1754.99345 24.71006033 -76.8228625 0.02 0.0 2010-03-19T17:54:59.607Z
20100319 1755.99343 24.71005767 -76.822863 0.0 0.0 2010-03-19T17:55:59.606Z
20100319 1756.99340 24.7100575 -76.82286467 0.03 220.687 2010-03-19T17:56:59.604Z
20100319 1757.99338 24.7100545 -76.82286817 0.0 0.0 2010-03-19T17:57:59.603Z
20100319 1758.99335 24.710053 -76.82287 0.02 270.0 2010-03-19T17:58:59.601Z
20100319 1759.99333 24.7100535 -76.82287317 0.02 0.0 2010-03-19T17:59:59.600Z
20100319 1800.99330 24.71005133 -76.822875 0.03 90.0 2010-03-19T18:00:59.598Z
20100319 1801.99328 24.71005417 -76.82286867 0.03 44.144 2010-03-19T18:01:59.597Z
20100319 1802.99325 24.71005033 -76.82287 0.02 180.0 2010-03-19T18:02:59.595Z
20100319 1803.99323 24.7100505 -76.82287467 0.02 90.0 2010-03-19T18:03:59.594Z
20100319 1804.99320 24.710048 -76.82287667 0.0 0.0 2010-03-19T18:04:59.592Z
20100319 1805.99318 24.71004683 -76.82287833 0.0 0.0 2010-03-19T18:05:59.591Z
20100319 1806.99315 24.71004867 -76.8228765 0.03 137.589 2010-03-19T18:06:59.589Z
20100319 1807.99313 24.71004983 -76.822874 0.0 0.0 2010-03-19T18:07:59.588Z
20100319 1808.99310 24.71004783 -76.822874 0.02 270.0 2010-03-19T18:08:59.586Z
20100319 1809.99308 24.71004933 -76.82287683 0.03 224.144 2010-03-19T18:09:59.585Z
20100319 1810.99305 24.71005333 -76.82287933 0.02 270.0 2010-03-19T18:10:59.583Z
20100319 1811.99303 24.71005133 -76.82287983 0.02 137.589 2010-03-19T18:11:59.582Z
20100319 1812.99300 24.71004683 -76.82287417 0.02 90.0 2010-03-19T18:12:59.580Z
20100319 1813.99298 24.71004867 -76.82287333 0.02 42.411 2010-03-19T18:13:59.579Z
20100319 1814.99295 24.71005217 -76.82287167 0.03 44.144 2010-03-19T18:14:59.577Z
20100319 1815.99293 24.71005333 -76.822869 0.02 90.0 2010-03-19T18:15:59.576Z
20100319 1816.99290 24.71005583 -76.82286733 0.02 137.589 2010-03-19T18:16:59.574Z
20100319 1817.99288 24.71005633 -76.82286283 0.0 0.0 2010-03-19T18:17:59.573Z
20100319 1818.99285 24.710053 -76.82286383 0.0 0.0 2010-03-19T18:18:59.571Z
20100319 1819.99283 24.71005517 -76.822869 0.0 0.0 2010-03-19T18:19:59.570Z
20100319 1820.99280 24.71005717 -76.82287217 0.0 0.0 2010-03-19T18:20:59.568Z
20100319 1821.99278 24.710056 -76.8228775 0.0 0.0 2010-03-19T18:21:59.567Z
20100319 1822.99275 24.710055 -76.82288 0.04 299.421 2010-03-19T18:22:59.565Z
20100319 1823.99272 24.71005533 -76.82288633 0.0 0.0 2010-03-19T18:23:59.563Z
20100319 1824.99270 24.71005467 -76.822888 0.0 0.0 2010-03-19T18:24:59.562Z
20100319 1825.99267 24.7100555 -76.82289267 0.03 319.313 2010-03-19T18:25:59.560Z
20100319 1826.99265 24.71006017 -76.82288717 0.0 0.0 2010-03-19T18:26:59.559Z
20100319 1827.99262 24.7100645 -76.82288633 0.0 0.0 2010-03-19T18:27:59.557Z
20100319 1828.99260 24.7100695 -76.82288183 0.04 0.0 2010-03-19T18:28:59.556Z
20100319 1829.99257 24.710075 -76.82287917 0.02 0.0 2010-03-19T18:29:59.554Z
20100319 1830.99255 24.71007333 -76.82287933 0.02 0.0 2010-03-19T18:30:59.553Z
20100319 1831.99252 24.710072 -76.82287783 0.02 180.0 2010-03-19T18:31:59.551Z
20100319 1832.99250 24.71007083 -76.82287417 0.0 0.0 2010-03-19T18:32:59.550Z
20100319 1833.99247 24.71007083 -76.82287467 0.02 270.0 2010-03-19T18:33:59.548Z
20100319 1834.99245 24.710073 -76.82287767 0.03 270.0 2010-03-19T18:34:59.547Z
20100319 1835.99242 24.71007083 -76.82287817 0.0 0.0 2010-03-19T18:35:59.545Z
20100319 1836.99240 24.71007017 -76.822878 0.02 90.0 2010-03-19T18:36:59.544Z
20100319 1837.99237 24.71007083 -76.82287583 0.02 0.0 2010-03-19T18:37:59.542Z
20100319 1838.99235 24.710075 -76.8228765 0.02 0.0 2010-03-19T18:38:59.541Z
20100319 1839.99232 24.7100755 -76.82287267 0.0 0.0 2010-03-19T18:39:59.539Z
20100319 1840.99230 24.7100715 -76.822871 0.0 0.0 2010-03-19T18:40:59.538Z
20100319 1841.99227 24.7100705 -76.82287083 0.0 0.0 2010-03-19T18:41:59.536Z
20100319 1842.99225 24.71006983 -76.822874 0.02 0.0 2010-03-19T18:42:59.535Z
20100319 1843.99222 24.7100685 -76.82286883 0.0 0.0 2010-03-19T18:43:59.533Z
20100319 1844.99220 24.71007 -76.82286583 0.02 270.0 2010-03-19T18:44:59.532Z
20100319 1845.99217 24.7100695 -76.82286533 0.0 0.0 2010-03-19T18:45:59.530Z
20100319 1846.99215 24.71007067 -76.82286517 0.02 90.0 2010-03-19T18:46:59.529Z
20100319 1847.99212 24.71006983 -76.822862 0.02 270.0 2010-03-19T18:47:59.527Z
20100319 1848.99210 24.71006983 -76.82286233 0.03 270.0 2010-03-19T18:48:59.526Z
20100319 1849.99207 24.7100725 -76.82287033 0.0 0.0 2010-03-19T18:49:59.524Z
20100319 1850.99205 24.71007383 -76.822872 0.02 270.0 2010-03-19T18:50:59.523Z
20100319 1851.99202 24.71007517 -76.82287417 0.02 270.0 2010-03-19T18:51:59.521Z
20100319 1852.99200 24.71007533 -76.822877 0.03 317.589 2010-03-19T18:52:59.520Z
20100319 1853.99197 24.71007633 -76.82287983 0.0 0.0 2010-03-19T18:53:59.518Z
20100319 1854.99195 24.71007433 -76.82287733 0.02 0.0 2010-03-19T18:54:59.517Z
20100319 1855.99192 24.7100775 -76.82288 0.0 0.0 2010-03-19T18:55:59.515Z
20100319 1856.99190 24.71007733 -76.82287917 0.02 180.0 2010-03-19T18:56:59.514Z
20100319 1858.00853 24.71007517 -76.8228785 0.02 180.0 2010-03-19T18:58:00.512Z
20100319 1858.99185 24.710074 -76.82287383 0.0 0.0 2010-03-19T18:58:59.511Z
20100319 1859.99182 24.7100695 -76.82287467 0.02 180.0 2010-03-19T18:59:59.509Z
20100319 1900.99180 24.71006517 -76.82287367 0.0 0.0 2010-03-19T19:00:59.508Z
20100319 1901.99177 24.71006833 -76.82287333 0.02 270.0 2010-03-19T19:01:59.506Z
20100319 1902.99175 24.7100715 -76.822874 0.03 137.589 2010-03-19T19:02:59.505Z
20100319 1903.99172 24.71006933 -76.822875 0.02 0.0 2010-03-19T19:03:59.503Z
20100319 1904.99170 24.71007133 -76.82287817 0.0 0.0 2010-03-19T19:04:59.502Z
20100319 1905.99167 24.71006983 -76.8228785 0.02 90.0 2010-03-19T19:05:59.500Z
20100319 1907.00830 24.71006767 -76.82287717 0.03 137.589 2010-03-19T19:07:00.498Z
20100319 1908.00828 24.71006533 -76.82287317 0.0 0.0 2010-03-19T19:08:00.497Z
20100319 1909.00825 24.71006583 -76.82287067 0.02 180.0 2010-03-19T19:09:00.495Z
20100319 1910.00823 24.71006483 -76.82286983 0.0 0.0 2010-03-19T19:10:00.494Z
20100319 1911.00820 24.71006267 -76.82286367 0.02 180.0 2010-03-19T19:11:00.492Z
20100319 1912.00818 24.710063 -76.82286583 0.02 270.0 2010-03-19T19:12:00.491Z
20100319 1913.00815 24.71006283 -76.82286833 0.0 0.0 2010-03-19T19:13:00.489Z
20100319 1914.00813 24.71006067 -76.82286867 0.0 0.0 2010-03-19T19:14:00.488Z
20100319 1915.00810 24.710062 -76.822869 0.02 180.0 2010-03-19T19:15:00.486Z
20100319 1916.00808 24.71006017 -76.822865 0.0 0.0 2010-03-19T19:16:00.485Z
20100319 1917.00805 24.71005817 -76.82286567 0.02 317.589 2010-03-19T19:17:00.483Z
20100319 1918.00803 24.71005933 -76.82286983 0.0 0.0 2010-03-19T19:18:00.482Z
20100319 1919.00800 24.71005783 -76.822869 0.0 0.0 2010-03-19T19:19:00.480Z
20100319 1920.00798 24.7100555 -76.82287067 0.0 0.0 2010-03-19T19:20:00.479Z
20100319 1921.00795 24.71005267 -76.82287067 0.0 0.0 2010-03-19T19:21:00.477Z
20100319 1922.00793 24.7100535 -76.82286833 0.0 0.0 2010-03-19T19:22:00.476Z
20100319 1923.00790 24.710054 -76.82286967 0.02 270.0 2010-03-19T19:23:00.474Z
20100319 1924.00788 24.71005533 -76.82287017 0.0 0.0 2010-03-19T19:24:00.473Z
20100319 1925.00785 24.71005667 -76.82286517 0.02 0.0 2010-03-19T19:25:00.471Z
20100319 1926.00783 24.71005883 -76.82286417 0.0 0.0 2010-03-19T19:26:00.470Z
20100319 1927.00780 24.7100575 -76.82286233 0.03 270.0 2010-03-19T19:27:00.468Z
20100319 1928.00778 24.7100585 -76.82286783 0.02 270.0 2010-03-19T19:28:00.467Z
20100319 1929.00775 24.71006 -76.8228725 0.0 0.0 2010-03-19T19:29:00.465Z
20100319 1930.00773 24.71005817 -76.82287233 0.0 0.0 2010-03-19T19:30:00.464Z
20100319 1931.00770 24.71005617 -76.8228765 0.0 0.0 2010-03-19T19:31:00.462Z
20100319 1932.00768 24.71005683 -76.822882 0.02 270.0 2010-03-19T19:32:00.461Z
20100319 1933.00765 24.71005617 -76.82288417 0.04 180.0 2010-03-19T19:33:00.459Z
20100319 1934.00763 24.71005383 -76.82287867 0.03 90.0 2010-03-19T19:34:00.458Z
20100319 1935.00760 24.71005283 -76.8228735 0.0 0.0 2010-03-19T19:35:00.456Z
20100319 1936.00758 24.71005517 -76.82286717 0.0 0.0 2010-03-19T19:36:00.455Z
20100319 1937.00755 24.71005517 -76.82286267 0.02 90.0 2010-03-19T19:37:00.453Z
20100319 1938.00753 24.71005467 -76.8228615 0.02 90.0 2010-03-19T19:38:00.452Z
20100319 1939.00750 24.71005533 -76.82286267 0.02 180.0 2010-03-19T19:39:00.450Z
20100319 1940.00748 24.71005733 -76.8228625 0.0 0.0 2010-03-19T19:40:00.449Z
20100319 1941.00745 24.71005767 -76.82286517 0.02 0.0 2010-03-19T19:41:00.447Z
20100319 1942.00743 24.71005967 -76.82286733 0.02 0.0 2010-03-19T19:42:00.446Z
20100319 1943.00740 24.71006183 -76.82286933 0.02 0.0 2010-03-19T19:43:00.444Z
20100319 1944.00738 24.710063 -76.8228695 0.0 0.0 2010-03-19T19:44:00.443Z
20100319 1945.00735 24.710063 -76.82286733 0.02 180.0 2010-03-19T19:45:00.441Z
20100319 1946.00733 24.7100635 -76.8228685 0.02 90.0 2010-03-19T19:46:00.440Z
20100319 1947.00730 24.71006617 -76.82286583 0.02 90.0 2010-03-19T19:47:00.438Z
20100319 1948.00727 24.71006767 -76.8228665 0.0 0.0 2010-03-19T19:48:00.436Z
20100319 1949.00725 24.71006867 -76.8228675 0.02 180.0 2010-03-19T19:49:00.435Z
20100319 1950.00722 24.7100655 -76.82286467 0.03 137.589 2010-03-19T19:50:00.433Z
20100319 1951.00720 24.71006233 -76.8228625 0.0 0.0 2010-03-19T19:51:00.432Z
20100319 1952.00717 24.71006167 -76.82286467 0.02 270.0 2010-03-19T19:52:00.430Z
20100319 1953.00715 24.7100595 -76.82286483 0.0 0.0 2010-03-19T19:53:00.429Z
20100319 1954.00712 24.71005883 -76.82286833 0.02 270.0 2010-03-19T19:54:00.427Z
20100319 1955.00710 24.7100615 -76.82287033 0.02 270.0 2010-03-19T19:55:00.426Z
20100319 1956.00707 24.71006183 -76.8228725 0.02 270.0 2010-03-19T19:56:00.424Z
20100319 1957.00705 24.71005917 -76.82287167 0.02 180.0 2010-03-19T19:57:00.423Z
20100319 1958.00702 24.71005533 -76.82287017 0.0 0.0 2010-03-19T19:58:00.421Z
20100319 1959.00700 24.71005333 -76.82286883 0.0 0.0 2010-03-19T19:59:00.420Z
20100319 2000.00697 24.710055 -76.82287017 0.02 0.0 2010-03-19T20:00:00.418Z
20100319 2001.00695 24.7100565 -76.82286967 0.0 0.0 2010-03-19T20:01:00.417Z
20100319 2002.00692 24.7100565 -76.822872 0.03 317.589 2010-03-19T20:02:00.415Z
20100319 2003.00690 24.71005733 -76.82287383 0.02 0.0 2010-03-19T20:03:00.414Z
20100319 2004.00687 24.71005833 -76.82287517 0.02 90.0 2010-03-19T20:04:00.412Z
20100319 2005.00685 24.71005883 -76.822873 0.0 0.0 2010-03-19T20:05:00.411Z
20100319 2006.00682 24.71006017 -76.8228715 0.0 0.0 2010-03-19T20:06:00.409Z
20100319 2007.00680 24.71006133 -76.82287217 0.03 135.856 2010-03-19T20:07:00.408Z
20100319 2008.00677 24.71005517 -76.82287183 0.03 139.313 2010-03-19T20:08:00.406Z
20100319 2009.00675 24.71005083 -76.822869 0.02 180.0 2010-03-19T20:09:00.405Z
20100319 2010.00672 24.710048 -76.82286783 0.02 180.0 2010-03-19T20:10:00.403Z
20100319 2011.00670 24.7100445 -76.822872 0.02 270.0 2010-03-19T20:11:00.402Z
20100319 2012.00667 24.71004633 -76.8228735 0.04 0.0 2010-03-19T20:12:00.400Z
20100319 2013.00665 24.7100515 -76.822874 0.02 0.0 2010-03-19T20:13:00.399Z
20100319 2014.00662 24.71005633 -76.82287433 0.0 0.0 2010-03-19T20:14:00.397Z
20100319 2015.00660 24.7100535 -76.82287283 0.02 270.0 2010-03-19T20:15:00.396Z
20100319 2016.00657 24.71005317 -76.82287317 0.0 0.0 2010-03-19T20:16:00.394Z
20100319 2017.00655 24.71004983 -76.82286867 0.03 42.411 2010-03-19T20:17:00.393Z
20100319 2018.00652 24.71004833 -76.82286517 0.0 0.0 2010-03-19T20:18:00.391Z
20100319 2019.00650 24.71004767 -76.8228605 0.02 90.0 2010-03-19T20:19:00.390Z
20100319 2020.00647 24.71004733 -76.82285683 0.0 0.0 2010-03-19T20:20:00.388Z
20100319 2021.00645 24.71004733 -76.82285567 0.03 135.856 2010-03-19T20:21:00.387Z
20100319 2022.00642 24.710048 -76.82285283 0.0 0.0 2010-03-19T20:22:00.385Z
20100319 2023.00640 24.71004967 -76.8228525 0.0 0.0 2010-03-19T20:23:00.384Z
20100319 2024.00637 24.7100535 -76.82285683 0.02 0.0 2010-03-19T20:24:00.382Z
20100319 2025.00635 24.71005483 -76.8228585 0.02 90.0 2010-03-19T20:25:00.381Z
20100319 2026.00632 24.7100565 -76.8228555 0.0 0.0 2010-03-19T20:26:00.379Z
20100319 2027.00630 24.71006067 -76.82285883 0.03 315.856 2010-03-19T20:27:00.378Z
20100319 2028.00627 24.71006033 -76.82286617 0.0 0.0 2010-03-19T20:28:00.376Z
20100319 2029.00625 24.71005767 -76.82286783 0.0 0.0 2010-03-19T20:29:00.375Z
20100319 2030.00622 24.710058 -76.82286917 0.0 0.0 2010-03-19T20:30:00.373Z
20100319 2031.00618 24.710057 -76.82286967 0.03 137.589 2010-03-19T20:31:00.371Z
20100319 2032.00617 24.71005817 -76.822867 0.0 0.0 2010-03-19T20:32:00.370Z
20100319 2033.00613 24.71006 -76.8228685 0.03 317.589 2010-03-19T20:33:00.368Z
20100319 2034.00612 24.71006367 -76.82287117 0.02 0.0 2010-03-19T20:34:00.367Z
20100319 2035.00608 24.71006767 -76.8228725 0.0 0.0 2010-03-19T20:35:00.365Z
20100319 2036.00607 24.7100645 -76.82287 0.0 0.0 2010-03-19T20:36:00.364Z
20100319 2037.00603 24.71006117 -76.8228695 0.02 180.0 2010-03-19T20:37:00.362Z
20100319 2038.00602 24.7100565 -76.8228715 0.03 222.411 2010-03-19T20:38:00.361Z
20100319 2039.00598 24.71005417 -76.82287217 0.03 137.589 2010-03-19T20:39:00.359Z
20100319 2040.00597 24.71005333 -76.822875 0.0 0.0 2010-03-19T20:40:00.358Z
20100319 2041.00593 24.71005133 -76.82287833 0.0 0.0 2010-03-19T20:41:00.356Z
20100319 2042.00592 24.7100475 -76.8228795 0.02 90.0 2010-03-19T20:42:00.355Z
20100319 2043.00588 24.71004483 -76.822877 0.03 42.411 2010-03-19T20:43:00.353Z
20100319 2044.00587 24.71004467 -76.82287667 0.0 0.0 2010-03-19T20:44:00.352Z
20100319 2045.00583 24.71004433 -76.82287617 0.0 0.0 2010-03-19T20:45:00.350Z
20100319 2046.00582 24.71004083 -76.82287683 0.0 0.0 2010-03-19T20:46:00.349Z
20100319 2047.00578 24.71003783 -76.822876 0.0 0.0 2010-03-19T20:47:00.347Z
20100319 2048.00577 24.71003633 -76.82287917 0.0 0.0 2010-03-19T20:48:00.346Z
20100319 2049.00573 24.710034 -76.82288483 0.02 180.0 2010-03-19T20:49:00.344Z
20100319 2050.00572 24.7100355 -76.822889 0.02 270.0 2010-03-19T20:50:00.343Z
20100319 2051.00568 24.7100385 -76.82288633 0.02 0.0 2010-03-19T20:51:00.341Z
20100319 2052.00567 24.71004717 -76.8228815 0.02 90.0 2010-03-19T20:52:00.340Z
20100319 2053.00563 24.71005017 -76.822879 0.02 0.0 2010-03-19T20:53:00.338Z
20100319 2054.00562 24.710054 -76.8228775 0.02 180.0 2010-03-19T20:54:00.337Z
20100319 2055.00558 24.71005167 -76.82287617 0.02 180.0 2010-03-19T20:55:00.335Z
20100319 2056.00557 24.71004667 -76.82287667 0.0 0.0 2010-03-19T20:56:00.334Z
20100319 2057.00553 24.71004183 -76.82287283 0.05 137.589 2010-03-19T20:57:00.332Z
20100319 2058.00552 24.71003767 -76.82286783 0.02 90.0 2010-03-19T20:58:00.331Z
20100319 2059.00548 24.71003667 -76.82286933 0.0 0.0 2010-03-19T20:59:00.329Z
20100319 2100.00547 24.710035 -76.822874 0.0 0.0 2010-03-19T21:00:00.328Z
20100319 2101.00543 24.71003533 -76.82287233 0.02 90.0 2010-03-19T21:01:00.326Z
20100319 2102.00542 24.7100375 -76.82286883 0.02 90.0 2010-03-19T21:02:00.325Z
20100319 2103.00538 24.71003767 -76.82286633 0.02 270.0 2010-03-19T21:03:00.323Z
20100319 2104.00537 24.71004267 -76.82286967 0.02 0.0 2010-03-19T21:04:00.322Z
20100319 2105.00533 24.71004633 -76.82287433 0.0 0.0 2010-03-19T21:05:00.320Z
20100319 2106.00532 24.71004767 -76.82287183 0.02 90.0 2010-03-19T21:06:00.319Z
20100319 2107.00528 24.71004717 -76.82287317 0.02 0.0 2010-03-19T21:07:00.317Z
20100319 2108.00527 24.7100485 -76.82287367 0.0 0.0 2010-03-19T21:08:00.316Z
20100319 2109.00523 24.71004617 -76.8228715 0.02 90.0 2010-03-19T21:09:00.314Z
20100319 2110.00522 24.71004783 -76.822867 0.0 0.0 2010-03-19T21:10:00.313Z
20100319 2111.00518 24.71005067 -76.82286533 0.02 270.0 2010-03-19T21:11:00.311Z
20100319 2112.00515 24.71005333 -76.82286683 0.02 0.0 2010-03-19T21:12:00.309Z
20100319 2113.00513 24.71005683 -76.82287 0.03 42.411 2010-03-19T21:13:00.308Z
20100319 2114.00510 24.71006117 -76.82286917 0.02 90.0 2010-03-19T21:14:00.306Z
20100319 2115.00508 24.7100615 -76.82286833 0.0 0.0 2010-03-19T21:15:00.305Z
20100319 2116.00505 24.710063 -76.82286867 0.02 180.0 2010-03-19T21:16:00.303Z
20100319 2117.00503 24.71006317 -76.8228675 0.02 0.0 2010-03-19T21:17:00.302Z
20100319 2118.00500 24.710062 -76.82286633 0.02 0.0 2010-03-19T21:18:00.300Z
20100319 2119.00498 24.71006067 -76.8228665 0.0 0.0 2010-03-19T21:19:00.299Z
20100319 2120.00495 24.7100635 -76.822867 0.02 270.0 2010-03-19T21:20:00.297Z
20100319 2121.00493 24.71006583 -76.82286967 0.04 299.421 2010-03-19T21:21:00.296Z
20100319 2122.00490 24.71006967 -76.82287417 0.02 317.589 2010-03-19T21:22:00.294Z
20100319 2123.00488 24.71006767 -76.8228735 0.02 0.0 2010-03-19T21:23:00.293Z
20100319 2124.00485 24.71006767 -76.82286983 0.03 222.411 2010-03-19T21:24:00.291Z
20100319 2125.00483 24.71006183 -76.82286983 0.03 224.144 2010-03-19T21:25:00.290Z
20100319 2126.00480 24.71005817 -76.82287267 0.02 180.0 2010-03-19T21:26:00.288Z
20100319 2127.00478 24.71005717 -76.82287233 0.03 315.856 2010-03-19T21:27:00.287Z
20100319 2128.00475 24.7100565 -76.8228735 0.0 0.0 2010-03-19T21:28:00.285Z
20100319 2129.00473 24.71005567 -76.82287 0.01 137.589 2010-03-19T21:29:00.284Z
20100319 2130.00470 24.71005217 -76.822864 0.02 180.0 2010-03-19T21:30:00.282Z
20100319 2131.00468 24.71005467 -76.82286167 0.04 0.0 2010-03-19T21:31:00.281Z
20100319 2132.00465 24.71005583 -76.82286517 0.02 270.0 2010-03-19T21:32:00.279Z
20100319 2133.00463 24.71005783 -76.8228725 0.02 90.0 2010-03-19T21:33:00.278Z
20100319 2134.00460 24.71005533 -76.822869 0.02 180.0 2010-03-19T21:34:00.276Z
20100319 2135.00458 24.710055 -76.8228685 0.03 42.411 2010-03-19T21:35:00.275Z
20100319 2136.00455 24.7100535 -76.82286383 0.0 0.0 2010-03-19T21:36:00.273Z
20100319 2137.00453 24.71005483 -76.82286233 0.02 0.0 2010-03-19T21:37:00.272Z
20100319 2138.00450 24.710058 -76.82285867 0.03 42.411 2010-03-19T21:38:00.270Z
20100319 2139.00448 24.71005817 -76.822854 0.02 180.0 2010-03-19T21:39:00.269Z
20100319 2140.00445 24.710059 -76.82284967 0.0 0.0 2010-03-19T21:40:00.267Z
20100319 2141.00443 24.71006117 -76.82285083 0.02 180.0 2010-03-19T21:41:00.266Z
20100319 2142.00440 24.71006317 -76.8228565 0.0 0.0 2010-03-19T21:42:00.264Z
20100319 2143.00438 24.7100625 -76.8228615 0.03 222.411 2010-03-19T21:43:00.263Z
20100319 2144.00435 24.71006283 -76.82286767 0.02 180.0 2010-03-19T21:44:00.261Z
20100319 2145.00433 24.71006033 -76.822867 0.0 0.0 2010-03-19T21:45:00.260Z
20100319 2146.00430 24.71005967 -76.822868 0.0 0.0 2010-03-19T21:46:00.258Z
20100319 2147.00428 24.71006383 -76.82286767 0.02 0.0 2010-03-19T21:47:00.257Z
20100319 2148.00425 24.71006933 -76.82286567 0.02 90.0 2010-03-19T21:48:00.255Z
20100319 2149.00423 24.710063 -76.822871 0.02 270.0 2010-03-19T21:49:00.254Z
20100319 2150.00420 24.71005933 -76.8228725 0.0 0.0 2010-03-19T21:50:00.252Z
20100319 2151.00418 24.710053 -76.82287283 0.02 270.0 2010-03-19T21:51:00.251Z
20100319 2152.00415 24.71005083 -76.82287283 0.0 0.0 2010-03-19T21:52:00.249Z
20100319 2153.00412 24.71004967 -76.8228735 0.02 270.0 2010-03-19T21:53:00.247Z
20100319 2154.00410 24.71004717 -76.82287733 0.0 0.0 2010-03-19T21:54:00.246Z
20100319 2155.00407 24.7100465 -76.82288133 0.02 180.0 2010-03-19T21:55:00.244Z
20100319 2156.00405 24.71004483 -76.82288317 0.0 0.0 2010-03-19T21:56:00.243Z
20100319 2157.00402 24.7100465 -76.82288333 0.02 270.0 2010-03-19T21:57:00.241Z
20100319 2158.00400 24.7100475 -76.82288383 0.02 270.0 2010-03-19T21:58:00.240Z
20100319 2159.00397 24.7100495 -76.82288 0.03 137.589 2010-03-19T21:59:00.238Z
20100319 2200.00395 24.71004833 -76.82287817 0.03 135.856 2010-03-19T22:00:00.237Z
20100319 2201.00392 24.71005067 -76.822878 0.02 0.0 2010-03-19T22:01:00.235Z
20100319 2202.00390 24.71005283 -76.8228775 0.03 224.144 2010-03-19T22:02:00.234Z
20100319 2203.00387 24.710053 -76.82287967 0.0 0.0 2010-03-19T22:03:00.232Z
20100319 2204.00385 24.71005367 -76.82288467 0.03 220.687 2010-03-19T22:04:00.231Z
20100319 2205.00382 24.71005533 -76.82288667 0.02 270.0 2010-03-19T22:05:00.229Z
20100319 2206.00380 24.71005433 -76.82288533 0.02 180.0 2010-03-19T22:06:00.228Z
20100319 2207.00377 24.7100515 -76.82288733 0.02 90.0 2010-03-19T22:07:00.226Z
20100319 2208.00375 24.71004917 -76.82288467 0.02 0.0 2010-03-19T22:08:00.225Z
20100319 2209.00372 24.71004833 -76.822883 0.02 90.0 2010-03-19T22:09:00.223Z
20100319 2210.00370 24.710048 -76.82288017 0.03 137.589 2010-03-19T22:10:00.222Z
20100319 2211.00367 24.71004767 -76.82287733 0.02 90.0 2010-03-19T22:11:00.220Z
20100319 2212.00365 24.71005067 -76.822876 0.03 315.856 2010-03-19T22:12:00.219Z
20100319 2213.00362 24.71005333 -76.82287083 0.0 0.0 2010-03-19T22:13:00.217Z
20100319 2214.00360 24.71005517 -76.82287167 0.02 270.0 2010-03-19T22:14:00.216Z
20100319 2215.00357 24.71005417 -76.8228705 0.02 90.0 2010-03-19T22:15:00.214Z
20100319 2216.00355 24.710055 -76.8228675 0.04 205.201 2010-03-19T22:16:00.213Z
20100319 2217.00352 24.7100555 -76.82286733 0.0 0.0 2010-03-19T22:17:00.211Z
20100319 2218.00350 24.71005583 -76.8228655 0.02 90.0 2010-03-19T22:18:00.210Z
20100319 2219.00347 24.710057 -76.822865 0.0 0.0 2010-03-19T22:19:00.208Z
20100319 2220.00345 24.71005967 -76.822865 0.03 44.144 2010-03-19T22:20:00.207Z
20100319 2221.00342 24.7100635 -76.82286783 0.0 0.0 2010-03-19T22:21:00.205Z
20100319 2222.00340 24.71006233 -76.82287217 0.02 222.411 2010-03-19T22:22:00.204Z
20100319 2223.00337 24.710058 -76.82287583 0.0 0.0 2010-03-19T22:23:00.202Z
20100319 2224.00335 24.71005633 -76.82288083 0.02 270.0 2010-03-19T22:24:00.201Z
20100319 2225.00332 24.71005583 -76.82288433 0.0 0.0 2010-03-19T22:25:00.199Z
20100319 2226.00330 24.710058 -76.82288317 0.02 90.0 2010-03-19T22:26:00.198Z
20100319 2227.00327 24.7100595 -76.8228835 0.02 90.0 2010-03-19T22:27:00.196Z
20100319 2228.00325 24.7100595 -76.82288367 0.04 25.201 2010-03-19T22:28:00.195Z
20100319 2229.00322 24.7100595 -76.8228795 0.05 317.589 2010-03-19T22:29:00.193Z
20100319 2230.00320 24.7100575 -76.82287967 0.02 90.0 2010-03-19T22:30:00.192Z
20100319 2231.00317 24.71006133 -76.822878 0.02 270.0 2010-03-19T22:31:00.190Z
20100319 2232.00315 24.71006067 -76.822879 0.02 180.0 2010-03-19T22:32:00.189Z
20100319 2233.00312 24.710057 -76.82287517 0.02 270.0 2010-03-19T22:33:00.187Z
20100319 2234.00308 24.71005433 -76.82288333 0.02 180.0 2010-03-19T22:34:00.185Z
20100319 2235.00307 24.71005383 -76.82288483 0.02 90.0 2010-03-19T22:35:00.184Z
20100319 2236.00303 24.7100535 -76.822885 0.02 270.0 2010-03-19T22:36:00.182Z
20100319 2237.00302 24.710053 -76.82288267 0.0 0.0 2010-03-19T22:37:00.181Z
20100319 2238.00298 24.71005617 -76.82288333 0.02 0.0 2010-03-19T22:38:00.179Z
20100319 2239.00297 24.71005633 -76.82288367 0.02 270.0 2010-03-19T22:39:00.178Z
20100319 2240.00293 24.710058 -76.822886 0.0 0.0 2010-03-19T22:40:00.176Z
20100319 2241.00292 24.71005533 -76.8228845 0.03 317.589 2010-03-19T22:41:00.175Z
20100319 2242.00288 24.71005783 -76.82287983 0.03 90.0 2010-03-19T22:42:00.173Z
20100319 2243.00287 24.71006117 -76.82287883 0.0 0.0 2010-03-19T22:43:00.172Z
20100319 2244.00283 24.710062 -76.8228765 0.03 42.411 2010-03-19T22:44:00.170Z
20100319 2245.00282 24.7100635 -76.82287267 0.0 0.0 2010-03-19T22:45:00.169Z
20100319 2246.00278 24.71006417 -76.82287117 0.02 180.0 2010-03-19T22:46:00.167Z
20100319 2247.00277 24.71006183 -76.82287317 0.0 0.0 2010-03-19T22:47:00.166Z
20100319 2248.00273 24.7100585 -76.82287833 0.03 222.411 2010-03-19T22:48:00.164Z
20100319 2249.00272 24.71005433 -76.82287917 0.02 180.0 2010-03-19T22:49:00.163Z
20100319 2250.00268 24.71005167 -76.82288317 0.02 270.0 2010-03-19T22:50:00.161Z
20100319 2251.00267 24.71004817 -76.82288517 0.03 220.687 2010-03-19T22:51:00.160Z
20100319 2252.00263 24.71004467 -76.82288233 0.02 90.0 2010-03-19T22:52:00.158Z
20100319 2253.00262 24.71004283 -76.82287983 0.02 90.0 2010-03-19T22:53:00.157Z
20100319 2254.00258 24.71004633 -76.8228775 0.02 90.0 2010-03-19T22:54:00.155Z
20100319 2255.00257 24.710049 -76.82287667 0.02 0.0 2010-03-19T22:55:00.154Z
20100319 2256.00253 24.71005467 -76.82287517 0.02 0.0 2010-03-19T22:56:00.152Z
20100319 2257.00252 24.7100605 -76.82287283 0.0 0.0 2010-03-19T22:57:00.151Z
20100319 2258.00248 24.710061 -76.82287383 0.0 0.0 2010-03-19T22:58:00.149Z
20100319 2259.00247 24.7100585 -76.82287333 0.0 0.0 2010-03-19T22:59:00.148Z
20100319 2300.00243 24.71005833 -76.82287467 0.0 0.0 2010-03-19T23:00:00.146Z
20100319 2301.00242 24.710058 -76.822876 0.0 0.0 2010-03-19T23:01:00.145Z
20100319 2302.00238 24.7100555 -76.8228735 0.02 90.0 2010-03-19T23:02:00.143Z
20100319 2303.00237 24.71005483 -76.82287733 0.03 317.589 2010-03-19T23:03:00.142Z
20100319 2304.00233 24.71005917 -76.82288133 0.02 0.0 2010-03-19T23:04:00.140Z
20100319 2305.00232 24.71006067 -76.82288283 0.03 222.411 2010-03-19T23:05:00.139Z
20100319 2306.00228 24.7100585 -76.82288167 0.02 90.0 2010-03-19T23:06:00.137Z
20100319 2307.00227 24.710061 -76.82288067 0.0 0.0 2010-03-19T23:07:00.136Z
20100319 2308.00223 24.71006317 -76.82288067 0.0 0.0 2010-03-19T23:08:00.134Z
20100319 2309.00222 24.71006333 -76.82287917 0.0 0.0 2010-03-19T23:09:00.133Z
20100319 2310.00218 24.71006283 -76.822879 0.03 135.856 2010-03-19T23:10:00.131Z
20100319 2311.00217 24.71006517 -76.82287983 0.02 0.0 2010-03-19T23:11:00.130Z
20100319 2312.00213 24.71007033 -76.8228785 0.02 180.0 2010-03-19T23:12:00.128Z
20100319 2313.00210 24.710068 -76.82287717 0.02 180.0 2010-03-19T23:13:00.126Z
20100319 2314.00208 24.710064 -76.82287667 0.03 220.687 2010-03-19T23:14:00.125Z
20100319 2315.00205 24.71005917 -76.82287383 0.03 90.0 2010-03-19T23:15:00.123Z
20100319 2316.00203 24.71005767 -76.82287017 0.0 0.0 2010-03-19T23:16:00.122Z
20100319 2317.00200 24.7100595 -76.82286783 0.0 0.0 2010-03-19T23:17:00.120Z
20100319 2318.00198 24.71006317 -76.82286967 0.03 44.144 2010-03-19T23:18:00.119Z
20100319 2319.00195 24.710068 -76.8228715 0.03 42.411 2010-03-19T23:19:00.117Z
20100319 2320.00193 24.710069 -76.8228665 0.02 0.0 2010-03-19T23:20:00.116Z
20100319 2321.00190 24.71006717 -76.82286233 0.03 139.313 2010-03-19T23:21:00.114Z
20100319 2322.00188 24.7100635 -76.82285783 0.02 90.0 2010-03-19T23:22:00.113Z
20100319 2323.00185 24.71006167 -76.82285733 0.02 0.0 2010-03-19T23:23:00.111Z
20100319 2324.00183 24.710064 -76.82285833 0.0 0.0 2010-03-19T23:24:00.110Z
20100319 2325.00180 24.71006383 -76.8228625 0.0 0.0 2010-03-19T23:25:00.108Z
20100319 2326.00178 24.71006367 -76.822866 0.02 90.0 2010-03-19T23:26:00.107Z
20100319 2327.00175 24.71005917 -76.8228685 0.02 90.0 2010-03-19T23:27:00.105Z
20100319 2328.00173 24.71005567 -76.822867 0.0 0.0 2010-03-19T23:28:00.104Z
20100319 2329.00170 24.71005383 -76.82286517 0.02 0.0 2010-03-19T23:29:00.102Z
20100319 2330.00168 24.71005533 -76.82286467 0.0 0.0 2010-03-19T23:30:00.101Z
20100319 2331.00165 24.71005617 -76.82286633 0.02 0.0 2010-03-19T23:31:00.099Z
20100319 2332.00163 24.7100595 -76.82287117 0.0 0.0 2010-03-19T23:32:00.098Z
20100319 2333.00160 24.7100585 -76.82287167 0.02 180.0 2010-03-19T23:33:00.096Z
20100319 2334.00158 24.71005583 -76.82287467 0.02 180.0 2010-03-19T23:34:00.095Z
20100319 2335.00155 24.7100545 -76.82287667 0.02 270.0 2010-03-19T23:35:00.093Z
20100319 2336.00153 24.7100545 -76.82287567 0.03 42.411 2010-03-19T23:36:00.092Z
20100319 2337.00150 24.71005617 -76.822873 0.0 0.0 2010-03-19T23:37:00.090Z
20100319 2338.00148 24.71005667 -76.822871 0.02 90.0 2010-03-19T23:38:00.089Z
20100319 2339.00145 24.71005517 -76.82286983 0.0 0.0 2010-03-19T23:39:00.087Z
20100319 2340.00143 24.71005583 -76.82287483 0.0 0.0 2010-03-19T23:40:00.086Z
20100319 2341.00140 24.71005517 -76.822878 0.02 180.0 2010-03-19T23:41:00.084Z
20100319 2342.00138 24.71005183 -76.8228795 0.02 180.0 2010-03-19T23:42:00.083Z
20100319 2343.00135 24.71005133 -76.82288083 0.02 0.0 2010-03-19T23:43:00.081Z
20100319 2344.00133 24.71005167 -76.82288167 0.02 317.589 2010-03-19T23:44:00.080Z
20100319 2345.00130 24.710054 -76.8228855 0.03 42.411 2010-03-19T23:45:00.078Z
20100319 2346.00128 24.7100575 -76.82288133 0.03 40.687 2010-03-19T23:46:00.077Z
20100319 2347.00125 24.7100615 -76.82287517 0.02 90.0 2010-03-19T23:47:00.075Z
20100319 2348.00123 24.71005933 -76.822874 0.0 0.0 2010-03-19T23:48:00.074Z
20100319 2349.00120 24.710059 -76.82287083 0.03 139.313 2010-03-19T23:49:00.072Z
20100319 2350.00118 24.71005067 -76.82286933 0.0 0.0 2010-03-19T23:50:00.071Z
20100319 2351.00115 24.71004867 -76.82287033 0.02 270.0 2010-03-19T23:51:00.069Z
20100319 2352.00112 24.7100475 -76.82287683 0.03 270.0 2010-03-19T23:52:00.067Z
20100319 2353.00110 24.71004883 -76.82288317 0.03 319.313 2010-03-19T23:53:00.066Z
20100319 2354.00107 24.71005483 -76.82288383 0.0 0.0 2010-03-19T23:54:00.064Z
20100319 2355.00105 24.710059 -76.82288233 0.03 40.687 2010-03-19T23:55:00.063Z
20100319 2356.00102 24.7100655 -76.82288533 0.02 270.0 2010-03-19T23:56:00.061Z
20100319 2357.00100 24.7100695 -76.82288133 0.04 0.0 2010-03-19T23:57:00.060Z
20100319 2358.00097 24.71007433 -76.822881 0.02 90.0 2010-03-19T23:58:00.058Z
20100319 2359.00095 24.7100745 -76.82287533 0.03 139.313 2010-03-19T23:59:00.057Z
20100320 0000.00092 24.710073 -76.822873 0.0 0.0 2010-03-20T00:00:00.055Z
20100320 0001.00090 24.71007383 -76.82287133 0.02 90.0 2010-03-20T00:01:00.054Z
20100320 0002.00087 24.71007217 -76.82287267 0.0 0.0 2010-03-20T00:02:00.052Z
20100320 0003.00085 24.71006833 -76.8228745 0.03 224.144 2010-03-20T00:03:00.051Z
20100320 0004.00082 24.7100635 -76.82287683 0.0 0.0 2010-03-20T00:04:00.049Z
20100320 0005.00080 24.7100615 -76.82287533 0.0 0.0 2010-03-20T00:05:00.048Z
20100320 0006.00077 24.7100595 -76.82287267 0.0 0.0 2010-03-20T00:06:00.046Z
20100320 0007.00075 24.71005667 -76.82286933 0.02 42.411 2010-03-20T00:07:00.045Z
20100320 0008.00072 24.71005767 -76.82287517 0.02 270.0 2010-03-20T00:08:00.043Z
20100320 0009.00070 24.71005683 -76.82288067 0.02 270.0 2010-03-20T00:09:00.042Z
20100320 0010.00067 24.7100545 -76.822882 0.03 137.589 2010-03-20T00:10:00.040Z
20100320 0011.00065 24.71005367 -76.8228825 0.02 0.0 2010-03-20T00:11:00.039Z
20100320 0012.00062 24.71005733 -76.82288367 0.02 0.0 2010-03-20T00:12:00.037Z
20100320 0013.00060 24.71006017 -76.82288433 0.02 270.0 2010-03-20T00:13:00.036Z
20100320 0014.00057 24.7100595 -76.82288717 0.03 319.313 2010-03-20T00:14:00.034Z
20100320 0015.00055 24.71005717 -76.82288517 0.0 0.0 2010-03-20T00:15:00.033Z
20100320 0016.00052 24.71005217 -76.82288183 0.02 180.0 2010-03-20T00:16:00.031Z
20100320 0017.00050 24.7100485 -76.82288067 0.0 0.0 2010-03-20T00:17:00.030Z
20100320 0018.00047 24.71004583 -76.82287683 0.02 180.0 2010-03-20T00:18:00.028Z
20100320 0019.00045 24.71004483 -76.82287517 0.0 0.0 2010-03-20T00:19:00.027Z
20100320 0020.00042 24.71004583 -76.822874 0.02 90.0 2010-03-20T00:20:00.025Z
20100320 0021.00040 24.710049 -76.822872 0.02 270.0 2010-03-20T00:21:00.024Z
20100320 0022.00037 24.71005033 -76.82287017 0.02 90.0 2010-03-20T00:22:00.022Z
20100320 0023.00035 24.71005483 -76.82286617 0.04 61.306 2010-03-20T00:23:00.021Z
20100320 0024.00032 24.7100575 -76.82285567 0.02 0.0 2010-03-20T00:24:00.019Z
20100320 0025.00030 24.71005617 -76.822855 0.02 270.0 2010-03-20T00:25:00.018Z
20100320 0026.00027 24.71005467 -76.82286033 0.02 270.0 2010-03-20T00:26:00.016Z
20100320 0027.00025 24.71005267 -76.82286767 0.03 270.0 2010-03-20T00:27:00.015Z
20100320 0028.00022 24.71005183 -76.82287283 0.0 0.0 2010-03-20T00:28:00.013Z
20100320 0029.00020 24.71004783 -76.82287217 0.05 42.411 2010-03-20T00:29:00.012Z
20100320 0030.00017 24.7100505 -76.8228665 0.0 0.0 2010-03-20T00:30:00.010Z
20100320 0031.00013 24.71004783 -76.82286317 0.02 0.0 2010-03-20T00:31:00.008Z
20100320 0032.00012 24.7100465 -76.82286583 0.02 270.0 2010-03-20T00:32:00.007Z
20100320 0033.00008 24.71004833 -76.82286667 0.02 0.0 2010-03-20T00:33:00.005Z
20100320 0034.00007 24.71004933 -76.8228705 0.0 0.0 2010-03-20T00:34:00.004Z
20100320 0035.00003 24.71004717 -76.82287083 0.02 270.0 2010-03-20T00:35:00.002Z
20100320 0036.00002 24.71004483 -76.82287033 0.02 137.589 2010-03-20T00:36:00.001Z
20100320 0036.99998 24.710047 -76.82287217 0.02 270.0 2010-03-20T00:36:59.999Z
20100320 0037.99997 24.71004867 -76.82287567 0.0 0.0 2010-03-20T00:37:59.998Z
20100320 0038.99993 24.710048 -76.82287583 0.0 0.0 2010-03-20T00:38:59.996Z
20100320 0039.99992 24.7100455 -76.82287333 0.0 0.0 2010-03-20T00:39:59.995Z
20100320 0040.99988 24.71004833 -76.82287083 0.02 90.0 2010-03-20T00:40:59.993Z
20100320 0041.99987 24.71004917 -76.82286867 0.03 44.144 2010-03-20T00:41:59.992Z
20100320 0042.99983 24.7100505 -76.82286283 0.02 0.0 2010-03-20T00:42:59.990Z
20100320 0043.99982 24.71005417 -76.82286317 0.0 0.0 2010-03-20T00:43:59.989Z
20100320 0044.99978 24.71005333 -76.82286133 0.02 0.0 2010-03-20T00:44:59.987Z
20100320 0045.99977 24.7100535 -76.82286067 0.0 0.0 2010-03-20T00:45:59.986Z
20100320 0046.99973 24.710053 -76.82285483 0.02 180.0 2010-03-20T00:46:59.984Z
20100320 0047.99972 24.71005 -76.82285583 0.0 0.0 2010-03-20T00:47:59.983Z
20100320 0048.99968 24.71004983 -76.82286217 0.03 270.0 2010-03-20T00:48:59.981Z
20100320 0049.99967 24.71004767 -76.822872 0.0 0.0 2010-03-20T00:49:59.980Z
20100320 0050.99963 24.71005017 -76.82288167 0.02 180.0 2010-03-20T00:50:59.978Z
20100320 0051.99962 24.71005117 -76.8228855 0.02 180.0 2010-03-20T00:51:59.977Z
20100320 0052.99958 24.7100525 -76.82288283 0.0 0.0 2010-03-20T00:52:59.975Z
20100320 0053.99957 24.7100505 -76.82287867 0.0 0.0 2010-03-20T00:53:59.974Z
20100320 0054.99953 24.71005083 -76.822877 0.0 0.0 2010-03-20T00:54:59.972Z
20100320 0055.99952 24.71005167 -76.82287567 0.02 90.0 2010-03-20T00:55:59.971Z
20100320 0056.99948 24.7100525 -76.8228685 0.03 42.411 2010-03-20T00:56:59.969Z
20100320 0057.99947 24.71005517 -76.82286683 0.02 0.0 2010-03-20T00:57:59.968Z
20100320 0058.99943 24.71005317 -76.82286567 0.02 0.0 2010-03-20T00:58:59.966Z
20100320 0059.99942 24.710052 -76.82286667 0.0 0.0 2010-03-20T00:59:59.965Z
20100320 0100.99938 24.71005183 -76.8228645 0.02 0.0 2010-03-20T01:00:59.963Z
20100320 0101.99937 24.71005683 -76.82286433 0.0 0.0 2010-03-20T01:01:59.962Z
20100320 0102.99933 24.71005733 -76.82286583 0.02 0.0 2010-03-20T01:02:59.960Z
20100320 0103.99932 24.71005733 -76.8228705 0.02 90.0 2010-03-20T01:03:59.959Z
20100320 0104.99928 24.71005867 -76.822875 0.03 44.144 2010-03-20T01:04:59.957Z
20100320 0105.99927 24.71005917 -76.8228725 0.02 0.0 2010-03-20T01:05:59.956Z
20100320 0106.99923 24.71006183 -76.82286967 0.02 90.0 2010-03-20T01:06:59.954Z
20100320 0107.99922 24.71006 -76.82286783 0.0 0.0 2010-03-20T01:07:59.953Z
20100320 0108.99918 24.710053 -76.82286567 0.02 0.0 2010-03-20T01:08:59.951Z
20100320 0109.99917 24.71005083 -76.82287167 0.02 180.0 2010-03-20T01:09:59.950Z
20100320 0110.99913 24.71005067 -76.82287167 0.02 0.0 2010-03-20T01:10:59.948Z
20100320 0111.99910 24.71005017 -76.822875 0.03 315.856 2010-03-20T01:11:59.946Z
20100320 0112.99908 24.71005383 -76.8228765 0.02 0.0 2010-03-20T01:12:59.945Z
20100320 0113.99905 24.71005617 -76.822869 0.03 44.144 2010-03-20T01:13:59.943Z
20100320 0114.99903 24.71005633 -76.822868 0.02 0.0 2010-03-20T01:14:59.942Z
20100320 0115.99900 24.710059 -76.82286617 0.0 0.0 2010-03-20T01:15:59.940Z
20100320 0116.99898 24.71005683 -76.8228615 0.02 0.0 2010-03-20T01:16:59.939Z
20100320 0117.99895 24.71005767 -76.82285983 0.0 0.0 2010-03-20T01:17:59.937Z
20100320 0118.99893 24.7100575 -76.82285717 0.03 42.411 2010-03-20T01:18:59.936Z
20100320 0119.99890 24.7100605 -76.822855 0.02 270.0 2010-03-20T01:19:59.934Z
20100320 0120.99888 24.71006483 -76.82285683 0.02 270.0 2010-03-20T01:20:59.933Z
20100320 0121.99885 24.710063 -76.82286083 0.03 222.411 2010-03-20T01:21:59.931Z
20100320 0122.99883 24.71006567 -76.822862 0.02 0.0 2010-03-20T01:22:59.930Z
20100320 0123.99880 24.71006633 -76.82286233 0.0 0.0 2010-03-20T01:23:59.928Z
20100320 0124.99878 24.71006483 -76.822863 0.03 224.144 2010-03-20T01:24:59.927Z
20100320 0125.99875 24.71005917 -76.8228665 0.03 222.411 2010-03-20T01:25:59.925Z
20100320 0126.99873 24.71005383 -76.82287017 0.02 270.0 2010-03-20T01:26:59.924Z
20100320 0127.99870 24.7100525 -76.822876 0.02 0.0 2010-03-20T01:27:59.922Z
20100320 0128.99868 24.710055 -76.8228775 0.0 0.0 2010-03-20T01:28:59.921Z
20100320 0129.99865 24.71005683 -76.82287867 0.0 0.0 2010-03-20T01:29:59.919Z
20100320 0130.99863 24.71005667 -76.82287967 0.02 270.0 2010-03-20T01:30:59.918Z
20100320 0131.99860 24.7100565 -76.82288167 0.02 180.0 2010-03-20T01:31:59.916Z
20100320 0132.99858 24.71005383 -76.8228815 0.02 270.0 2010-03-20T01:32:59.915Z
20100320 0133.99855 24.7100515 -76.822882 0.0 0.0 2010-03-20T01:33:59.913Z
20100320 0134.99853 24.71005017 -76.822881 0.02 90.0 2010-03-20T01:34:59.912Z
20100320 0135.99850 24.71005367 -76.82287767 0.0 0.0 2010-03-20T01:35:59.910Z
20100320 0136.99848 24.7100545 -76.8228735 0.0 0.0 2010-03-20T01:36:59.909Z
20100320 0137.99845 24.7100545 -76.82287467 0.02 270.0 2010-03-20T01:37:59.907Z
20100320 0138.99843 24.710055 -76.82287017 0.03 42.411 2010-03-20T01:38:59.906Z
20100320 0139.99840 24.71005767 -76.8228695 0.0 0.0 2010-03-20T01:39:59.904Z
20100320 0140.99838 24.7100585 -76.82286917 0.03 42.411 2010-03-20T01:40:59.903Z
20100320 0141.99835 24.7100615 -76.82286517 0.0 0.0 2010-03-20T01:41:59.901Z
20100320 0142.99833 24.71006167 -76.82286383 0.02 0.0 2010-03-20T01:42:59.900Z
20100320 0143.99830 24.7100655 -76.822863 0.0 0.0 2010-03-20T01:43:59.898Z
20100320 0144.99828 24.71006483 -76.82286367 0.0 0.0 2010-03-20T01:44:59.897Z
20100320 0145.99825 24.71006217 -76.82286483 0.0 0.0 2010-03-20T01:45:59.895Z
20100320 0146.99823 24.71006233 -76.82286217 0.02 90.0 2010-03-20T01:46:59.894Z
20100320 0147.99820 24.7100615 -76.8228605 0.02 0.0 2010-03-20T01:47:59.892Z
20100320 0148.99818 24.71006167 -76.82286233 0.0 0.0 2010-03-20T01:48:59.891Z
20100320 0149.99815 24.71006317 -76.82286383 0.02 0.0 2010-03-20T01:49:59.889Z
20100320 0150.99812 24.71006517 -76.82286617 0.02 180.0 2010-03-20T01:50:59.887Z
20100320 0151.99810 24.71006583 -76.82286333 0.02 90.0 2010-03-20T01:51:59.886Z
20100320 0152.99807 24.7100655 -76.82286167 0.0 0.0 2010-03-20T01:52:59.884Z
20100320 0153.99805 24.7100655 -76.82286367 0.0 0.0 2010-03-20T01:53:59.883Z
20100320 0154.99802 24.71006517 -76.82286783 0.02 270.0 2010-03-20T01:54:59.881Z
20100320 0155.99800 24.71006133 -76.8228725 0.0 0.0 2010-03-20T01:55:59.880Z
20100320 0156.99797 24.71005817 -76.822873 0.02 90.0 2010-03-20T01:56:59.878Z
20100320 0157.99795 24.71005817 -76.82287267 0.03 44.144 2010-03-20T01:57:59.877Z
20100320 0158.99792 24.7100595 -76.82286883 0.03 90.0 2010-03-20T01:58:59.875Z
20100320 0159.99790 24.71006167 -76.8228655 0.02 90.0 2010-03-20T01:59:59.874Z
20100320 0200.99787 24.71005867 -76.82286483 0.02 180.0 2010-03-20T02:00:59.872Z
20100320 0201.99785 24.7100575 -76.822866 0.0 0.0 2010-03-20T02:01:59.871Z
20100320 0202.99782 24.71005433 -76.82286717 0.03 135.856 2010-03-20T02:02:59.869Z
20100320 0203.99780 24.710051 -76.82287133 0.0 0.0 2010-03-20T02:03:59.868Z
20100320 0204.99777 24.71005033 -76.822873 0.02 180.0 2010-03-20T02:04:59.866Z
20100320 0205.99775 24.71005017 -76.8228715 0.03 44.144 2010-03-20T02:05:59.865Z
20100320 0206.99772 24.71005417 -76.8228715 0.0 0.0 2010-03-20T02:06:59.863Z
20100320 0207.99770 24.710055 -76.82287133 0.02 180.0 2010-03-20T02:07:59.862Z
20100320 0208.99767 24.710053 -76.82287383 0.02 0.0 2010-03-20T02:08:59.860Z
20100320 0209.99765 24.71005383 -76.822874 0.02 180.0 2010-03-20T02:09:59.859Z
20100320 0210.99762 24.71005767 -76.8228725 0.02 90.0 2010-03-20T02:10:59.857Z
20100320 0211.99760 24.71005667 -76.82287167 0.03 44.144 2010-03-20T02:11:59.856Z
20100320 0212.99757 24.71005417 -76.82286733 0.02 42.411 2010-03-20T02:12:59.854Z
20100320 0213.99755 24.71005483 -76.8228615 0.03 42.411 2010-03-20T02:13:59.853Z
20100320 0214.99752 24.71005483 -76.82285967 0.02 270.0 2010-03-20T02:14:59.851Z
20100320 0215.99750 24.7100565 -76.82286017 0.03 42.411 2010-03-20T02:15:59.850Z
20100320 0216.99747 24.71005767 -76.8228625 0.0 0.0 2010-03-20T02:16:59.848Z
20100320 0217.99745 24.71005833 -76.822866 0.02 180.0 2010-03-20T02:17:59.847Z
20100320 0218.99742 24.71005783 -76.82287017 0.03 319.313 2010-03-20T02:18:59.845Z
20100320 0219.99740 24.71006133 -76.8228765 0.03 270.0 2010-03-20T02:19:59.844Z
20100320 0220.99737 24.71006083 -76.8228795 0.02 180.0 2010-03-20T02:20:59.842Z
20100320 0221.99735 24.7100565 -76.82288267 0.0 0.0 2010-03-20T02:21:59.841Z
20100320 0222.99732 24.710054 -76.822881 0.02 90.0 2010-03-20T02:22:59.839Z
20100320 0223.99730 24.71005267 -76.82288 0.02 270.0 2010-03-20T02:23:59.838Z
20100320 0224.99727 24.71005083 -76.8228785 0.02 270.0 2010-03-20T02:24:59.836Z
20100320 0225.99725 24.71004967 -76.8228795 0.02 180.0 2010-03-20T02:25:59.835Z
20100320 0226.99722 24.71004983 -76.82287867 0.0 0.0 2010-03-20T02:26:59.833Z
20100320 0227.99720 24.71004967 -76.822879 0.02 90.0 2010-03-20T02:27:59.832Z
20100320 0228.99717 24.71004967 -76.82287817 0.02 270.0 2010-03-20T02:28:59.830Z
20100320 0229.99715 24.71005367 -76.82288233 0.02 270.0 2010-03-20T02:29:59.829Z
20100320 0230.99712 24.71005483 -76.82288717 0.0 0.0 2010-03-20T02:30:59.827Z
20100320 0231.99708 24.7100565 -76.8228875 0.02 0.0 2010-03-20T02:31:59.825Z
20100320 0232.99707 24.71005833 -76.82288967 0.02 180.0 2010-03-20T02:32:59.824Z
20100320 0233.99703 24.7100545 -76.82288933 0.02 90.0 2010-03-20T02:33:59.822Z
20100320 0234.99702 24.71005567 -76.822887 0.02 180.0 2010-03-20T02:34:59.821Z
20100320 0235.99698 24.71005483 -76.82288467 0.03 42.411 2010-03-20T02:35:59.819Z
20100320 0236.99697 24.71005133 -76.82288283 0.02 90.0 2010-03-20T02:36:59.818Z
20100320 0237.99693 24.71004783 -76.822885 0.0 0.0 2010-03-20T02:37:59.816Z
20100320 0238.99692 24.71004733 -76.82288883 0.0 0.0 2010-03-20T02:38:59.815Z
20100320 0239.99688 24.71004817 -76.8228885 0.0 0.0 2010-03-20T02:39:59.813Z
20100320 0240.99687 24.71005383 -76.82288967 0.02 0.0 2010-03-20T02:40:59.812Z
20100320 0241.99683 24.71005917 -76.82289017 0.02 0.0 2010-03-20T02:41:59.810Z
20100320 0242.99682 24.71006467 -76.82288867 0.02 0.0 2010-03-20T02:42:59.809Z
20100320 0243.99678 24.71006717 -76.82288717 0.0 0.0 2010-03-20T02:43:59.807Z
20100320 0244.99677 24.71006183 -76.82288267 0.03 135.856 2010-03-20T02:44:59.806Z
20100320 0245.99673 24.710057 -76.82287367 0.02 90.0 2010-03-20T02:45:59.804Z
20100320 0246.99672 24.71005517 -76.82287067 0.02 90.0 2010-03-20T02:46:59.803Z
20100320 0247.99668 24.71005617 -76.82286683 0.02 90.0 2010-03-20T02:47:59.801Z
20100320 0248.99667 24.71005767 -76.82286983 0.03 315.856 2010-03-20T02:48:59.800Z
20100320 0249.99663 24.71006033 -76.82287533 0.0 0.0 2010-03-20T02:49:59.798Z
20100320 0250.99662 24.71006033 -76.82287367 0.02 222.411 2010-03-20T02:50:59.797Z
20100320 0251.99658 24.71005733 -76.82287783 0.02 270.0 2010-03-20T02:51:59.795Z
20100320 0252.99657 24.7100615 -76.82287717 0.0 0.0 2010-03-20T02:52:59.794Z
20100320 0253.99653 24.71006383 -76.82288083 0.03 317.589 2010-03-20T02:53:59.792Z
20100320 0254.99652 24.71006233 -76.8228835 0.02 270.0 2010-03-20T02:54:59.791Z
20100320 0255.99648 24.71006283 -76.82288533 0.02 90.0 2010-03-20T02:55:59.789Z
20100320 0256.99647 24.7100605 -76.82288167 0.02 270.0 2010-03-20T02:56:59.788Z
20100320 0257.99643 24.71005983 -76.82288517 0.0 0.0 2010-03-20T02:57:59.786Z
20100320 0258.99642 24.71006 -76.82288617 0.02 180.0 2010-03-20T02:58:59.785Z
20100320 0259.99638 24.71005433 -76.82288867 0.02 270.0 2010-03-20T02:59:59.783Z
20100320 0300.99637 24.7100525 -76.82288967 0.0 0.0 2010-03-20T03:00:59.782Z
20100320 0301.99633 24.71005367 -76.822889 0.03 44.144 2010-03-20T03:01:59.780Z
20100320 0302.99632 24.710054 -76.8228845 0.03 42.411 2010-03-20T03:02:59.779Z
20100320 0303.99628 24.71005583 -76.82288017 0.0 0.0 2010-03-20T03:03:59.777Z
20100320 0304.99627 24.71005883 -76.8228785 0.0 0.0 2010-03-20T03:04:59.776Z
20100320 0305.99623 24.71005883 -76.82287383 0.02 90.0 2010-03-20T03:05:59.774Z
20100320 0306.99622 24.710062 -76.82286817 0.03 42.411 2010-03-20T03:06:59.773Z
20100320 0307.99618 24.7100665 -76.82286667 0.0 0.0 2010-03-20T03:07:59.771Z
20100320 0308.99615 24.71006867 -76.82286717 0.0 0.0 2010-03-20T03:08:59.769Z
20100320 0309.99613 24.7100675 -76.822868 0.0 0.0 2010-03-20T03:09:59.768Z
20100320 0310.99610 24.71006733 -76.82286733 0.02 137.589 2010-03-20T03:10:59.766Z
20100320 0311.99608 24.71006217 -76.822866 0.02 90.0 2010-03-20T03:11:59.765Z
20100320 0312.99605 24.71006 -76.8228605 0.03 42.411 2010-03-20T03:12:59.763Z
20100320 0313.99603 24.71005767 -76.8228605 0.0 0.0 2010-03-20T03:13:59.762Z
20100320 0314.99600 24.71005583 -76.8228605 0.03 270.0 2010-03-20T03:14:59.760Z
20100320 0315.99598 24.710054 -76.822865 0.02 270.0 2010-03-20T03:15:59.759Z
20100320 0316.99595 24.71005283 -76.822868 0.03 317.589 2010-03-20T03:16:59.757Z
20100320 0317.99593 24.710054 -76.82287033 0.02 0.0 2010-03-20T03:17:59.756Z
20100320 0318.99590 24.710055 -76.82287117 0.02 270.0 2010-03-20T03:18:59.754Z
20100320 0319.99588 24.71005567 -76.82287533 0.0 0.0 2010-03-20T03:19:59.753Z
20100320 0320.99585 24.710055 -76.82287483 0.03 317.589 2010-03-20T03:20:59.751Z
20100320 0321.99583 24.7100595 -76.82288017 0.0 0.0 2010-03-20T03:21:59.750Z
20100320 0322.99580 24.71006017 -76.82288167 0.02 180.0 2010-03-20T03:22:59.748Z
20100320 0323.99578 24.71005983 -76.82288283 0.02 180.0 2010-03-20T03:23:59.747Z
20100320 0324.99575 24.7100585 -76.82288933 0.02 270.0 2010-03-20T03:24:59.745Z
20100320 0325.99573 24.71006033 -76.82289467 0.02 270.0 2010-03-20T03:25:59.744Z
20100320 0326.99570 24.710056 -76.82289283 0.02 180.0 2010-03-20T03:26:59.742Z
20100320 0327.99568 24.71005733 -76.82289133 0.02 0.0 2010-03-20T03:27:59.741Z
20100320 0328.99565 24.71005917 -76.822884 0.03 44.144 2010-03-20T03:28:59.739Z
20100320 0329.99563 24.71005683 -76.822882 0.0 0.0 2010-03-20T03:29:59.738Z
20100320 0330.99560 24.71006 -76.82287533 0.04 60.579 2010-03-20T03:30:59.736Z
20100320 0331.99558 24.71006067 -76.82286933 0.0 0.0 2010-03-20T03:31:59.735Z
20100320 0332.99555 24.71006633 -76.82287367 0.03 319.313 2010-03-20T03:32:59.733Z
20100320 0333.99553 24.7100665 -76.82287367 0.0 0.0 2010-03-20T03:33:59.732Z
20100320 0334.99550 24.7100655 -76.822876 0.0 0.0 2010-03-20T03:34:59.730Z
20100320 0335.99548 24.71006383 -76.82287683 0.02 0.0 2010-03-20T03:35:59.729Z
20100320 0336.99545 24.71005883 -76.82287817 0.02 222.411 2010-03-20T03:36:59.727Z
20100320 0337.99543 24.71005133 -76.82288033 0.02 180.0 2010-03-20T03:37:59.726Z
20100320 0338.99540 24.7100485 -76.82288517 0.02 270.0 2010-03-20T03:38:59.724Z
20100320 0339.99538 24.71004767 -76.82288567 0.0 0.0 2010-03-20T03:39:59.723Z
20100320 0340.99535 24.71005117 -76.82288367 0.0 0.0 2010-03-20T03:40:59.721Z
20100320 0341.99533 24.71005317 -76.82288017 0.02 0.0 2010-03-20T03:41:59.720Z
20100320 0342.99530 24.7100525 -76.822881 0.02 90.0 2010-03-20T03:42:59.718Z
20100320 0343.99528 24.710054 -76.82287967 0.02 270.0 2010-03-20T03:43:59.717Z
20100320 0344.99525 24.71005683 -76.82288083 0.0 0.0 2010-03-20T03:44:59.715Z
20100320 0345.99522 24.71005633 -76.822881 0.03 317.589 2010-03-20T03:45:59.713Z
20100320 0346.99520 24.71005733 -76.82288083 0.0 0.0 2010-03-20T03:46:59.712Z
20100320 0347.99517 24.71005733 -76.82287817 0.0 0.0 2010-03-20T03:47:59.710Z
20100320 0348.99515 24.710055 -76.822877 0.0 0.0 2010-03-20T03:48:59.709Z
20100320 0349.99512 24.71005583 -76.8228705 0.02 90.0 2010-03-20T03:49:59.707Z
20100320 0350.99510 24.71005567 -76.82286983 0.02 90.0 2010-03-20T03:50:59.706Z
20100320 0351.99507 24.710057 -76.82286883 0.02 180.0 2010-03-20T03:51:59.704Z
20100320 0352.99505 24.71006067 -76.82286783 0.02 42.411 2010-03-20T03:52:59.703Z
20100320 0353.99502 24.71006367 -76.82286533 0.02 0.0 2010-03-20T03:53:59.701Z
20100320 0354.99500 24.71006583 -76.82286517 0.02 222.411 2010-03-20T03:54:59.700Z
20100320 0355.99497 24.71006267 -76.8228655 0.03 222.411 2010-03-20T03:55:59.698Z
20100320 0356.99495 24.71006217 -76.8228665 0.0 0.0 2010-03-20T03:56:59.697Z
20100320 0357.99492 24.71005933 -76.822868 0.03 224.144 2010-03-20T03:57:59.695Z
20100320 0358.99490 24.71005717 -76.82286933 0.03 315.856 2010-03-20T03:58:59.694Z
20100320 0359.99487 24.71005917 -76.82287133 0.0 0.0 2010-03-20T03:59:59.692Z
20100320 0400.99485 24.71005933 -76.82287383 0.0 0.0 2010-03-20T04:00:59.691Z
20100320 0401.99482 24.7100595 -76.82287683 0.0 0.0 2010-03-20T04:01:59.689Z
20100320 0402.99480 24.71005967 -76.82287617 0.02 180.0 2010-03-20T04:02:59.688Z
20100320 0403.99477 24.7100575 -76.82287917 0.02 270.0 2010-03-20T04:03:59.686Z
20100320 0404.99475 24.71005567 -76.8228815 0.03 44.144 2010-03-20T04:04:59.685Z
20100320 0405.99472 24.71005683 -76.82288167 0.02 270.0 2010-03-20T04:05:59.683Z
20100320 0406.99470 24.71005617 -76.82288517 0.02 270.0 2010-03-20T04:06:59.682Z
20100320 0407.99467 24.71005683 -76.8228885 0.0 0.0 2010-03-20T04:07:59.680Z
20100320 0408.99465 24.71005683 -76.82288633 0.02 90.0 2010-03-20T04:08:59.679Z
20100320 0409.99462 24.71005567 -76.82288133 0.0 0.0 2010-03-20T04:09:59.677Z
20100320 0410.99460 24.71005483 -76.82287917 0.02 0.0 2010-03-20T04:10:59.676Z
20100320 0411.99457 24.710059 -76.82288183 0.03 317.589 2010-03-20T04:11:59.674Z
20100320 0412.99455 24.71006067 -76.82288467 0.02 0.0 2010-03-20T04:12:59.673Z
20100320 0413.99452 24.71005933 -76.822883 0.02 90.0 2010-03-20T04:13:59.671Z
20100320 0414.99450 24.710057 -76.8228765 0.03 90.0 2010-03-20T04:14:59.670Z
20100320 0415.99447 24.710056 -76.82286967 0.0 0.0 2010-03-20T04:15:59.668Z
20100320 0416.99445 24.71006117 -76.822874 0.03 44.144 2010-03-20T04:16:59.667Z
20100320 0417.99442 24.71006367 -76.82286983 0.02 270.0 2010-03-20T04:17:59.665Z
20100320 0418.99440 24.71006883 -76.8228695 0.02 180.0 2010-03-20T04:18:59.664Z
20100320 0419.99437 24.71006467 -76.82286567 0.0 0.0 2010-03-20T04:19:59.662Z
20100320 0420.99435 24.71006883 -76.82286317 0.02 180.0 2010-03-20T04:20:59.661Z
20100320 0421.99432 24.7100645 -76.8228645 0.02 90.0 2010-03-20T04:21:59.659Z
20100320 0422.99430 24.71006333 -76.82286817 0.05 270.0 2010-03-20T04:22:59.658Z
20100320 0423.99427 24.71006317 -76.822881 0.02 270.0 2010-03-20T04:23:59.656Z
20100320 0424.99423 24.71006133 -76.8228865 0.03 135.856 2010-03-20T04:24:59.654Z
20100320 0425.99422 24.71005817 -76.822885 0.0 0.0 2010-03-20T04:25:59.653Z
20100320 0426.99418 24.71005633 -76.82287967 0.02 90.0 2010-03-20T04:26:59.651Z
20100320 0427.99417 24.710053 -76.8228745 0.03 137.589 2010-03-20T04:27:59.650Z
20100320 0428.99413 24.71004783 -76.82287083 0.0 0.0 2010-03-20T04:28:59.648Z
20100320 0429.99412 24.71005183 -76.8228715 0.02 0.0 2010-03-20T04:29:59.647Z
20100320 0430.99408 24.71005567 -76.82287167 0.02 0.0 2010-03-20T04:30:59.645Z
20100320 0431.99407 24.71005883 -76.82287067 0.02 0.0 2010-03-20T04:31:59.644Z
20100320 0432.99403 24.7100595 -76.82287033 0.02 180.0 2010-03-20T04:32:59.642Z
20100320 0433.99402 24.710056 -76.82287033 0.02 90.0 2010-03-20T04:33:59.641Z
20100320 0434.99398 24.71005767 -76.82286883 0.02 270.0 2010-03-20T04:34:59.639Z
20100320 0435.99397 24.71006083 -76.82287117 0.02 0.0 2010-03-20T04:35:59.638Z
20100320 0436.99393 24.710059 -76.82286867 0.02 180.0 2010-03-20T04:36:59.636Z
20100320 0437.99392 24.71005567 -76.82286933 0.02 270.0 2010-03-20T04:37:59.635Z
20100320 0438.99388 24.71005883 -76.82286883 0.02 0.0 2010-03-20T04:38:59.633Z
20100320 0439.99387 24.7100625 -76.82286617 0.02 90.0 2010-03-20T04:39:59.632Z
20100320 0440.99383 24.7100615 -76.82286033 0.03 222.411 2010-03-20T04:40:59.630Z
20100320 0441.99382 24.71005233 -76.82286317 0.02 270.0 2010-03-20T04:41:59.629Z
20100320 0442.99378 24.71004783 -76.8228625 0.0 0.0 2010-03-20T04:42:59.627Z
20100320 0443.99377 24.71005133 -76.82286433 0.0 0.0 2010-03-20T04:43:59.626Z
20100320 0444.99373 24.71005467 -76.82286633 0.02 90.0 2010-03-20T04:44:59.624Z
20100320 0445.99372 24.71005383 -76.82286467 0.03 135.856 2010-03-20T04:45:59.623Z
20100320 0446.99368 24.71005333 -76.82286517 0.02 0.0 2010-03-20T04:46:59.621Z
20100320 0447.99367 24.71005467 -76.82286367 0.02 317.589 2010-03-20T04:47:59.620Z
20100320 0448.99363 24.7100545 -76.82286567 0.03 319.313 2010-03-20T04:48:59.618Z
20100320 0449.99362 24.7100575 -76.82286833 0.0 0.0 2010-03-20T04:49:59.617Z
20100320 0450.99358 24.71005833 -76.8228725 0.0 0.0 2010-03-20T04:50:59.615Z
20100320 0451.99357 24.71006067 -76.82287117 0.02 0.0 2010-03-20T04:51:59.614Z
20100320 0452.99353 24.71006183 -76.82287217 0.02 180.0 2010-03-20T04:52:59.612Z
20100320 0453.99352 24.710059 -76.82287483 0.02 180.0 2010-03-20T04:53:59.611Z
20100320 0454.99348 24.7100585 -76.8228725 0.02 0.0 2010-03-20T04:54:59.609Z
20100320 0455.99347 24.7100615 -76.82287133 0.03 90.0 2010-03-20T04:55:59.608Z
20100320 0456.99343 24.71006267 -76.82286983 0.0 0.0 2010-03-20T04:56:59.606Z
20100320 0457.99342 24.7100585 -76.82286867 0.03 220.687 2010-03-20T04:57:59.605Z
20100320 0458.99338 24.71005583 -76.8228675 0.02 0.0 2010-03-20T04:58:59.603Z
20100320 0459.99337 24.71006 -76.822865 0.02 90.0 2010-03-20T04:59:59.602Z
20100320 0500.99333 24.71005983 -76.82286867 0.0 0.0 2010-03-20T05:00:59.600Z
20100320 0501.99332 24.7100565 -76.82287083 0.01 180.0 2010-03-20T05:01:59.599Z
20100320 0502.99328 24.71005783 -76.82286933 0.0 0.0 2010-03-20T05:02:59.597Z
20100320 0503.99325 24.71006033 -76.82286917 0.0 0.0 2010-03-20T05:03:59.595Z
20100320 0504.99323 24.71006017 -76.82286767 0.0 0.0 2010-03-20T05:04:59.594Z
20100320 0505.99320 24.71006317 -76.82286617 0.02 0.0 2010-03-20T05:05:59.592Z
20100320 0506.99318 24.71006617 -76.82286483 0.02 42.411 2010-03-20T05:06:59.591Z
20100320 0507.99315 24.71006967 -76.8228655 0.02 0.0 2010-03-20T05:07:59.589Z
20100320 0508.99313 24.71006983 -76.822867 0.02 180.0 2010-03-20T05:08:59.588Z
20100320 0509.99310 24.71006583 -76.8228705 0.02 270.0 2010-03-20T05:09:59.586Z
20100320 0510.99308 24.71006717 -76.8228725 0.02 270.0 2010-03-20T05:10:59.585Z
20100320 0511.99305 24.71006633 -76.82287417 0.0 0.0 2010-03-20T05:11:59.583Z
20100320 0512.99303 24.71006733 -76.822875 0.02 270.0 2010-03-20T05:12:59.582Z
20100320 0513.99300 24.71006667 -76.82287917 0.03 220.687 2010-03-20T05:13:59.580Z
20100320 0514.99298 24.7100675 -76.8228845 0.02 180.0 2010-03-20T05:14:59.579Z
20100320 0515.99295 24.71006733 -76.82288567 0.03 135.856 2010-03-20T05:15:59.577Z
20100320 0516.99293 24.71006567 -76.8228875 0.03 137.589 2010-03-20T05:16:59.576Z
20100320 0517.99290 24.7100625 -76.8228875 0.02 90.0 2010-03-20T05:17:59.574Z
20100320 0518.99288 24.71006167 -76.82288733 0.03 139.313 2010-03-20T05:18:59.573Z
20100320 0519.99285 24.71005867 -76.82288583 0.0 0.0 2010-03-20T05:19:59.571Z
20100320 0520.99283 24.710057 -76.8228835 0.02 0.0 2010-03-20T05:20:59.570Z
20100320 0521.99280 24.71006033 -76.82288383 0.0 0.0 2010-03-20T05:21:59.568Z
20100320 0522.99278 24.71005883 -76.8228885 0.02 270.0 2010-03-20T05:22:59.567Z
20100320 0523.99275 24.7100565 -76.8228885 0.0 0.0 2010-03-20T05:23:59.565Z
20100320 0524.99273 24.71005117 -76.82289017 0.03 44.144 2010-03-20T05:24:59.564Z
20100320 0525.99270 24.71005133 -76.8228925 0.0 0.0 2010-03-20T05:25:59.562Z
20100320 0526.99268 24.710049 -76.82288467 0.02 270.0 2010-03-20T05:26:59.561Z
20100320 0527.99265 24.71005 -76.82288233 0.0 0.0 2010-03-20T05:27:59.559Z
20100320 0528.99263 24.71005267 -76.8228845 0.02 270.0 2010-03-20T05:28:59.558Z
20100320 0529.99260 24.71005517 -76.82288717 0.0 0.0 2010-03-20T05:29:59.556Z
20100320 0530.99258 24.710056 -76.82288583 0.02 90.0 2010-03-20T05:30:59.555Z
20100320 0531.99255 24.71005383 -76.8228845 0.0 0.0 2010-03-20T05:31:59.553Z
20100320 0532.99253 24.7100555 -76.82288083 0.03 222.411 2010-03-20T05:32:59.552Z
20100320 0533.99250 24.71005317 -76.82288217 0.02 90.0 2010-03-20T05:33:59.550Z
20100320 0534.99248 24.71004933 -76.82287867 0.0 0.0 2010-03-20T05:34:59.549Z
20100320 0535.99245 24.71005183 -76.8228785 0.02 180.0 2010-03-20T05:35:59.547Z
20100320 0536.99243 24.7100505 -76.82287317 0.02 90.0 2010-03-20T05:36:59.546Z
20100320 0537.99240 24.71005317 -76.822874 0.02 0.0 2010-03-20T05:37:59.544Z
20100320 0538.99238 24.710052 -76.82287733 0.02 180.0 2010-03-20T05:38:59.543Z
20100320 0539.99235 24.71004983 -76.82287833 0.02 270.0 2010-03-20T05:39:59.541Z
20100320 0540.99233 24.7100525 -76.82288433 0.02 270.0 2010-03-20T05:40:59.540Z
20100320 0541.99230 24.71005267 -76.82289133 0.03 139.313 2010-03-20T05:41:59.538Z
20100320 0542.99228 24.71005017 -76.82289133 0.03 139.313 2010-03-20T05:42:59.537Z
20100320 0543.99225 24.71004983 -76.822891 0.0 0.0 2010-03-20T05:43:59.535Z
20100320 0544.99223 24.710048 -76.82289033 0.03 139.313 2010-03-20T05:44:59.534Z
20100320 0545.99220 24.71004533 -76.822887 0.02 270.0 2010-03-20T05:45:59.532Z
20100320 0546.99217 24.71004667 -76.822889 0.0 0.0 2010-03-20T05:46:59.530Z
20100320 0547.99215 24.7100455 -76.82288517 0.03 137.589 2010-03-20T05:47:59.529Z
20100320 0548.99212 24.71004333 -76.82287867 0.03 135.856 2010-03-20T05:48:59.527Z
20100320 0549.99210 24.71004617 -76.82287917 0.02 270.0 2010-03-20T05:49:59.526Z
20100320 0550.99207 24.7100515 -76.822882 0.02 0.0 2010-03-20T05:50:59.524Z
20100320 0551.99205 24.7100535 -76.82287983 0.0 0.0 2010-03-20T05:51:59.523Z
20100320 0552.99202 24.7100565 -76.82287933 0.03 317.589 2010-03-20T05:52:59.521Z
20100320 0553.99200 24.71005967 -76.82287733 0.0 0.0 2010-03-20T05:53:59.520Z
20100320 0554.99197 24.71006367 -76.82287883 0.03 315.856 2010-03-20T05:54:59.518Z
20100320 0555.99195 24.71006317 -76.82288183 0.02 90.0 2010-03-20T05:55:59.517Z
20100320 0556.99192 24.71005883 -76.82288183 0.02 0.0 2010-03-20T05:56:59.515Z
20100320 0557.99190 24.71005667 -76.822883 0.0 0.0 2010-03-20T05:57:59.514Z
20100320 0558.99187 24.710053 -76.82288817 0.0 0.0 2010-03-20T05:58:59.512Z
20100320 0559.99185 24.71005017 -76.82289167 0.02 180.0 2010-03-20T05:59:59.511Z
20100320 0600.99182 24.71004833 -76.82289417 0.02 270.0 2010-03-20T06:00:59.509Z
20100320 0601.99180 24.71004483 -76.82289033 0.02 137.589 2010-03-20T06:01:59.508Z
20100320 0602.99177 24.71004367 -76.82288617 0.02 317.589 2010-03-20T06:02:59.506Z
20100320 0603.99175 24.710044 -76.82288383 0.0 0.0 2010-03-20T06:03:59.505Z
20100320 0604.99172 24.7100465 -76.82288267 0.0 0.0 2010-03-20T06:04:59.503Z
20100320 0605.99170 24.71004833 -76.82288183 0.03 40.687 2010-03-20T06:05:59.502Z
20100320 0606.99167 24.71005267 -76.82288333 0.0 0.0 2010-03-20T06:06:59.500Z
20100320 0608.00832 24.710052 -76.822883 0.03 317.589 2010-03-20T06:08:00.499Z
20100320 0609.00828 24.71005683 -76.8228825 0.0 0.0 2010-03-20T06:09:00.497Z
20100320 0610.00827 24.71005633 -76.8228805 0.0 0.0 2010-03-20T06:10:00.496Z
20100320 0611.00823 24.710056 -76.82288033 0.03 40.687 2010-03-20T06:11:00.494Z
20100320 0612.00822 24.710055 -76.82287783 0.02 0.0 2010-03-20T06:12:00.493Z
20100320 0613.00818 24.7100555 -76.82287667 0.0 0.0 2010-03-20T06:13:00.491Z
20100320 0614.00817 24.710053 -76.82287417 0.02 90.0 2010-03-20T06:14:00.490Z
20100320 0615.00813 24.7100515 -76.82287017 0.0 0.0 2010-03-20T06:15:00.488Z
20100320 0616.00812 24.71004967 -76.8228685 0.0 0.0 2010-03-20T06:16:00.487Z
20100320 0617.00808 24.710051 -76.82286867 0.0 0.0 2010-03-20T06:17:00.485Z
20100320 0618.00807 24.71004967 -76.822867 0.02 90.0 2010-03-20T06:18:00.484Z
20100320 0619.00803 24.71005117 -76.82286617 0.02 270.0 2010-03-20T06:19:00.482Z
20100320 0620.00802 24.71005183 -76.82286033 0.02 90.0 2010-03-20T06:20:00.481Z
20100320 0621.00798 24.71005183 -76.82286067 0.02 222.411 2010-03-20T06:21:00.479Z
20100320 0622.00797 24.71005533 -76.82286117 0.03 42.411 2010-03-20T06:22:00.478Z
20100320 0623.00793 24.71005683 -76.82285817 0.02 180.0 2010-03-20T06:23:00.476Z
20100320 0624.00792 24.71005567 -76.82285917 0.02 90.0 2010-03-20T06:24:00.475Z
20100320 0625.00788 24.71005583 -76.8228605 0.02 90.0 2010-03-20T06:25:00.473Z
20100320 0626.00787 24.71005217 -76.822865 0.0 0.0 2010-03-20T06:26:00.472Z
20100320 0627.00783 24.71005 -76.82286867 0.02 90.0 2010-03-20T06:27:00.470Z
20100320 0628.00782 24.71005417 -76.82287383 0.02 270.0 2010-03-20T06:28:00.469Z
20100320 0629.00778 24.71005667 -76.82287967 0.02 90.0 2010-03-20T06:29:00.467Z
20100320 0630.00775 24.71005617 -76.82288333 0.0 0.0 2010-03-20T06:30:00.465Z
20100320 0631.00773 24.710056 -76.82288433 0.02 270.0 2010-03-20T06:31:00.464Z
20100320 0632.00770 24.710056 -76.82288417 0.02 270.0 2010-03-20T06:32:00.462Z
20100320 0633.00768 24.71005717 -76.82288117 0.02 0.0 2010-03-20T06:33:00.461Z
20100320 0634.00765 24.71005583 -76.82287733 0.02 180.0 2010-03-20T06:34:00.459Z
20100320 0635.00763 24.710052 -76.8228725 0.02 90.0 2010-03-20T06:35:00.458Z
20100320 0636.00760 24.71005117 -76.8228755 0.02 270.0 2010-03-20T06:36:00.456Z
20100320 0637.00758 24.71005 -76.822875 0.02 270.0 2010-03-20T06:37:00.455Z
20100320 0638.00755 24.71004983 -76.8228755 0.02 90.0 2010-03-20T06:38:00.453Z
20100320 0639.00753 24.71005283 -76.82287717 0.0 0.0 2010-03-20T06:39:00.452Z
20100320 0640.00750 24.71005683 -76.82287517 0.0 0.0 2010-03-20T06:40:00.450Z
20100320 0641.00748 24.71005483 -76.82287517 0.02 270.0 2010-03-20T06:41:00.449Z
20100320 0642.00745 24.71005167 -76.822879 0.0 0.0 2010-03-20T06:42:00.447Z
20100320 0643.00743 24.7100495 -76.82287633 0.0 0.0 2010-03-20T06:43:00.446Z
20100320 0644.00740 24.71005383 -76.82287717 0.02 0.0 2010-03-20T06:44:00.444Z
20100320 0645.00738 24.71005567 -76.82287917 0.0 0.0 2010-03-20T06:45:00.443Z
20100320 0646.00735 24.71005233 -76.82288433 0.02 270.0 2010-03-20T06:46:00.441Z
20100320 0647.00733 24.71005317 -76.82288617 0.02 270.0 2010-03-20T06:47:00.440Z
20100320 0648.00730 24.710054 -76.82288433 0.02 270.0 2010-03-20T06:48:00.438Z
20100320 0649.00728 24.7100535 -76.8228845 0.02 270.0 2010-03-20T06:49:00.437Z
20100320 0650.00725 24.71005033 -76.822888 0.0 0.0 2010-03-20T06:50:00.435Z
20100320 0651.00723 24.71005217 -76.82288767 0.03 44.144 2010-03-20T06:51:00.434Z
20100320 0652.00720 24.71004717 -76.822887 0.03 315.856 2010-03-20T06:52:00.432Z
20100320 0653.00718 24.710047 -76.82288567 0.02 0.0 2010-03-20T06:53:00.431Z
20100320 0654.00715 24.71004967 -76.82288517 0.02 317.589 2010-03-20T06:54:00.429Z
20100320 0655.00713 24.710051 -76.82288583 0.02 270.0 2010-03-20T06:55:00.428Z
20100320 0656.00710 24.7100545 -76.822886 0.02 90.0 2010-03-20T06:56:00.426Z
20100320 0657.00708 24.71006033 -76.82288467 0.0 0.0 2010-03-20T06:57:00.425Z
20100320 0658.00705 24.71005983 -76.82287833 0.02 0.0 2010-03-20T06:58:00.423Z
20100320 0659.00703 24.71006233 -76.82287417 0.0 0.0 2010-03-20T06:59:00.422Z
20100320 0700.00700 24.7100615 -76.82287283 0.0 0.0 2010-03-20T07:00:00.420Z
20100320 0701.00698 24.710057 -76.82287267 0.02 270.0 2010-03-20T07:01:00.419Z
20100320 0702.00695 24.71005167 -76.82287833 0.02 180.0 2010-03-20T07:02:00.417Z
20100320 0703.00693 24.71004817 -76.8228785 0.03 315.856 2010-03-20T07:03:00.416Z
20100320 0704.00690 24.710045 -76.8228785 0.0 0.0 2010-03-20T07:04:00.414Z
20100320 0705.00688 24.71004533 -76.82287617 0.02 180.0 2010-03-20T07:05:00.413Z
20100320 0706.00685 24.71004583 -76.82287333 0.0 0.0 2010-03-20T07:06:00.411Z
20100320 0707.00683 24.71005 -76.82286917 0.0 0.0 2010-03-20T07:07:00.410Z
20100320 0708.00680 24.710057 -76.82286567 0.03 42.411 2010-03-20T07:08:00.408Z
20100320 0709.00678 24.7100605 -76.822865 0.0 0.0 2010-03-20T07:09:00.407Z
20100320 0710.00675 24.71006017 -76.8228705 0.03 222.411 2010-03-20T07:10:00.405Z
20100320 0711.00673 24.7100565 -76.8228735 0.03 317.589 2010-03-20T07:11:00.404Z
20100320 0712.00670 24.71006067 -76.8228755 0.03 44.144 2010-03-20T07:12:00.402Z
20100320 0713.00668 24.71006433 -76.82287433 0.02 180.0 2010-03-20T07:13:00.401Z
20100320 0714.00665 24.71006333 -76.82287833 0.02 270.0 2010-03-20T07:14:00.399Z
20100320 0715.00663 24.71006167 -76.82287983 0.02 180.0 2010-03-20T07:15:00.398Z
20100320 0716.00660 24.71005617 -76.8228735 0.0 0.0 2010-03-20T07:16:00.396Z
20100320 0717.00657 24.71005733 -76.82287083 0.02 90.0 2010-03-20T07:17:00.394Z
20100320 0718.00655 24.71005683 -76.822874 0.0 0.0 2010-03-20T07:18:00.393Z
20100320 0719.00652 24.710055 -76.82287583 0.0 0.0 2010-03-20T07:19:00.391Z
20100320 0720.00650 24.71005333 -76.82287733 0.02 270.0 2010-03-20T07:20:00.390Z
20100320 0721.00647 24.71005517 -76.8228805 0.0 0.0 2010-03-20T07:21:00.388Z
20100320 0722.00645 24.71005533 -76.8228755 0.02 0.0 2010-03-20T07:22:00.387Z
20100320 0723.00642 24.7100555 -76.822875 0.0 0.0 2010-03-20T07:23:00.385Z
20100320 0724.00640 24.71005633 -76.8228765 0.02 270.0 2010-03-20T07:24:00.384Z
20100320 0725.00637 24.71006017 -76.8228725 0.02 0.0 2010-03-20T07:25:00.382Z
20100320 0726.00635 24.71006033 -76.82287217 0.0 0.0 2010-03-20T07:26:00.381Z
20100320 0727.00632 24.71006117 -76.82287333 0.0 0.0 2010-03-20T07:27:00.379Z
20100320 0728.00630 24.71006383 -76.82287133 0.02 90.0 2010-03-20T07:28:00.378Z
20100320 0729.00627 24.710066 -76.82286783 0.02 90.0 2010-03-20T07:29:00.376Z
20100320 0730.00625 24.7100655 -76.82287033 0.0 0.0 2010-03-20T07:30:00.375Z
20100320 0731.00622 24.71006633 -76.82287083 0.03 40.687 2010-03-20T07:31:00.373Z
20100320 0732.00620 24.7100685 -76.82286783 0.0 0.0 2010-03-20T07:32:00.372Z
20100320 0733.00617 24.71006817 -76.8228645 0.0 0.0 2010-03-20T07:33:00.370Z
20100320 0734.00615 24.71006683 -76.822867 0.02 180.0 2010-03-20T07:34:00.369Z
20100320 0735.00612 24.71006417 -76.82286967 0.02 270.0 2010-03-20T07:35:00.367Z
20100320 0736.00610 24.71005817 -76.82287983 0.02 270.0 2010-03-20T07:36:00.366Z
20100320 0737.00607 24.710056 -76.82288317 0.0 0.0 2010-03-20T07:37:00.364Z
20100320 0737.98938 24.710055 -76.82288233 0.01 180.0 2010-03-20T07:37:59.363Z
20100320 0739.00602 24.710052 -76.82287633 0.03 90.0 2010-03-20T07:39:00.361Z
20100320 0740.00600 24.71005217 -76.82287167 0.03 44.144 2010-03-20T07:40:00.360Z
20100320 0741.00597 24.71005417 -76.82286883 0.02 0.0 2010-03-20T07:41:00.358Z
20100320 0742.00595 24.71005617 -76.8228755 0.02 270.0 2010-03-20T07:42:00.357Z
20100320 0743.00592 24.71005567 -76.82287417 0.02 270.0 2010-03-20T07:43:00.355Z
20100320 0744.00590 24.71005933 -76.82287517 0.03 319.313 2010-03-20T07:44:00.354Z
20100320 0745.00587 24.710066 -76.82287733 0.0 0.0 2010-03-20T07:45:00.352Z
20100320 0746.00585 24.71006767 -76.82287833 0.0 0.0 2010-03-20T07:46:00.351Z
20100320 0747.00582 24.71006883 -76.8228795 0.02 180.0 2010-03-20T07:47:00.349Z
20100320 0748.00580 24.71006883 -76.82288083 0.03 224.144 2010-03-20T07:48:00.348Z
20100320 0749.00577 24.71006833 -76.8228835 0.0 0.0 2010-03-20T07:49:00.346Z
20100320 0750.00575 24.71006717 -76.82287917 0.02 90.0 2010-03-20T07:50:00.345Z
20100320 0751.00572 24.71006017 -76.82287867 0.02 90.0 2010-03-20T07:51:00.343Z
20100320 0752.00570 24.71005567 -76.82287367 0.0 0.0 2010-03-20T07:52:00.342Z
20100320 0753.00567 24.71005683 -76.82287583 0.02 90.0 2010-03-20T07:53:00.340Z
20100320 0754.00565 24.71005883 -76.82287967 0.03 270.0 2010-03-20T07:54:00.339Z
20100320 0755.00562 24.7100595 -76.82288533 0.02 0.0 2010-03-20T07:55:00.337Z
20100320 0756.00560 24.71006183 -76.82288467 0.0 0.0 2010-03-20T07:56:00.336Z
20100320 0757.00557 24.71006283 -76.82288333 0.02 90.0 2010-03-20T07:57:00.334Z
20100320 0758.00555 24.7100665 -76.822882 0.02 90.0 2010-03-20T07:58:00.333Z
20100320 0759.00552 24.71006417 -76.82287883 0.02 90.0 2010-03-20T07:59:00.331Z
20100320 0800.00550 24.7100615 -76.82287517 0.02 0.0 2010-03-20T08:00:00.330Z
20100320 0801.00547 24.71006667 -76.82287733 0.03 315.856 2010-03-20T08:01:00.328Z
20100320 0802.00545 24.71007033 -76.822884 0.0 0.0 2010-03-20T08:02:00.327Z
20100320 0803.00542 24.71006817 -76.82288333 0.0 0.0 2010-03-20T08:03:00.325Z
20100320 0804.00538 24.7100705 -76.82288333 0.0 0.0 2010-03-20T08:04:00.323Z
20100320 0805.00537 24.71006983 -76.82288117 0.02 90.0 2010-03-20T08:05:00.322Z
20100320 0806.00533 24.7100675 -76.8228785 0.0 0.0 2010-03-20T08:06:00.320Z
20100320 0807.00532 24.71006667 -76.82287617 0.0 0.0 2010-03-20T08:07:00.319Z
20100320 0808.00528 24.710062 -76.82287433 0.03 139.313 2010-03-20T08:08:00.317Z
20100320 0809.00527 24.71005683 -76.8228705 0.03 135.856 2010-03-20T08:09:00.316Z
20100320 0810.00523 24.71005633 -76.82287067 0.02 0.0 2010-03-20T08:10:00.314Z
20100320 0811.00522 24.71005767 -76.8228675 0.0 0.0 2010-03-20T08:11:00.313Z
20100320 0812.00518 24.71006033 -76.82286517 0.0 0.0 2010-03-20T08:12:00.311Z
20100320 0813.00517 24.7100605 -76.822869 0.02 90.0 2010-03-20T08:13:00.310Z
20100320 0814.00513 24.71006017 -76.82286483 0.02 180.0 2010-03-20T08:14:00.308Z
20100320 0815.00512 24.71006067 -76.82286467 0.02 0.0 2010-03-20T08:15:00.307Z
20100320 0816.00508 24.710063 -76.822864 0.02 0.0 2010-03-20T08:16:00.305Z
20100320 0817.00507 24.7100665 -76.82286267 0.0 0.0 2010-03-20T08:17:00.304Z
20100320 0818.00503 24.71006683 -76.8228625 0.0 0.0 2010-03-20T08:18:00.302Z
20100320 0819.00502 24.71006367 -76.82286183 0.03 139.313 2010-03-20T08:19:00.301Z
20100320 0820.00498 24.71005767 -76.82286033 0.03 222.411 2010-03-20T08:20:00.299Z
20100320 0821.00497 24.71005733 -76.822864 0.0 0.0 2010-03-20T08:21:00.298Z
20100320 0822.00493 24.71005667 -76.822866 0.02 180.0 2010-03-20T08:22:00.296Z
20100320 0823.00492 24.71005217 -76.8228655 0.0 0.0 2010-03-20T08:23:00.295Z
20100320 0824.00488 24.71005117 -76.82286533 0.0 0.0 2010-03-20T08:24:00.293Z
20100320 0825.00487 24.71005317 -76.82286317 0.0 0.0 2010-03-20T08:25:00.292Z
20100320 0826.00483 24.71005283 -76.82286283 0.03 224.144 2010-03-20T08:26:00.290Z
20100320 0827.00482 24.7100535 -76.82286683 0.02 0.0 2010-03-20T08:27:00.289Z
20100320 0828.00478 24.71005783 -76.82287083 0.0 0.0 2010-03-20T08:28:00.287Z
20100320 0829.00477 24.71005633 -76.82287 0.02 90.0 2010-03-20T08:29:00.286Z
20100320 0830.00473 24.71005283 -76.82286867 0.03 135.856 2010-03-20T08:30:00.284Z
20100320 0831.00472 24.71005467 -76.82287217 0.02 317.589 2010-03-20T08:31:00.283Z
20100320 0832.00468 24.71005017 -76.82287733 0.02 270.0 2010-03-20T08:32:00.281Z
20100320 0833.00467 24.71004967 -76.82288133 0.02 270.0 2010-03-20T08:33:00.280Z
20100320 0834.00463 24.71005417 -76.822883 0.03 315.856 2010-03-20T08:34:00.278Z
20100320 0835.00462 24.7100545 -76.82288667 0.03 220.687 2010-03-20T08:35:00.277Z
20100320 0836.00458 24.71005767 -76.8228815 0.0 0.0 2010-03-20T08:36:00.275Z
20100320 0837.00457 24.71005633 -76.82287933 0.0 0.0 2010-03-20T08:37:00.274Z
20100320 0838.00453 24.71005583 -76.82287933 0.03 317.589 2010-03-20T08:38:00.272Z
20100320 0839.00452 24.71005417 -76.8228795 0.02 270.0 2010-03-20T08:39:00.271Z
20100320 0840.00448 24.71005733 -76.82288133 0.04 0.0 2010-03-20T08:40:00.269Z
20100320 0841.00447 24.7100595 -76.82288183 0.0 0.0 2010-03-20T08:41:00.268Z
20100320 0842.00443 24.71006217 -76.822881 0.0 0.0 2010-03-20T08:42:00.266Z
20100320 0843.00442 24.7100615 -76.82288283 0.0 0.0 2010-03-20T08:43:00.265Z
20100320 0844.00438 24.71006183 -76.82287967 0.02 180.0 2010-03-20T08:44:00.263Z
20100320 0845.00437 24.7100565 -76.82287733 0.0 0.0 2010-03-20T08:45:00.262Z
20100320 0846.00433 24.71005317 -76.82287817 0.0 0.0 2010-03-20T08:46:00.260Z
20100320 0847.00432 24.71005417 -76.82288117 0.0 0.0 2010-03-20T08:47:00.259Z
20100320 0848.00428 24.71005867 -76.82288367 0.03 44.144 2010-03-20T08:48:00.257Z
20100320 0849.00427 24.71006267 -76.8228855 0.0 0.0 2010-03-20T08:49:00.256Z
20100320 0850.00423 24.71006933 -76.82288883 0.0 0.0 2010-03-20T08:50:00.254Z
20100320 0851.00422 24.71006467 -76.8228865 0.03 137.589 2010-03-20T08:51:00.253Z
20100320 0852.00418 24.71006283 -76.822883 0.02 90.0 2010-03-20T08:52:00.251Z
20100320 0853.00415 24.71006317 -76.822882 0.0 0.0 2010-03-20T08:53:00.249Z
20100320 0854.00413 24.7100655 -76.8228815 0.02 90.0 2010-03-20T08:54:00.248Z
20100320 0855.00410 24.71005883 -76.82287783 0.0 0.0 2010-03-20T08:55:00.246Z
20100320 0856.00408 24.7100555 -76.8228735 0.03 137.589 2010-03-20T08:56:00.245Z
20100320 0857.00405 24.71005517 -76.82287117 0.02 0.0 2010-03-20T08:57:00.243Z
20100320 0858.00403 24.71005217 -76.82286933 0.0 0.0 2010-03-20T08:58:00.242Z
20100320 0859.00400 24.71005117 -76.82286717 0.0 0.0 2010-03-20T08:59:00.240Z
20100320 0900.00398 24.71004967 -76.82286883 0.0 0.0 2010-03-20T09:00:00.239Z
20100320 0901.00395 24.71004867 -76.82287217 0.02 0.0 2010-03-20T09:01:00.237Z
20100320 0902.00393 24.7100515 -76.8228775 0.02 270.0 2010-03-20T09:02:00.236Z
20100320 0903.00390 24.71005183 -76.8228815 0.03 224.144 2010-03-20T09:03:00.234Z
20100320 0904.00388 24.71005383 -76.82288467 0.0 0.0 2010-03-20T09:04:00.233Z
20100320 0905.00385 24.71005417 -76.82288983 0.02 270.0 2010-03-20T09:05:00.231Z
20100320 0906.00383 24.71005583 -76.82288867 0.0 0.0 2010-03-20T09:06:00.230Z
20100320 0907.00380 24.71005617 -76.82288683 0.0 0.0 2010-03-20T09:07:00.228Z
20100320 0908.00378 24.71005517 -76.82288367 0.02 180.0 2010-03-20T09:08:00.227Z
20100320 0909.00375 24.710055 -76.82287817 0.02 0.0 2010-03-20T09:09:00.225Z
20100320 0910.00373 24.71005417 -76.82287333 0.02 90.0 2010-03-20T09:10:00.224Z
20100320 0911.00370 24.7100545 -76.82286983 0.0 0.0 2010-03-20T09:11:00.222Z
20100320 0912.00368 24.71005483 -76.82286717 0.02 90.0 2010-03-20T09:12:00.221Z
20100320 0913.00365 24.71005583 -76.82286533 0.02 90.0 2010-03-20T09:13:00.219Z
20100320 0914.00363 24.71005917 -76.82286667 0.0 0.0 2010-03-20T09:14:00.218Z
20100320 0915.00360 24.71005983 -76.82286967 0.0 0.0 2010-03-20T09:15:00.216Z
20100320 0916.00358 24.71005767 -76.82287083 0.0 0.0 2010-03-20T09:16:00.215Z
20100320 0917.00355 24.71005933 -76.82287267 0.02 0.0 2010-03-20T09:17:00.213Z
20100320 0918.00353 24.71005483 -76.82286767 0.03 135.856 2010-03-20T09:18:00.212Z
20100320 0919.00350 24.7100535 -76.822868 0.0 0.0 2010-03-20T09:19:00.210Z
20100320 0920.00348 24.710051 -76.82287333 0.03 317.589 2010-03-20T09:20:00.209Z
20100320 0921.00345 24.710056 -76.82287783 0.02 270.0 2010-03-20T09:21:00.207Z
20100320 0922.00343 24.7100595 -76.8228785 0.02 0.0 2010-03-20T09:22:00.206Z
20100320 0923.00340 24.71006217 -76.82287567 0.0 0.0 2010-03-20T09:23:00.204Z
20100320 0924.00338 24.71006217 -76.82287367 0.0 0.0 2010-03-20T09:24:00.203Z
20100320 0925.00335 24.71006433 -76.8228735 0.0 0.0 2010-03-20T09:25:00.201Z
20100320 0926.00333 24.7100675 -76.82287117 0.02 0.0 2010-03-20T09:26:00.200Z
20100320 0927.00330 24.71007 -76.82286833 0.0 0.0 2010-03-20T09:27:00.198Z
20100320 0928.00328 24.71006817 -76.82286517 0.02 180.0 2010-03-20T09:28:00.197Z
20100320 0929.00325 24.710065 -76.822864 0.02 180.0 2010-03-20T09:29:00.195Z
20100320 0930.00323 24.71005967 -76.82286783 0.02 270.0 2010-03-20T09:30:00.194Z
20100320 0931.00320 24.7100585 -76.82287317 0.03 42.411 2010-03-20T09:31:00.192Z
20100320 0932.00318 24.71005483 -76.82287567 0.02 222.411 2010-03-20T09:32:00.191Z
20100320 0933.00315 24.71005333 -76.8228775 0.0 0.0 2010-03-20T09:33:00.189Z
20100320 0934.00313 24.7100505 -76.82288017 0.04 154.799 2010-03-20T09:34:00.188Z
20100320 0935.00310 24.71004667 -76.8228785 0.02 0.0 2010-03-20T09:35:00.186Z
20100320 0936.00308 24.7100465 -76.8228795 0.0 0.0 2010-03-20T09:36:00.185Z
20100320 0937.00305 24.71004933 -76.82287917 0.02 90.0 2010-03-20T09:37:00.183Z
20100320 0938.00303 24.71004883 -76.8228795 0.0 0.0 2010-03-20T09:38:00.182Z
20100320 0939.00300 24.71004633 -76.82287883 0.0 0.0 2010-03-20T09:39:00.180Z
20100320 0940.00298 24.7100465 -76.82287617 0.0 0.0 2010-03-20T09:40:00.179Z
20100320 0941.00295 24.71004633 -76.82287683 0.02 90.0 2010-03-20T09:41:00.177Z
20100320 0942.00293 24.71005117 -76.82287717 0.02 0.0 2010-03-20T09:42:00.176Z
20100320 0943.00290 24.7100525 -76.82287733 0.0 0.0 2010-03-20T09:43:00.174Z
20100320 0944.00287 24.710054 -76.82287783 0.02 0.0 2010-03-20T09:44:00.172Z
20100320 0945.00285 24.71005567 -76.82288317 0.0 0.0 2010-03-20T09:45:00.171Z
20100320 0946.00282 24.71005533 -76.82288933 0.02 270.0 2010-03-20T09:46:00.169Z
20100320 0947.00280 24.71005517 -76.82288867 0.04 118.694 2010-03-20T09:47:00.168Z
20100320 0948.00277 24.71005833 -76.82288733 0.02 0.0 2010-03-20T09:48:00.166Z
20100320 0949.00275 24.7100615 -76.82288733 0.0 0.0 2010-03-20T09:49:00.165Z
20100320 0950.00272 24.7100585 -76.82288133 0.03 139.313 2010-03-20T09:50:00.163Z
20100320 0951.00270 24.71006017 -76.82288233 0.0 0.0 2010-03-20T09:51:00.162Z
20100320 0952.00267 24.71006067 -76.82288083 0.04 119.421 2010-03-20T09:52:00.160Z
20100320 0953.00265 24.71006 -76.82287533 0.0 0.0 2010-03-20T09:53:00.159Z
20100320 0954.00262 24.7100585 -76.82287467 0.03 220.687 2010-03-20T09:54:00.157Z
20100320 0955.00260 24.71005717 -76.82287483 0.02 270.0 2010-03-20T09:55:00.156Z
20100320 0956.00257 24.71005667 -76.82288 0.02 0.0 2010-03-20T09:56:00.154Z
20100320 0957.00255 24.71005717 -76.82288 0.0 0.0 2010-03-20T09:57:00.153Z
20100320 0958.00252 24.710057 -76.8228845 0.0 0.0 2010-03-20T09:58:00.151Z
20100320 0959.00250 24.71005717 -76.8228845 0.02 90.0 2010-03-20T09:59:00.150Z
20100320 1000.00247 24.7100575 -76.82288133 0.02 90.0 2010-03-20T10:00:00.148Z
20100320 1001.00245 24.7100615 -76.82287683 0.0 0.0 2010-03-20T10:01:00.147Z
20100320 1002.00242 24.710063 -76.8228755 0.02 90.0 2010-03-20T10:02:00.145Z
20100320 1003.00240 24.71006267 -76.82287483 0.02 90.0 2010-03-20T10:03:00.144Z
20100320 1004.00237 24.7100635 -76.82287717 0.02 270.0 2010-03-20T10:04:00.142Z
20100320 1005.00235 24.71006333 -76.82287783 0.03 40.687 2010-03-20T10:05:00.141Z
20100320 1006.00232 24.71006433 -76.82287667 0.0 0.0 2010-03-20T10:06:00.139Z
20100320 1007.00230 24.71006883 -76.82287233 0.02 0.0 2010-03-20T10:07:00.138Z
20100320 1008.00227 24.71007167 -76.82287267 0.02 180.0 2010-03-20T10:08:00.136Z
20100320 1009.00225 24.71006817 -76.82287267 0.02 180.0 2010-03-20T10:09:00.135Z
20100320 1010.00222 24.71006433 -76.82287267 0.03 135.856 2010-03-20T10:10:00.133Z
20100320 1011.00220 24.71006333 -76.82287133 0.0 0.0 2010-03-20T10:11:00.132Z
20100320 1012.00217 24.71006417 -76.822872 0.02 270.0 2010-03-20T10:12:00.130Z
20100320 1013.00215 24.710064 -76.8228735 0.0 0.0 2010-03-20T10:13:00.129Z
20100320 1014.00212 24.71006333 -76.82287383 0.02 180.0 2010-03-20T10:14:00.127Z
20100320 1015.00210 24.7100625 -76.82287283 0.02 90.0 2010-03-20T10:15:00.126Z
20100320 1016.00207 24.71006067 -76.82287183 0.03 139.313 2010-03-20T10:16:00.124Z
20100320 1017.00205 24.71005733 -76.82287167 0.02 90.0 2010-03-20T10:17:00.123Z
20100320 1018.00202 24.71005133 -76.82287033 0.02 90.0 2010-03-20T10:18:00.121Z
20100320 1019.00200 24.71005367 -76.82287033 0.0 0.0 2010-03-20T10:19:00.120Z
20100320 1020.00197 24.71005383 -76.82286817 0.02 180.0 2010-03-20T10:20:00.118Z
20100320 1021.00195 24.71005167 -76.82286367 0.02 180.0 2010-03-20T10:21:00.117Z
20100320 1022.00192 24.7100525 -76.82286283 0.0 0.0 2010-03-20T10:22:00.115Z
20100320 1023.00190 24.71005367 -76.8228635 0.0 0.0 2010-03-20T10:23:00.114Z
20100320 1024.00187 24.7100555 -76.822865 0.04 240.579 2010-03-20T10:24:00.112Z
20100320 1025.00185 24.71005683 -76.82287117 0.02 180.0 2010-03-20T10:25:00.111Z
20100320 1026.00182 24.710058 -76.82287117 0.02 270.0 2010-03-20T10:26:00.109Z
20100320 1027.00180 24.71005433 -76.82287017 0.02 180.0 2010-03-20T10:27:00.108Z
20100320 1028.00177 24.710055 -76.82287067 0.04 118.694 2010-03-20T10:28:00.106Z
20100320 1029.00175 24.7100545 -76.82286717 0.02 90.0 2010-03-20T10:29:00.105Z
20100320 1030.00172 24.7100565 -76.822864 0.0 0.0 2010-03-20T10:30:00.103Z
20100320 1031.00170 24.71005717 -76.8228645 0.02 90.0 2010-03-20T10:31:00.102Z
20100320 1032.00167 24.7100585 -76.82286867 0.0 0.0 2010-03-20T10:32:00.100Z
20100320 1033.00165 24.7100565 -76.82287433 0.02 90.0 2010-03-20T10:33:00.099Z
20100320 1034.00162 24.71005783 -76.82287733 0.02 0.0 2010-03-20T10:34:00.097Z
20100320 1035.00158 24.7100615 -76.82287783 0.0 0.0 2010-03-20T10:35:00.095Z
20100320 1036.00157 24.71006517 -76.8228745 0.0 0.0 2010-03-20T10:36:00.094Z
20100320 1037.00153 24.710062 -76.82287183 0.02 90.0 2010-03-20T10:37:00.092Z
20100320 1038.00152 24.71005667 -76.8228695 0.0 0.0 2010-03-20T10:38:00.091Z
20100320 1039.00148 24.710054 -76.822871 0.02 270.0 2010-03-20T10:39:00.089Z
20100320 1040.00147 24.71005383 -76.82286767 0.02 90.0 2010-03-20T10:40:00.088Z
20100320 1041.00143 24.71005367 -76.822867 0.0 0.0 2010-03-20T10:41:00.086Z
20100320 1042.00142 24.7100565 -76.82286967 0.02 270.0 2010-03-20T10:42:00.085Z
20100320 1043.00138 24.71005983 -76.82287167 0.0 0.0 2010-03-20T10:43:00.083Z
20100320 1044.00137 24.71006117 -76.82287317 0.0 0.0 2010-03-20T10:44:00.082Z
20100320 1045.00133 24.710063 -76.822875 0.02 90.0 2010-03-20T10:45:00.080Z
20100320 1046.00132 24.71006633 -76.82287517 0.04 117.256 2010-03-20T10:46:00.079Z
20100320 1047.00128 24.71006717 -76.8228715 0.0 0.0 2010-03-20T10:47:00.077Z
20100320 1048.00127 24.71006817 -76.8228725 0.0 0.0 2010-03-20T10:48:00.076Z
20100320 1049.00123 24.71007017 -76.822874 0.02 180.0 2010-03-20T10:49:00.074Z
20100320 1050.00122 24.710072 -76.82287083 0.02 90.0 2010-03-20T10:50:00.073Z
20100320 1051.00118 24.710072 -76.82287 0.0 0.0 2010-03-20T10:51:00.071Z
20100320 1052.00117 24.71006867 -76.82286717 0.04 155.452 2010-03-20T10:52:00.070Z
20100320 1053.00113 24.71006333 -76.8228665 0.0 0.0 2010-03-20T10:53:00.068Z
20100320 1054.00112 24.710067 -76.822864 0.0 0.0 2010-03-20T10:54:00.067Z
20100320 1055.00108 24.71006317 -76.8228675 0.02 180.0 2010-03-20T10:55:00.065Z
20100320 1056.00107 24.71006183 -76.82286533 0.02 90.0 2010-03-20T10:56:00.064Z
20100320 1057.00103 24.71006567 -76.82286633 0.03 139.313 2010-03-20T10:57:00.062Z
20100320 1058.00102 24.71006917 -76.82286333 0.0 0.0 2010-03-20T10:58:00.061Z
20100320 1059.00098 24.71007233 -76.82285983 0.03 40.687 2010-03-20T10:59:00.059Z
20100320 1100.00097 24.71007733 -76.82286067 0.0 0.0 2010-03-20T11:00:00.058Z
20100320 1101.00093 24.7100755 -76.82285917 0.03 137.589 2010-03-20T11:01:00.056Z
20100320 1102.00092 24.71007433 -76.82285883 0.0 0.0 2010-03-20T11:02:00.055Z
20100320 1103.00088 24.710073 -76.82286133 0.0 0.0 2010-03-20T11:03:00.053Z
20100320 1104.00087 24.71006717 -76.82286467 0.0 0.0 2010-03-20T11:04:00.052Z
20100320 1105.00083 24.71006183 -76.822867 0.02 180.0 2010-03-20T11:05:00.050Z
20100320 1106.00082 24.7100585 -76.82286817 0.02 180.0 2010-03-20T11:06:00.049Z
20100320 1107.00078 24.710058 -76.822871 0.02 270.0 2010-03-20T11:07:00.047Z
20100320 1108.00077 24.71005883 -76.822874 0.0 0.0 2010-03-20T11:08:00.046Z
20100320 1109.00073 24.71006317 -76.82287183 0.02 0.0 2010-03-20T11:09:00.044Z
20100320 1110.00072 24.7100635 -76.82287217 0.0 0.0 2010-03-20T11:10:00.043Z
20100320 1111.00068 24.71006167 -76.82287083 0.02 180.0 2010-03-20T11:11:00.041Z
20100320 1112.00067 24.71006083 -76.82287083 0.03 90.0 2010-03-20T11:12:00.040Z
20100320 1113.00063 24.710058 -76.82286833 0.02 180.0 2010-03-20T11:13:00.038Z
20100320 1114.00062 24.71005967 -76.82286317 0.02 0.0 2010-03-20T11:14:00.037Z
20100320 1115.00058 24.71006067 -76.822858 0.02 0.0 2010-03-20T11:15:00.035Z
20100320 1116.00057 24.7100585 -76.822857 0.0 0.0 2010-03-20T11:16:00.034Z
20100320 1117.00053 24.71005617 -76.822861 0.0 0.0 2010-03-20T11:17:00.032Z
20100320 1118.00052 24.7100585 -76.8228655 0.03 317.589 2010-03-20T11:18:00.031Z
20100320 1119.00048 24.71006317 -76.8228665 0.0 0.0 2010-03-20T11:19:00.029Z
20100320 1120.00047 24.71006767 -76.822868 0.02 90.0 2010-03-20T11:20:00.028Z
20100320 1121.00043 24.71006717 -76.822867 0.03 137.589 2010-03-20T11:21:00.026Z
20100320 1122.00042 24.71006767 -76.82286867 0.02 180.0 2010-03-20T11:22:00.025Z
20100320 1123.00038 24.71006633 -76.82286817 0.02 90.0 2010-03-20T11:23:00.023Z
20100320 1124.00037 24.7100625 -76.82286867 0.0 0.0 2010-03-20T11:24:00.022Z
20100320 1125.00033 24.71006517 -76.8228715 0.02 0.0 2010-03-20T11:25:00.020Z
20100320 1126.00030 24.71006867 -76.8228795 0.02 270.0 2010-03-20T11:26:00.018Z
20100320 1127.00028 24.71006517 -76.8228795 0.03 137.589 2010-03-20T11:27:00.017Z
20100320 1128.00025 24.71006617 -76.8228805 0.0 0.0 2010-03-20T11:28:00.015Z
20100320 1129.00023 24.7100595 -76.8228785 0.03 137.589 2010-03-20T11:29:00.014Z
20100320 1130.00020 24.710055 -76.82287683 0.02 90.0 2010-03-20T11:30:00.012Z
20100320 1131.00018 24.71005433 -76.82287667 0.02 90.0 2010-03-20T11:31:00.011Z
20100320 1132.00015 24.71005017 -76.82287817 0.0 0.0 2010-03-20T11:32:00.009Z
20100320 1133.00013 24.710049 -76.8228755 0.0 0.0 2010-03-20T11:33:00.008Z
20100320 1134.00010 24.71005117 -76.82287883 0.02 90.0 2010-03-20T11:34:00.006Z
20100320 1135.00008 24.71005217 -76.82287867 0.0 0.0 2010-03-20T11:35:00.005Z
20100320 1136.00005 24.71005267 -76.82287817 0.0 0.0 2010-03-20T11:36:00.003Z
20100320 1137.00003 24.71005167 -76.82287917 0.0 0.0 2010-03-20T11:37:00.002Z
20100320 1138.00000 24.7100535 -76.82287433 0.02 0.0 2010-03-20T11:38:00.000Z
20100320 1138.99998 24.71005183 -76.822877 0.03 224.144 2010-03-20T11:38:59.999Z
20100320 1139.99995 24.71005267 -76.822877 0.0 0.0 2010-03-20T11:39:59.997Z
20100320 1140.99993 24.710059 -76.8228795 0.03 42.411 2010-03-20T11:40:59.996Z
20100320 1141.99990 24.71006417 -76.82287983 0.0 0.0 2010-03-20T11:41:59.994Z
20100320 1142.99988 24.71006483 -76.82287517 0.02 90.0 2010-03-20T11:42:59.993Z
20100320 1143.99985 24.710061 -76.82287233 0.02 180.0 2010-03-20T11:43:59.991Z
20100320 1144.99983 24.71006217 -76.82287633 0.0 0.0 2010-03-20T11:44:59.990Z
20100320 1145.99980 24.71006233 -76.82287783 0.02 180.0 2010-03-20T11:45:59.988Z
20100320 1146.99978 24.71005867 -76.8228795 0.02 180.0 2010-03-20T11:46:59.987Z
20100320 1147.99975 24.71006 -76.82287833 0.02 180.0 2010-03-20T11:47:59.985Z
20100320 1148.99973 24.71005767 -76.82288267 0.0 0.0 2010-03-20T11:48:59.984Z
20100320 1149.99970 24.71005867 -76.82288883 0.02 270.0 2010-03-20T11:49:59.982Z
20100320 1150.99968 24.710054 -76.82288483 0.02 90.0 2010-03-20T11:50:59.981Z
20100320 1151.99965 24.71005617 -76.82288433 0.02 0.0 2010-03-20T11:51:59.979Z
20100320 1152.99963 24.71005883 -76.82288317 0.03 319.313 2010-03-20T11:52:59.978Z
20100320 1153.99960 24.71005583 -76.82288617 0.02 180.0 2010-03-20T11:53:59.976Z
20100320 1154.99958 24.7100535 -76.82288983 0.03 317.589 2010-03-20T11:54:59.975Z
20100320 1155.99955 24.7100515 -76.822892 0.02 270.0 2010-03-20T11:55:59.973Z
20100320 1156.99953 24.71005117 -76.82289217 0.03 44.144 2010-03-20T11:56:59.972Z
20100320 1157.99950 24.71005083 -76.82289 0.02 90.0 2010-03-20T11:57:59.970Z
20100320 1158.99948 24.7100485 -76.82288883 0.0 0.0 2010-03-20T11:58:59.969Z
20100320 1159.99945 24.71004733 -76.82288483 0.02 137.589 2010-03-20T11:59:59.967Z
20100320 1200.99943 24.71004767 -76.82288683 0.02 180.0 2010-03-20T12:00:59.966Z
20100320 1201.99940 24.71004783 -76.822887 0.0 0.0 2010-03-20T12:01:59.964Z
20100320 1202.99938 24.7100465 -76.8228855 0.0 0.0 2010-03-20T12:02:59.963Z
20100320 1203.99935 24.7100495 -76.822889 0.0 0.0 2010-03-20T12:03:59.961Z
20100320 1204.99933 24.71005117 -76.82288933 0.0 0.0 2010-03-20T12:04:59.960Z
20100320 1205.99930 24.71005567 -76.82288483 0.02 42.411 2010-03-20T12:05:59.958Z
20100320 1206.99928 24.71005717 -76.82288017 0.03 44.144 2010-03-20T12:06:59.957Z
20100320 1207.99925 24.71006 -76.82287767 0.03 137.589 2010-03-20T12:07:59.955Z
20100320 1208.99923 24.71005883 -76.82287417 0.0 0.0 2010-03-20T12:08:59.954Z
20100320 1209.99920 24.7100625 -76.82287833 0.0 0.0 2010-03-20T12:09:59.952Z
20100320 1210.99918 24.71005533 -76.8228765 0.0 0.0 2010-03-20T12:10:59.951Z
20100320 1211.99915 24.71005333 -76.822874 0.02 0.0 2010-03-20T12:11:59.949Z
20100320 1212.99913 24.71005467 -76.82287433 0.02 0.0 2010-03-20T12:12:59.948Z
20100320 1213.99910 24.71005567 -76.82287783 0.0 0.0 2010-03-20T12:13:59.946Z
20100320 1214.99908 24.710058 -76.82287917 0.02 0.0 2010-03-20T12:14:59.945Z
20100320 1215.99905 24.710061 -76.82287883 0.02 0.0 2010-03-20T12:15:59.943Z
20100320 1216.99903 24.71006083 -76.82287867 0.0 0.0 2010-03-20T12:16:59.942Z
20100320 1217.99900 24.71006233 -76.82287617 0.02 90.0 2010-03-20T12:17:59.940Z
20100320 1218.99897 24.710058 -76.82287717 0.02 180.0 2010-03-20T12:18:59.938Z
20100320 1219.99895 24.71005517 -76.82288017 0.04 336.111 2010-03-20T12:19:59.937Z
20100320 1220.99892 24.710054 -76.82287817 0.02 0.0 2010-03-20T12:20:59.935Z
20100320 1221.99890 24.71005483 -76.822878 0.03 135.856 2010-03-20T12:21:59.934Z
20100320 1222.99887 24.71005 -76.82287867 0.02 90.0 2010-03-20T12:22:59.932Z
20100320 1223.99885 24.71005083 -76.82287883 0.03 317.589 2010-03-20T12:23:59.931Z
20100320 1224.99882 24.71005133 -76.82288267 0.02 180.0 2010-03-20T12:24:59.929Z
20100320 1225.99880 24.71004767 -76.822883 0.04 155.452 2010-03-20T12:25:59.928Z
20100320 1226.99877 24.71004817 -76.82288167 0.0 0.0 2010-03-20T12:26:59.926Z
20100320 1227.99875 24.710052 -76.82287983 0.02 270.0 2010-03-20T12:27:59.925Z
20100320 1228.99872 24.71005667 -76.82288417 0.02 317.589 2010-03-20T12:28:59.923Z
20100320 1229.99870 24.710059 -76.822886 0.0 0.0 2010-03-20T12:29:59.922Z
20100320 1230.99867 24.71005567 -76.82288817 0.02 180.0 2010-03-20T12:30:59.920Z
20100320 1231.99865 24.71005283 -76.82288733 0.0 0.0 2010-03-20T12:31:59.919Z
20100320 1232.99862 24.71005283 -76.8228855 0.0 0.0 2010-03-20T12:32:59.917Z
20100320 1233.99860 24.71005083 -76.82288633 0.02 270.0 2010-03-20T12:33:59.916Z
20100320 1234.99857 24.71005217 -76.82288933 0.02 270.0 2010-03-20T12:34:59.914Z
20100320 1235.99855 24.71005733 -76.82288883 0.02 270.0 2010-03-20T12:35:59.913Z
20100320 1236.99852 24.71005967 -76.82288767 0.0 0.0 2010-03-20T12:36:59.911Z
20100320 1237.99850 24.71006383 -76.82288467 0.02 180.0 2010-03-20T12:37:59.910Z
20100320 1238.99847 24.71006367 -76.82288383 0.0 0.0 2010-03-20T12:38:59.908Z
20100320 1239.99845 24.710059 -76.82288517 0.03 137.589 2010-03-20T12:39:59.907Z
20100320 1240.99842 24.71005783 -76.82288483 0.02 0.0 2010-03-20T12:40:59.905Z
20100320 1241.99840 24.71005917 -76.82288417 0.03 220.687 2010-03-20T12:41:59.904Z
20100320 1242.99837 24.7100565 -76.82288383 0.03 139.313 2010-03-20T12:42:59.902Z
20100320 1243.99835 24.71005783 -76.82288033 0.02 0.0 2010-03-20T12:43:59.901Z
20100320 1244.99832 24.71006083 -76.82288217 0.0 0.0 2010-03-20T12:44:59.899Z
20100320 1245.99830 24.71005717 -76.822887 0.02 180.0 2010-03-20T12:45:59.898Z
20100320 1246.99827 24.7100555 -76.8228845 0.0 0.0 2010-03-20T12:46:59.896Z
20100320 1247.99825 24.71005567 -76.82288033 0.03 139.313 2010-03-20T12:47:59.895Z
20100320 1248.99822 24.710057 -76.82288033 0.0 0.0 2010-03-20T12:48:59.893Z
20100320 1249.99820 24.71006033 -76.82288467 0.0 0.0 2010-03-20T12:49:59.892Z
20100320 1250.99817 24.71006267 -76.82289033 0.03 139.313 2010-03-20T12:50:59.890Z
20100320 1251.99815 24.71006517 -76.82289117 0.02 317.589 2010-03-20T12:51:59.889Z
20100320 1252.99812 24.71006767 -76.82289033 0.02 90.0 2010-03-20T12:52:59.887Z
20100320 1253.99810 24.710067 -76.82288883 0.03 40.687 2010-03-20T12:53:59.886Z
20100320 1254.99807 24.71006567 -76.8228835 0.03 137.589 2010-03-20T12:54:59.884Z
20100320 1255.99805 24.7100605 -76.82287633 0.02 180.0 2010-03-20T12:55:59.883Z
20100320 1256.99802 24.71006 -76.82287567 0.02 90.0 2010-03-20T12:56:59.881Z
20100320 1257.99800 24.7100535 -76.82288267 0.02 180.0 2010-03-20T12:57:59.880Z
20100320 1258.99797 24.71004583 -76.822883 0.02 180.0 2010-03-20T12:58:59.878Z
20100320 1259.99795 24.71004567 -76.822881 0.0 0.0 2010-03-20T12:59:59.877Z
20100320 1300.99792 24.7100465 -76.82287983 0.02 270.0 2010-03-20T13:00:59.875Z
20100320 1301.99790 24.71005533 -76.82287567 0.0 0.0 2010-03-20T13:01:59.874Z
20100320 1302.99787 24.71005533 -76.82287083 0.02 270.0 2010-03-20T13:02:59.872Z
20100320 1303.99785 24.71005567 -76.82287067 0.02 90.0 2010-03-20T13:03:59.871Z
20100320 1304.99782 24.71005617 -76.82286917 0.0 0.0 2010-03-20T13:04:59.869Z
20100320 1305.99780 24.71005617 -76.8228735 0.02 270.0 2010-03-20T13:05:59.868Z
20100320 1306.99777 24.71005567 -76.82287783 0.02 0.0 2010-03-20T13:06:59.866Z
20100320 1307.99775 24.7100555 -76.82288017 0.02 270.0 2010-03-20T13:07:59.865Z
20100320 1308.99772 24.71005983 -76.822882 0.03 42.411 2010-03-20T13:08:59.863Z
20100320 1309.99768 24.71006267 -76.82287633 0.02 180.0 2010-03-20T13:09:59.861Z
20100320 1310.99767 24.71006 -76.82286983 0.02 90.0 2010-03-20T13:10:59.860Z
20100320 1311.99763 24.71005617 -76.8228685 0.04 240.579 2010-03-20T13:11:59.858Z
20100320 1312.99762 24.71005483 -76.82286917 0.02 180.0 2010-03-20T13:12:59.857Z
20100320 1313.99758 24.7100535 -76.82286867 0.0 0.0 2010-03-20T13:13:59.855Z
20100320 1314.99757 24.710055 -76.82287133 0.0 0.0 2010-03-20T13:14:59.854Z
20100320 1315.99753 24.71005783 -76.8228715 0.02 180.0 2010-03-20T13:15:59.852Z
20100320 1316.99752 24.71005817 -76.82286883 0.02 180.0 2010-03-20T13:16:59.851Z
20100320 1317.99748 24.71005883 -76.82286633 0.03 270.0 2010-03-20T13:17:59.849Z
20100320 1318.99747 24.71005767 -76.82286867 0.02 180.0 2010-03-20T13:18:59.848Z
20100320 1319.99743 24.71005717 -76.82286967 0.04 155.452 2010-03-20T13:19:59.846Z
20100320 1320.99742 24.71005733 -76.82287183 0.0 0.0 2010-03-20T13:20:59.845Z
20100320 1321.99738 24.7100585 -76.82287317 0.02 270.0 2010-03-20T13:21:59.843Z
20100320 1322.99737 24.7100585 -76.822878 0.0 0.0 2010-03-20T13:22:59.842Z
20100320 1323.99733 24.71006167 -76.82287683 0.0 0.0 2010-03-20T13:23:59.840Z
20100320 1324.99732 24.710064 -76.82287917 0.03 137.589 2010-03-20T13:24:59.839Z
20100320 1325.99728 24.7100625 -76.82287733 0.02 90.0 2010-03-20T13:25:59.837Z
20100320 1326.99727 24.71006433 -76.82287517 0.02 180.0 2010-03-20T13:26:59.836Z
20100320 1327.99723 24.710065 -76.822872 0.02 180.0 2010-03-20T13:27:59.834Z
20100320 1328.99722 24.71006383 -76.82287417 0.0 0.0 2010-03-20T13:28:59.833Z
20100320 1329.99718 24.71006467 -76.8228755 0.03 270.0 2010-03-20T13:29:59.831Z
20100320 1330.99717 24.71006383 -76.82287767 0.0 0.0 2010-03-20T13:30:59.830Z
20100320 1331.99713 24.71006417 -76.8228715 0.0 0.0 2010-03-20T13:31:59.828Z
20100320 1332.99712 24.71006367 -76.822867 0.02 90.0 2010-03-20T13:32:59.827Z
20100320 1333.99708 24.71006317 -76.82286683 0.02 270.0 2010-03-20T13:33:59.825Z
20100320 1334.99707 24.7100615 -76.82287233 0.02 270.0 2010-03-20T13:34:59.824Z
20100320 1335.99703 24.7100555 -76.82287717 0.03 220.687 2010-03-20T13:35:59.822Z
20100320 1336.99702 24.71005317 -76.82287867 0.02 180.0 2010-03-20T13:36:59.821Z
20100320 1337.99698 24.71005067 -76.822882 0.03 44.144 2010-03-20T13:37:59.819Z
20100320 1338.99697 24.71005317 -76.8228785 0.03 44.144 2010-03-20T13:38:59.818Z
20100320 1339.99693 24.71005667 -76.82287733 0.02 270.0 2010-03-20T13:39:59.816Z
20100320 1340.99690 24.71005833 -76.82287983 0.0 0.0 2010-03-20T13:40:59.814Z
20100320 1341.99688 24.71005783 -76.82287983 0.0 0.0 2010-03-20T13:41:59.813Z
20100320 1342.99685 24.710058 -76.822881 0.0 0.0 2010-03-20T13:42:59.811Z
20100320 1343.99683 24.71005967 -76.82288567 0.02 270.0 2010-03-20T13:43:59.810Z
20100320 1344.99680 24.71005917 -76.82288133 0.0 0.0 2010-03-20T13:44:59.808Z
20100320 1345.99678 24.71006067 -76.82287517 0.02 90.0 2010-03-20T13:45:59.807Z
20100320 1346.99675 24.71006083 -76.8228695 0.02 180.0 2010-03-20T13:46:59.805Z
20100320 1347.99673 24.710063 -76.822864 0.03 42.411 2010-03-20T13:47:59.804Z
20100320 1348.99670 24.7100635 -76.82286367 0.02 270.0 2010-03-20T13:48:59.802Z
20100320 1349.99668 24.71006233 -76.82286567 0.02 90.0 2010-03-20T13:49:59.801Z
20100320 1350.99665 24.7100635 -76.82286433 0.0 0.0 2010-03-20T13:50:59.799Z
20100320 1351.99663 24.710067 -76.82285967 0.02 270.0 2010-03-20T13:51:59.798Z
20100320 1352.99660 24.7100715 -76.82285883 0.03 222.411 2010-03-20T13:52:59.796Z
20100320 1353.99658 24.71006783 -76.82286133 0.03 224.144 2010-03-20T13:53:59.795Z
20100320 1354.99655 24.71006667 -76.82286667 0.0 0.0 2010-03-20T13:54:59.793Z
20100320 1355.99653 24.710064 -76.82286833 0.0 0.0 2010-03-20T13:55:59.792Z
20100320 1356.99650 24.71006267 -76.822865 0.02 0.0 2010-03-20T13:56:59.790Z
20100320 1357.99648 24.71006517 -76.82286633 0.0 0.0 2010-03-20T13:57:59.789Z
20100320 1358.99645 24.710069 -76.822872 0.0 0.0 2010-03-20T13:58:59.787Z
20100320 1359.99643 24.7100715 -76.82287433 0.03 40.687 2010-03-20T13:59:59.786Z
20100320 1400.99640 24.71007183 -76.82287017 0.0 0.0 2010-03-20T14:00:59.784Z
20100320 1401.99638 24.71006833 -76.82286267 0.02 180.0 2010-03-20T14:01:59.783Z
20100320 1402.99635 24.71006367 -76.82285733 0.02 180.0 2010-03-20T14:02:59.781Z
20100320 1403.99632 24.71005733 -76.82285683 0.04 242.744 2010-03-20T14:03:59.779Z
20100320 1404.99630 24.710053 -76.82285517 0.02 90.0 2010-03-20T14:04:59.778Z
20100320 1405.99627 24.7100535 -76.82285467 0.03 319.313 2010-03-20T14:05:59.776Z
20100320 1406.99625 24.7100505 -76.82285517 0.03 220.687 2010-03-20T14:06:59.775Z
20100320 1407.99622 24.71005067 -76.8228545 0.02 0.0 2010-03-20T14:07:59.773Z
20100320 1408.99620 24.71005267 -76.82285733 0.02 0.0 2010-03-20T14:08:59.772Z
20100320 1409.99617 24.71005817 -76.82285867 0.0 0.0 2010-03-20T14:09:59.770Z
20100320 1410.99615 24.71005917 -76.822865 0.02 0.0 2010-03-20T14:10:59.769Z
20100320 1411.99612 24.71006033 -76.82286917 0.0 0.0 2010-03-20T14:11:59.767Z
20100320 1412.99610 24.71005917 -76.822871 0.0 0.0 2010-03-20T14:12:59.766Z
20100320 1413.99607 24.71005867 -76.82287067 0.02 180.0 2010-03-20T14:13:59.764Z
20100320 1414.99605 24.71005967 -76.82287 0.0 0.0 2010-03-20T14:14:59.763Z
20100320 1415.99602 24.71006167 -76.82286417 0.02 90.0 2010-03-20T14:15:59.761Z
20100320 1416.99600 24.71006 -76.82285767 0.0 0.0 2010-03-20T14:16:59.760Z
20100320 1417.99597 24.71006317 -76.82285683 0.02 42.411 2010-03-20T14:17:59.758Z
20100320 1418.99595 24.7100655 -76.82286 0.02 180.0 2010-03-20T14:18:59.757Z
20100320 1419.99592 24.7100655 -76.822864 0.0 0.0 2010-03-20T14:19:59.755Z
20100320 1420.99590 24.7100655 -76.822869 0.0 0.0 2010-03-20T14:20:59.754Z
20100320 1421.99587 24.71006617 -76.82287033 0.0 0.0 2010-03-20T14:21:59.752Z
20100320 1422.99585 24.71006667 -76.822868 0.03 315.856 2010-03-20T14:22:59.751Z
20100320 1423.99582 24.71006283 -76.82286517 0.02 222.411 2010-03-20T14:23:59.749Z
20100320 1424.99578 24.71006067 -76.82286817 0.0 0.0 2010-03-20T14:24:59.747Z
20100320 1425.99577 24.71005983 -76.82286833 0.02 0.0 2010-03-20T14:25:59.746Z
20100320 1426.99573 24.710058 -76.8228685 0.02 180.0 2010-03-20T14:26:59.744Z
20100320 1427.99572 24.71005517 -76.82287117 0.04 118.694 2010-03-20T14:27:59.743Z
20100320 1428.99568 24.71005533 -76.82286833 0.03 224.144 2010-03-20T14:28:59.741Z
20100320 1429.99567 24.71005617 -76.8228715 0.02 90.0 2010-03-20T14:29:59.740Z
20100320 1430.99563 24.71005733 -76.8228645 0.0 0.0 2010-03-20T14:30:59.738Z
20100320 1431.99562 24.710059 -76.82286567 0.0 0.0 2010-03-20T14:31:59.737Z
20100320 1432.99558 24.7100625 -76.82286733 0.02 0.0 2010-03-20T14:32:59.735Z
20100320 1433.99557 24.71006283 -76.8228705 0.04 180.0 2010-03-20T14:33:59.734Z
20100320 1434.99553 24.710058 -76.8228715 0.02 180.0 2010-03-20T14:34:59.732Z
20100320 1435.99552 24.71005817 -76.8228695 0.02 0.0 2010-03-20T14:35:59.731Z
20100320 1436.99548 24.7100595 -76.82286917 0.03 137.589 2010-03-20T14:36:59.729Z
20100320 1437.99547 24.710059 -76.8228705 0.0 0.0 2010-03-20T14:37:59.728Z
20100320 1438.99543 24.7100575 -76.82287183 0.02 180.0 2010-03-20T14:38:59.726Z
20100320 1439.99542 24.7100535 -76.82287233 0.0 0.0 2010-03-20T14:39:59.725Z
20100320 1440.99538 24.7100585 -76.82287417 0.02 0.0 2010-03-20T14:40:59.723Z
20100320 1441.99537 24.71006233 -76.82287383 0.02 0.0 2010-03-20T14:41:59.722Z
20100320 1442.99533 24.71006533 -76.822874 0.02 180.0 2010-03-20T14:42:59.720Z
20100320 1443.99530 24.710068 -76.82287367 0.02 270.0 2010-03-20T14:43:59.718Z
20100320 1444.99528 24.710063 -76.82287467 0.03 220.687 2010-03-20T14:44:59.717Z
20100320 1445.99525 24.7100595 -76.82287767 0.03 220.687 2010-03-20T14:45:59.715Z
20100320 1446.99523 24.710052 -76.82287967 0.02 270.0 2010-03-20T14:46:59.714Z
20100320 1447.99520 24.710051 -76.822883 0.03 270.0 2010-03-20T14:47:59.712Z
20100320 1448.99518 24.71005467 -76.82288467 0.02 0.0 2010-03-20T14:48:59.711Z
20100320 1449.99515 24.710057 -76.82288033 0.02 0.0 2010-03-20T14:49:59.709Z
20100320 1450.99513 24.7100605 -76.822873 0.02 90.0 2010-03-20T14:50:59.708Z
20100320 1451.99510 24.7100565 -76.82286583 0.02 180.0 2010-03-20T14:51:59.706Z
20100320 1452.99508 24.71005717 -76.8228655 0.03 137.589 2010-03-20T14:52:59.705Z
20100320 1453.99505 24.71005617 -76.82286633 0.02 180.0 2010-03-20T14:53:59.703Z
20100320 1454.99503 24.71005617 -76.82286917 0.02 180.0 2010-03-20T14:54:59.702Z
20100320 1455.99500 24.71005767 -76.822879 0.02 270.0 2010-03-20T14:55:59.700Z
20100320 1456.99498 24.71005717 -76.82288017 0.03 44.144 2010-03-20T14:56:59.699Z
20100320 1457.99495 24.71005433 -76.82288133 0.02 180.0 2010-03-20T14:57:59.697Z
20100320 1458.99493 24.71005333 -76.82287417 0.02 90.0 2010-03-20T14:58:59.696Z
20100320 1459.99490 24.71005317 -76.8228725 0.02 270.0 2010-03-20T14:59:59.694Z
20100320 1500.99488 24.7100555 -76.82287683 0.0 0.0 2010-03-20T15:00:59.693Z
20100320 1501.99485 24.71005917 -76.8228785 0.02 270.0 2010-03-20T15:01:59.691Z
20100320 1502.99482 24.71005983 -76.82288283 0.02 270.0 2010-03-20T15:02:59.689Z
20100320 1503.99480 24.7100635 -76.82288183 0.0 0.0 2010-03-20T15:03:59.688Z
20100320 1504.99477 24.7100665 -76.82287833 0.0 0.0 2010-03-20T15:04:59.686Z
20100320 1505.99475 24.71006767 -76.82287967 0.02 0.0 2010-03-20T15:05:59.685Z
20100320 1506.99472 24.71006967 -76.82288 0.02 180.0 2010-03-20T15:06:59.683Z
20100320 1507.99470 24.71006683 -76.822877 0.02 270.0 2010-03-20T15:07:59.682Z
20100320 1508.99467 24.7100685 -76.82287883 0.03 317.589 2010-03-20T15:08:59.680Z
20100320 1509.99465 24.7100705 -76.822881 0.04 240.579 2010-03-20T15:09:59.679Z
20100320 1510.99462 24.710065 -76.822886 0.02 270.0 2010-03-20T15:10:59.677Z
20100320 1511.99460 24.71006517 -76.82288483 0.02 180.0 2010-03-20T15:11:59.676Z
20100320 1512.99457 24.71006567 -76.82288333 0.0 0.0 2010-03-20T15:12:59.674Z
20100320 1513.99455 24.710067 -76.82288117 0.02 90.0 2010-03-20T15:13:59.673Z
20100320 1514.99452 24.71006833 -76.82288283 0.02 180.0 2010-03-20T15:14:59.671Z
20100320 1515.99450 24.71006917 -76.82287817 0.02 90.0 2010-03-20T15:15:59.670Z
20100320 1516.99447 24.71007167 -76.82287267 0.0 0.0 2010-03-20T15:16:59.668Z
20100320 1517.99445 24.7100705 -76.82287333 0.03 139.313 2010-03-20T15:17:59.667Z
20100320 1518.99442 24.71007 -76.82287283 0.0 0.0 2010-03-20T15:18:59.665Z
20100320 1519.99440 24.71006533 -76.82287467 0.02 180.0 2010-03-20T15:19:59.664Z
20100320 1520.99437 24.710064 -76.82287633 0.0 0.0 2010-03-20T15:20:59.662Z
20100320 1521.99433 24.71006333 -76.8228765 0.02 270.0 2010-03-20T15:21:59.660Z
20100320 1522.99432 24.71006183 -76.82287733 0.02 180.0 2010-03-20T15:22:59.659Z
20100320 1523.99428 24.710059 -76.82287567 0.02 270.0 2010-03-20T15:23:59.657Z
20100320 1524.99427 24.71005483 -76.8228795 0.02 270.0 2010-03-20T15:24:59.656Z
20100320 1525.99423 24.71005583 -76.82288483 0.03 224.144 2010-03-20T15:25:59.654Z
20100320 1526.99422 24.71005383 -76.82288533 0.0 0.0 2010-03-20T15:26:59.653Z
20100320 1527.99418 24.71005333 -76.82288183 0.02 270.0 2010-03-20T15:27:59.651Z
20100320 1528.99417 24.710055 -76.822884 0.02 180.0 2010-03-20T15:28:59.650Z
20100320 1529.99413 24.71005533 -76.8228785 0.0 0.0 2010-03-20T15:29:59.648Z
20100320 1530.99412 24.71005817 -76.82287983 0.0 0.0 2010-03-20T15:30:59.647Z
20100320 1531.99408 24.71006083 -76.8228785 0.03 42.411 2010-03-20T15:31:59.645Z
20100320 1532.99407 24.71006383 -76.822877 0.02 0.0 2010-03-20T15:32:59.644Z
20100320 1533.99403 24.71006417 -76.82287567 0.02 180.0 2010-03-20T15:33:59.642Z
20100320 1534.99402 24.710062 -76.8228785 0.0 0.0 2010-03-20T15:34:59.641Z
20100320 1535.99398 24.710061 -76.8228775 0.03 137.589 2010-03-20T15:35:59.639Z
20100320 1536.99397 24.71005933 -76.82287517 0.0 0.0 2010-03-20T15:36:59.638Z
20100320 1537.99393 24.7100615 -76.82287283 0.02 0.0 2010-03-20T15:37:59.636Z
20100320 1538.99390 24.71006467 -76.82287117 0.0 0.0 2010-03-20T15:38:59.634Z
20100320 1539.99388 24.71006683 -76.82287117 0.02 0.0 2010-03-20T15:39:59.633Z
20100320 1540.99385 24.7100695 -76.82286967 0.0 0.0 2010-03-20T15:40:59.631Z
20100320 1541.99383 24.71007233 -76.8228685 0.02 0.0 2010-03-20T15:41:59.630Z
20100320 1542.99380 24.71007133 -76.8228605 0.0 0.0 2010-03-20T15:42:59.628Z
20100320 1543.99378 24.71006733 -76.822856 0.0 0.0 2010-03-20T15:43:59.627Z
20100320 1544.99375 24.7100675 -76.82285683 0.02 90.0 2010-03-20T15:44:59.625Z
20100320 1545.99373 24.71006767 -76.82285683 0.0 0.0 2010-03-20T15:45:59.624Z
20100320 1546.99370 24.71007167 -76.82285867 0.02 90.0 2010-03-20T15:46:59.622Z
20100320 1547.99368 24.71007133 -76.822856 0.02 270.0 2010-03-20T15:47:59.621Z
20100320 1548.99365 24.71007283 -76.82285983 0.0 0.0 2010-03-20T15:48:59.619Z
20100320 1549.99363 24.71007217 -76.822861 0.0 0.0 2010-03-20T15:49:59.618Z
20100320 1550.99360 24.71006783 -76.82286217 0.02 180.0 2010-03-20T15:50:59.616Z
20100320 1551.99358 24.710062 -76.82286583 0.02 180.0 2010-03-20T15:51:59.615Z
20100320 1552.99355 24.7100565 -76.8228715 0.03 222.411 2010-03-20T15:52:59.613Z
20100320 1553.99353 24.71005517 -76.82287267 0.0 0.0 2010-03-20T15:53:59.612Z
20100320 1554.99350 24.710056 -76.82287117 0.02 90.0 2010-03-20T15:54:59.610Z
20100320 1555.99348 24.710056 -76.82287167 0.03 270.0 2010-03-20T15:55:59.609Z
20100320 1556.99345 24.71005833 -76.82287683 0.04 335.452 2010-03-20T15:56:59.607Z
20100320 1557.99342 24.710062 -76.82287667 0.02 90.0 2010-03-20T15:57:59.605Z
20100320 1558.99340 24.710064 -76.8228745 0.0 0.0 2010-03-20T15:58:59.604Z
20100320 1559.99337 24.71006267 -76.82287517 0.0 0.0 2010-03-20T15:59:59.602Z
20100320 1600.99335 24.71006117 -76.82287567 0.03 220.687 2010-03-20T16:00:59.601Z
20100320 1601.99332 24.71006267 -76.82287617 0.02 317.589 2010-03-20T16:01:59.599Z
20100320 1602.99330 24.71006167 -76.82287783 0.03 139.313 2010-03-20T16:02:59.598Z
20100320 1603.99327 24.71006383 -76.82287867 0.02 90.0 2010-03-20T16:03:59.596Z
20100320 1604.99325 24.71006617 -76.82287817 0.02 180.0 2010-03-20T16:04:59.595Z
20100320 1605.99322 24.71006017 -76.82288017 0.03 137.589 2010-03-20T16:05:59.593Z
20100320 1606.99320 24.71006017 -76.82288017 0.0 0.0 2010-03-20T16:06:59.592Z
20100320 1607.99317 24.71005933 -76.82288233 0.03 317.589 2010-03-20T16:07:59.590Z
20100320 1608.99315 24.7100645 -76.82288617 0.02 0.0 2010-03-20T16:08:59.589Z
20100320 1609.99312 24.710063 -76.822885 0.03 42.411 2010-03-20T16:09:59.587Z
20100320 1610.99310 24.71006433 -76.82288033 0.0 0.0 2010-03-20T16:10:59.586Z
20100320 1611.99307 24.71006067 -76.82288083 0.0 0.0 2010-03-20T16:11:59.584Z
20100320 1612.99305 24.71006083 -76.8228785 0.0 0.0 2010-03-20T16:12:59.583Z
20100320 1613.99302 24.71006367 -76.8228735 0.0 0.0 2010-03-20T16:13:59.581Z
20100320 1614.99298 24.71006867 -76.822869 0.03 44.144 2010-03-20T16:14:59.579Z
20100320 1615.99297 24.71006983 -76.82286683 0.02 180.0 2010-03-20T16:15:59.578Z
20100320 1616.99293 24.7100705 -76.82286617 0.0 0.0 2010-03-20T16:16:59.576Z
20100320 1617.99292 24.71006917 -76.822864 0.02 180.0 2010-03-20T16:17:59.575Z
20100320 1618.99288 24.710064 -76.82286717 0.0 0.0 2010-03-20T16:18:59.573Z
20100320 1619.99287 24.71006183 -76.82286567 0.0 0.0 2010-03-20T16:19:59.572Z
20100320 1620.99283 24.710061 -76.82286667 0.02 270.0 2010-03-20T16:20:59.570Z
20100320 1621.99282 24.71005917 -76.82286833 0.0 0.0 2010-03-20T16:21:59.569Z
20100320 1622.99278 24.71005767 -76.8228735 0.02 0.0 2010-03-20T16:22:59.567Z
20100320 1623.99277 24.71005867 -76.82287333 0.02 0.0 2010-03-20T16:23:59.566Z
20100320 1624.99273 24.710057 -76.82287167 0.0 0.0 2010-03-20T16:24:59.564Z
20100320 1625.99272 24.71005667 -76.82287067 0.02 180.0 2010-03-20T16:25:59.563Z
20100320 1626.99268 24.71005517 -76.82287067 0.0 0.0 2010-03-20T16:26:59.561Z
20100320 1627.99267 24.7100575 -76.82287333 0.0 0.0 2010-03-20T16:27:59.560Z
20100320 1628.99263 24.710062 -76.82287383 0.0 0.0 2010-03-20T16:28:59.558Z
20100320 1629.99262 24.71006083 -76.82287383 0.0 0.0 2010-03-20T16:29:59.557Z
20100320 1630.99258 24.71005933 -76.82287617 0.02 180.0 2010-03-20T16:30:59.555Z
20100320 1631.99257 24.71005983 -76.8228835 0.02 180.0 2010-03-20T16:31:59.554Z
20100320 1632.99253 24.7100565 -76.82288667 0.02 270.0 2010-03-20T16:32:59.552Z
20100320 1633.99250 24.71005783 -76.82288683 0.0 0.0 2010-03-20T16:33:59.550Z
20100320 1634.99248 24.71005417 -76.822887 0.02 180.0 2010-03-20T16:34:59.549Z
20100320 1635.99245 24.71005067 -76.8228865 0.02 90.0 2010-03-20T16:35:59.547Z
20100320 1636.99243 24.7100495 -76.82288117 0.0 0.0 2010-03-20T16:36:59.546Z
20100320 1637.99240 24.71005083 -76.8228815 0.03 317.589 2010-03-20T16:37:59.544Z
20100320 1638.99238 24.710054 -76.82288217 0.02 0.0 2010-03-20T16:38:59.543Z
20100320 1639.99235 24.7100535 -76.82288133 0.03 40.687 2010-03-20T16:39:59.541Z
20100320 1640.99233 24.71005583 -76.82287917 0.02 0.0 2010-03-20T16:40:59.540Z
20100320 1641.99230 24.7100595 -76.822878 0.0 0.0 2010-03-20T16:41:59.538Z
20100320 1642.99228 24.71005983 -76.82287483 0.02 90.0 2010-03-20T16:42:59.537Z
20100320 1643.99225 24.71006267 -76.82287233 0.02 0.0 2010-03-20T16:43:59.535Z
20100320 1644.99223 24.7100655 -76.82287333 0.02 270.0 2010-03-20T16:44:59.534Z
20100320 1645.99220 24.710063 -76.82287383 0.0 0.0 2010-03-20T16:45:59.532Z
20100320 1646.99218 24.71005933 -76.82287633 0.03 224.144 2010-03-20T16:46:59.531Z
20100320 1647.99215 24.710056 -76.822877 0.02 0.0 2010-03-20T16:47:59.529Z
20100320 1648.99213 24.7100565 -76.82287817 0.0 0.0 2010-03-20T16:48:59.528Z
20100320 1649.99210 24.71005767 -76.82287967 0.02 180.0 2010-03-20T16:49:59.526Z
20100320 1650.99208 24.71005683 -76.82287533 0.0 0.0 2010-03-20T16:50:59.525Z
20100320 1651.99205 24.71005833 -76.82287317 0.0 0.0 2010-03-20T16:51:59.523Z
20100320 1652.99202 24.71006017 -76.82287217 0.0 0.0 2010-03-20T16:52:59.521Z
20100320 1653.99200 24.71005917 -76.82287283 0.0 0.0 2010-03-20T16:53:59.520Z
20100320 1654.99197 24.71006033 -76.8228765 0.02 270.0 2010-03-20T16:54:59.518Z
20100320 1655.99195 24.71006133 -76.822877 0.02 180.0 2010-03-20T16:55:59.517Z
20100320 1656.99192 24.7100655 -76.82287917 0.02 90.0 2010-03-20T16:56:59.515Z
20100320 1657.99190 24.71006733 -76.8228775 0.02 90.0 2010-03-20T16:57:59.514Z
20100320 1658.99187 24.71006567 -76.8228795 0.02 270.0 2010-03-20T16:58:59.512Z
20100320 1659.99185 24.71006333 -76.8228805 0.02 180.0 2010-03-20T16:59:59.511Z
20100320 1700.99182 24.7100635 -76.8228825 0.02 270.0 2010-03-20T17:00:59.509Z
20100320 1701.99180 24.710063 -76.82288083 0.0 0.0 2010-03-20T17:01:59.508Z
20100320 1702.99177 24.71006033 -76.8228765 0.0 0.0 2010-03-20T17:02:59.506Z
20100320 1703.99175 24.71006083 -76.82287683 0.02 0.0 2010-03-20T17:03:59.505Z
20100320 1704.99172 24.7100655 -76.8228775 0.0 0.0 2010-03-20T17:04:59.503Z
20100320 1705.99170 24.71006517 -76.82287733 0.02 90.0 2010-03-20T17:05:59.502Z
20100320 1706.99167 24.71006767 -76.82287967 0.0 0.0 2010-03-20T17:06:59.500Z
20100320 1708.00832 24.71006817 -76.82287817 0.02 90.0 2010-03-20T17:08:00.499Z
20100320 1709.00828 24.71006633 -76.82287433 0.02 90.0 2010-03-20T17:09:00.497Z
20100320 1710.00825 24.71006217 -76.82287583 0.02 0.0 2010-03-20T17:10:00.495Z
20100320 1711.00823 24.71006267 -76.82287517 0.02 90.0 2010-03-20T17:11:00.494Z
20100320 1712.00820 24.71006167 -76.822877 0.0 0.0 2010-03-20T17:12:00.492Z
20100320 1713.00818 24.710061 -76.822878 0.03 222.411 2010-03-20T17:13:00.491Z
20100320 1714.00815 24.71006083 -76.82287667 0.03 42.411 2010-03-20T17:14:00.489Z
20100320 1715.00813 24.71006317 -76.82287717 0.0 0.0 2010-03-20T17:15:00.488Z
20100320 1716.00810 24.71006533 -76.822878 0.02 90.0 2010-03-20T17:16:00.486Z
20100320 1717.00808 24.71006683 -76.8228725 0.0 0.0 2010-03-20T17:17:00.485Z
20100320 1718.00805 24.71006367 -76.822875 0.0 0.0 2010-03-20T17:18:00.483Z
20100320 1719.00803 24.710064 -76.82287617 0.0 0.0 2010-03-20T17:19:00.482Z
20100320 1720.00800 24.71006383 -76.8228825 0.02 90.0 2010-03-20T17:20:00.480Z
20100320 1721.00798 24.71005867 -76.822871 0.02 90.0 2010-03-20T17:21:00.479Z
20100320 1721.99128 24.71005933 -76.82286883 0.02 156.111 2010-03-20T17:21:59.477Z
20100320 1723.00793 24.7100575 -76.82286367 0.03 42.411 2010-03-20T17:23:00.476Z
20100320 1724.00790 24.71005933 -76.8228705 0.03 270.0 2010-03-20T17:24:00.474Z
20100320 1725.00788 24.71005767 -76.8228735 0.0 0.0 2010-03-20T17:25:00.473Z
20100320 1726.00785 24.710057 -76.8228755 0.02 0.0 2010-03-20T17:26:00.471Z
20100320 1727.00783 24.710064 -76.82287867 0.02 0.0 2010-03-20T17:27:00.470Z
20100320 1728.00780 24.71006767 -76.8228795 0.0 0.0 2010-03-20T17:28:00.468Z
20100320 1729.00777 24.71006683 -76.822879 0.04 299.421 2010-03-20T17:29:00.466Z
20100320 1730.00775 24.71006933 -76.82287883 0.02 180.0 2010-03-20T17:30:00.465Z
20100320 1731.00772 24.71006967 -76.82287933 0.02 90.0 2010-03-20T17:31:00.463Z
20100320 1732.00770 24.710071 -76.8228775 0.03 137.589 2010-03-20T17:32:00.462Z
20100320 1733.00767 24.71006533 -76.8228695 0.02 180.0 2010-03-20T17:33:00.460Z
20100320 1734.00765 24.7100625 -76.82286667 0.03 319.313 2010-03-20T17:34:00.459Z
20100320 1735.00762 24.7100615 -76.8228655 0.03 42.411 2010-03-20T17:35:00.457Z
20100320 1736.00760 24.7100575 -76.822869 0.02 0.0 2010-03-20T17:36:00.456Z
20100320 1737.00757 24.7100575 -76.822868 0.02 0.0 2010-03-20T17:37:00.454Z
20100320 1738.00755 24.7100605 -76.822871 0.02 270.0 2010-03-20T17:38:00.453Z
20100320 1739.00752 24.710062 -76.82287567 0.02 180.0 2010-03-20T17:39:00.451Z
20100320 1740.00750 24.71005983 -76.82287917 0.03 135.856 2010-03-20T17:40:00.450Z
20100320 1741.00747 24.71006 -76.8228785 0.0 0.0 2010-03-20T17:41:00.448Z
20100320 1742.00745 24.7100635 -76.82287967 0.03 90.0 2010-03-20T17:42:00.447Z
20100320 1743.00742 24.71006633 -76.82287317 0.04 336.738 2010-03-20T17:43:00.445Z
20100320 1744.00740 24.71006617 -76.82286683 0.0 0.0 2010-03-20T17:44:00.444Z
20100320 1745.00737 24.71006383 -76.822866 0.03 317.589 2010-03-20T17:45:00.442Z
20100320 1746.00733 24.71005983 -76.8228685 0.02 180.0 2010-03-20T17:46:00.440Z
20100320 1747.00732 24.71005917 -76.82286767 0.02 0.0 2010-03-20T17:47:00.439Z
20100320 1748.00728 24.71006267 -76.8228725 0.03 137.589 2010-03-20T17:48:00.437Z
20100320 1749.00727 24.71005883 -76.822872 0.0 0.0 2010-03-20T17:49:00.436Z
20100320 1750.00723 24.71006267 -76.82287217 0.03 137.589 2010-03-20T17:50:00.434Z
20100320 1751.00722 24.710059 -76.82287033 0.02 0.0 2010-03-20T17:51:00.433Z
20100320 1752.00718 24.7100615 -76.82286733 0.04 180.0 2010-03-20T17:52:00.431Z
20100320 1753.00717 24.71005533 -76.8228675 0.02 0.0 2010-03-20T17:53:00.430Z
20100320 1754.00713 24.71005433 -76.82286933 0.02 180.0 2010-03-20T17:54:00.428Z
20100320 1755.00712 24.71005117 -76.8228775 0.03 270.0 2010-03-20T17:55:00.427Z
20100320 1756.00708 24.71004867 -76.82287733 0.0 0.0 2010-03-20T17:56:00.425Z
20100320 1757.00707 24.71004683 -76.82287917 0.0 0.0 2010-03-20T17:57:00.424Z
20100320 1758.00703 24.71004717 -76.8228805 0.02 0.0 2010-03-20T17:58:00.422Z
20100320 1759.00702 24.71005117 -76.82287767 0.02 270.0 2010-03-20T17:59:00.421Z
20100320 1800.00698 24.71005367 -76.82287633 0.04 0.0 2010-03-20T18:00:00.419Z
20100320 1801.00697 24.7100585 -76.822874 0.0 0.0 2010-03-20T18:01:00.418Z
20100320 1802.00693 24.7100565 -76.822874 0.02 270.0 2010-03-20T18:02:00.416Z
20100320 1803.00690 24.71006017 -76.822877 0.0 0.0 2010-03-20T18:03:00.414Z
20100320 1804.00688 24.7100615 -76.8228785 0.04 154.799 2010-03-20T18:04:00.413Z
20100320 1805.00685 24.710058 -76.82287567 0.03 42.411 2010-03-20T18:05:00.411Z
20100320 1806.00683 24.71005883 -76.82287717 0.02 0.0 2010-03-20T18:06:00.410Z
20100320 1807.00680 24.71006367 -76.82287317 0.02 90.0 2010-03-20T18:07:00.408Z
20100320 1808.00678 24.71006533 -76.822871 0.02 180.0 2010-03-20T18:08:00.407Z
20100320 1809.00675 24.71006183 -76.822872 0.02 180.0 2010-03-20T18:09:00.405Z
20100320 1810.00673 24.710066 -76.82287167 0.03 220.687 2010-03-20T18:10:00.404Z
20100320 1811.00670 24.7100655 -76.82287383 0.03 317.589 2010-03-20T18:11:00.402Z
20100320 1812.00668 24.71006067 -76.82287417 0.03 90.0 2010-03-20T18:12:00.401Z
20100320 1813.00665 24.71005933 -76.82287017 0.02 90.0 2010-03-20T18:13:00.399Z
20100320 1814.00663 24.7100585 -76.822868 0.0 0.0 2010-03-20T18:14:00.398Z
20100320 1815.00660 24.71005983 -76.82286867 0.02 90.0 2010-03-20T18:15:00.396Z
20100320 1816.00658 24.71005833 -76.82287317 0.02 270.0 2010-03-20T18:16:00.395Z
20100320 1817.00655 24.71006083 -76.82287783 0.0 0.0 2010-03-20T18:17:00.393Z
20100320 1818.00653 24.71005567 -76.82288083 0.03 139.313 2010-03-20T18:18:00.392Z
20100320 1819.00650 24.71005367 -76.8228815 0.02 180.0 2010-03-20T18:19:00.390Z
20100320 1820.00647 24.7100605 -76.822883 0.0 0.0 2010-03-20T18:20:00.388Z
20100320 1821.00645 24.71006217 -76.82288433 0.02 180.0 2010-03-20T18:21:00.387Z
20100320 1822.00642 24.71006583 -76.822889 0.02 0.0 2010-03-20T18:22:00.385Z
20100320 1823.00640 24.71006933 -76.8228885 0.03 317.589 2010-03-20T18:23:00.384Z
20100320 1824.00637 24.71006817 -76.822885 0.02 270.0 2010-03-20T18:24:00.382Z
20100320 1825.00635 24.71006817 -76.82288767 0.0 0.0 2010-03-20T18:25:00.381Z
20100320 1826.00632 24.7100665 -76.822885 0.02 90.0 2010-03-20T18:26:00.379Z
20100320 1827.00630 24.71006617 -76.822881 0.02 180.0 2010-03-20T18:27:00.378Z
20100320 1828.00627 24.71007083 -76.82288467 0.03 319.313 2010-03-20T18:28:00.376Z
20100320 1829.00625 24.71006917 -76.822889 0.02 270.0 2010-03-20T18:29:00.375Z
20100320 1830.00622 24.710067 -76.82289183 0.03 222.411 2010-03-20T18:30:00.373Z
20100320 1831.00620 24.71006567 -76.82289117 0.02 270.0 2010-03-20T18:31:00.372Z
20100320 1832.00617 24.71006417 -76.82288733 0.03 139.313 2010-03-20T18:32:00.370Z
20100320 1833.00615 24.71006233 -76.82287733 0.02 180.0 2010-03-20T18:33:00.369Z
20100320 1834.00612 24.71006067 -76.82287467 0.04 118.694 2010-03-20T18:34:00.367Z
20100320 1835.00608 24.71005817 -76.82287083 0.0 0.0 2010-03-20T18:35:00.365Z
20100320 1836.00607 24.7100605 -76.82287583 0.0 0.0 2010-03-20T18:36:00.364Z
20100320 1837.00603 24.71005967 -76.82287783 0.0 0.0 2010-03-20T18:37:00.362Z
20100320 1838.00602 24.71005767 -76.82288067 0.02 90.0 2010-03-20T18:38:00.361Z
20100320 1839.00598 24.71006283 -76.82287867 0.03 319.313 2010-03-20T18:39:00.359Z
20100320 1840.00597 24.7100655 -76.82287767 0.0 0.0 2010-03-20T18:40:00.358Z
20100320 1841.00593 24.7100695 -76.82288 0.0 0.0 2010-03-20T18:41:00.356Z
20100320 1842.00592 24.71007233 -76.82288233 0.02 180.0 2010-03-20T18:42:00.355Z
20100320 1843.00588 24.71007117 -76.82288133 0.0 0.0 2010-03-20T18:43:00.353Z
20100320 1844.00587 24.71007517 -76.822881 0.02 0.0 2010-03-20T18:44:00.352Z
20100320 1845.00583 24.710078 -76.82288167 0.03 220.687 2010-03-20T18:45:00.350Z
20100320 1846.00582 24.71008033 -76.82288333 0.0 0.0 2010-03-20T18:46:00.349Z
20100320 1847.00578 24.71008267 -76.8228855 0.02 0.0 2010-03-20T18:47:00.347Z
20100320 1848.00577 24.7100855 -76.82288883 0.02 270.0 2010-03-20T18:48:00.346Z
20100320 1849.00573 24.7100845 -76.82288967 0.0 0.0 2010-03-20T18:49:00.344Z
20100320 1850.00572 24.71008517 -76.82288967 0.03 137.589 2010-03-20T18:50:00.343Z
20100320 1851.00568 24.71008333 -76.82288883 0.03 317.589 2010-03-20T18:51:00.341Z
20100320 1852.00565 24.71008333 -76.8228865 0.02 180.0 2010-03-20T18:52:00.339Z
20100320 1853.00563 24.710079 -76.82288717 0.0 0.0 2010-03-20T18:53:00.338Z
20100320 1854.00560 24.710079 -76.822885 0.02 270.0 2010-03-20T18:54:00.336Z
20100320 1855.00558 24.710078 -76.82288683 0.0 0.0 2010-03-20T18:55:00.335Z
20100320 1856.00555 24.7100775 -76.8228875 0.02 0.0 2010-03-20T18:56:00.333Z
20100320 1857.00553 24.7100795 -76.822885 0.02 0.0 2010-03-20T18:57:00.332Z
20100320 1858.00550 24.71007733 -76.82288733 0.03 317.589 2010-03-20T18:58:00.330Z
20100320 1859.00548 24.71007967 -76.822892 0.02 0.0 2010-03-20T18:59:00.329Z
20100320 1900.00545 24.71007783 -76.8228905 0.0 0.0 2010-03-20T19:00:00.327Z
20100320 1901.00543 24.71007833 -76.82288983 0.02 0.0 2010-03-20T19:01:00.326Z
20100320 1902.00540 24.710076 -76.822889 0.03 137.589 2010-03-20T19:02:00.324Z
20100320 1903.00538 24.71007017 -76.82288267 0.02 0.0 2010-03-20T19:03:00.323Z
20100320 1904.00535 24.710067 -76.82288 0.0 0.0 2010-03-20T19:04:00.321Z
20100320 1905.00533 24.71006867 -76.822878 0.03 44.144 2010-03-20T19:05:00.320Z
20100320 1906.00530 24.71006817 -76.822876 0.03 137.589 2010-03-20T19:06:00.318Z
20100320 1907.00527 24.71006617 -76.82287417 0.0 0.0 2010-03-20T19:07:00.316Z
20100320 1908.00525 24.71006417 -76.822876 0.03 137.589 2010-03-20T19:08:00.315Z
20100320 1909.00522 24.7100605 -76.82287683 0.02 90.0 2010-03-20T19:09:00.313Z
20100320 1910.00520 24.71006167 -76.82287583 0.02 270.0 2010-03-20T19:10:00.312Z
20100320 1911.00517 24.71006167 -76.82287833 0.02 0.0 2010-03-20T19:11:00.310Z
20100320 1912.00515 24.71006133 -76.82287833 0.02 90.0 2010-03-20T19:12:00.309Z
20100320 1913.00512 24.71005783 -76.82287783 0.02 180.0 2010-03-20T19:13:00.307Z
20100320 1914.00510 24.71006 -76.82287783 0.02 0.0 2010-03-20T19:14:00.306Z
20100320 1915.00507 24.71006467 -76.82287467 0.03 137.589 2010-03-20T19:15:00.304Z
20100320 1916.00505 24.71006433 -76.8228715 0.02 0.0 2010-03-20T19:16:00.303Z
20100320 1917.00502 24.71006533 -76.82287383 0.03 224.144 2010-03-20T19:17:00.301Z
20100320 1918.00500 24.7100615 -76.8228745 0.02 270.0 2010-03-20T19:18:00.300Z
20100320 1919.00497 24.71006183 -76.82287383 0.02 0.0 2010-03-20T19:19:00.298Z
20100320 1920.00495 24.71006383 -76.82286767 0.03 90.0 2010-03-20T19:20:00.297Z
20100320 1921.00492 24.710065 -76.822863 0.0 0.0 2010-03-20T19:21:00.295Z
20100320 1922.00488 24.710066 -76.82286617 0.02 0.0 2010-03-20T19:22:00.293Z
20100320 1923.00487 24.71006517 -76.82286817 0.02 180.0 2010-03-20T19:23:00.292Z
20100320 1924.00483 24.71006317 -76.822871 0.02 180.0 2010-03-20T19:24:00.290Z
20100320 1925.00482 24.71005967 -76.82287333 0.02 180.0 2010-03-20T19:25:00.289Z
20100320 1926.00478 24.71006217 -76.82287433 0.02 0.0 2010-03-20T19:26:00.287Z
20100320 1927.00477 24.71006433 -76.82287533 0.0 0.0 2010-03-20T19:27:00.286Z
20100320 1928.00473 24.7100635 -76.82287583 0.02 180.0 2010-03-20T19:28:00.284Z
20100320 1929.00472 24.71006467 -76.8228745 0.0 0.0 2010-03-20T19:29:00.283Z
20100320 1930.00468 24.71006983 -76.82287483 0.02 0.0 2010-03-20T19:30:00.281Z
20100320 1931.00467 24.71007183 -76.82287483 0.0 0.0 2010-03-20T19:31:00.280Z
20100320 1932.00463 24.71006917 -76.822874 0.02 180.0 2010-03-20T19:32:00.278Z
20100320 1933.00462 24.710063 -76.82287533 0.02 90.0 2010-03-20T19:33:00.277Z
20100320 1934.00458 24.71006483 -76.82287217 0.04 61.306 2010-03-20T19:34:00.275Z
20100320 1935.00457 24.7100675 -76.82286533 0.0 0.0 2010-03-20T19:35:00.274Z
20100320 1936.00453 24.7100675 -76.822864 0.03 222.411 2010-03-20T19:36:00.272Z
20100320 1937.00452 24.710064 -76.8228645 0.0 0.0 2010-03-20T19:37:00.271Z
20100320 1938.00448 24.71006133 -76.8228655 0.02 270.0 2010-03-20T19:38:00.269Z
20100320 1939.00445 24.7100615 -76.82287217 0.0 0.0 2010-03-20T19:39:00.267Z
20100320 1940.00443 24.71006183 -76.82287383 0.03 40.687 2010-03-20T19:40:00.266Z
20100320 1941.00440 24.71006217 -76.82287217 0.0 0.0 2010-03-20T19:41:00.264Z
20100320 1942.00438 24.71006033 -76.82287583 0.02 0.0 2010-03-20T19:42:00.263Z
20100320 1943.00435 24.71006 -76.82287633 0.0 0.0 2010-03-20T19:43:00.261Z
20100320 1944.00433 24.7100645 -76.82287683 0.0 0.0 2010-03-20T19:44:00.260Z
20100320 1945.00430 24.71006567 -76.82287883 0.0 0.0 2010-03-20T19:45:00.258Z
20100320 1946.00428 24.710065 -76.82287917 0.02 180.0 2010-03-20T19:46:00.257Z
20100320 1947.00425 24.71005933 -76.8228785 0.0 0.0 2010-03-20T19:47:00.255Z
20100320 1948.00423 24.71005433 -76.82287317 0.04 180.0 2010-03-20T19:48:00.254Z
20100320 1949.00420 24.71004933 -76.8228725 0.0 0.0 2010-03-20T19:49:00.252Z
20100320 1950.00418 24.71005067 -76.8228735 0.02 0.0 2010-03-20T19:50:00.251Z
20100320 1951.00415 24.71005667 -76.822877 0.0 0.0 2010-03-20T19:51:00.249Z
20100320 1952.00413 24.71005783 -76.822881 0.02 0.0 2010-03-20T19:52:00.248Z
20100320 1953.00410 24.71005983 -76.822881 0.0 0.0 2010-03-20T19:53:00.246Z
20100320 1954.00407 24.71006567 -76.82288183 0.02 90.0 2010-03-20T19:54:00.244Z
20100320 1955.00405 24.71006633 -76.822884 0.02 180.0 2010-03-20T19:55:00.243Z
20100320 1956.00402 24.71006733 -76.82288133 0.02 90.0 2010-03-20T19:56:00.241Z
20100320 1957.00400 24.71006733 -76.822879 0.0 0.0 2010-03-20T19:57:00.240Z
20100320 1958.00397 24.71006983 -76.822878 0.03 135.856 2010-03-20T19:58:00.238Z
20100320 1959.00395 24.71006833 -76.82287583 0.02 137.589 2010-03-20T19:59:00.237Z
20100320 2000.00392 24.71006683 -76.822874 0.02 180.0 2010-03-20T20:00:00.235Z
20100320 2001.00390 24.7100625 -76.8228735 0.02 180.0 2010-03-20T20:01:00.234Z
20100320 2002.00387 24.710059 -76.8228725 0.02 270.0 2010-03-20T20:02:00.232Z
20100320 2003.00385 24.7100595 -76.822873 0.0 0.0 2010-03-20T20:03:00.231Z
20100320 2004.00382 24.71006083 -76.82287417 0.03 135.856 2010-03-20T20:04:00.229Z
20100320 2005.00380 24.710059 -76.82287017 0.03 137.589 2010-03-20T20:05:00.228Z
20100320 2006.00377 24.71005567 -76.82286833 0.02 180.0 2010-03-20T20:06:00.226Z
20100320 2007.00375 24.71005533 -76.82286433 0.0 0.0 2010-03-20T20:07:00.225Z
20100320 2008.00372 24.71005333 -76.82286233 0.02 270.0 2010-03-20T20:08:00.223Z
20100320 2009.00368 24.71005517 -76.822867 0.02 270.0 2010-03-20T20:09:00.221Z
20100320 2010.00367 24.71005767 -76.82287017 0.0 0.0 2010-03-20T20:10:00.220Z
20100320 2011.00363 24.71005683 -76.82287 0.0 0.0 2010-03-20T20:11:00.218Z
20100320 2012.00362 24.71005617 -76.822863 0.0 0.0 2010-03-20T20:12:00.217Z
20100320 2013.00358 24.71005317 -76.822863 0.0 0.0 2010-03-20T20:13:00.215Z
20100320 2014.00357 24.710051 -76.82286183 0.03 139.313 2010-03-20T20:14:00.214Z
20100320 2015.00353 24.71004933 -76.82286033 0.0 0.0 2010-03-20T20:15:00.212Z
20100320 2016.00352 24.71005167 -76.82286083 0.0 0.0 2010-03-20T20:16:00.211Z
20100320 2017.00348 24.71005483 -76.822864 0.0 0.0 2010-03-20T20:17:00.209Z
20100320 2018.00347 24.71005683 -76.82286483 0.03 317.589 2010-03-20T20:18:00.208Z
20100320 2019.00343 24.7100615 -76.82286717 0.03 42.411 2010-03-20T20:19:00.206Z
20100320 2020.00342 24.71006167 -76.82287 0.02 180.0 2010-03-20T20:20:00.205Z
20100320 2021.00338 24.710058 -76.822871 0.03 137.589 2010-03-20T20:21:00.203Z
20100320 2022.00337 24.71005783 -76.82286917 0.02 222.411 2010-03-20T20:22:00.202Z
20100320 2023.00333 24.71005933 -76.82287083 0.02 0.0 2010-03-20T20:23:00.200Z
20100320 2024.00332 24.71006133 -76.822871 0.0 0.0 2010-03-20T20:24:00.199Z
20100320 2025.00328 24.71006167 -76.8228695 0.0 0.0 2010-03-20T20:25:00.197Z
20100320 2026.00325 24.71005983 -76.82287233 0.03 224.144 2010-03-20T20:26:00.195Z
20100320 2027.00323 24.7100585 -76.822876 0.0 0.0 2010-03-20T20:27:00.194Z
20100320 2028.00320 24.71005883 -76.82287883 0.02 0.0 2010-03-20T20:28:00.192Z
20100320 2029.00318 24.71005917 -76.82287467 0.0 0.0 2010-03-20T20:29:00.191Z
20100320 2030.00315 24.71005633 -76.82287067 0.02 270.0 2010-03-20T20:30:00.189Z
20100320 2031.00313 24.7100545 -76.82287283 0.0 0.0 2010-03-20T20:31:00.188Z
20100320 2032.00310 24.7100555 -76.8228715 0.02 180.0 2010-03-20T20:32:00.186Z
20100320 2033.00308 24.71005583 -76.8228745 0.0 0.0 2010-03-20T20:33:00.185Z
20100320 2034.00305 24.710055 -76.82287617 0.0 0.0 2010-03-20T20:34:00.183Z
20100320 2035.00303 24.7100555 -76.822875 0.02 270.0 2010-03-20T20:35:00.182Z
20100320 2036.00300 24.71005833 -76.8228835 0.02 180.0 2010-03-20T20:36:00.180Z
20100320 2037.00298 24.7100545 -76.82288183 0.02 270.0 2010-03-20T20:37:00.179Z
20100320 2038.00295 24.71005367 -76.8228815 0.02 270.0 2010-03-20T20:38:00.177Z
20100320 2039.00293 24.710053 -76.822882 0.02 0.0 2010-03-20T20:39:00.176Z
20100320 2040.00290 24.71005417 -76.8228805 0.0 0.0 2010-03-20T20:40:00.174Z
20100320 2041.00287 24.71005483 -76.82287817 0.02 0.0 2010-03-20T20:41:00.172Z
20100320 2042.00285 24.71005483 -76.82287933 0.02 180.0 2010-03-20T20:42:00.171Z
20100320 2043.00282 24.710051 -76.8228775 0.02 270.0 2010-03-20T20:43:00.169Z
20100320 2044.00280 24.71004917 -76.82287633 0.02 42.411 2010-03-20T20:44:00.168Z
20100320 2045.00277 24.71005283 -76.82287267 0.0 0.0 2010-03-20T20:45:00.166Z
20100320 2046.00275 24.71005283 -76.82287317 0.02 180.0 2010-03-20T20:46:00.165Z
20100320 2047.00272 24.710051 -76.82287083 0.0 0.0 2010-03-20T20:47:00.163Z
20100320 2048.00270 24.71004917 -76.8228695 0.02 270.0 2010-03-20T20:48:00.162Z
20100320 2049.00267 24.71004983 -76.82287167 0.02 0.0 2010-03-20T20:49:00.160Z
20100320 2050.00265 24.71004767 -76.8228735 0.0 0.0 2010-03-20T20:50:00.159Z
20100320 2051.00262 24.71004817 -76.822873 0.02 270.0 2010-03-20T20:51:00.157Z
20100320 2052.00260 24.7100505 -76.82287167 0.02 180.0 2010-03-20T20:52:00.156Z
20100320 2053.00257 24.7100505 -76.82287133 0.0 0.0 2010-03-20T20:53:00.154Z
20100320 2054.00255 24.71005033 -76.822871 0.03 224.144 2010-03-20T20:54:00.153Z
20100320 2055.00252 24.71004633 -76.82287333 0.02 180.0 2010-03-20T20:55:00.151Z
20100320 2056.00250 24.71004383 -76.822874 0.0 0.0 2010-03-20T20:56:00.150Z
20100320 2057.00247 24.71004233 -76.82287367 0.02 0.0 2010-03-20T20:57:00.148Z
20100320 2058.00243 24.71004317 -76.82287217 0.02 90.0 2010-03-20T20:58:00.146Z
20100320 2059.00242 24.71004283 -76.82286333 0.0 0.0 2010-03-20T20:59:00.145Z
20100320 2100.00238 24.71004083 -76.82286267 0.02 0.0 2010-03-20T21:00:00.143Z
20100320 2101.00237 24.710041 -76.8228655 0.02 90.0 2010-03-20T21:01:00.142Z
20100320 2102.00233 24.71004283 -76.822872 0.03 317.589 2010-03-20T21:02:00.140Z
20100320 2103.00232 24.710045 -76.8228785 0.0 0.0 2010-03-20T21:03:00.139Z
20100320 2104.00228 24.71004617 -76.82287933 0.02 42.411 2010-03-20T21:04:00.137Z
20100320 2105.00227 24.7100465 -76.82287517 0.0 0.0 2010-03-20T21:05:00.136Z
20100320 2106.00223 24.71004467 -76.82287167 0.04 0.0 2010-03-20T21:06:00.134Z
20100320 2107.00222 24.71004617 -76.82286933 0.03 315.856 2010-03-20T21:07:00.133Z
20100320 2108.00218 24.71004733 -76.82286983 0.02 0.0 2010-03-20T21:08:00.131Z
20100320 2109.00217 24.7100505 -76.82287283 0.03 222.411 2010-03-20T21:09:00.130Z
20100320 2110.00213 24.7100505 -76.8228735 0.02 0.0 2010-03-20T21:10:00.128Z
20100320 2111.00212 24.7100545 -76.8228705 0.0 0.0 2010-03-20T21:11:00.127Z
20100320 2112.00208 24.71005567 -76.82286733 0.02 0.0 2010-03-20T21:12:00.125Z
20100320 2113.00207 24.71006167 -76.82286533 0.02 42.411 2010-03-20T21:13:00.124Z
20100320 2114.00203 24.71006467 -76.8228665 0.04 180.0 2010-03-20T21:14:00.122Z
20100320 2115.00200 24.71005933 -76.82286617 0.0 0.0 2010-03-20T21:15:00.120Z
20100320 2116.00198 24.7100565 -76.822864 0.04 240.579 2010-03-20T21:16:00.119Z
20100320 2117.00195 24.71005417 -76.8228715 0.03 222.411 2010-03-20T21:17:00.117Z
20100320 2118.00193 24.710053 -76.82287283 0.0 0.0 2010-03-20T21:18:00.116Z
20100320 2119.00190 24.71004783 -76.8228725 0.0 0.0 2010-03-20T21:19:00.114Z
20100320 2120.00188 24.71005033 -76.82287167 0.0 0.0 2010-03-20T21:20:00.113Z
20100320 2121.00185 24.71005267 -76.82287033 0.0 0.0 2010-03-20T21:21:00.111Z
20100320 2122.00183 24.71005617 -76.82286967 0.02 180.0 2010-03-20T21:22:00.110Z
20100320 2123.00180 24.7100535 -76.82287083 0.02 270.0 2010-03-20T21:23:00.108Z
20100320 2124.00178 24.71005567 -76.82287133 0.02 180.0 2010-03-20T21:24:00.107Z
20100320 2125.00175 24.71005433 -76.82287317 0.03 319.313 2010-03-20T21:25:00.105Z
20100320 2126.00173 24.710056 -76.822875 0.0 0.0 2010-03-20T21:26:00.104Z
20100320 2127.00170 24.71005583 -76.82287783 0.03 224.144 2010-03-20T21:27:00.102Z
20100320 2128.00168 24.71005717 -76.82287933 0.0 0.0 2010-03-20T21:28:00.101Z
20100320 2129.00165 24.71005733 -76.82287683 0.02 180.0 2010-03-20T21:29:00.099Z
20100320 2130.00162 24.71005483 -76.8228755 0.02 90.0 2010-03-20T21:30:00.097Z
20100320 2131.00160 24.7100555 -76.82287283 0.02 180.0 2010-03-20T21:31:00.096Z
20100320 2132.00157 24.710054 -76.8228695 0.02 0.0 2010-03-20T21:32:00.094Z
20100320 2133.00155 24.7100555 -76.82286717 0.0 0.0 2010-03-20T21:33:00.093Z
20100320 2134.00152 24.71005433 -76.82286633 0.03 317.589 2010-03-20T21:34:00.091Z
20100320 2135.00150 24.71005467 -76.822869 0.03 222.411 2010-03-20T21:35:00.090Z
20100320 2136.00147 24.71005217 -76.82286967 0.0 0.0 2010-03-20T21:36:00.088Z
20100320 2137.00145 24.710048 -76.82287233 0.04 205.201 2010-03-20T21:37:00.087Z
20100320 2138.00142 24.71005133 -76.82287667 0.02 90.0 2010-03-20T21:38:00.085Z
20100320 2139.00140 24.71005483 -76.822879 0.03 317.589 2010-03-20T21:39:00.084Z
20100320 2140.00137 24.71005567 -76.82287533 0.03 90.0 2010-03-20T21:40:00.082Z
20100320 2141.00135 24.71005933 -76.8228715 0.02 270.0 2010-03-20T21:41:00.081Z
20100320 2142.00132 24.71006133 -76.82287133 0.0 0.0 2010-03-20T21:42:00.079Z
20100320 2143.00130 24.71006267 -76.82287033 0.0 0.0 2010-03-20T21:43:00.078Z
20100320 2144.00127 24.71006417 -76.82286917 0.04 240.579 2010-03-20T21:44:00.076Z
20100320 2145.00125 24.71005667 -76.822875 0.02 180.0 2010-03-20T21:45:00.075Z
20100320 2146.00122 24.7100565 -76.82287667 0.02 270.0 2010-03-20T21:46:00.073Z
20100320 2147.00118 24.710052 -76.82287517 0.02 180.0 2010-03-20T21:47:00.071Z
20100320 2148.00117 24.71004883 -76.82287467 0.04 299.421 2010-03-20T21:48:00.070Z
20100320 2149.00113 24.71005383 -76.82288033 0.03 317.589 2010-03-20T21:49:00.068Z
20100320 2150.00112 24.71005617 -76.82288533 0.04 180.0 2010-03-20T21:50:00.067Z
20100320 2151.00108 24.7100525 -76.82289 0.0 0.0 2010-03-20T21:51:00.065Z
20100320 2152.00107 24.710053 -76.82289317 0.02 90.0 2010-03-20T21:52:00.064Z
20100320 2153.00103 24.710053 -76.8228865 0.0 0.0 2010-03-20T21:53:00.062Z
20100320 2154.00102 24.71005467 -76.82288617 0.02 90.0 2010-03-20T21:54:00.061Z
20100320 2155.00098 24.71005917 -76.82288917 0.02 317.589 2010-03-20T21:55:00.059Z
20100320 2156.00097 24.71006133 -76.82289167 0.02 270.0 2010-03-20T21:56:00.058Z
20100320 2157.00093 24.71006317 -76.82289417 0.02 0.0 2010-03-20T21:57:00.056Z
20100320 2158.00092 24.71006767 -76.82289317 0.02 0.0 2010-03-20T21:58:00.055Z
20100320 2159.00088 24.71007117 -76.82289017 0.0 0.0 2010-03-20T21:59:00.053Z
20100320 2200.00087 24.71007117 -76.8228865 0.02 180.0 2010-03-20T22:00:00.052Z
20100320 2201.00083 24.71007 -76.82288483 0.02 180.0 2010-03-20T22:01:00.050Z
20100320 2202.00082 24.7100705 -76.822885 0.0 0.0 2010-03-20T22:02:00.049Z
20100320 2203.00078 24.7100675 -76.82288417 0.02 180.0 2010-03-20T22:03:00.047Z
20100320 2204.00075 24.71006417 -76.82288433 0.0 0.0 2010-03-20T22:04:00.045Z
20100320 2205.00073 24.71006483 -76.82288533 0.05 270.0 2010-03-20T22:05:00.044Z
20100320 2206.00070 24.7100625 -76.822883 0.02 0.0 2010-03-20T22:06:00.042Z
20100320 2207.00068 24.71006217 -76.82287967 0.0 0.0 2010-03-20T22:07:00.041Z
20100320 2208.00065 24.7100615 -76.82287917 0.03 42.411 2010-03-20T22:08:00.039Z
20100320 2209.00063 24.710064 -76.8228765 0.03 137.589 2010-03-20T22:09:00.038Z
20100320 2210.00060 24.71006717 -76.82287217 0.0 0.0 2010-03-20T22:10:00.036Z
20100320 2211.00058 24.71006867 -76.82287017 0.04 62.744 2010-03-20T22:11:00.035Z
20100320 2212.00055 24.71006833 -76.82287 0.02 90.0 2010-03-20T22:12:00.033Z
20100320 2213.00053 24.710067 -76.82287117 0.02 180.0 2010-03-20T22:13:00.032Z
20100320 2214.00050 24.71006417 -76.82287067 0.02 90.0 2010-03-20T22:14:00.030Z
20100320 2215.00048 24.71006333 -76.82287167 0.03 90.0 2010-03-20T22:15:00.029Z
20100320 2216.00045 24.7100605 -76.822874 0.02 180.0 2010-03-20T22:16:00.027Z
20100320 2217.00043 24.71005733 -76.82287683 0.0 0.0 2010-03-20T22:17:00.026Z
20100320 2218.00040 24.71005567 -76.82288133 0.0 0.0 2010-03-20T22:18:00.024Z
20100320 2219.00037 24.71005483 -76.8228825 0.02 90.0 2010-03-20T22:19:00.022Z
20100320 2220.00035 24.71005567 -76.82288233 0.0 0.0 2010-03-20T22:20:00.021Z
20100320 2221.00032 24.71005667 -76.82288633 0.0 0.0 2010-03-20T22:21:00.019Z
20100320 2222.00030 24.71005283 -76.82288633 0.02 180.0 2010-03-20T22:22:00.018Z
20100320 2223.00027 24.710046 -76.82288767 0.02 90.0 2010-03-20T22:23:00.016Z
20100320 2224.00025 24.710048 -76.82288633 0.02 180.0 2010-03-20T22:24:00.015Z
20100320 2225.00022 24.71004833 -76.82288583 0.03 40.687 2010-03-20T22:25:00.013Z
20100320 2226.00020 24.710053 -76.82288083 0.03 40.687 2010-03-20T22:26:00.012Z
20100320 2227.00017 24.710057 -76.82288467 0.03 42.411 2010-03-20T22:27:00.010Z
20100320 2228.00015 24.71005967 -76.82288217 0.0 0.0 2010-03-20T22:28:00.009Z
20100320 2229.00012 24.7100595 -76.82287983 0.0 0.0 2010-03-20T22:29:00.007Z
20100320 2230.00010 24.71006233 -76.8228795 0.04 0.0 2010-03-20T22:30:00.006Z
20100320 2231.00007 24.710067 -76.82287917 0.0 0.0 2010-03-20T22:31:00.004Z
20100320 2232.00005 24.7100695 -76.82287883 0.02 270.0 2010-03-20T22:32:00.003Z
20100320 2233.00002 24.71007067 -76.82288133 0.0 0.0 2010-03-20T22:33:00.001Z
20100320 2234.00000 24.7100705 -76.82288233 0.02 270.0 2010-03-20T22:34:00.000Z
20100320 2234.99997 24.71006583 -76.8228795 0.02 90.0 2010-03-20T22:34:59.998Z
20100320 2235.99993 24.71006517 -76.822876 0.02 180.0 2010-03-20T22:35:59.996Z
20100320 2236.99992 24.71006217 -76.82287217 0.02 180.0 2010-03-20T22:36:59.995Z
20100320 2237.99988 24.71006183 -76.82287183 0.0 0.0 2010-03-20T22:37:59.993Z
20100320 2238.99987 24.71005967 -76.82287867 0.0 0.0 2010-03-20T22:38:59.992Z
20100320 2239.99983 24.71006133 -76.82288 0.0 0.0 2010-03-20T22:39:59.990Z
20100320 2240.99982 24.71006167 -76.82288267 0.02 90.0 2010-03-20T22:40:59.989Z
20100320 2241.99978 24.71006 -76.82288217 0.04 180.0 2010-03-20T22:41:59.987Z
20100320 2242.99977 24.71005817 -76.82288317 0.02 0.0 2010-03-20T22:42:59.986Z
20100320 2243.99973 24.710056 -76.822879 0.03 317.589 2010-03-20T22:43:59.984Z
20100320 2244.99972 24.71006083 -76.8228795 0.0 0.0 2010-03-20T22:44:59.983Z
20100320 2245.99968 24.7100575 -76.82287617 0.03 137.589 2010-03-20T22:45:59.981Z
20100320 2246.99967 24.71005583 -76.8228745 0.02 180.0 2010-03-20T22:46:59.980Z
20100320 2247.99963 24.71005333 -76.82287633 0.02 90.0 2010-03-20T22:47:59.978Z
20100320 2248.99962 24.710055 -76.8228735 0.0 0.0 2010-03-20T22:48:59.977Z
20100320 2249.99958 24.710057 -76.82287733 0.04 23.889 2010-03-20T22:49:59.975Z
20100320 2250.99955 24.7100635 -76.82286983 0.0 0.0 2010-03-20T22:50:59.973Z
20100320 2251.99953 24.71006317 -76.82286233 0.02 90.0 2010-03-20T22:51:59.972Z
20100320 2252.99950 24.710064 -76.822862 0.0 0.0 2010-03-20T22:52:59.970Z
20100320 2253.99948 24.71006333 -76.82286417 0.02 270.0 2010-03-20T22:53:59.969Z
20100320 2254.99945 24.71006417 -76.822871 0.02 270.0 2010-03-20T22:54:59.967Z
20100320 2255.99943 24.71006567 -76.82287233 0.02 270.0 2010-03-20T22:55:59.966Z
20100320 2256.99940 24.71006683 -76.82287817 0.02 270.0 2010-03-20T22:56:59.964Z
20100320 2257.99938 24.7100665 -76.8228805 0.0 0.0 2010-03-20T22:57:59.963Z
20100320 2258.99935 24.7100665 -76.82288417 0.0 0.0 2010-03-20T22:58:59.961Z
20100320 2259.99933 24.710062 -76.82288067 0.02 90.0 2010-03-20T22:59:59.960Z
20100320 2300.99930 24.71006 -76.82287917 0.02 0.0 2010-03-20T23:00:59.958Z
20100320 2301.99928 24.7100595 -76.82287683 0.03 40.687 2010-03-20T23:01:59.957Z
20100320 2302.99925 24.710065 -76.822879 0.0 0.0 2010-03-20T23:02:59.955Z
20100320 2303.99923 24.71006683 -76.8228805 0.02 0.0 2010-03-20T23:03:59.954Z
20100320 2304.99920 24.71006617 -76.82288217 0.03 220.687 2010-03-20T23:04:59.952Z
20100320 2305.99918 24.71006617 -76.8228815 0.02 0.0 2010-03-20T23:05:59.951Z
20100320 2306.99915 24.71006533 -76.8228775 0.03 42.411 2010-03-20T23:06:59.949Z
20100320 2307.99912 24.71006533 -76.82287467 0.02 270.0 2010-03-20T23:07:59.947Z
20100320 2308.99910 24.71006867 -76.82287517 0.0 0.0 2010-03-20T23:08:59.946Z
20100320 2309.99907 24.71006617 -76.8228735 0.0 0.0 2010-03-20T23:09:59.944Z
20100320 2310.99905 24.71006367 -76.822876 0.0 0.0 2010-03-20T23:10:59.943Z
20100320 2311.99902 24.71006533 -76.8228745 0.0 0.0 2010-03-20T23:11:59.941Z
20100320 2312.99900 24.71006617 -76.82287467 0.02 0.0 2010-03-20T23:12:59.940Z
20100320 2313.99897 24.7100675 -76.822876 0.0 0.0 2010-03-20T23:13:59.938Z
20100320 2314.99895 24.71006783 -76.822874 0.02 270.0 2010-03-20T23:14:59.937Z
20100320 2315.99892 24.7100655 -76.82287067 0.0 0.0 2010-03-20T23:15:59.935Z
20100320 2316.99890 24.71006683 -76.82287367 0.02 270.0 2010-03-20T23:16:59.934Z
20100320 2317.99887 24.710067 -76.82287017 0.03 137.589 2010-03-20T23:17:59.932Z
20100320 2318.99885 24.71006133 -76.82287017 0.0 0.0 2010-03-20T23:18:59.931Z
20100320 2319.99882 24.7100565 -76.8228705 0.0 0.0 2010-03-20T23:19:59.929Z
20100320 2320.99880 24.7100585 -76.82287467 0.02 270.0 2010-03-20T23:20:59.928Z
20100320 2321.99877 24.71006217 -76.82287583 0.02 0.0 2010-03-20T23:21:59.926Z
20100320 2322.99875 24.71006233 -76.82287033 0.0 0.0 2010-03-20T23:22:59.925Z
20100320 2323.99872 24.710062 -76.82287017 0.02 0.0 2010-03-20T23:23:59.923Z
20100320 2324.99868 24.7100635 -76.82286933 0.02 0.0 2010-03-20T23:24:59.921Z
20100320 2325.99867 24.710063 -76.82287183 0.02 0.0 2010-03-20T23:25:59.920Z
20100320 2326.99863 24.7100615 -76.82287333 0.03 139.313 2010-03-20T23:26:59.918Z
20100320 2327.99862 24.71005883 -76.82287583 0.04 156.111 2010-03-20T23:27:59.917Z
20100320 2328.99858 24.71005383 -76.8228755 0.0 0.0 2010-03-20T23:28:59.915Z
20100320 2329.99857 24.71005467 -76.82287467 0.02 0.0 2010-03-20T23:29:59.914Z
20100320 2330.99853 24.71006 -76.8228755 0.0 0.0 2010-03-20T23:30:59.912Z
20100320 2331.99852 24.7100605 -76.82287567 0.02 0.0 2010-03-20T23:31:59.911Z
20100320 2332.99848 24.71006367 -76.822874 0.02 90.0 2010-03-20T23:32:59.909Z
20100320 2333.99847 24.71006183 -76.82287217 0.02 0.0 2010-03-20T23:33:59.908Z
20100320 2334.99843 24.71006117 -76.82287217 0.03 137.589 2010-03-20T23:34:59.906Z
20100320 2335.99842 24.71006017 -76.82286983 0.02 0.0 2010-03-20T23:35:59.905Z
20100320 2336.99838 24.71006067 -76.822872 0.02 180.0 2010-03-20T23:36:59.903Z
20100320 2337.99837 24.71006267 -76.82287467 0.02 180.0 2010-03-20T23:37:59.902Z
20100320 2338.99833 24.71006283 -76.82287533 0.0 0.0 2010-03-20T23:38:59.900Z
20100320 2339.99830 24.7100645 -76.82287733 0.02 0.0 2010-03-20T23:39:59.898Z
20100320 2340.99828 24.710066 -76.82287483 0.02 180.0 2010-03-20T23:40:59.897Z
20100320 2341.99825 24.710066 -76.82287133 0.02 90.0 2010-03-20T23:41:59.895Z
20100320 2342.99823 24.710068 -76.82287083 0.03 139.313 2010-03-20T23:42:59.894Z
20100320 2343.99820 24.7100685 -76.82286767 0.0 0.0 2010-03-20T23:43:59.892Z
20100320 2344.99818 24.710065 -76.82286833 0.02 90.0 2010-03-20T23:44:59.891Z
20100320 2345.99815 24.71006033 -76.822865 0.02 90.0 2010-03-20T23:45:59.889Z
20100320 2346.99813 24.71005867 -76.82286317 0.02 0.0 2010-03-20T23:46:59.888Z
20100320 2347.99810 24.71005483 -76.82286433 0.02 270.0 2010-03-20T23:47:59.886Z
20100320 2348.99808 24.710056 -76.8228695 0.02 0.0 2010-03-20T23:48:59.885Z
20100320 2349.99805 24.7100525 -76.82287367 0.02 180.0 2010-03-20T23:49:59.883Z
20100320 2350.99803 24.71005633 -76.8228765 0.02 270.0 2010-03-20T23:50:59.882Z
20100320 2351.99800 24.7100545 -76.82287717 0.02 90.0 2010-03-20T23:51:59.880Z
20100320 2352.99798 24.71005383 -76.82287517 0.0 0.0 2010-03-20T23:52:59.879Z
20100320 2353.99795 24.7100535 -76.82287383 0.03 317.589 2010-03-20T23:53:59.877Z
20100320 2354.99793 24.71005983 -76.82287667 0.02 0.0 2010-03-20T23:54:59.876Z
20100320 2355.99790 24.71006533 -76.822876 0.02 270.0 2010-03-20T23:55:59.874Z
20100320 2356.99787 24.71006767 -76.82287683 0.0 0.0 2010-03-20T23:56:59.872Z
20100320 2357.99785 24.7100655 -76.822877 0.03 137.589 2010-03-20T23:57:59.871Z
20100320 2358.99782 24.710067 -76.82287317 0.02 270.0 2010-03-20T23:58:59.869Z
20100320 2359.99780 24.710068 -76.82286817 0.03 137.589 2010-03-20T23:59:59.868Z
20100321 0000.99777 24.71006367 -76.822867 0.0 0.0 2010-03-21T00:00:59.866Z
20100321 0001.99775 24.71006383 -76.82286967 0.02 0.0 2010-03-21T00:01:59.865Z
20100321 0002.99772 24.71006933 -76.822874 0.02 270.0 2010-03-21T00:02:59.863Z
20100321 0003.99770 24.7100665 -76.82287567 0.03 137.589 2010-03-21T00:03:59.862Z
20100321 0004.99767 24.71006533 -76.82287517 0.03 319.313 2010-03-21T00:04:59.860Z
20100321 0005.99765 24.71006567 -76.82287833 0.02 90.0 2010-03-21T00:05:59.859Z
20100321 0006.99762 24.71006267 -76.82287433 0.02 42.411 2010-03-21T00:06:59.857Z
20100321 0007.99760 24.71005833 -76.82287167 0.0 0.0 2010-03-21T00:07:59.856Z
20100321 0008.99757 24.71005867 -76.8228745 0.02 270.0 2010-03-21T00:08:59.854Z
20100321 0009.99755 24.71005567 -76.822877 0.0 0.0 2010-03-21T00:09:59.853Z
20100321 0010.99752 24.71005267 -76.82287867 0.0 0.0 2010-03-21T00:10:59.851Z
20100321 0011.99750 24.71005067 -76.822883 0.03 315.856 2010-03-21T00:11:59.850Z
20100321 0012.99747 24.71004933 -76.82288283 0.03 40.687 2010-03-21T00:12:59.848Z
20100321 0013.99743 24.71005117 -76.82287783 0.03 90.0 2010-03-21T00:13:59.846Z
20100321 0014.99742 24.710051 -76.8228705 0.02 0.0 2010-03-21T00:14:59.845Z
20100321 0015.99738 24.710051 -76.8228695 0.03 90.0 2010-03-21T00:15:59.843Z
20100321 0016.99737 24.71004917 -76.82286467 0.02 270.0 2010-03-21T00:16:59.842Z
20100321 0017.99733 24.71005167 -76.822866 0.02 270.0 2010-03-21T00:17:59.840Z
20100321 0018.99732 24.71005283 -76.8228705 0.0 0.0 2010-03-21T00:18:59.839Z
20100321 0019.99728 24.71005167 -76.822867 0.03 44.144 2010-03-21T00:19:59.837Z
20100321 0020.99727 24.71005517 -76.822857 0.02 90.0 2010-03-21T00:20:59.836Z
20100321 0021.99723 24.71005933 -76.82285833 0.02 270.0 2010-03-21T00:21:59.834Z
20100321 0022.99722 24.71006033 -76.82286533 0.0 0.0 2010-03-21T00:22:59.833Z
20100321 0023.99718 24.71005883 -76.8228645 0.02 90.0 2010-03-21T00:23:59.831Z
20100321 0024.99717 24.710058 -76.82286517 0.0 0.0 2010-03-21T00:24:59.830Z
20100321 0025.99713 24.71006017 -76.82286933 0.02 90.0 2010-03-21T00:25:59.828Z
20100321 0026.99712 24.71005533 -76.82287033 0.02 270.0 2010-03-21T00:26:59.827Z
20100321 0027.99708 24.710052 -76.822871 0.04 119.421 2010-03-21T00:27:59.825Z
20100321 0028.99707 24.71004917 -76.822868 0.02 0.0 2010-03-21T00:28:59.824Z
20100321 0029.99703 24.71004983 -76.82286783 0.0 0.0 2010-03-21T00:29:59.822Z
20100321 0030.99700 24.71004967 -76.82286617 0.02 0.0 2010-03-21T00:30:59.820Z
20100321 0031.99698 24.71005383 -76.82286633 0.02 0.0 2010-03-21T00:31:59.819Z
20100321 0032.99695 24.7100535 -76.82286683 0.0 0.0 2010-03-21T00:32:59.817Z
20100321 0033.99693 24.71005467 -76.82286817 0.0 0.0 2010-03-21T00:33:59.816Z
20100321 0034.99690 24.71005783 -76.82286867 0.0 0.0 2010-03-21T00:34:59.814Z
20100321 0035.99688 24.71005617 -76.82287 0.0 0.0 2010-03-21T00:35:59.813Z
20100321 0036.99685 24.71005683 -76.82287383 0.03 317.589 2010-03-21T00:36:59.811Z
20100321 0037.99683 24.7100615 -76.82287533 0.02 0.0 2010-03-21T00:37:59.810Z
20100321 0038.99680 24.71006533 -76.82287067 0.02 90.0 2010-03-21T00:38:59.808Z
20100321 0039.99678 24.71006583 -76.82286883 0.02 90.0 2010-03-21T00:39:59.807Z
20100321 0040.99675 24.710069 -76.82287117 0.02 270.0 2010-03-21T00:40:59.805Z
20100321 0041.99673 24.71006817 -76.82287433 0.04 119.421 2010-03-21T00:41:59.804Z
20100321 0042.99670 24.71005467 -76.822874 0.03 222.411 2010-03-21T00:42:59.802Z
20100321 0043.99668 24.71004967 -76.8228785 0.0 0.0 2010-03-21T00:43:59.801Z
20100321 0044.99665 24.71005317 -76.822875 0.0 0.0 2010-03-21T00:44:59.799Z
20100321 0045.99663 24.71005633 -76.822873 0.0 0.0 2010-03-21T00:45:59.798Z
20100321 0046.99660 24.71005933 -76.82287567 0.02 270.0 2010-03-21T00:46:59.796Z
20100321 0047.99658 24.7100615 -76.82287583 0.02 90.0 2010-03-21T00:47:59.795Z
20100321 0048.99655 24.71006117 -76.82287067 0.02 90.0 2010-03-21T00:48:59.793Z
20100321 0049.99652 24.71006233 -76.822872 0.0 0.0 2010-03-21T00:49:59.791Z
20100321 0050.99650 24.71005883 -76.822872 0.03 135.856 2010-03-21T00:50:59.790Z
20100321 0051.99647 24.7100575 -76.82287033 0.0 0.0 2010-03-21T00:51:59.788Z
20100321 0052.99645 24.71005683 -76.82286717 0.02 90.0 2010-03-21T00:52:59.787Z
20100321 0053.99642 24.71005517 -76.82286567 0.02 0.0 2010-03-21T00:53:59.785Z
20100321 0054.99640 24.71005933 -76.82286617 0.02 0.0 2010-03-21T00:54:59.784Z
20100321 0055.99637 24.710063 -76.82286333 0.0 0.0 2010-03-21T00:55:59.782Z
20100321 0056.99635 24.71006167 -76.82286667 0.02 317.589 2010-03-21T00:56:59.781Z
20100321 0057.99632 24.71006417 -76.822876 0.02 180.0 2010-03-21T00:57:59.779Z
20100321 0058.99630 24.71006117 -76.82288017 0.02 270.0 2010-03-21T00:58:59.778Z
20100321 0059.99627 24.710065 -76.82288133 0.0 0.0 2010-03-21T00:59:59.776Z
20100321 0100.99625 24.7100635 -76.82287467 0.03 137.589 2010-03-21T01:00:59.775Z
20100321 0101.99622 24.7100605 -76.82286783 0.0 0.0 2010-03-21T01:01:59.773Z
20100321 0102.99620 24.71005733 -76.82286417 0.02 90.0 2010-03-21T01:02:59.772Z
20100321 0103.99617 24.71006117 -76.822867 0.02 270.0 2010-03-21T01:03:59.770Z
20100321 0104.99615 24.7100625 -76.822868 0.02 0.0 2010-03-21T01:04:59.769Z
20100321 0105.99612 24.710063 -76.82287083 0.02 90.0 2010-03-21T01:05:59.767Z
20100321 0106.99608 24.710057 -76.8228735 0.02 180.0 2010-03-21T01:06:59.765Z
20100321 0107.99607 24.71005383 -76.82287517 0.02 180.0 2010-03-21T01:07:59.764Z
20100321 0108.99603 24.7100555 -76.82287883 0.0 0.0 2010-03-21T01:08:59.762Z
20100321 0109.99602 24.71006267 -76.8228775 0.02 90.0 2010-03-21T01:09:59.761Z
20100321 0110.99598 24.71006517 -76.82287183 0.02 0.0 2010-03-21T01:10:59.759Z
20100321 0111.99597 24.71006433 -76.82286933 0.0 0.0 2010-03-21T01:11:59.758Z
20100321 0112.99593 24.71006317 -76.82287017 0.0 0.0 2010-03-21T01:12:59.756Z
20100321 0113.99592 24.71006417 -76.8228735 0.03 137.589 2010-03-21T01:13:59.755Z
20100321 0114.99588 24.71006067 -76.82286883 0.02 0.0 2010-03-21T01:14:59.753Z
20100321 0115.99587 24.71006 -76.8228675 0.03 90.0 2010-03-21T01:15:59.752Z
20100321 0116.99583 24.71005917 -76.822862 0.0 0.0 2010-03-21T01:16:59.750Z
20100321 0117.99582 24.7100625 -76.82286417 0.0 0.0 2010-03-21T01:17:59.749Z
20100321 0118.99578 24.71006133 -76.82286217 0.02 90.0 2010-03-21T01:18:59.747Z
20100321 0119.99577 24.71006383 -76.82286183 0.02 270.0 2010-03-21T01:19:59.746Z
20100321 0120.99573 24.7100655 -76.822864 0.03 317.589 2010-03-21T01:20:59.744Z
20100321 0121.99572 24.710066 -76.82286317 0.04 61.306 2010-03-21T01:21:59.743Z
20100321 0122.99568 24.7100655 -76.82286167 0.02 90.0 2010-03-21T01:22:59.741Z
20100321 0123.99565 24.71006267 -76.82286717 0.02 270.0 2010-03-21T01:23:59.739Z
20100321 0124.99563 24.7100585 -76.8228785 0.02 270.0 2010-03-21T01:24:59.738Z
20100321 0125.99560 24.71005533 -76.82288317 0.02 270.0 2010-03-21T01:25:59.736Z
20100321 0126.99558 24.71005817 -76.82288583 0.03 139.313 2010-03-21T01:26:59.735Z
20100321 0127.99555 24.7100585 -76.82288383 0.03 40.687 2010-03-21T01:27:59.733Z
20100321 0128.99553 24.71006167 -76.82288017 0.02 0.0 2010-03-21T01:28:59.732Z
20100321 0129.99550 24.71006133 -76.822881 0.0 0.0 2010-03-21T01:29:59.730Z
20100321 0130.99548 24.71006133 -76.82288083 0.03 40.687 2010-03-21T01:30:59.729Z
20100321 0131.99545 24.71006417 -76.822879 0.0 0.0 2010-03-21T01:31:59.727Z
20100321 0132.99543 24.71006367 -76.822876 0.0 0.0 2010-03-21T01:32:59.726Z
20100321 0133.99540 24.71006067 -76.82287533 0.0 0.0 2010-03-21T01:33:59.724Z
20100321 0134.99538 24.71005683 -76.822872 0.0 0.0 2010-03-21T01:34:59.723Z
20100321 0135.99535 24.7100545 -76.8228725 0.02 90.0 2010-03-21T01:35:59.721Z
20100321 0136.99533 24.71005933 -76.82286883 0.02 0.0 2010-03-21T01:36:59.720Z
20100321 0137.99530 24.7100655 -76.8228665 0.02 270.0 2010-03-21T01:37:59.718Z
20100321 0138.99528 24.710074 -76.82286783 0.02 0.0 2010-03-21T01:38:59.717Z
20100321 0139.99525 24.71007767 -76.82286567 0.02 90.0 2010-03-21T01:39:59.715Z
20100321 0140.99523 24.71007683 -76.82286817 0.02 180.0 2010-03-21T01:40:59.714Z
20100321 0141.99520 24.71007667 -76.82287267 0.03 220.687 2010-03-21T01:41:59.712Z
20100321 0142.99517 24.7100725 -76.82287267 0.0 0.0 2010-03-21T01:42:59.710Z
20100321 0143.99515 24.71007083 -76.82287233 0.02 180.0 2010-03-21T01:43:59.709Z
20100321 0144.99512 24.710064 -76.82286867 0.02 180.0 2010-03-21T01:44:59.707Z
20100321 0145.99510 24.7100585 -76.82287083 0.0 0.0 2010-03-21T01:45:59.706Z
20100321 0146.99507 24.7100605 -76.82287483 0.02 270.0 2010-03-21T01:46:59.704Z
20100321 0147.99505 24.7100595 -76.82287783 0.03 222.411 2010-03-21T01:47:59.703Z
20100321 0148.99502 24.7100595 -76.82288467 0.02 270.0 2010-03-21T01:48:59.701Z
20100321 0149.99500 24.71006067 -76.82288783 0.02 42.411 2010-03-21T01:49:59.700Z
20100321 0150.99497 24.71006433 -76.822885 0.0 0.0 2010-03-21T01:50:59.698Z
20100321 0151.99495 24.710063 -76.8228785 0.02 90.0 2010-03-21T01:51:59.697Z
20100321 0152.99492 24.71006217 -76.822874 0.03 90.0 2010-03-21T01:52:59.695Z
20100321 0153.99490 24.71006083 -76.82287183 0.0 0.0 2010-03-21T01:53:59.694Z
20100321 0154.99487 24.71005767 -76.82287067 0.0 0.0 2010-03-21T01:54:59.692Z
20100321 0155.99485 24.7100555 -76.82286967 0.03 220.687 2010-03-21T01:55:59.691Z
20100321 0156.99482 24.71005733 -76.82287717 0.0 0.0 2010-03-21T01:56:59.689Z
20100321 0157.99480 24.71005733 -76.8228795 0.02 90.0 2010-03-21T01:57:59.688Z
20100321 0158.99477 24.71005767 -76.82288233 0.0 0.0 2010-03-21T01:58:59.686Z
20100321 0159.99473 24.71005733 -76.82288417 0.02 90.0 2010-03-21T01:59:59.684Z
20100321 0200.99472 24.71005883 -76.8228855 0.0 0.0 2010-03-21T02:00:59.683Z
20100321 0201.99468 24.71005983 -76.82288233 0.0 0.0 2010-03-21T02:01:59.681Z
20100321 0202.99467 24.71005933 -76.82288417 0.0 0.0 2010-03-21T02:02:59.680Z
20100321 0203.99463 24.71005883 -76.82288583 0.02 270.0 2010-03-21T02:03:59.678Z
20100321 0204.99462 24.71006117 -76.8228875 0.0 0.0 2010-03-21T02:04:59.677Z
20100321 0205.99458 24.7100565 -76.82288617 0.02 90.0 2010-03-21T02:05:59.675Z
20100321 0206.99457 24.7100595 -76.82288117 0.0 0.0 2010-03-21T02:06:59.674Z
20100321 0207.99453 24.71006083 -76.82287933 0.02 270.0 2010-03-21T02:07:59.672Z
20100321 0208.99452 24.71006067 -76.82287817 0.0 0.0 2010-03-21T02:08:59.671Z
20100321 0209.99448 24.71005917 -76.82288 0.02 270.0 2010-03-21T02:09:59.669Z
20100321 0210.99447 24.71005583 -76.82288217 0.0 0.0 2010-03-21T02:10:59.668Z
20100321 0211.99443 24.71005133 -76.8228835 0.0 0.0 2010-03-21T02:11:59.666Z
20100321 0212.99442 24.71004683 -76.8228795 0.03 135.856 2010-03-21T02:12:59.665Z
20100321 0213.99438 24.71004783 -76.822876 0.02 0.0 2010-03-21T02:13:59.663Z
20100321 0214.99437 24.71005283 -76.82287583 0.02 0.0 2010-03-21T02:14:59.662Z
20100321 0215.99433 24.71005533 -76.82288033 0.0 0.0 2010-03-21T02:15:59.660Z
20100321 0216.99432 24.710058 -76.82288417 0.04 61.306 2010-03-21T02:16:59.659Z
20100321 0217.99428 24.71005767 -76.82288117 0.0 0.0 2010-03-21T02:17:59.657Z
20100321 0218.99425 24.71006 -76.82287933 0.02 0.0 2010-03-21T02:18:59.655Z
20100321 0219.99423 24.71005983 -76.82287967 0.02 180.0 2010-03-21T02:19:59.654Z
20100321 0220.99420 24.710059 -76.8228815 0.0 0.0 2010-03-21T02:20:59.652Z
20100321 0221.99418 24.71006233 -76.82288517 0.02 0.0 2010-03-21T02:21:59.651Z
20100321 0222.99415 24.71006617 -76.8228845 0.02 0.0 2010-03-21T02:22:59.649Z
20100321 0223.99413 24.71006433 -76.822886 0.02 90.0 2010-03-21T02:23:59.648Z
20100321 0224.99410 24.710066 -76.8228835 0.0 0.0 2010-03-21T02:24:59.646Z
20100321 0225.99408 24.710069 -76.82288183 0.02 180.0 2010-03-21T02:25:59.645Z
20100321 0226.99405 24.7100615 -76.82288683 0.0 0.0 2010-03-21T02:26:59.643Z
20100321 0227.99403 24.710055 -76.82288817 0.0 0.0 2010-03-21T02:27:59.642Z
20100321 0228.99400 24.71005217 -76.822888 0.0 0.0 2010-03-21T02:28:59.640Z
20100321 0229.99398 24.71005283 -76.82288667 0.0 0.0 2010-03-21T02:29:59.639Z
20100321 0230.99395 24.71005233 -76.82288317 0.03 42.411 2010-03-21T02:30:59.637Z
20100321 0231.99393 24.71005267 -76.82288467 0.02 270.0 2010-03-21T02:31:59.636Z
20100321 0232.99390 24.71005217 -76.822885 0.02 180.0 2010-03-21T02:32:59.634Z
20100321 0233.99388 24.7100495 -76.82288717 0.02 90.0 2010-03-21T02:33:59.633Z
20100321 0234.99385 24.71004983 -76.8228775 0.0 0.0 2010-03-21T02:34:59.631Z
20100321 0235.99383 24.71004967 -76.82288167 0.0 0.0 2010-03-21T02:35:59.630Z
20100321 0236.99380 24.71005517 -76.82288333 0.04 297.256 2010-03-21T02:36:59.628Z
20100321 0237.99377 24.71005617 -76.822892 0.02 270.0 2010-03-21T02:37:59.626Z
20100321 0238.99375 24.71006317 -76.82289483 0.02 42.411 2010-03-21T02:38:59.625Z
20100321 0239.99372 24.71006483 -76.82289033 0.02 180.0 2010-03-21T02:39:59.623Z
20100321 0240.99370 24.71006133 -76.82288783 0.02 137.589 2010-03-21T02:40:59.622Z
20100321 0241.99367 24.71006233 -76.82288133 0.0 0.0 2010-03-21T02:41:59.620Z
20100321 0242.99365 24.710059 -76.82287933 0.02 0.0 2010-03-21T02:42:59.619Z
20100321 0243.99362 24.71006117 -76.822875 0.02 270.0 2010-03-21T02:43:59.617Z
20100321 0244.99360 24.7100625 -76.82287533 0.0 0.0 2010-03-21T02:44:59.616Z
20100321 0245.99357 24.71006067 -76.82287267 0.02 270.0 2010-03-21T02:45:59.614Z
20100321 0246.99355 24.71005667 -76.82287167 0.03 137.589 2010-03-21T02:46:59.613Z
20100321 0247.99352 24.710054 -76.82287183 0.02 180.0 2010-03-21T02:47:59.611Z
20100321 0248.99350 24.7100545 -76.82287983 0.03 317.589 2010-03-21T02:48:59.610Z
20100321 0249.99347 24.710057 -76.822881 0.02 0.0 2010-03-21T02:49:59.608Z
20100321 0250.99345 24.71006567 -76.8228805 0.02 0.0 2010-03-21T02:50:59.607Z
20100321 0251.99342 24.7100685 -76.82287883 0.02 180.0 2010-03-21T02:51:59.605Z
20100321 0252.99340 24.71006283 -76.8228795 0.02 180.0 2010-03-21T02:52:59.604Z
20100321 0253.99337 24.71006233 -76.822884 0.02 270.0 2010-03-21T02:53:59.602Z
20100321 0254.99333 24.71005833 -76.822884 0.0 0.0 2010-03-21T02:54:59.600Z
20100321 0255.99332 24.71005683 -76.82288583 0.02 270.0 2010-03-21T02:55:59.599Z
20100321 0256.99328 24.710049 -76.82288817 0.02 270.0 2010-03-21T02:56:59.597Z
20100321 0257.99327 24.710051 -76.82289017 0.0 0.0 2010-03-21T02:57:59.596Z
20100321 0258.99323 24.71005767 -76.82288867 0.02 0.0 2010-03-21T02:58:59.594Z
20100321 0259.99322 24.71006133 -76.8228885 0.02 270.0 2010-03-21T02:59:59.593Z
20100321 0300.99318 24.71006117 -76.82288367 0.02 90.0 2010-03-21T03:00:59.591Z
20100321 0301.99317 24.71006167 -76.82288167 0.0 0.0 2010-03-21T03:01:59.590Z
20100321 0302.99313 24.710059 -76.82287483 0.03 40.687 2010-03-21T03:02:59.588Z
20100321 0303.99312 24.71005817 -76.82286983 0.0 0.0 2010-03-21T03:03:59.587Z
20100321 0304.99308 24.710061 -76.822871 0.02 180.0 2010-03-21T03:04:59.585Z
20100321 0305.99307 24.710062 -76.82287 0.02 180.0 2010-03-21T03:05:59.584Z
20100321 0306.99303 24.71005717 -76.82286617 0.02 180.0 2010-03-21T03:06:59.582Z
20100321 0307.99302 24.71005283 -76.82286783 0.02 180.0 2010-03-21T03:07:59.581Z
20100321 0308.99298 24.71004967 -76.822865 0.0 0.0 2010-03-21T03:08:59.579Z
20100321 0309.99297 24.71004767 -76.8228605 0.02 180.0 2010-03-21T03:09:59.578Z
20100321 0310.99293 24.71004567 -76.82285933 0.0 0.0 2010-03-21T03:10:59.576Z
20100321 0311.99292 24.71004583 -76.82285983 0.02 270.0 2010-03-21T03:11:59.575Z
20100321 0312.99288 24.71004817 -76.82286483 0.02 270.0 2010-03-21T03:12:59.573Z
20100321 0313.99285 24.71005367 -76.8228695 0.02 270.0 2010-03-21T03:13:59.571Z
20100321 0314.99283 24.71005883 -76.82287967 0.02 270.0 2010-03-21T03:14:59.570Z
20100321 0315.99280 24.71005983 -76.82288217 0.0 0.0 2010-03-21T03:15:59.568Z
20100321 0316.99278 24.71006033 -76.82288267 0.02 0.0 2010-03-21T03:16:59.567Z
20100321 0317.99275 24.71006117 -76.8228805 0.02 0.0 2010-03-21T03:17:59.565Z
20100321 0318.99273 24.7100595 -76.82287967 0.03 220.687 2010-03-21T03:18:59.564Z
20100321 0319.99270 24.71005933 -76.8228805 0.0 0.0 2010-03-21T03:19:59.562Z
20100321 0320.99268 24.710057 -76.82287667 0.0 0.0 2010-03-21T03:20:59.561Z
20100321 0321.99265 24.71005817 -76.82287917 0.0 0.0 2010-03-21T03:21:59.559Z
20100321 0322.99263 24.710057 -76.82288167 0.0 0.0 2010-03-21T03:22:59.558Z
20100321 0323.99260 24.71005483 -76.82287583 0.02 137.589 2010-03-21T03:23:59.556Z
20100321 0324.99258 24.710051 -76.82287217 0.02 270.0 2010-03-21T03:24:59.555Z
20100321 0325.99255 24.71005117 -76.82287283 0.02 0.0 2010-03-21T03:25:59.553Z
20100321 0326.99253 24.71005533 -76.822872 0.02 180.0 2010-03-21T03:26:59.552Z
20100321 0327.99250 24.71005467 -76.8228695 0.0 0.0 2010-03-21T03:27:59.550Z
20100321 0328.99248 24.71005683 -76.82286867 0.02 0.0 2010-03-21T03:28:59.549Z
20100321 0329.99245 24.71006217 -76.822876 0.03 315.856 2010-03-21T03:29:59.547Z
20100321 0330.99243 24.7100615 -76.82287417 0.02 180.0 2010-03-21T03:30:59.546Z
20100321 0331.99240 24.71005783 -76.82287483 0.02 180.0 2010-03-21T03:31:59.544Z
20100321 0332.99237 24.71005333 -76.82287517 0.02 180.0 2010-03-21T03:32:59.542Z
20100321 0333.99235 24.71004767 -76.82287383 0.02 270.0 2010-03-21T03:33:59.541Z
20100321 0334.99232 24.7100505 -76.82288433 0.03 317.589 2010-03-21T03:34:59.539Z
20100321 0335.99230 24.71005617 -76.822886 0.03 44.144 2010-03-21T03:35:59.538Z
20100321 0336.99227 24.71005783 -76.8228805 0.0 0.0 2010-03-21T03:36:59.536Z
20100321 0337.99225 24.710055 -76.82287617 0.03 137.589 2010-03-21T03:37:59.535Z
20100321 0338.99222 24.71004817 -76.82287667 0.03 220.687 2010-03-21T03:38:59.533Z
20100321 0339.99220 24.7100455 -76.8228755 0.02 270.0 2010-03-21T03:39:59.532Z
20100321 0340.99217 24.71004883 -76.82287833 0.02 270.0 2010-03-21T03:40:59.530Z
20100321 0341.99215 24.7100495 -76.82287883 0.02 90.0 2010-03-21T03:41:59.529Z
20100321 0342.99212 24.710052 -76.82287483 0.03 139.313 2010-03-21T03:42:59.527Z
20100321 0343.99210 24.710052 -76.82287083 0.02 270.0 2010-03-21T03:43:59.526Z
20100321 0344.99207 24.71004933 -76.82287667 0.02 180.0 2010-03-21T03:44:59.524Z
20100321 0345.99205 24.710052 -76.82288183 0.02 270.0 2010-03-21T03:45:59.523Z
20100321 0346.99202 24.71005533 -76.82288867 0.0 0.0 2010-03-21T03:46:59.521Z
20100321 0347.99200 24.71005867 -76.8228875 0.0 0.0 2010-03-21T03:47:59.520Z
20100321 0348.99197 24.71006383 -76.82288467 0.02 0.0 2010-03-21T03:48:59.518Z
20100321 0349.99195 24.710066 -76.82287817 0.0 0.0 2010-03-21T03:49:59.517Z
20100321 0350.99192 24.71006333 -76.82288433 0.02 180.0 2010-03-21T03:50:59.515Z
20100321 0351.99188 24.7100635 -76.82288 0.02 90.0 2010-03-21T03:51:59.513Z
20100321 0352.99187 24.71006333 -76.82287467 0.02 180.0 2010-03-21T03:52:59.512Z
20100321 0353.99183 24.71005767 -76.8228765 0.02 180.0 2010-03-21T03:53:59.510Z
20100321 0354.99182 24.7100615 -76.8228805 0.02 270.0 2010-03-21T03:54:59.509Z
20100321 0355.99178 24.7100635 -76.8228845 0.03 222.411 2010-03-21T03:55:59.507Z
20100321 0356.99177 24.7100605 -76.82288767 0.02 270.0 2010-03-21T03:56:59.506Z
20100321 0357.99173 24.71005383 -76.82289067 0.02 180.0 2010-03-21T03:57:59.504Z
20100321 0358.99172 24.71005267 -76.82289083 0.02 270.0 2010-03-21T03:58:59.503Z
20100321 0359.99168 24.71005333 -76.82288867 0.0 0.0 2010-03-21T03:59:59.501Z
20100321 0400.99167 24.71005517 -76.82288867 0.03 44.144 2010-03-21T04:00:59.500Z
20100321 0402.00830 24.71005683 -76.82288783 0.02 90.0 2010-03-21T04:02:00.498Z
20100321 0403.00828 24.71005683 -76.82288433 0.0 0.0 2010-03-21T04:03:00.497Z
20100321 0404.00825 24.71005883 -76.82287833 0.02 90.0 2010-03-21T04:04:00.495Z
20100321 0405.00823 24.71006183 -76.8228745 0.02 90.0 2010-03-21T04:05:00.494Z
20100321 0406.00820 24.71007017 -76.82287067 0.04 118.694 2010-03-21T04:06:00.492Z
20100321 0407.00818 24.71006683 -76.82286333 0.02 270.0 2010-03-21T04:07:00.491Z
20100321 0408.00815 24.7100635 -76.8228665 0.0 0.0 2010-03-21T04:08:00.489Z
20100321 0409.00812 24.71006067 -76.82286967 0.0 0.0 2010-03-21T04:09:00.487Z
20100321 0410.00810 24.71005883 -76.82287367 0.02 90.0 2010-03-21T04:10:00.486Z
20100321 0411.00807 24.71005867 -76.82287367 0.02 0.0 2010-03-21T04:11:00.484Z
20100321 0412.00805 24.71005917 -76.82287117 0.0 0.0 2010-03-21T04:12:00.483Z
20100321 0413.00802 24.7100565 -76.822867 0.03 222.411 2010-03-21T04:13:00.481Z
20100321 0414.00800 24.710052 -76.822873 0.04 0.0 2010-03-21T04:14:00.480Z
20100321 0415.00797 24.710059 -76.82287783 0.0 0.0 2010-03-21T04:15:00.478Z
20100321 0416.00795 24.71006083 -76.822878 0.0 0.0 2010-03-21T04:16:00.477Z
20100321 0417.00792 24.71005983 -76.82287883 0.0 0.0 2010-03-21T04:17:00.475Z
20100321 0418.00790 24.71005967 -76.8228815 0.0 0.0 2010-03-21T04:18:00.474Z
20100321 0419.00787 24.71006017 -76.822884 0.03 222.411 2010-03-21T04:19:00.472Z
20100321 0420.00785 24.710059 -76.82287883 0.04 119.421 2010-03-21T04:20:00.471Z
20100321 0421.00782 24.7100595 -76.82287733 0.02 270.0 2010-03-21T04:21:00.469Z
20100321 0422.00780 24.7100575 -76.82287867 0.02 90.0 2010-03-21T04:22:00.468Z
20100321 0423.00777 24.71005767 -76.82287433 0.02 0.0 2010-03-21T04:23:00.466Z
20100321 0424.00775 24.7100585 -76.82287267 0.02 270.0 2010-03-21T04:24:00.465Z
20100321 0425.00772 24.71005667 -76.82287367 0.0 0.0 2010-03-21T04:25:00.463Z
20100321 0426.00768 24.710057 -76.82287133 0.03 40.687 2010-03-21T04:26:00.461Z
20100321 0427.00767 24.71006233 -76.82286867 0.0 0.0 2010-03-21T04:27:00.460Z
20100321 0428.00763 24.71006167 -76.8228685 0.02 270.0 2010-03-21T04:28:00.458Z
20100321 0429.00762 24.71006317 -76.822873 0.02 180.0 2010-03-21T04:29:00.457Z
20100321 0430.00758 24.71006317 -76.822873 0.02 90.0 2010-03-21T04:30:00.455Z
20100321 0431.00757 24.710062 -76.82286867 0.02 90.0 2010-03-21T04:31:00.454Z
20100321 0432.00753 24.71006317 -76.82286383 0.03 139.313 2010-03-21T04:32:00.452Z
20100321 0433.00752 24.71005817 -76.82286117 0.02 90.0 2010-03-21T04:33:00.451Z
20100321 0434.00748 24.71005633 -76.82285667 0.0 0.0 2010-03-21T04:34:00.449Z
20100321 0435.00747 24.71005517 -76.82285767 0.0 0.0 2010-03-21T04:35:00.448Z
20100321 0436.00743 24.71005467 -76.8228585 0.03 315.856 2010-03-21T04:36:00.446Z
20100321 0437.00742 24.7100565 -76.82286133 0.03 317.589 2010-03-21T04:37:00.445Z
20100321 0438.00738 24.7100565 -76.82286317 0.02 0.0 2010-03-21T04:38:00.443Z
20100321 0439.00737 24.71005983 -76.8228645 0.02 180.0 2010-03-21T04:39:00.442Z
20100321 0440.00733 24.71005833 -76.82286783 0.0 0.0 2010-03-21T04:40:00.440Z
20100321 0441.00732 24.71005783 -76.82286783 0.02 0.0 2010-03-21T04:41:00.439Z
20100321 0442.00728 24.71005567 -76.82287067 0.0 0.0 2010-03-21T04:42:00.437Z
20100321 0443.00727 24.7100545 -76.82286783 0.02 180.0 2010-03-21T04:43:00.436Z
20100321 0444.00723 24.71005883 -76.82286783 0.02 90.0 2010-03-21T04:44:00.434Z
20100321 0445.00720 24.71006317 -76.822869 0.02 0.0 2010-03-21T04:45:00.432Z
20100321 0446.00718 24.71006467 -76.82286667 0.0 0.0 2010-03-21T04:46:00.431Z
20100321 0447.00715 24.71006383 -76.82286567 0.02 180.0 2010-03-21T04:47:00.429Z
20100321 0448.00713 24.71006433 -76.82286967 0.02 0.0 2010-03-21T04:48:00.428Z
20100321 0449.00710 24.710066 -76.8228715 0.0 0.0 2010-03-21T04:49:00.426Z
20100321 0450.00708 24.710059 -76.8228695 0.0 0.0 2010-03-21T04:50:00.425Z
20100321 0451.00705 24.71005833 -76.8228705 0.0 0.0 2010-03-21T04:51:00.423Z
20100321 0452.00703 24.71005817 -76.82287433 0.03 222.411 2010-03-21T04:52:00.422Z
20100321 0453.00700 24.71005367 -76.82287617 0.0 0.0 2010-03-21T04:53:00.420Z
20100321 0454.00698 24.71004867 -76.82287317 0.02 270.0 2010-03-21T04:54:00.419Z
20100321 0455.00695 24.71004583 -76.82287667 0.02 90.0 2010-03-21T04:55:00.417Z
20100321 0456.00693 24.71004733 -76.822881 0.0 0.0 2010-03-21T04:56:00.416Z
20100321 0457.00690 24.71004933 -76.82287833 0.0 0.0 2010-03-21T04:57:00.414Z
20100321 0458.00688 24.7100495 -76.8228765 0.02 0.0 2010-03-21T04:58:00.413Z
20100321 0459.00685 24.71005417 -76.82287317 0.0 0.0 2010-03-21T04:59:00.411Z
20100321 0500.00683 24.71005733 -76.82287067 0.0 0.0 2010-03-21T05:00:00.410Z
20100321 0501.00680 24.71005767 -76.82286933 0.02 270.0 2010-03-21T05:01:00.408Z
20100321 0502.00678 24.71005567 -76.822869 0.02 0.0 2010-03-21T05:02:00.407Z
20100321 0503.00675 24.71005633 -76.82286833 0.0 0.0 2010-03-21T05:03:00.405Z
20100321 0504.00672 24.71005733 -76.822869 0.03 224.144 2010-03-21T05:04:00.403Z
20100321 0505.00670 24.71005783 -76.8228735 0.02 0.0 2010-03-21T05:05:00.402Z
20100321 0506.00667 24.71005767 -76.82287617 0.02 90.0 2010-03-21T05:06:00.400Z
20100321 0507.00665 24.7100575 -76.82287783 0.0 0.0 2010-03-21T05:07:00.399Z
20100321 0508.00662 24.71005617 -76.82287733 0.03 139.313 2010-03-21T05:08:00.397Z
20100321 0509.00660 24.710054 -76.82287417 0.02 180.0 2010-03-21T05:09:00.396Z
20100321 0510.00657 24.7100555 -76.8228775 0.02 0.0 2010-03-21T05:10:00.394Z
20100321 0511.00655 24.7100565 -76.82288033 0.02 180.0 2010-03-21T05:11:00.393Z
20100321 0512.00652 24.7100565 -76.8228795 0.0 0.0 2010-03-21T05:12:00.391Z
20100321 0513.00650 24.71005483 -76.82287933 0.02 270.0 2010-03-21T05:13:00.390Z
20100321 0514.00647 24.71005017 -76.82288217 0.0 0.0 2010-03-21T05:14:00.388Z
20100321 0515.00645 24.71005317 -76.82288217 0.02 270.0 2010-03-21T05:15:00.387Z
20100321 0516.00642 24.710057 -76.82287867 0.0 0.0 2010-03-21T05:16:00.385Z
20100321 0517.00640 24.7100575 -76.82287833 0.0 0.0 2010-03-21T05:17:00.384Z
20100321 0518.00637 24.71005933 -76.82288033 0.0 0.0 2010-03-21T05:18:00.382Z
20100321 0519.00635 24.7100575 -76.82288017 0.02 180.0 2010-03-21T05:19:00.381Z
20100321 0520.00632 24.710054 -76.8228755 0.0 0.0 2010-03-21T05:20:00.379Z
20100321 0521.00628 24.71005417 -76.82287383 0.02 0.0 2010-03-21T05:21:00.377Z
20100321 0522.00627 24.7100575 -76.82287583 0.03 317.589 2010-03-21T05:22:00.376Z
20100321 0523.00623 24.71005883 -76.822879 0.0 0.0 2010-03-21T05:23:00.374Z
20100321 0524.00622 24.71006183 -76.82287983 0.0 0.0 2010-03-21T05:24:00.373Z
20100321 0525.00618 24.71006233 -76.8228785 0.0 0.0 2010-03-21T05:25:00.371Z
20100321 0526.00617 24.71006567 -76.82288133 0.0 0.0 2010-03-21T05:26:00.370Z
20100321 0527.00613 24.71006683 -76.82288367 0.0 0.0 2010-03-21T05:27:00.368Z
20100321 0528.00612 24.71006783 -76.82288267 0.04 180.0 2010-03-21T05:28:00.367Z
20100321 0529.00608 24.71006433 -76.82288 0.02 180.0 2010-03-21T05:29:00.365Z
20100321 0530.00607 24.71006167 -76.82287933 0.03 315.856 2010-03-21T05:30:00.364Z
20100321 0531.00603 24.71006667 -76.8228825 0.02 270.0 2010-03-21T05:31:00.362Z
20100321 0532.00602 24.71006267 -76.82288117 0.02 90.0 2010-03-21T05:32:00.361Z
20100321 0533.00598 24.71006133 -76.82287983 0.0 0.0 2010-03-21T05:33:00.359Z
20100321 0534.00597 24.710061 -76.8228835 0.04 240.579 2010-03-21T05:34:00.358Z
20100321 0535.00593 24.71005883 -76.82288967 0.02 270.0 2010-03-21T05:35:00.356Z
20100321 0536.00592 24.71005983 -76.822889 0.04 180.0 2010-03-21T05:36:00.355Z
20100321 0537.00588 24.71005467 -76.82288783 0.0 0.0 2010-03-21T05:37:00.353Z
20100321 0538.00587 24.71005433 -76.82288867 0.02 0.0 2010-03-21T05:38:00.352Z
20100321 0539.00583 24.710057 -76.82288817 0.03 42.411 2010-03-21T05:39:00.350Z
20100321 0540.00580 24.71006083 -76.82289167 0.02 180.0 2010-03-21T05:40:00.348Z
20100321 0541.00578 24.710063 -76.82289233 0.0 0.0 2010-03-21T05:41:00.347Z
20100321 0542.00575 24.710065 -76.82289283 0.02 180.0 2010-03-21T05:42:00.345Z
20100321 0543.00573 24.71006317 -76.82288983 0.02 270.0 2010-03-21T05:43:00.344Z
20100321 0544.00570 24.71006283 -76.82288717 0.03 135.856 2010-03-21T05:44:00.342Z
20100321 0545.00568 24.71006267 -76.8228855 0.0 0.0 2010-03-21T05:45:00.341Z
20100321 0546.00565 24.71006283 -76.82288433 0.0 0.0 2010-03-21T05:46:00.339Z
20100321 0547.00563 24.7100565 -76.8228875 0.02 270.0 2010-03-21T05:47:00.338Z
20100321 0548.00560 24.71005217 -76.82288467 0.0 0.0 2010-03-21T05:48:00.336Z
20100321 0549.00558 24.71005267 -76.82288317 0.02 0.0 2010-03-21T05:49:00.335Z
20100321 0550.00555 24.7100525 -76.82288217 0.0 0.0 2010-03-21T05:50:00.333Z
20100321 0551.00553 24.710053 -76.82288167 0.02 180.0 2010-03-21T05:51:00.332Z
20100321 0552.00550 24.71005 -76.82287167 0.02 90.0 2010-03-21T05:52:00.330Z
20100321 0553.00548 24.71004933 -76.82286917 0.0 0.0 2010-03-21T05:53:00.329Z
20100321 0554.00545 24.71005067 -76.82287217 0.0 0.0 2010-03-21T05:54:00.327Z
20100321 0555.00543 24.71004817 -76.822875 0.02 180.0 2010-03-21T05:55:00.326Z
20100321 0556.00540 24.7100455 -76.82288017 0.03 220.687 2010-03-21T05:56:00.324Z
20100321 0556.98872 24.71004333 -76.82288867 0.02 299.421 2010-03-21T05:56:59.323Z
20100321 0558.00535 24.7100445 -76.82289567 0.02 270.0 2010-03-21T05:58:00.321Z
20100321 0559.00532 24.71004483 -76.82289467 0.02 90.0 2010-03-21T05:59:00.319Z
20100321 0600.00530 24.710044 -76.82289367 0.02 180.0 2010-03-21T06:00:00.318Z
20100321 0601.00527 24.71004633 -76.82289217 0.0 0.0 2010-03-21T06:01:00.316Z
20100321 0602.00525 24.71004983 -76.82288733 0.02 90.0 2010-03-21T06:02:00.315Z
20100321 0603.00522 24.7100475 -76.82288183 0.0 0.0 2010-03-21T06:03:00.313Z
20100321 0604.00520 24.71004883 -76.8228835 0.0 0.0 2010-03-21T06:04:00.312Z
20100321 0605.00517 24.71004783 -76.82288517 0.02 222.411 2010-03-21T06:05:00.310Z
20100321 0606.00515 24.71004717 -76.8228835 0.03 270.0 2010-03-21T06:06:00.309Z
20100321 0607.00512 24.71004683 -76.8228865 0.02 0.0 2010-03-21T06:07:00.307Z
20100321 0608.00510 24.710045 -76.82289 0.03 317.589 2010-03-21T06:08:00.306Z
20100321 0609.00507 24.7100475 -76.8228915 0.03 317.589 2010-03-21T06:09:00.304Z
20100321 0610.00505 24.7100495 -76.8228925 0.02 0.0 2010-03-21T06:10:00.303Z
20100321 0611.00502 24.71005317 -76.8228875 0.02 90.0 2010-03-21T06:11:00.301Z
20100321 0612.00500 24.710054 -76.82287983 0.03 90.0 2010-03-21T06:12:00.300Z
20100321 0613.00497 24.71005567 -76.82286883 0.02 42.411 2010-03-21T06:13:00.298Z
20100321 0614.00495 24.71005483 -76.82286483 0.03 224.144 2010-03-21T06:14:00.297Z
20100321 0615.00492 24.71004967 -76.8228685 0.0 0.0 2010-03-21T06:15:00.295Z
20100321 0616.00490 24.71004667 -76.82287183 0.0 0.0 2010-03-21T06:16:00.294Z
20100321 0617.00487 24.71004533 -76.8228745 0.03 224.144 2010-03-21T06:17:00.292Z
20100321 0618.00483 24.71004533 -76.82288 0.02 270.0 2010-03-21T06:18:00.290Z
20100321 0619.00482 24.71004567 -76.82288517 0.03 220.687 2010-03-21T06:19:00.289Z
20100321 0620.00478 24.71004683 -76.82288933 0.03 40.687 2010-03-21T06:20:00.287Z
20100321 0621.00477 24.7100525 -76.822888 0.02 90.0 2010-03-21T06:21:00.286Z
20100321 0622.00473 24.71005283 -76.82288517 0.03 135.856 2010-03-21T06:22:00.284Z
20100321 0623.00472 24.71004967 -76.822877 0.02 180.0 2010-03-21T06:23:00.283Z
20100321 0624.00468 24.71005117 -76.82287567 0.02 270.0 2010-03-21T06:24:00.281Z
20100321 0625.00467 24.71005433 -76.82287933 0.0 0.0 2010-03-21T06:25:00.280Z
20100321 0626.00463 24.7100595 -76.82288217 0.02 0.0 2010-03-21T06:26:00.278Z
20100321 0627.00462 24.7100605 -76.82288517 0.0 0.0 2010-03-21T06:27:00.277Z
20100321 0628.00458 24.710057 -76.822885 0.0 0.0 2010-03-21T06:28:00.275Z
20100321 0629.00457 24.71005583 -76.8228855 0.0 0.0 2010-03-21T06:29:00.274Z
20100321 0630.00453 24.71005633 -76.822888 0.02 270.0 2010-03-21T06:30:00.272Z
20100321 0631.00452 24.71005567 -76.82289217 0.0 0.0 2010-03-21T06:31:00.271Z
20100321 0632.00448 24.71005783 -76.8228935 0.04 299.421 2010-03-21T06:32:00.269Z
20100321 0633.00447 24.71005833 -76.8228965 0.02 0.0 2010-03-21T06:33:00.268Z
20100321 0634.00443 24.71005833 -76.82289617 0.0 0.0 2010-03-21T06:34:00.266Z
20100321 0635.00442 24.71005967 -76.822889 0.02 180.0 2010-03-21T06:35:00.265Z
20100321 0636.00438 24.71006083 -76.822883 0.02 90.0 2010-03-21T06:36:00.263Z
20100321 0637.00435 24.71006217 -76.8228795 0.0 0.0 2010-03-21T06:37:00.261Z
20100321 0638.00433 24.71006383 -76.8228775 0.03 135.856 2010-03-21T06:38:00.260Z
20100321 0639.00430 24.710061 -76.82287583 0.03 40.687 2010-03-21T06:39:00.258Z
20100321 0640.00428 24.71006 -76.822875 0.03 222.411 2010-03-21T06:40:00.257Z
20100321 0641.00425 24.71005833 -76.8228765 0.02 270.0 2010-03-21T06:41:00.255Z
20100321 0642.00423 24.71006167 -76.82287867 0.04 297.958 2010-03-21T06:42:00.254Z
20100321 0643.00420 24.71006617 -76.82288467 0.02 0.0 2010-03-21T06:43:00.252Z
20100321 0644.00418 24.71006817 -76.82287833 0.02 180.0 2010-03-21T06:44:00.251Z
20100321 0645.00415 24.71005833 -76.822882 0.0 0.0 2010-03-21T06:45:00.249Z
20100321 0646.00413 24.71005467 -76.8228845 0.0 0.0 2010-03-21T06:46:00.248Z
20100321 0647.00410 24.7100555 -76.82288283 0.0 0.0 2010-03-21T06:47:00.246Z
20100321 0648.00408 24.71005317 -76.8228825 0.02 270.0 2010-03-21T06:48:00.245Z
20100321 0649.00405 24.71005433 -76.82288467 0.02 0.0 2010-03-21T06:49:00.243Z
20100321 0650.00403 24.71005517 -76.82288483 0.0 0.0 2010-03-21T06:50:00.242Z
20100321 0651.00400 24.71005817 -76.8228825 0.0 0.0 2010-03-21T06:51:00.240Z
20100321 0652.00398 24.71006183 -76.82287983 0.02 90.0 2010-03-21T06:52:00.239Z
20100321 0653.00395 24.710061 -76.82287333 0.02 90.0 2010-03-21T06:53:00.237Z
20100321 0654.00393 24.71006133 -76.82287067 0.03 42.411 2010-03-21T06:54:00.236Z
20100321 0655.00390 24.710064 -76.82287017 0.03 42.411 2010-03-21T06:55:00.234Z
20100321 0656.00387 24.71006333 -76.82286783 0.0 0.0 2010-03-21T06:56:00.232Z
20100321 0657.00385 24.71006483 -76.82287 0.0 0.0 2010-03-21T06:57:00.231Z
20100321 0658.00382 24.71006683 -76.8228705 0.03 317.589 2010-03-21T06:58:00.229Z
20100321 0659.00380 24.71006817 -76.82287217 0.0 0.0 2010-03-21T06:59:00.228Z
20100321 0700.00377 24.71006217 -76.8228705 0.0 0.0 2010-03-21T07:00:00.226Z
20100321 0701.00375 24.71005783 -76.82287017 0.02 90.0 2010-03-21T07:01:00.225Z
20100321 0702.00372 24.71005617 -76.82286867 0.0 0.0 2010-03-21T07:02:00.223Z
20100321 0703.00370 24.7100595 -76.82286783 0.0 0.0 2010-03-21T07:03:00.222Z
20100321 0704.00367 24.71005617 -76.82287033 0.03 222.411 2010-03-21T07:04:00.220Z
20100321 0705.00365 24.7100545 -76.82286917 0.03 137.589 2010-03-21T07:05:00.219Z
20100321 0706.00362 24.71005433 -76.8228665 0.03 224.144 2010-03-21T07:06:00.217Z
20100321 0707.00360 24.710053 -76.82287467 0.02 270.0 2010-03-21T07:07:00.216Z
20100321 0708.00357 24.71005767 -76.822877 0.02 180.0 2010-03-21T07:08:00.214Z
20100321 0709.00355 24.7100555 -76.82288217 0.0 0.0 2010-03-21T07:09:00.213Z
20100321 0710.00352 24.7100555 -76.822876 0.06 54.151 2010-03-21T07:10:00.211Z
20100321 0711.00350 24.7100575 -76.82286717 0.0 0.0 2010-03-21T07:11:00.210Z
20100321 0712.00347 24.7100515 -76.82286567 0.02 90.0 2010-03-21T07:12:00.208Z
20100321 0713.00345 24.71005567 -76.82286467 0.02 317.589 2010-03-21T07:13:00.207Z
20100321 0714.00342 24.71005333 -76.82286883 0.03 224.144 2010-03-21T07:14:00.205Z
20100321 0715.00338 24.710052 -76.822875 0.0 0.0 2010-03-21T07:15:00.203Z
20100321 0716.00337 24.71005383 -76.82287833 0.02 270.0 2010-03-21T07:16:00.202Z
20100321 0717.00333 24.710054 -76.82288217 0.02 270.0 2010-03-21T07:17:00.200Z
20100321 0718.00332 24.71005167 -76.8228785 0.03 137.589 2010-03-21T07:18:00.199Z
20100321 0719.00328 24.710053 -76.822877 0.0 0.0 2010-03-21T07:19:00.197Z
20100321 0720.00327 24.7100565 -76.82287383 0.02 0.0 2010-03-21T07:20:00.196Z
20100321 0721.00323 24.71005683 -76.822876 0.02 90.0 2010-03-21T07:21:00.194Z
20100321 0722.00322 24.7100555 -76.822874 0.02 90.0 2010-03-21T07:22:00.193Z
20100321 0723.00318 24.710051 -76.82287517 0.0 0.0 2010-03-21T07:23:00.191Z
20100321 0724.00317 24.710047 -76.82287467 0.03 319.313 2010-03-21T07:24:00.190Z
20100321 0725.00313 24.7100505 -76.8228775 0.0 0.0 2010-03-21T07:25:00.188Z
20100321 0726.00312 24.710049 -76.822879 0.03 42.411 2010-03-21T07:26:00.187Z
20100321 0727.00308 24.710054 -76.82287583 0.02 0.0 2010-03-21T07:27:00.185Z
20100321 0728.00307 24.71005733 -76.8228785 0.0 0.0 2010-03-21T07:28:00.184Z
20100321 0729.00303 24.71005767 -76.8228825 0.02 0.0 2010-03-21T07:29:00.182Z
20100321 0730.00302 24.71006133 -76.82288167 0.0 0.0 2010-03-21T07:30:00.181Z
20100321 0731.00298 24.710062 -76.82288133 0.0 0.0 2010-03-21T07:31:00.179Z
20100321 0732.00297 24.71006233 -76.82288367 0.02 180.0 2010-03-21T07:32:00.178Z
20100321 0733.00293 24.7100575 -76.82288517 0.0 0.0 2010-03-21T07:33:00.176Z
20100321 0734.00290 24.7100555 -76.822885 0.02 90.0 2010-03-21T07:34:00.174Z
20100321 0735.00288 24.71005583 -76.82288733 0.02 270.0 2010-03-21T07:35:00.173Z
20100321 0736.00285 24.7100605 -76.8228885 0.04 25.201 2010-03-21T07:36:00.171Z
20100321 0737.00283 24.71006567 -76.822887 0.02 90.0 2010-03-21T07:37:00.170Z
20100321 0738.00280 24.71006583 -76.82288667 0.04 61.306 2010-03-21T07:38:00.168Z
20100321 0739.00278 24.71006767 -76.8228825 0.03 44.144 2010-03-21T07:39:00.167Z
20100321 0740.00275 24.71006867 -76.8228765 0.03 44.144 2010-03-21T07:40:00.165Z
20100321 0741.00273 24.71007 -76.82287617 0.0 0.0 2010-03-21T07:41:00.164Z
20100321 0742.00270 24.710069 -76.8228785 0.03 317.589 2010-03-21T07:42:00.162Z
20100321 0743.00268 24.71006717 -76.82287933 0.02 90.0 2010-03-21T07:43:00.161Z
20100321 0744.00265 24.71006683 -76.82288067 0.0 0.0 2010-03-21T07:44:00.159Z
20100321 0745.00263 24.710067 -76.822877 0.02 90.0 2010-03-21T07:45:00.158Z
20100321 0746.00260 24.71006283 -76.822877 0.02 270.0 2010-03-21T07:46:00.156Z
20100321 0747.00258 24.7100625 -76.82287617 0.02 180.0 2010-03-21T07:47:00.155Z
20100321 0748.00255 24.71006133 -76.82287917 0.02 270.0 2010-03-21T07:48:00.153Z
20100321 0749.00253 24.71006233 -76.82287933 0.0 0.0 2010-03-21T07:49:00.152Z
20100321 0750.00250 24.71006283 -76.8228795 0.03 270.0 2010-03-21T07:50:00.150Z
20100321 0751.00248 24.71006333 -76.822883 0.0 0.0 2010-03-21T07:51:00.149Z
20100321 0752.00245 24.71006267 -76.8228855 0.04 180.0 2010-03-21T07:52:00.147Z
20100321 0753.00242 24.71005833 -76.8228815 0.0 0.0 2010-03-21T07:53:00.145Z
20100321 0754.00240 24.71005883 -76.8228725 0.0 0.0 2010-03-21T07:54:00.144Z
20100321 0755.00237 24.71005667 -76.82287017 0.02 270.0 2010-03-21T07:55:00.142Z
20100321 0756.00235 24.71005383 -76.822871 0.02 270.0 2010-03-21T07:56:00.141Z
20100321 0757.00232 24.7100555 -76.82287667 0.0 0.0 2010-03-21T07:57:00.139Z
20100321 0758.00230 24.71005767 -76.82287783 0.0 0.0 2010-03-21T07:58:00.138Z
20100321 0759.00227 24.710058 -76.82287883 0.0 0.0 2010-03-21T07:59:00.136Z
20100321 0800.00225 24.71005533 -76.82288083 0.02 137.589 2010-03-21T08:00:00.135Z
20100321 0801.00222 24.71005183 -76.82287817 0.03 42.411 2010-03-21T08:01:00.133Z
20100321 0802.00220 24.7100535 -76.82287617 0.02 0.0 2010-03-21T08:02:00.132Z
20100321 0803.00217 24.71005733 -76.82287583 0.02 0.0 2010-03-21T08:03:00.130Z
20100321 0804.00215 24.71006067 -76.82287533 0.02 0.0 2010-03-21T08:04:00.129Z
20100321 0805.00212 24.7100645 -76.82287667 0.0 0.0 2010-03-21T08:05:00.127Z
20100321 0806.00210 24.710067 -76.82287967 0.0 0.0 2010-03-21T08:06:00.126Z
20100321 0807.00207 24.71006333 -76.822875 0.02 90.0 2010-03-21T08:07:00.124Z
20100321 0808.00205 24.7100615 -76.82286883 0.03 139.313 2010-03-21T08:08:00.123Z
20100321 0809.00202 24.710058 -76.82286367 0.02 270.0 2010-03-21T08:09:00.121Z
20100321 0810.00200 24.7100595 -76.82286533 0.02 270.0 2010-03-21T08:10:00.120Z
20100321 0811.00197 24.710061 -76.82287 0.02 90.0 2010-03-21T08:11:00.118Z
20100321 0812.00193 24.71006483 -76.82286917 0.03 135.856 2010-03-21T08:12:00.116Z
20100321 0813.00192 24.71005983 -76.82287 0.0 0.0 2010-03-21T08:13:00.115Z
20100321 0814.00188 24.71005633 -76.82286683 0.0 0.0 2010-03-21T08:14:00.113Z
20100321 0815.00187 24.71005433 -76.822864 0.03 135.856 2010-03-21T08:15:00.112Z
20100321 0816.00183 24.71005167 -76.82286283 0.02 90.0 2010-03-21T08:16:00.110Z
20100321 0817.00182 24.7100515 -76.8228615 0.03 137.589 2010-03-21T08:17:00.109Z
20100321 0818.00178 24.71005367 -76.82286133 0.02 90.0 2010-03-21T08:18:00.107Z
20100321 0819.00177 24.710056 -76.8228635 0.03 317.589 2010-03-21T08:19:00.106Z
20100321 0820.00173 24.71006017 -76.82286383 0.0 0.0 2010-03-21T08:20:00.104Z
20100321 0821.00172 24.71006 -76.82286817 0.0 0.0 2010-03-21T08:21:00.103Z
20100321 0822.00168 24.710061 -76.8228685 0.0 0.0 2010-03-21T08:22:00.101Z
20100321 0823.00167 24.710057 -76.82286933 0.02 180.0 2010-03-21T08:23:00.100Z
20100321 0824.00163 24.71005283 -76.82287417 0.0 0.0 2010-03-21T08:24:00.098Z
20100321 0825.00162 24.71005217 -76.82287483 0.02 90.0 2010-03-21T08:25:00.097Z
20100321 0826.00158 24.710055 -76.82287467 0.02 90.0 2010-03-21T08:26:00.095Z
20100321 0827.00157 24.71005683 -76.82287317 0.02 0.0 2010-03-21T08:27:00.094Z
20100321 0828.00153 24.71005917 -76.82287517 0.0 0.0 2010-03-21T08:28:00.092Z
20100321 0829.00152 24.710062 -76.82287833 0.02 0.0 2010-03-21T08:29:00.091Z
20100321 0830.00148 24.7100645 -76.82287767 0.02 270.0 2010-03-21T08:30:00.089Z
20100321 0831.00145 24.71006083 -76.8228755 0.02 90.0 2010-03-21T08:31:00.087Z
20100321 0832.00143 24.71005517 -76.82287433 0.02 180.0 2010-03-21T08:32:00.086Z
20100321 0833.00140 24.71005017 -76.82287433 0.0 0.0 2010-03-21T08:33:00.084Z
20100321 0834.00138 24.71005 -76.8228715 0.02 270.0 2010-03-21T08:34:00.083Z
20100321 0835.00135 24.710054 -76.82287617 0.02 90.0 2010-03-21T08:35:00.081Z
20100321 0836.00133 24.71005683 -76.82287733 0.0 0.0 2010-03-21T08:36:00.080Z
20100321 0837.00130 24.71005917 -76.82287717 0.02 270.0 2010-03-21T08:37:00.078Z
20100321 0838.00128 24.71006 -76.82287567 0.03 270.0 2010-03-21T08:38:00.077Z
20100321 0839.00125 24.710059 -76.82288467 0.02 180.0 2010-03-21T08:39:00.075Z
20100321 0840.00123 24.710057 -76.8228875 0.03 317.589 2010-03-21T08:40:00.074Z
20100321 0841.00120 24.71006167 -76.82288883 0.02 270.0 2010-03-21T08:41:00.072Z
20100321 0842.00118 24.710059 -76.82288883 0.02 90.0 2010-03-21T08:42:00.071Z
20100321 0843.00115 24.71005717 -76.8228845 0.02 90.0 2010-03-21T08:43:00.069Z
20100321 0844.00113 24.710054 -76.82288317 0.04 61.306 2010-03-21T08:44:00.068Z
20100321 0845.00110 24.710053 -76.82287733 0.0 0.0 2010-03-21T08:45:00.066Z
20100321 0846.00108 24.71005517 -76.8228785 0.02 0.0 2010-03-21T08:46:00.065Z
20100321 0847.00105 24.71005433 -76.82287967 0.0 0.0 2010-03-21T08:47:00.063Z
20100321 0848.00103 24.71005317 -76.82288283 0.02 0.0 2010-03-21T08:48:00.062Z
20100321 0849.00100 24.71005633 -76.8228835 0.0 0.0 2010-03-21T08:49:00.060Z
20100321 0850.00097 24.71005783 -76.82288583 0.02 0.0 2010-03-21T08:50:00.058Z
20100321 0851.00095 24.71005983 -76.822889 0.02 0.0 2010-03-21T08:51:00.057Z
20100321 0852.00092 24.71005683 -76.8228895 0.02 270.0 2010-03-21T08:52:00.055Z
20100321 0853.00090 24.71005433 -76.8228955 0.0 0.0 2010-03-21T08:53:00.054Z
20100321 0854.00087 24.71005217 -76.82289833 0.03 315.856 2010-03-21T08:54:00.052Z
20100321 0855.00085 24.710056 -76.82289883 0.02 270.0 2010-03-21T08:55:00.051Z
20100321 0856.00082 24.71005617 -76.82289383 0.03 90.0 2010-03-21T08:56:00.049Z
20100321 0857.00080 24.71005433 -76.82288767 0.02 0.0 2010-03-21T08:57:00.048Z
20100321 0858.00077 24.71005333 -76.8228855 0.02 180.0 2010-03-21T08:58:00.046Z
20100321 0859.00075 24.710049 -76.822888 0.0 0.0 2010-03-21T08:59:00.045Z
20100321 0900.00072 24.71005083 -76.822887 0.02 90.0 2010-03-21T09:00:00.043Z
20100321 0901.00070 24.710049 -76.82288267 0.0 0.0 2010-03-21T09:01:00.042Z
20100321 0902.00067 24.710052 -76.82288317 0.02 0.0 2010-03-21T09:02:00.040Z
20100321 0903.00065 24.7100535 -76.82288383 0.0 0.0 2010-03-21T09:03:00.039Z
20100321 0904.00062 24.71005167 -76.82288533 0.02 90.0 2010-03-21T09:04:00.037Z
20100321 0905.00060 24.71004933 -76.82288317 0.02 90.0 2010-03-21T09:05:00.036Z
20100321 0906.00057 24.7100535 -76.8228785 0.02 0.0 2010-03-21T09:06:00.034Z
20100321 0907.00055 24.71005767 -76.82287983 0.0 0.0 2010-03-21T09:07:00.033Z
20100321 0908.00052 24.71006033 -76.82288 0.02 90.0 2010-03-21T09:08:00.031Z
20100321 0909.00050 24.71005667 -76.82287967 0.02 90.0 2010-03-21T09:09:00.030Z
20100321 0910.00047 24.71005467 -76.822879 0.03 44.144 2010-03-21T09:10:00.028Z
20100321 0911.00043 24.71005167 -76.82287783 0.02 180.0 2010-03-21T09:11:00.026Z
20100321 0912.00042 24.7100505 -76.8228775 0.02 180.0 2010-03-21T09:12:00.025Z
20100321 0913.00038 24.71004983 -76.8228775 0.02 0.0 2010-03-21T09:13:00.023Z
20100321 0914.00037 24.71005133 -76.82287883 0.02 90.0 2010-03-21T09:14:00.022Z
20100321 0915.00033 24.7100505 -76.8228745 0.0 0.0 2010-03-21T09:15:00.020Z
20100321 0916.00032 24.71004983 -76.822877 0.02 180.0 2010-03-21T09:16:00.019Z
20100321 0917.00028 24.71005 -76.8228755 0.03 42.411 2010-03-21T09:17:00.017Z
20100321 0918.00027 24.71004933 -76.822875 0.03 42.411 2010-03-21T09:18:00.016Z
20100321 0919.00023 24.71005083 -76.82287083 0.02 90.0 2010-03-21T09:19:00.014Z
20100321 0920.00022 24.71005117 -76.822869 0.02 90.0 2010-03-21T09:20:00.013Z
20100321 0921.00018 24.71005667 -76.822865 0.0 0.0 2010-03-21T09:21:00.011Z
20100321 0922.00017 24.71005767 -76.82286017 0.02 180.0 2010-03-21T09:22:00.010Z
20100321 0923.00013 24.710054 -76.82286017 0.02 0.0 2010-03-21T09:23:00.008Z
20100321 0924.00012 24.71004983 -76.82286133 0.0 0.0 2010-03-21T09:24:00.007Z
20100321 0925.00008 24.71005167 -76.82286683 0.02 270.0 2010-03-21T09:25:00.005Z
20100321 0926.00007 24.710055 -76.8228685 0.0 0.0 2010-03-21T09:26:00.004Z
20100321 0927.00003 24.7100595 -76.82286817 0.0 0.0 2010-03-21T09:27:00.002Z
20100321 0928.00002 24.71005967 -76.82286633 0.0 0.0 2010-03-21T09:28:00.001Z
20100321 0928.99998 24.71006183 -76.82287017 0.0 0.0 2010-03-21T09:28:59.999Z
20100321 0929.99995 24.71006033 -76.82287033 0.02 137.589 2010-03-21T09:29:59.997Z
20100321 0930.99993 24.71006133 -76.82287133 0.02 0.0 2010-03-21T09:30:59.996Z
20100321 0931.99990 24.71006333 -76.82287333 0.02 137.589 2010-03-21T09:31:59.994Z
20100321 0932.99988 24.71006233 -76.82287383 0.02 180.0 2010-03-21T09:32:59.993Z
20100321 0933.99985 24.71006117 -76.8228795 0.02 180.0 2010-03-21T09:33:59.991Z
20100321 0934.99983 24.71005783 -76.822879 0.04 205.201 2010-03-21T09:34:59.990Z
20100321 0935.99980 24.71005517 -76.82287917 0.02 180.0 2010-03-21T09:35:59.988Z
20100321 0936.99978 24.71005483 -76.82287783 0.0 0.0 2010-03-21T09:36:59.987Z
20100321 0937.99975 24.7100535 -76.82287933 0.0 0.0 2010-03-21T09:37:59.985Z
20100321 0938.99973 24.71005183 -76.82287917 0.0 0.0 2010-03-21T09:38:59.984Z
20100321 0939.99970 24.71005183 -76.82287883 0.02 0.0 2010-03-21T09:39:59.982Z
20100321 0940.99968 24.71005617 -76.822882 0.02 180.0 2010-03-21T09:40:59.981Z
20100321 0941.99965 24.710059 -76.82288533 0.04 334.799 2010-03-21T09:41:59.979Z
20100321 0942.99963 24.7100645 -76.8228865 0.02 180.0 2010-03-21T09:42:59.978Z
20100321 0943.99960 24.71006333 -76.82288117 0.04 180.0 2010-03-21T09:43:59.976Z
20100321 0944.99958 24.71006167 -76.82288383 0.02 270.0 2010-03-21T09:44:59.975Z
20100321 0945.99955 24.71006133 -76.82288483 0.02 270.0 2010-03-21T09:45:59.973Z
20100321 0946.99953 24.71005817 -76.82289017 0.0 0.0 2010-03-21T09:46:59.972Z
20100321 0947.99950 24.71005517 -76.82289117 0.02 0.0 2010-03-21T09:47:59.970Z
20100321 0948.99947 24.71005617 -76.82288617 0.03 44.144 2010-03-21T09:48:59.968Z
20100321 0949.99945 24.7100555 -76.8228805 0.05 42.411 2010-03-21T09:49:59.967Z
20100321 0950.99942 24.71006017 -76.8228745 0.02 180.0 2010-03-21T09:50:59.965Z
20100321 0951.99940 24.710062 -76.822874 0.02 90.0 2010-03-21T09:51:59.964Z
20100321 0952.99937 24.71006317 -76.82286983 0.0 0.0 2010-03-21T09:52:59.962Z
20100321 0953.99935 24.71006233 -76.822867 0.0 0.0 2010-03-21T09:53:59.961Z
20100321 0954.99932 24.7100605 -76.82286917 0.0 0.0 2010-03-21T09:54:59.959Z
20100321 0955.99930 24.710059 -76.82287467 0.02 0.0 2010-03-21T09:55:59.958Z
20100321 0956.99927 24.71006167 -76.82287483 0.0 0.0 2010-03-21T09:56:59.956Z
20100321 0957.99925 24.71005783 -76.82287433 0.02 180.0 2010-03-21T09:57:59.955Z
20100321 0958.99922 24.71005717 -76.82287517 0.02 90.0 2010-03-21T09:58:59.953Z
20100321 0959.99920 24.71006033 -76.8228715 0.02 180.0 2010-03-21T09:59:59.952Z
20100321 1000.99917 24.71006717 -76.82286767 0.02 270.0 2010-03-21T10:00:59.950Z
20100321 1001.99915 24.71006867 -76.82287017 0.02 180.0 2010-03-21T10:01:59.949Z
20100321 1002.99912 24.71006433 -76.82287183 0.0 0.0 2010-03-21T10:02:59.947Z
20100321 1003.99910 24.71006217 -76.82287233 0.02 90.0 2010-03-21T10:03:59.946Z
20100321 1004.99907 24.71006133 -76.82286967 0.02 270.0 2010-03-21T10:04:59.944Z
20100321 1005.99905 24.71005933 -76.8228685 0.0 0.0 2010-03-21T10:05:59.943Z
20100321 1006.99902 24.71005567 -76.82287 0.02 180.0 2010-03-21T10:06:59.941Z
20100321 1007.99898 24.7100515 -76.82287467 0.02 270.0 2010-03-21T10:07:59.939Z
20100321 1008.99897 24.71005317 -76.822874 0.02 90.0 2010-03-21T10:08:59.938Z
20100321 1009.99893 24.71005533 -76.82287133 0.02 90.0 2010-03-21T10:09:59.936Z
20100321 1010.99892 24.71005217 -76.8228665 0.0 0.0 2010-03-21T10:10:59.935Z
20100321 1011.99888 24.71005167 -76.82286667 0.02 317.589 2010-03-21T10:11:59.933Z
20100321 1012.99887 24.710057 -76.82287017 0.0 0.0 2010-03-21T10:12:59.932Z
20100321 1013.99883 24.71005883 -76.82286967 0.0 0.0 2010-03-21T10:13:59.930Z
20100321 1014.99882 24.710053 -76.82287133 0.0 0.0 2010-03-21T10:14:59.929Z
20100321 1015.99878 24.7100515 -76.82287017 0.02 0.0 2010-03-21T10:15:59.927Z
20100321 1016.99877 24.71005233 -76.82287283 0.0 0.0 2010-03-21T10:16:59.926Z
20100321 1017.99873 24.71005683 -76.82286933 0.02 270.0 2010-03-21T10:17:59.924Z
20100321 1018.99872 24.710058 -76.82286983 0.0 0.0 2010-03-21T10:18:59.923Z
20100321 1019.99868 24.71005783 -76.82287167 0.0 0.0 2010-03-21T10:19:59.921Z
20100321 1020.99867 24.710056 -76.82287233 0.02 90.0 2010-03-21T10:20:59.920Z
20100321 1021.99863 24.71005683 -76.82287117 0.02 0.0 2010-03-21T10:21:59.918Z
20100321 1022.99862 24.71005783 -76.82287233 0.03 40.687 2010-03-21T10:22:59.917Z
20100321 1023.99858 24.7100605 -76.82286733 0.03 139.313 2010-03-21T10:23:59.915Z
20100321 1024.99857 24.71006 -76.82286433 0.02 90.0 2010-03-21T10:24:59.914Z
20100321 1025.99853 24.71006217 -76.8228645 0.02 270.0 2010-03-21T10:25:59.912Z
20100321 1026.99850 24.7100625 -76.8228665 0.02 180.0 2010-03-21T10:26:59.910Z
20100321 1027.99848 24.710063 -76.822867 0.03 222.411 2010-03-21T10:27:59.909Z
20100321 1028.99845 24.71006317 -76.822869 0.02 180.0 2010-03-21T10:28:59.907Z
20100321 1029.99843 24.710061 -76.822874 0.04 240.579 2010-03-21T10:29:59.906Z
20100321 1030.99840 24.71005917 -76.8228845 0.02 180.0 2010-03-21T10:30:59.904Z
20100321 1031.99838 24.7100575 -76.82288333 0.04 119.421 2010-03-21T10:31:59.903Z
20100321 1032.99835 24.71005617 -76.8228785 0.0 0.0 2010-03-21T10:32:59.901Z
20100321 1033.99833 24.71005533 -76.82287483 0.0 0.0 2010-03-21T10:33:59.900Z
20100321 1034.99830 24.71005433 -76.82287133 0.03 40.687 2010-03-21T10:34:59.898Z
20100321 1035.99828 24.710054 -76.82287017 0.0 0.0 2010-03-21T10:35:59.897Z
20100321 1036.99825 24.71005117 -76.822872 0.02 270.0 2010-03-21T10:36:59.895Z
20100321 1037.99823 24.710051 -76.82287367 0.0 0.0 2010-03-21T10:37:59.894Z
20100321 1038.99820 24.710052 -76.82287883 0.02 90.0 2010-03-21T10:38:59.892Z
20100321 1039.99818 24.710055 -76.822882 0.03 42.411 2010-03-21T10:39:59.891Z
20100321 1040.99815 24.71005733 -76.82288233 0.02 90.0 2010-03-21T10:40:59.889Z
20100321 1041.99813 24.71006217 -76.82288067 0.03 137.589 2010-03-21T10:41:59.888Z
20100321 1042.99810 24.71006383 -76.822878 0.02 90.0 2010-03-21T10:42:59.886Z
20100321 1043.99808 24.71006517 -76.82287433 0.0 0.0 2010-03-21T10:43:59.885Z
20100321 1044.99805 24.710065 -76.82287683 0.02 180.0 2010-03-21T10:44:59.883Z
20100321 1045.99803 24.710063 -76.8228795 0.0 0.0 2010-03-21T10:45:59.882Z
20100321 1046.99800 24.71006133 -76.82288183 0.0 0.0 2010-03-21T10:46:59.880Z
20100321 1047.99797 24.7100585 -76.82288133 0.03 40.687 2010-03-21T10:47:59.878Z
20100321 1048.99795 24.71005967 -76.82287717 0.0 0.0 2010-03-21T10:48:59.877Z
20100321 1049.99792 24.71005967 -76.82287683 0.02 90.0 2010-03-21T10:49:59.875Z
20100321 1050.99790 24.71005833 -76.822876 0.03 42.411 2010-03-21T10:50:59.874Z
20100321 1051.99787 24.71006083 -76.8228735 0.0 0.0 2010-03-21T10:51:59.872Z
20100321 1052.99785 24.71006167 -76.82286883 0.0 0.0 2010-03-21T10:52:59.871Z
20100321 1053.99782 24.710061 -76.82286767 0.03 90.0 2010-03-21T10:53:59.869Z
20100321 1054.99780 24.71006117 -76.82286367 0.02 90.0 2010-03-21T10:54:59.868Z
20100321 1055.99777 24.71006033 -76.82286117 0.02 270.0 2010-03-21T10:55:59.866Z
20100321 1056.99775 24.71006017 -76.82286617 0.0 0.0 2010-03-21T10:56:59.865Z
20100321 1057.99772 24.710063 -76.8228675 0.02 0.0 2010-03-21T10:57:59.863Z
20100321 1058.99770 24.710062 -76.822868 0.03 42.411 2010-03-21T10:58:59.862Z
20100321 1059.99767 24.7100615 -76.8228705 0.02 270.0 2010-03-21T10:59:59.860Z
20100321 1100.99765 24.71006233 -76.82287317 0.02 222.411 2010-03-21T11:00:59.859Z
20100321 1101.99762 24.71006533 -76.82287067 0.02 0.0 2010-03-21T11:01:59.857Z
20100321 1102.99760 24.71006933 -76.82287167 0.0 0.0 2010-03-21T11:02:59.856Z
20100321 1103.99757 24.71007317 -76.82287083 0.03 139.313 2010-03-21T11:03:59.854Z
20100321 1104.99755 24.71006617 -76.82286767 0.02 180.0 2010-03-21T11:04:59.853Z
20100321 1105.99752 24.71006333 -76.82286983 0.02 0.0 2010-03-21T11:05:59.851Z
20100321 1106.99748 24.710067 -76.822869 0.0 0.0 2010-03-21T11:06:59.849Z
20100321 1107.99747 24.71006817 -76.82286883 0.03 222.411 2010-03-21T11:07:59.848Z
20100321 1108.99743 24.71006467 -76.82287267 0.0 0.0 2010-03-21T11:08:59.846Z
20100321 1109.99742 24.7100635 -76.82287067 0.0 0.0 2010-03-21T11:09:59.845Z
20100321 1110.99738 24.71006 -76.82287283 0.0 0.0 2010-03-21T11:10:59.843Z
20100321 1111.99737 24.71005783 -76.822874 0.03 135.856 2010-03-21T11:11:59.842Z
20100321 1112.99733 24.7100615 -76.8228705 0.02 0.0 2010-03-21T11:12:59.840Z
20100321 1113.99732 24.7100625 -76.82287117 0.04 61.306 2010-03-21T11:13:59.839Z
20100321 1114.99728 24.71006283 -76.822867 0.0 0.0 2010-03-21T11:14:59.837Z
20100321 1115.99727 24.71006467 -76.82286617 0.02 180.0 2010-03-21T11:15:59.836Z
20100321 1116.99723 24.710061 -76.82286267 0.0 0.0 2010-03-21T11:16:59.834Z
20100321 1117.99722 24.71005833 -76.822861 0.04 0.0 2010-03-21T11:17:59.833Z
20100321 1118.99718 24.7100635 -76.82286433 0.03 40.687 2010-03-21T11:18:59.831Z
20100321 1119.99717 24.7100615 -76.82286883 0.02 0.0 2010-03-21T11:19:59.830Z
20100321 1120.99713 24.71006617 -76.82287083 0.0 0.0 2010-03-21T11:20:59.828Z
20100321 1121.99712 24.710071 -76.82287417 0.02 90.0 2010-03-21T11:21:59.827Z
20100321 1122.99708 24.71007017 -76.82287367 0.0 0.0 2010-03-21T11:22:59.825Z
20100321 1123.99707 24.71006933 -76.8228755 0.02 180.0 2010-03-21T11:23:59.824Z
20100321 1124.99703 24.71006517 -76.82287317 0.03 137.589 2010-03-21T11:24:59.822Z
20100321 1125.99700 24.71006467 -76.82286867 0.03 44.144 2010-03-21T11:25:59.820Z
20100321 1126.99698 24.71006217 -76.82287133 0.02 270.0 2010-03-21T11:26:59.819Z
20100321 1127.99695 24.710058 -76.82287567 0.02 180.0 2010-03-21T11:27:59.817Z
20100321 1128.99693 24.710058 -76.822875 0.0 0.0 2010-03-21T11:28:59.816Z
20100321 1129.99690 24.71005717 -76.822873 0.02 90.0 2010-03-21T11:29:59.814Z
20100321 1130.99688 24.7100565 -76.82286783 0.0 0.0 2010-03-21T11:30:59.813Z
20100321 1131.99685 24.71005767 -76.82286867 0.0 0.0 2010-03-21T11:31:59.811Z
20100321 1132.99683 24.71005467 -76.82287117 0.03 44.144 2010-03-21T11:32:59.810Z
20100321 1133.99680 24.710054 -76.8228735 0.02 270.0 2010-03-21T11:33:59.808Z
20100321 1134.99678 24.71005267 -76.82287733 0.0 0.0 2010-03-21T11:34:59.807Z
20100321 1135.99675 24.71005583 -76.82287917 0.03 135.856 2010-03-21T11:35:59.805Z
20100321 1136.99673 24.710055 -76.822874 0.0 0.0 2010-03-21T11:36:59.804Z
20100321 1137.99670 24.710055 -76.82287233 0.02 0.0 2010-03-21T11:37:59.802Z
20100321 1138.99668 24.71005717 -76.82287217 0.02 270.0 2010-03-21T11:38:59.801Z
20100321 1139.99665 24.71006133 -76.822874 0.02 90.0 2010-03-21T11:39:59.799Z
20100321 1140.99663 24.71005967 -76.82287583 0.03 222.411 2010-03-21T11:40:59.798Z
20100321 1141.99660 24.71005667 -76.82288183 0.02 270.0 2010-03-21T11:41:59.796Z
20100321 1142.99658 24.71005433 -76.822893 0.02 180.0 2010-03-21T11:42:59.795Z
20100321 1143.99655 24.71005333 -76.8228955 0.03 42.411 2010-03-21T11:43:59.793Z
20100321 1144.99652 24.71005367 -76.8228965 0.02 180.0 2010-03-21T11:44:59.791Z
20100321 1145.99650 24.7100535 -76.822898 0.0 0.0 2010-03-21T11:45:59.790Z
20100321 1146.99647 24.71005183 -76.82290083 0.02 0.0 2010-03-21T11:46:59.788Z
20100321 1147.99645 24.71004983 -76.822897 0.03 90.0 2010-03-21T11:47:59.787Z
20100321 1148.99642 24.71004783 -76.82288683 0.02 0.0 2010-03-21T11:48:59.785Z
20100321 1149.99640 24.7100525 -76.82288483 0.0 0.0 2010-03-21T11:49:59.784Z
20100321 1150.99645 24.71005533 -76.82288383 0.0 0.0 2010-03-21T11:50:59.787Z
20100321 1151.99643 24.71005667 -76.82288383 0.02 0.0 2010-03-21T11:51:59.786Z
20100321 1152.99640 24.71005833 -76.82288967 0.0 0.0 2010-03-21T11:52:59.784Z
20100321 1153.99638 24.7100555 -76.822884 0.0 0.0 2010-03-21T11:53:59.783Z
20100321 1154.99635 24.71005633 -76.822887 0.02 0.0 2010-03-21T11:54:59.781Z
20100321 1155.99633 24.71005567 -76.82288667 0.03 137.589 2010-03-21T11:55:59.780Z
20100321 1156.99630 24.71004933 -76.82288317 0.02 222.411 2010-03-21T11:56:59.778Z
20100321 1157.99628 24.71004817 -76.82288433 0.02 42.411 2010-03-21T11:57:59.777Z
20100321 1158.99625 24.7100505 -76.82288483 0.04 298.694 2010-03-21T11:58:59.775Z
20100321 1159.99623 24.710051 -76.822886 0.0 0.0 2010-03-21T11:59:59.774Z
20100321 1200.99620 24.71005767 -76.82288517 0.02 90.0 2010-03-21T12:00:59.772Z
20100321 1201.99618 24.71006333 -76.82288433 0.0 0.0 2010-03-21T12:01:59.771Z
20100321 1202.99615 24.710063 -76.82288333 0.02 90.0 2010-03-21T12:02:59.769Z
20100321 1203.99612 24.71006233 -76.82288117 0.02 180.0 2010-03-21T12:03:59.767Z
20100321 1204.99610 24.7100605 -76.82287933 0.02 90.0 2010-03-21T12:04:59.766Z
20100321 1205.99607 24.7100625 -76.82287967 0.03 42.411 2010-03-21T12:05:59.764Z
20100321 1206.99605 24.71006533 -76.82288017 0.03 42.411 2010-03-21T12:06:59.763Z
20100321 1207.99602 24.71006633 -76.82288133 0.02 270.0 2010-03-21T12:07:59.761Z
20100321 1208.99600 24.71006533 -76.82288233 0.02 90.0 2010-03-21T12:08:59.760Z
20100321 1209.99597 24.7100645 -76.8228775 0.03 137.589 2010-03-21T12:09:59.758Z
20100321 1210.99595 24.71005983 -76.82287033 0.02 137.589 2010-03-21T12:10:59.757Z
20100321 1211.99592 24.710065 -76.82287333 0.02 0.0 2010-03-21T12:11:59.755Z
20100321 1212.99590 24.71007017 -76.822874 0.02 270.0 2010-03-21T12:12:59.754Z
20100321 1213.99587 24.71007117 -76.82287383 0.02 180.0 2010-03-21T12:13:59.752Z
20100321 1214.99585 24.71006433 -76.82287667 0.02 180.0 2010-03-21T12:14:59.751Z
20100321 1215.99582 24.71005583 -76.8228705 0.02 90.0 2010-03-21T12:15:59.749Z
20100321 1216.99580 24.71005733 -76.82286733 0.02 0.0 2010-03-21T12:16:59.748Z
20100321 1217.99577 24.7100545 -76.82285817 0.0 0.0 2010-03-21T12:17:59.746Z
20100321 1218.99575 24.71005233 -76.82285833 0.02 270.0 2010-03-21T12:18:59.745Z
20100321 1219.99572 24.71005083 -76.82286483 0.0 0.0 2010-03-21T12:19:59.743Z
20100321 1220.99570 24.71004933 -76.82287417 0.03 270.0 2010-03-21T12:20:59.742Z
20100321 1221.99567 24.71004617 -76.82288233 0.02 270.0 2010-03-21T12:21:59.740Z
20100321 1222.99563 24.71004833 -76.82289083 0.03 224.144 2010-03-21T12:22:59.738Z
20100321 1223.99562 24.71005417 -76.82289217 0.0 0.0 2010-03-21T12:23:59.737Z
20100321 1224.99558 24.71005767 -76.82288833 0.02 0.0 2010-03-21T12:24:59.735Z
20100321 1225.99557 24.71006033 -76.82288617 0.0 0.0 2010-03-21T12:25:59.734Z
20100321 1226.99553 24.71006167 -76.8228865 0.02 0.0 2010-03-21T12:26:59.732Z
20100321 1227.99552 24.71005983 -76.822885 0.0 0.0 2010-03-21T12:27:59.731Z
20100321 1228.99548 24.710056 -76.82288667 0.02 270.0 2010-03-21T12:28:59.729Z
20100321 1229.99547 24.71005417 -76.822886 0.03 44.144 2010-03-21T12:29:59.728Z
20100321 1230.99543 24.710054 -76.822884 0.02 90.0 2010-03-21T12:30:59.726Z
20100321 1231.99542 24.71005633 -76.82288617 0.03 319.313 2010-03-21T12:31:59.725Z
20100321 1232.99538 24.71005867 -76.822886 0.02 90.0 2010-03-21T12:32:59.723Z
20100321 1233.99537 24.710061 -76.822882 0.0 0.0 2010-03-21T12:33:59.722Z
20100321 1234.99533 24.71006233 -76.82288283 0.02 0.0 2010-03-21T12:34:59.720Z
20100321 1235.99532 24.7100585 -76.822885 0.02 90.0 2010-03-21T12:35:59.719Z
20100321 1236.99528 24.71005767 -76.82288333 0.03 222.411 2010-03-21T12:36:59.717Z
20100321 1237.99527 24.71005783 -76.82288133 0.02 180.0 2010-03-21T12:37:59.716Z
20100321 1238.99523 24.71005383 -76.82288117 0.02 270.0 2010-03-21T12:38:59.714Z
20100321 1239.99522 24.71005567 -76.82288183 0.02 90.0 2010-03-21T12:39:59.713Z
20100321 1240.99518 24.71004983 -76.822879 0.0 0.0 2010-03-21T12:40:59.711Z
20100321 1241.99517 24.71004917 -76.82288083 0.0 0.0 2010-03-21T12:41:59.710Z
20100321 1242.99513 24.71004917 -76.822875 0.02 90.0 2010-03-21T12:42:59.708Z
20100321 1243.99510 24.71005183 -76.82287683 0.02 90.0 2010-03-21T12:43:59.706Z
20100321 1244.99508 24.7100515 -76.82287967 0.02 270.0 2010-03-21T12:44:59.705Z
20100321 1245.99505 24.71005067 -76.82288883 0.03 222.411 2010-03-21T12:45:59.703Z
20100321 1246.99503 24.7100525 -76.82289117 0.03 42.411 2010-03-21T12:46:59.702Z
20100321 1247.99500 24.71006233 -76.822888 0.02 0.0 2010-03-21T12:47:59.700Z
20100321 1248.99498 24.71007033 -76.82288517 0.0 0.0 2010-03-21T12:48:59.699Z
20100321 1249.99495 24.7100685 -76.822876 0.03 137.589 2010-03-21T12:49:59.697Z
20100321 1250.99493 24.71006633 -76.8228735 0.04 180.0 2010-03-21T12:50:59.696Z
20100321 1251.99490 24.710062 -76.82287567 0.02 180.0 2010-03-21T12:51:59.694Z
20100321 1252.99488 24.71006033 -76.82287883 0.0 0.0 2010-03-21T12:52:59.693Z
20100321 1253.99485 24.71005817 -76.8228825 0.03 222.411 2010-03-21T12:53:59.691Z
20100321 1254.99483 24.7100485 -76.82288683 0.0 0.0 2010-03-21T12:54:59.690Z
20100321 1255.99480 24.71004633 -76.822885 0.03 90.0 2010-03-21T12:55:59.688Z
20100321 1256.99478 24.71004817 -76.8228835 0.02 270.0 2010-03-21T12:56:59.687Z
20100321 1257.99475 24.71004667 -76.82288283 0.02 90.0 2010-03-21T12:57:59.685Z
20100321 1258.99473 24.71004867 -76.8228825 0.0 0.0 2010-03-21T12:58:59.684Z
20100321 1259.99470 24.71005233 -76.822879 0.03 42.411 2010-03-21T12:59:59.682Z
20100321 1300.99468 24.71005567 -76.82287667 0.03 44.144 2010-03-21T13:00:59.681Z
20100321 1301.99465 24.7100595 -76.8228755 0.0 0.0 2010-03-21T13:01:59.679Z
20100321 1302.99462 24.71005967 -76.82287567 0.0 0.0 2010-03-21T13:02:59.677Z
20100321 1303.99460 24.71006317 -76.82287767 0.02 270.0 2010-03-21T13:03:59.676Z
20100321 1304.99457 24.71006433 -76.82288117 0.02 0.0 2010-03-21T13:04:59.674Z
20100321 1305.99455 24.710064 -76.82287883 0.0 0.0 2010-03-21T13:05:59.673Z
20100321 1306.99452 24.71006367 -76.82287883 0.0 0.0 2010-03-21T13:06:59.671Z
20100321 1307.99450 24.7100635 -76.82287933 0.02 90.0 2010-03-21T13:07:59.670Z
20100321 1308.99447 24.71006317 -76.82287017 0.03 137.589 2010-03-21T13:08:59.668Z
20100321 1309.99445 24.710057 -76.82286717 0.0 0.0 2010-03-21T13:09:59.667Z
20100321 1310.99442 24.71005633 -76.82286833 0.0 0.0 2010-03-21T13:10:59.665Z
20100321 1311.99440 24.71005333 -76.82286717 0.02 0.0 2010-03-21T13:11:59.664Z
20100321 1312.99437 24.71005567 -76.82286767 0.02 180.0 2010-03-21T13:12:59.662Z
20100321 1313.99435 24.710056 -76.82286683 0.03 317.589 2010-03-21T13:13:59.661Z
20100321 1314.99432 24.710059 -76.82287283 0.03 222.411 2010-03-21T13:14:59.659Z
20100321 1315.99430 24.71005867 -76.82287683 0.03 222.411 2010-03-21T13:15:59.658Z
20100321 1316.99427 24.710055 -76.822877 0.02 0.0 2010-03-21T13:16:59.656Z
20100321 1317.99425 24.710056 -76.82287717 0.02 270.0 2010-03-21T13:17:59.655Z
20100321 1318.99422 24.7100565 -76.82287667 0.02 270.0 2010-03-21T13:18:59.653Z
20100321 1319.99420 24.71005717 -76.8228725 0.02 0.0 2010-03-21T13:19:59.652Z
20100321 1320.99417 24.71006 -76.82287117 0.02 90.0 2010-03-21T13:20:59.650Z
20100321 1321.99415 24.71006167 -76.822869 0.0 0.0 2010-03-21T13:21:59.649Z
20100321 1322.99412 24.7100615 -76.82286967 0.02 270.0 2010-03-21T13:22:59.647Z
20100321 1323.99408 24.71006267 -76.82287033 0.04 241.306 2010-03-21T13:23:59.645Z
20100321 1324.99407 24.71006433 -76.822874 0.02 90.0 2010-03-21T13:24:59.644Z
20100321 1325.99403 24.710063 -76.822873 0.0 0.0 2010-03-21T13:25:59.642Z
20100321 1326.99402 24.71006233 -76.82287217 0.02 180.0 2010-03-21T13:26:59.641Z
20100321 1327.99398 24.710062 -76.822872 0.02 90.0 2010-03-21T13:27:59.639Z
20100321 1328.99397 24.71005933 -76.822871 0.0 0.0 2010-03-21T13:28:59.638Z
20100321 1329.99393 24.71005833 -76.822873 0.02 0.0 2010-03-21T13:29:59.636Z
20100321 1330.99392 24.71005833 -76.8228765 0.02 270.0 2010-03-21T13:30:59.635Z
20100321 1331.99388 24.71005617 -76.82287867 0.02 180.0 2010-03-21T13:31:59.633Z
20100321 1332.99387 24.71005483 -76.82287667 0.02 90.0 2010-03-21T13:32:59.632Z
20100321 1333.99383 24.710056 -76.82287583 0.0 0.0 2010-03-21T13:33:59.630Z
20100321 1334.99382 24.71005867 -76.82287567 0.02 180.0 2010-03-21T13:34:59.629Z
20100321 1335.99378 24.7100595 -76.822876 0.0 0.0 2010-03-21T13:35:59.627Z
20100321 1336.99377 24.71005967 -76.82287667 0.0 0.0 2010-03-21T13:36:59.626Z
20100321 1337.99373 24.71006067 -76.8228755 0.02 0.0 2010-03-21T13:37:59.624Z
20100321 1338.99372 24.71006233 -76.822877 0.02 0.0 2010-03-21T13:38:59.623Z
20100321 1339.99368 24.71006267 -76.82287783 0.03 270.0 2010-03-21T13:39:59.621Z
20100321 1340.99367 24.71006233 -76.822881 0.0 0.0 2010-03-21T13:40:59.620Z
20100321 1341.99363 24.710064 -76.82287883 0.03 40.687 2010-03-21T13:41:59.618Z
20100321 1342.99360 24.71006583 -76.82287167 0.02 270.0 2010-03-21T13:42:59.616Z
20100321 1343.99358 24.71006667 -76.82286783 0.02 90.0 2010-03-21T13:43:59.615Z
20100321 1344.99355 24.7100625 -76.82286317 0.02 90.0 2010-03-21T13:44:59.613Z
20100321 1345.99353 24.71006 -76.82286217 0.0 0.0 2010-03-21T13:45:59.612Z
20100321 1346.99350 24.7100625 -76.8228665 0.02 270.0 2010-03-21T13:46:59.610Z
20100321 1347.99348 24.7100655 -76.82286517 0.02 90.0 2010-03-21T13:47:59.609Z
20100321 1348.99345 24.7100675 -76.82286733 0.02 270.0 2010-03-21T13:48:59.607Z
20100321 1349.99343 24.71006983 -76.82286783 0.0 0.0 2010-03-21T13:49:59.606Z
20100321 1350.99340 24.71006917 -76.82287017 0.03 44.144 2010-03-21T13:50:59.604Z
20100321 1351.99338 24.710069 -76.82287033 0.02 180.0 2010-03-21T13:51:59.603Z
20100321 1352.99335 24.71007083 -76.8228705 0.02 270.0 2010-03-21T13:52:59.601Z
20100321 1353.99333 24.710068 -76.8228715 0.0 0.0 2010-03-21T13:53:59.600Z
20100321 1354.99330 24.71006533 -76.822875 0.03 90.0 2010-03-21T13:54:59.598Z
20100321 1355.99328 24.71006833 -76.82287517 0.0 0.0 2010-03-21T13:55:59.597Z
20100321 1356.99325 24.71007067 -76.82287333 0.0 0.0 2010-03-21T13:56:59.595Z
20100321 1357.99323 24.71007083 -76.822872 0.02 180.0 2010-03-21T13:57:59.594Z
20100321 1358.99320 24.71006467 -76.82287183 0.02 90.0 2010-03-21T13:58:59.592Z
20100321 1359.99318 24.71005883 -76.82286817 0.02 180.0 2010-03-21T13:59:59.591Z
20100321 1400.99315 24.710054 -76.822866 0.02 90.0 2010-03-21T14:00:59.589Z
20100321 1401.99313 24.71005033 -76.8228645 0.03 135.856 2010-03-21T14:01:59.588Z
20100321 1402.99310 24.7100455 -76.82286317 0.0 0.0 2010-03-21T14:02:59.586Z
20100321 1403.99307 24.7100485 -76.8228645 0.0 0.0 2010-03-21T14:03:59.584Z
20100321 1404.99305 24.71004733 -76.82286167 0.0 0.0 2010-03-21T14:04:59.583Z
20100321 1405.99302 24.71005333 -76.82286483 0.02 90.0 2010-03-21T14:05:59.581Z
20100321 1406.99300 24.71005433 -76.82286283 0.02 270.0 2010-03-21T14:06:59.580Z
20100321 1407.99297 24.71005567 -76.8228625 0.02 0.0 2010-03-21T14:07:59.578Z
20100321 1408.99295 24.7100595 -76.82286683 0.02 90.0 2010-03-21T14:08:59.577Z
20100321 1409.99292 24.71005633 -76.82286433 0.0 0.0 2010-03-21T14:09:59.575Z
20100321 1410.99290 24.71005733 -76.82286367 0.0 0.0 2010-03-21T14:10:59.574Z
20100321 1411.99287 24.7100595 -76.82285817 0.0 0.0 2010-03-21T14:11:59.572Z
20100321 1412.99285 24.71006317 -76.82285833 0.02 270.0 2010-03-21T14:12:59.571Z
20100321 1413.99282 24.71006383 -76.822866 0.03 224.144 2010-03-21T14:13:59.569Z
20100321 1414.99280 24.71006317 -76.82286833 0.0 0.0 2010-03-21T14:14:59.568Z
20100321 1415.99277 24.71006433 -76.8228695 0.0 0.0 2010-03-21T14:15:59.566Z
20100321 1416.99275 24.71006317 -76.82287083 0.0 0.0 2010-03-21T14:16:59.565Z
20100321 1417.99272 24.71006133 -76.82287267 0.0 0.0 2010-03-21T14:17:59.563Z
20100321 1418.99270 24.71006317 -76.822871 0.02 0.0 2010-03-21T14:18:59.562Z
20100321 1419.99267 24.7100655 -76.822873 0.03 42.411 2010-03-21T14:19:59.560Z
20100321 1420.99265 24.71006433 -76.8228715 0.02 180.0 2010-03-21T14:20:59.559Z
20100321 1421.99262 24.7100615 -76.8228715 0.03 137.589 2010-03-21T14:21:59.557Z
20100321 1422.99258 24.7100605 -76.82287083 0.03 40.687 2010-03-21T14:22:59.555Z
20100321 1423.99257 24.71006033 -76.82287333 0.02 270.0 2010-03-21T14:23:59.554Z
20100321 1424.99253 24.71005633 -76.82287867 0.02 270.0 2010-03-21T14:24:59.552Z
20100321 1425.99252 24.71005417 -76.82288333 0.0 0.0 2010-03-21T14:25:59.551Z
20100321 1426.99248 24.71005717 -76.822881 0.0 0.0 2010-03-21T14:26:59.549Z
20100321 1427.99247 24.71006 -76.82287783 0.0 0.0 2010-03-21T14:27:59.548Z
20100321 1428.99243 24.710064 -76.82287933 0.0 0.0 2010-03-21T14:28:59.546Z
20100321 1429.99242 24.71006433 -76.82287967 0.02 222.411 2010-03-21T14:29:59.545Z
20100321 1430.99238 24.71006517 -76.82288033 0.02 180.0 2010-03-21T14:30:59.543Z
20100321 1431.99237 24.71006317 -76.82287983 0.02 270.0 2010-03-21T14:31:59.542Z
20100321 1432.99233 24.71006083 -76.8228845 0.0 0.0 2010-03-21T14:32:59.540Z
20100321 1433.99232 24.71006033 -76.82288417 0.03 42.411 2010-03-21T14:33:59.539Z
20100321 1434.99228 24.71005833 -76.8228835 0.02 180.0 2010-03-21T14:34:59.537Z
20100321 1435.99227 24.71005967 -76.82288333 0.02 90.0 2010-03-21T14:35:59.536Z
20100321 1436.99223 24.7100595 -76.8228795 0.0 0.0 2010-03-21T14:36:59.534Z
20100321 1437.99222 24.71006283 -76.82287983 0.03 317.589 2010-03-21T14:37:59.533Z
20100321 1438.99218 24.7100645 -76.82287983 0.0 0.0 2010-03-21T14:38:59.531Z
20100321 1439.99217 24.7100635 -76.82287583 0.03 222.411 2010-03-21T14:39:59.530Z
20100321 1440.99213 24.7100635 -76.82287683 0.0 0.0 2010-03-21T14:40:59.528Z
20100321 1441.99210 24.7100655 -76.82287833 0.02 270.0 2010-03-21T14:41:59.526Z
20100321 1442.99208 24.71006867 -76.82288383 0.0 0.0 2010-03-21T14:42:59.525Z
20100321 1443.99205 24.71006733 -76.82288533 0.0 0.0 2010-03-21T14:43:59.523Z
20100321 1444.99203 24.71006517 -76.82288217 0.02 90.0 2010-03-21T14:44:59.522Z
20100321 1445.99200 24.71006633 -76.82288383 0.02 0.0 2010-03-21T14:45:59.520Z
20100321 1446.99198 24.71006383 -76.82288333 0.03 224.144 2010-03-21T14:46:59.519Z
20100321 1447.99195 24.71006067 -76.822884 0.02 270.0 2010-03-21T14:47:59.517Z
20100321 1448.99193 24.71006183 -76.82288183 0.03 224.144 2010-03-21T14:48:59.516Z
20100321 1449.99190 24.71006267 -76.8228875 0.0 0.0 2010-03-21T14:49:59.514Z
20100321 1450.99188 24.71006267 -76.822889 0.02 180.0 2010-03-21T14:50:59.513Z
20100321 1451.99185 24.71006617 -76.8228905 0.02 180.0 2010-03-21T14:51:59.511Z
20100321 1452.99183 24.71006567 -76.8228895 0.0 0.0 2010-03-21T14:52:59.510Z
20100321 1453.99180 24.710066 -76.82288867 0.0 0.0 2010-03-21T14:53:59.508Z
20100321 1454.99178 24.7100625 -76.82288767 0.02 180.0 2010-03-21T14:54:59.507Z
20100321 1455.99175 24.71006117 -76.82288783 0.04 62.042 2010-03-21T14:55:59.505Z
20100321 1456.99173 24.71006283 -76.82288467 0.0 0.0 2010-03-21T14:56:59.504Z
20100321 1457.99170 24.71006417 -76.82288517 0.04 240.579 2010-03-21T14:57:59.502Z
20100321 1458.99168 24.71006517 -76.8228855 0.03 44.144 2010-03-21T14:58:59.501Z
20100321 1500.00832 24.71006783 -76.82288083 0.0 0.0 2010-03-21T15:00:00.499Z
20100321 1501.00828 24.71006767 -76.8228795 0.0 0.0 2010-03-21T15:01:00.497Z
20100321 1502.00827 24.7100665 -76.82288133 0.0 0.0 2010-03-21T15:02:00.496Z
20100321 1503.00823 24.71006917 -76.82288483 0.03 270.0 2010-03-21T15:03:00.494Z
20100321 1504.00822 24.71006833 -76.8228865 0.02 270.0 2010-03-21T15:04:00.493Z
20100321 1505.00818 24.71006983 -76.82288883 0.02 270.0 2010-03-21T15:05:00.491Z
20100321 1506.00817 24.7100735 -76.82289117 0.02 180.0 2010-03-21T15:06:00.490Z
20100321 1507.00813 24.710072 -76.8228915 0.0 0.0 2010-03-21T15:07:00.488Z
20100321 1508.00812 24.71007183 -76.82289083 0.0 0.0 2010-03-21T15:08:00.487Z
20100321 1509.00808 24.71007233 -76.82289267 0.0 0.0 2010-03-21T15:09:00.485Z
20100321 1510.00807 24.71007433 -76.822893 0.03 224.144 2010-03-21T15:10:00.484Z
20100321 1511.00803 24.71007383 -76.8228915 0.02 0.0 2010-03-21T15:11:00.482Z
20100321 1512.00802 24.710072 -76.82288917 0.04 154.799 2010-03-21T15:12:00.481Z
20100321 1513.00798 24.71006667 -76.82289133 0.0 0.0 2010-03-21T15:13:00.479Z
20100321 1514.00797 24.71006617 -76.82289183 0.0 0.0 2010-03-21T15:14:00.478Z
20100321 1515.00793 24.71006533 -76.82288633 0.02 90.0 2010-03-21T15:15:00.476Z
20100321 1516.00792 24.71006517 -76.82288517 0.04 62.744 2010-03-21T15:16:00.475Z
20100321 1517.00788 24.71006433 -76.82287933 0.0 0.0 2010-03-21T15:17:00.473Z
20100321 1518.00787 24.71006683 -76.8228785 0.02 0.0 2010-03-21T15:18:00.472Z
20100321 1519.00783 24.710068 -76.82287917 0.0 0.0 2010-03-21T15:19:00.470Z
20100321 1520.00780 24.71006683 -76.82288117 0.02 270.0 2010-03-21T15:20:00.468Z
20100321 1521.00778 24.710063 -76.82288333 0.0 0.0 2010-03-21T15:21:00.467Z
20100321 1522.00775 24.710061 -76.8228835 0.02 90.0 2010-03-21T15:22:00.465Z
20100321 1523.00773 24.710062 -76.82288533 0.0 0.0 2010-03-21T15:23:00.464Z
20100321 1524.00770 24.71006333 -76.82288733 0.02 90.0 2010-03-21T15:24:00.462Z
20100321 1525.00768 24.71006083 -76.82288517 0.02 222.411 2010-03-21T15:25:00.461Z
20100321 1526.00765 24.7100625 -76.8228835 0.03 317.589 2010-03-21T15:26:00.459Z
20100321 1527.00763 24.7100655 -76.82288217 0.03 319.313 2010-03-21T15:27:00.458Z
20100321 1528.00760 24.71006933 -76.82287617 0.04 61.306 2010-03-21T15:28:00.456Z
20100321 1529.00758 24.71007217 -76.822868 0.02 90.0 2010-03-21T15:29:00.455Z
20100321 1530.00755 24.71007 -76.822865 0.02 180.0 2010-03-21T15:30:00.453Z
20100321 1531.00753 24.71006617 -76.82286617 0.0 0.0 2010-03-21T15:31:00.452Z
20100321 1532.00750 24.710065 -76.82286817 0.02 270.0 2010-03-21T15:32:00.450Z
20100321 1533.00748 24.71006383 -76.82287067 0.02 0.0 2010-03-21T15:33:00.449Z
20100321 1534.00745 24.71006333 -76.822871 0.03 317.589 2010-03-21T15:34:00.447Z
20100321 1535.00743 24.7100645 -76.82287367 0.03 137.589 2010-03-21T15:35:00.446Z
20100321 1536.00740 24.71006533 -76.82287117 0.0 0.0 2010-03-21T15:36:00.444Z
20100321 1537.00738 24.71006517 -76.82286633 0.02 90.0 2010-03-21T15:37:00.443Z
20100321 1538.00735 24.710068 -76.82286317 0.0 0.0 2010-03-21T15:38:00.441Z
20100321 1539.00732 24.7100715 -76.82285817 0.02 0.0 2010-03-21T15:39:00.439Z
20100321 1540.00730 24.71007217 -76.82285633 0.0 0.0 2010-03-21T15:40:00.438Z
20100321 1541.00727 24.71007333 -76.82285467 0.0 0.0 2010-03-21T15:41:00.436Z
20100321 1542.00725 24.71007417 -76.82285217 0.03 44.144 2010-03-21T15:42:00.435Z
20100321 1543.00722 24.71007583 -76.82285167 0.02 270.0 2010-03-21T15:43:00.433Z
20100321 1544.00720 24.71007533 -76.82285383 0.03 224.144 2010-03-21T15:44:00.432Z
20100321 1545.00717 24.71007 -76.82285933 0.02 180.0 2010-03-21T15:45:00.430Z
20100321 1546.00715 24.710066 -76.82286133 0.0 0.0 2010-03-21T15:46:00.429Z
20100321 1547.00712 24.71006283 -76.82286317 0.02 270.0 2010-03-21T15:47:00.427Z
20100321 1548.00710 24.71006 -76.82286533 0.02 90.0 2010-03-21T15:48:00.426Z
20100321 1549.00707 24.71006017 -76.82286517 0.03 44.144 2010-03-21T15:49:00.424Z
20100321 1550.00705 24.71006183 -76.82286617 0.03 319.313 2010-03-21T15:50:00.423Z
20100321 1551.00702 24.71006417 -76.82286633 0.03 139.313 2010-03-21T15:51:00.421Z
20100321 1552.00700 24.71006433 -76.82286583 0.0 0.0 2010-03-21T15:52:00.420Z
20100321 1553.00697 24.71006383 -76.8228685 0.02 270.0 2010-03-21T15:53:00.418Z
20100321 1554.00695 24.71006667 -76.822869 0.02 270.0 2010-03-21T15:54:00.417Z
20100321 1555.00692 24.71006817 -76.82287333 0.0 0.0 2010-03-21T15:55:00.415Z
20100321 1556.00690 24.7100665 -76.8228745 0.0 0.0 2010-03-21T15:56:00.414Z
20100321 1557.00687 24.7100655 -76.82287267 0.0 0.0 2010-03-21T15:57:00.412Z
20100321 1558.00683 24.71006417 -76.8228715 0.0 0.0 2010-03-21T15:58:00.410Z
20100321 1559.00682 24.71006267 -76.82287467 0.0 0.0 2010-03-21T15:59:00.409Z
20100321 1600.00678 24.71006617 -76.82287483 0.0 0.0 2010-03-21T16:00:00.407Z
20100321 1601.00677 24.71006633 -76.82287767 0.0 0.0 2010-03-21T16:01:00.406Z
20100321 1602.00673 24.71006633 -76.82288317 0.02 270.0 2010-03-21T16:02:00.404Z
20100321 1603.00672 24.71006317 -76.8228825 0.02 0.0 2010-03-21T16:03:00.403Z
20100321 1604.00668 24.71006017 -76.82288367 0.02 90.0 2010-03-21T16:04:00.401Z
20100321 1605.00667 24.71005967 -76.82288433 0.02 42.411 2010-03-21T16:05:00.400Z
20100321 1606.00663 24.71006283 -76.82288167 0.02 0.0 2010-03-21T16:06:00.398Z
20100321 1607.00662 24.71006167 -76.82287867 0.02 270.0 2010-03-21T16:07:00.397Z
20100321 1608.00658 24.7100625 -76.82288017 0.0 0.0 2010-03-21T16:08:00.395Z
20100321 1609.00657 24.71006567 -76.822878 0.02 0.0 2010-03-21T16:09:00.394Z
20100321 1610.00653 24.71006667 -76.82287833 0.0 0.0 2010-03-21T16:10:00.392Z
20100321 1611.00652 24.71007167 -76.82287667 0.02 0.0 2010-03-21T16:11:00.391Z
20100321 1612.00648 24.71007183 -76.8228725 0.0 0.0 2010-03-21T16:12:00.389Z
20100321 1613.00647 24.7100715 -76.82286783 0.0 0.0 2010-03-21T16:13:00.388Z
20100321 1614.00643 24.71006583 -76.822867 0.02 90.0 2010-03-21T16:14:00.386Z
20100321 1615.00642 24.71005967 -76.82287233 0.03 222.411 2010-03-21T16:15:00.385Z
20100321 1616.00638 24.710058 -76.822871 0.02 270.0 2010-03-21T16:16:00.383Z
20100321 1617.00635 24.71005817 -76.82287483 0.03 139.313 2010-03-21T16:17:00.381Z
20100321 1618.00633 24.71005967 -76.822874 0.03 137.589 2010-03-21T16:18:00.380Z
20100321 1619.00630 24.71005833 -76.82287267 0.03 135.856 2010-03-21T16:19:00.378Z
20100321 1620.00628 24.710056 -76.82286983 0.02 270.0 2010-03-21T16:20:00.377Z
20100321 1621.00625 24.71005633 -76.82287233 0.03 224.144 2010-03-21T16:21:00.375Z
20100321 1622.00623 24.71005583 -76.82287333 0.02 180.0 2010-03-21T16:22:00.374Z
20100321 1623.00620 24.71005633 -76.822875 0.02 0.0 2010-03-21T16:23:00.372Z
20100321 1624.00618 24.71005733 -76.8228805 0.02 270.0 2010-03-21T16:24:00.371Z
20100321 1625.00615 24.7100615 -76.822883 0.03 317.589 2010-03-21T16:25:00.369Z
20100321 1626.00613 24.71006233 -76.8228875 0.02 90.0 2010-03-21T16:26:00.368Z
20100321 1627.00610 24.71005933 -76.82288833 0.0 0.0 2010-03-21T16:27:00.366Z
20100321 1628.00608 24.7100545 -76.82289167 0.0 0.0 2010-03-21T16:28:00.365Z
20100321 1629.00605 24.71005683 -76.82289383 0.02 0.0 2010-03-21T16:29:00.363Z
20100321 1630.00603 24.71005767 -76.822891 0.0 0.0 2010-03-21T16:30:00.362Z
20100321 1631.00600 24.71005733 -76.8228905 0.0 0.0 2010-03-21T16:31:00.360Z
20100321 1632.00598 24.71005417 -76.82288867 0.0 0.0 2010-03-21T16:32:00.359Z
20100321 1633.00595 24.7100515 -76.82288933 0.03 222.411 2010-03-21T16:33:00.357Z
20100321 1634.00592 24.71005467 -76.82289033 0.02 90.0 2010-03-21T16:34:00.355Z
20100321 1635.00590 24.710055 -76.8228815 0.0 0.0 2010-03-21T16:35:00.354Z
20100321 1636.00587 24.71005617 -76.8228805 0.0 0.0 2010-03-21T16:36:00.352Z
20100321 1637.00585 24.71005667 -76.82287933 0.02 0.0 2010-03-21T16:37:00.351Z
20100321 1638.00582 24.71005633 -76.82288083 0.02 0.0 2010-03-21T16:38:00.349Z
20100321 1639.00580 24.71005517 -76.82288133 0.0 0.0 2010-03-21T16:39:00.348Z
20100321 1640.00577 24.7100585 -76.82287983 0.03 40.687 2010-03-21T16:40:00.346Z
20100321 1641.00575 24.71006183 -76.82287833 0.02 180.0 2010-03-21T16:41:00.345Z
20100321 1642.00572 24.71006167 -76.8228755 0.03 222.411 2010-03-21T16:42:00.343Z
20100321 1643.00570 24.71005783 -76.82287683 0.02 180.0 2010-03-21T16:43:00.342Z
20100321 1644.00567 24.71005583 -76.822875 0.0 0.0 2010-03-21T16:44:00.340Z
20100321 1645.00565 24.71005833 -76.82287517 0.03 42.411 2010-03-21T16:45:00.339Z
20100321 1646.00562 24.71005967 -76.82287617 0.02 90.0 2010-03-21T16:46:00.337Z
20100321 1647.00560 24.71006183 -76.82287467 0.0 0.0 2010-03-21T16:47:00.336Z
20100321 1648.00557 24.7100615 -76.82287433 0.02 270.0 2010-03-21T16:48:00.334Z
20100321 1649.00555 24.71006183 -76.82287283 0.0 0.0 2010-03-21T16:49:00.333Z
20100321 1650.00552 24.71005967 -76.82287133 0.03 315.856 2010-03-21T16:50:00.331Z
20100321 1651.00550 24.71005733 -76.8228725 0.03 224.144 2010-03-21T16:51:00.330Z
20100321 1652.00547 24.7100575 -76.8228705 0.02 90.0 2010-03-21T16:52:00.328Z
20100321 1653.00543 24.71005733 -76.8228685 0.03 224.144 2010-03-21T16:53:00.326Z
20100321 1654.00542 24.71005617 -76.82286933 0.0 0.0 2010-03-21T16:54:00.325Z
20100321 1655.00538 24.71005683 -76.822875 0.03 270.0 2010-03-21T16:55:00.323Z
20100321 1656.00537 24.71006017 -76.82287583 0.0 0.0 2010-03-21T16:56:00.322Z
20100321 1657.00533 24.71006083 -76.8228745 0.03 135.856 2010-03-21T16:57:00.320Z
20100321 1658.00532 24.710064 -76.82287517 0.02 90.0 2010-03-21T16:58:00.319Z
20100321 1659.00528 24.71006367 -76.82287433 0.0 0.0 2010-03-21T16:59:00.317Z
20100321 1700.00527 24.71006567 -76.82287383 0.02 0.0 2010-03-21T17:00:00.316Z
20100321 1701.00523 24.7100655 -76.82287483 0.0 0.0 2010-03-21T17:01:00.314Z
20100321 1702.00522 24.7100635 -76.82287517 0.02 270.0 2010-03-21T17:02:00.313Z
20100321 1703.00518 24.7100595 -76.822879 0.03 222.411 2010-03-21T17:03:00.311Z
20100321 1704.00517 24.71005817 -76.8228805 0.02 180.0 2010-03-21T17:04:00.310Z
20100321 1705.00513 24.71005767 -76.82287583 0.02 180.0 2010-03-21T17:05:00.308Z
20100321 1706.00512 24.71005917 -76.82287917 0.0 0.0 2010-03-21T17:06:00.307Z
20100321 1707.00508 24.7100585 -76.82287817 0.0 0.0 2010-03-21T17:07:00.305Z
20100321 1708.00507 24.71005833 -76.8228785 0.02 0.0 2010-03-21T17:08:00.304Z
20100321 1709.00503 24.71005783 -76.82287583 0.03 224.144 2010-03-21T17:09:00.302Z
20100321 1710.00500 24.71005817 -76.822876 0.02 0.0 2010-03-21T17:10:00.300Z
20100321 1711.00498 24.71006133 -76.82286933 0.0 0.0 2010-03-21T17:11:00.299Z
20100321 1712.00495 24.71006167 -76.8228685 0.0 0.0 2010-03-21T17:12:00.297Z
20100321 1713.00493 24.71006267 -76.822872 0.02 270.0 2010-03-21T17:13:00.296Z
20100321 1714.00490 24.71006133 -76.822869 0.04 117.958 2010-03-21T17:14:00.294Z
20100321 1715.00488 24.71006167 -76.82286467 0.02 180.0 2010-03-21T17:15:00.293Z
20100321 1716.00485 24.71006017 -76.82286533 0.02 0.0 2010-03-21T17:16:00.291Z
20100321 1717.00483 24.71006217 -76.822869 0.0 0.0 2010-03-21T17:17:00.290Z
20100321 1718.00480 24.71006283 -76.82286967 0.02 90.0 2010-03-21T17:18:00.288Z
20100321 1719.00478 24.71006383 -76.82286867 0.02 270.0 2010-03-21T17:19:00.287Z
20100321 1720.00475 24.71006283 -76.82286683 0.02 180.0 2010-03-21T17:20:00.285Z
20100321 1721.00473 24.71006 -76.82286983 0.0 0.0 2010-03-21T17:21:00.284Z
20100321 1722.00470 24.71006083 -76.8228715 0.03 317.589 2010-03-21T17:22:00.282Z
20100321 1723.00468 24.71006633 -76.8228685 0.02 0.0 2010-03-21T17:23:00.281Z
20100321 1724.00465 24.7100725 -76.82286967 0.02 90.0 2010-03-21T17:24:00.279Z
20100321 1725.00463 24.71007333 -76.822867 0.02 0.0 2010-03-21T17:25:00.278Z
20100321 1726.00460 24.71007183 -76.82286717 0.02 90.0 2010-03-21T17:26:00.276Z
20100321 1727.00457 24.710072 -76.822869 0.03 317.589 2010-03-21T17:27:00.274Z
20100321 1728.00455 24.71007133 -76.822871 0.02 180.0 2010-03-21T17:28:00.273Z
20100321 1729.00452 24.710069 -76.82287033 0.0 0.0 2010-03-21T17:29:00.271Z
20100321 1730.00450 24.71006433 -76.82286733 0.03 224.144 2010-03-21T17:30:00.270Z
20100321 1731.00447 24.7100645 -76.82287033 0.02 0.0 2010-03-21T17:31:00.268Z
20100321 1732.00445 24.71006233 -76.8228685 0.02 0.0 2010-03-21T17:32:00.267Z
20100321 1733.00442 24.7100615 -76.82286817 0.0 0.0 2010-03-21T17:33:00.265Z
20100321 1734.00440 24.710065 -76.822874 0.0 0.0 2010-03-21T17:34:00.264Z
20100321 1735.00437 24.71006967 -76.82287683 0.02 180.0 2010-03-21T17:35:00.262Z
20100321 1736.00435 24.710067 -76.82287567 0.02 90.0 2010-03-21T17:36:00.261Z
20100321 1737.00432 24.7100675 -76.82287217 0.0 0.0 2010-03-21T17:37:00.259Z
20100321 1738.00430 24.7100705 -76.8228675 0.0 0.0 2010-03-21T17:38:00.258Z
20100321 1739.00427 24.71007317 -76.82286267 0.02 90.0 2010-03-21T17:39:00.256Z
20100321 1740.00425 24.710068 -76.82285733 0.03 222.411 2010-03-21T17:40:00.255Z
20100321 1741.00422 24.71006567 -76.8228645 0.02 270.0 2010-03-21T17:41:00.253Z
20100321 1742.00420 24.71005983 -76.82286767 0.0 0.0 2010-03-21T17:42:00.252Z
20100321 1743.00417 24.71005533 -76.8228705 0.0 0.0 2010-03-21T17:43:00.250Z
20100321 1744.00415 24.71005583 -76.8228695 0.0 0.0 2010-03-21T17:44:00.249Z
20100321 1745.00412 24.71006067 -76.82286883 0.0 0.0 2010-03-21T17:45:00.247Z
20100321 1746.00408 24.710062 -76.82286767 0.0 0.0 2010-03-21T17:46:00.245Z
20100321 1747.00407 24.71005917 -76.82287067 0.02 180.0 2010-03-21T17:47:00.244Z
20100321 1748.00403 24.710059 -76.8228725 0.02 180.0 2010-03-21T17:48:00.242Z
20100321 1749.00402 24.71005583 -76.82287283 0.0 0.0 2010-03-21T17:49:00.241Z
20100321 1750.00398 24.710055 -76.82287467 0.03 137.589 2010-03-21T17:50:00.239Z
20100321 1751.00397 24.7100475 -76.82287867 0.03 137.589 2010-03-21T17:51:00.238Z
20100321 1752.00393 24.710047 -76.82287817 0.0 0.0 2010-03-21T17:52:00.236Z
20100321 1753.00392 24.710049 -76.82287367 0.03 42.411 2010-03-21T17:53:00.235Z
20100321 1754.00388 24.7100485 -76.822871 0.02 0.0 2010-03-21T17:54:00.233Z
20100321 1755.00387 24.71004583 -76.82286517 0.0 0.0 2010-03-21T17:55:00.232Z
20100321 1756.00383 24.71004833 -76.82286367 0.02 0.0 2010-03-21T17:56:00.230Z
20100321 1757.00382 24.710054 -76.8228665 0.0 0.0 2010-03-21T17:57:00.229Z
20100321 1758.00378 24.71005767 -76.82286833 0.02 0.0 2010-03-21T17:58:00.227Z
20100321 1759.00377 24.71005617 -76.82286717 0.02 270.0 2010-03-21T17:59:00.226Z
20100321 1800.00373 24.71005683 -76.82286933 0.02 270.0 2010-03-21T18:00:00.224Z
20100321 1801.00372 24.7100585 -76.82287533 0.0 0.0 2010-03-21T18:01:00.223Z
20100321 1802.00368 24.7100585 -76.82287567 0.02 90.0 2010-03-21T18:02:00.221Z
20100321 1803.00365 24.71005933 -76.822871 0.02 0.0 2010-03-21T18:03:00.219Z
20100321 1804.00363 24.71005967 -76.822868 0.02 0.0 2010-03-21T18:04:00.218Z
20100321 1805.00360 24.7100585 -76.822866 0.02 270.0 2010-03-21T18:05:00.216Z
20100321 1806.00358 24.71006183 -76.82286683 0.0 0.0 2010-03-21T18:06:00.215Z
20100321 1807.00355 24.71005933 -76.82286933 0.0 0.0 2010-03-21T18:07:00.213Z
20100321 1808.00353 24.710058 -76.82287017 0.0 0.0 2010-03-21T18:08:00.212Z
20100321 1809.00350 24.71005833 -76.82286917 0.02 0.0 2010-03-21T18:09:00.210Z
20100321 1810.00348 24.71005933 -76.82286983 0.0 0.0 2010-03-21T18:10:00.209Z
20100321 1811.00345 24.71006067 -76.82287017 0.02 180.0 2010-03-21T18:11:00.207Z
20100321 1812.00343 24.71005983 -76.82287383 0.02 270.0 2010-03-21T18:12:00.206Z
20100321 1813.00340 24.71005517 -76.82287767 0.03 220.687 2010-03-21T18:13:00.204Z
20100321 1814.00338 24.71005033 -76.8228785 0.02 270.0 2010-03-21T18:14:00.203Z
20100321 1815.00335 24.71005117 -76.8228815 0.03 44.144 2010-03-21T18:15:00.201Z
20100321 1816.00333 24.71005033 -76.82288183 0.02 270.0 2010-03-21T18:16:00.200Z
20100321 1817.00330 24.7100495 -76.82288167 0.03 220.687 2010-03-21T18:17:00.198Z
20100321 1818.00328 24.71005283 -76.82288 0.04 0.0 2010-03-21T18:18:00.197Z
20100321 1819.00325 24.71005917 -76.82288117 0.02 0.0 2010-03-21T18:19:00.195Z
20100321 1820.00322 24.710061 -76.82287767 0.03 137.589 2010-03-21T18:20:00.193Z
20100321 1821.00320 24.71006117 -76.82288167 0.02 270.0 2010-03-21T18:21:00.192Z
20100321 1822.00317 24.710062 -76.82287817 0.03 42.411 2010-03-21T18:22:00.190Z
20100321 1823.00315 24.71006033 -76.82287717 0.02 270.0 2010-03-21T18:23:00.189Z
20100321 1824.00312 24.710059 -76.82287667 0.0 0.0 2010-03-21T18:24:00.187Z
20100321 1825.00310 24.71005967 -76.82288167 0.02 180.0 2010-03-21T18:25:00.186Z
20100321 1826.00307 24.7100605 -76.82288333 0.02 0.0 2010-03-21T18:26:00.184Z
20100321 1827.00305 24.71006233 -76.822883 0.03 135.856 2010-03-21T18:27:00.183Z
20100321 1828.00302 24.71006133 -76.8228845 0.03 224.144 2010-03-21T18:28:00.181Z
20100321 1829.00300 24.7100595 -76.822881 0.0 0.0 2010-03-21T18:29:00.180Z
20100321 1830.00297 24.71005983 -76.82287833 0.0 0.0 2010-03-21T18:30:00.178Z
20100321 1831.00295 24.71005483 -76.822879 0.04 205.201 2010-03-21T18:31:00.177Z
20100321 1832.00292 24.710054 -76.822875 0.0 0.0 2010-03-21T18:32:00.175Z
20100321 1833.00290 24.7100555 -76.82287733 0.02 270.0 2010-03-21T18:33:00.174Z
20100321 1834.00287 24.71005717 -76.8228795 0.02 90.0 2010-03-21T18:34:00.172Z
20100321 1835.00285 24.7100615 -76.82287867 0.0 0.0 2010-03-21T18:35:00.171Z
20100321 1836.00282 24.710063 -76.82287767 0.0 0.0 2010-03-21T18:36:00.169Z
20100321 1837.00278 24.71006417 -76.82287417 0.03 44.144 2010-03-21T18:37:00.167Z
20100321 1838.00277 24.7100675 -76.82287483 0.02 0.0 2010-03-21T18:38:00.166Z
20100321 1839.00273 24.7100685 -76.822872 0.0 0.0 2010-03-21T18:39:00.164Z
20100321 1840.00272 24.71007017 -76.82287417 0.0 0.0 2010-03-21T18:40:00.163Z
20100321 1841.00268 24.7100705 -76.8228755 0.02 90.0 2010-03-21T18:41:00.161Z
20100321 1842.00267 24.71007233 -76.822876 0.03 317.589 2010-03-21T18:42:00.160Z
20100321 1843.00263 24.71007717 -76.82287783 0.02 90.0 2010-03-21T18:43:00.158Z
20100321 1844.00262 24.71008083 -76.82288217 0.02 0.0 2010-03-21T18:44:00.157Z
20100321 1845.00258 24.71008167 -76.82287883 0.02 0.0 2010-03-21T18:45:00.155Z
20100321 1846.00257 24.71008283 -76.82288067 0.02 270.0 2010-03-21T18:46:00.154Z
20100321 1847.00253 24.71008333 -76.82288117 0.02 180.0 2010-03-21T18:47:00.152Z
20100321 1848.00252 24.7100835 -76.822883 0.02 180.0 2010-03-21T18:48:00.151Z
20100321 1849.00248 24.71008083 -76.822883 0.02 0.0 2010-03-21T18:49:00.149Z
20100321 1850.00247 24.7100795 -76.82288467 0.0 0.0 2010-03-21T18:50:00.148Z
20100321 1851.00243 24.71007917 -76.822885 0.02 90.0 2010-03-21T18:51:00.146Z
20100321 1852.00242 24.7100795 -76.82288333 0.0 0.0 2010-03-21T18:52:00.145Z
20100321 1853.00238 24.71007783 -76.82287917 0.0 0.0 2010-03-21T18:53:00.143Z
20100321 1854.00237 24.7100745 -76.82287917 0.02 270.0 2010-03-21T18:54:00.142Z
20100321 1855.00233 24.71007183 -76.82288133 0.03 40.687 2010-03-21T18:55:00.140Z
20100321 1856.00230 24.710075 -76.82288 0.03 317.589 2010-03-21T18:56:00.138Z
20100321 1857.00228 24.71007617 -76.82288017 0.0 0.0 2010-03-21T18:57:00.137Z
20100321 1858.00225 24.71007633 -76.82288267 0.02 90.0 2010-03-21T18:58:00.135Z
20100321 1859.00223 24.7100735 -76.82288217 0.02 180.0 2010-03-21T18:59:00.134Z
20100321 1900.00220 24.71007533 -76.8228805 0.0 0.0 2010-03-21T19:00:00.132Z
20100321 1901.00218 24.71006933 -76.82287767 0.0 0.0 2010-03-21T19:01:00.131Z
20100321 1902.00215 24.71006733 -76.822879 0.0 0.0 2010-03-21T19:02:00.129Z
20100321 1903.00213 24.71006467 -76.8228755 0.0 0.0 2010-03-21T19:03:00.128Z
20100321 1904.00210 24.71006517 -76.82287617 0.0 0.0 2010-03-21T19:04:00.126Z
20100321 1905.00208 24.7100625 -76.8228775 0.02 180.0 2010-03-21T19:05:00.125Z
20100321 1906.00205 24.71005817 -76.82287833 0.02 180.0 2010-03-21T19:06:00.123Z
20100321 1907.00203 24.71005767 -76.82287967 0.02 0.0 2010-03-21T19:07:00.122Z
20100321 1908.00200 24.71006033 -76.822882 0.02 90.0 2010-03-21T19:08:00.120Z
20100321 1909.00198 24.71006417 -76.82288183 0.03 270.0 2010-03-21T19:09:00.119Z
20100321 1910.00195 24.710067 -76.82288383 0.0 0.0 2010-03-21T19:10:00.117Z
20100321 1911.00193 24.71006883 -76.82287983 0.02 137.589 2010-03-21T19:11:00.116Z
20100321 1912.00190 24.71006767 -76.82287833 0.02 180.0 2010-03-21T19:12:00.114Z
20100321 1913.00187 24.710066 -76.8228755 0.02 180.0 2010-03-21T19:13:00.112Z
20100321 1914.00185 24.71006583 -76.82287433 0.0 0.0 2010-03-21T19:14:00.111Z
20100321 1915.00182 24.71006767 -76.82286867 0.02 90.0 2010-03-21T19:15:00.109Z
20100321 1916.00180 24.71006767 -76.82286033 0.0 0.0 2010-03-21T19:16:00.108Z
20100321 1917.00177 24.7100655 -76.82285617 0.03 220.687 2010-03-21T19:17:00.106Z
20100321 1918.00175 24.71006667 -76.82286 0.0 0.0 2010-03-21T19:18:00.105Z
20100321 1919.00172 24.71006967 -76.82286883 0.03 315.856 2010-03-21T19:19:00.103Z
20100321 1920.00170 24.71006867 -76.82287183 0.02 0.0 2010-03-21T19:20:00.102Z
20100321 1921.00167 24.71006733 -76.82287167 0.0 0.0 2010-03-21T19:21:00.100Z
20100321 1922.00165 24.7100685 -76.82287483 0.02 0.0 2010-03-21T19:22:00.099Z
20100321 1923.00162 24.71006633 -76.822877 0.04 242.042 2010-03-21T19:23:00.097Z
20100321 1924.00160 24.7100655 -76.8228765 0.0 0.0 2010-03-21T19:24:00.096Z
20100321 1925.00157 24.71007 -76.82287733 0.0 0.0 2010-03-21T19:25:00.094Z
20100321 1926.00155 24.71007067 -76.822878 0.02 180.0 2010-03-21T19:26:00.093Z
20100321 1927.00152 24.71006817 -76.822874 0.03 222.411 2010-03-21T19:27:00.091Z
20100321 1928.00150 24.71006283 -76.82287267 0.02 180.0 2010-03-21T19:28:00.090Z
20100321 1929.00147 24.71006117 -76.8228745 0.03 44.144 2010-03-21T19:29:00.088Z
20100321 1930.00143 24.7100645 -76.82287133 0.02 90.0 2010-03-21T19:30:00.086Z
20100321 1931.00142 24.71006833 -76.82286767 0.02 270.0 2010-03-21T19:31:00.085Z
20100321 1932.00138 24.71007067 -76.82286517 0.02 90.0 2010-03-21T19:32:00.083Z
20100321 1933.00137 24.7100685 -76.82286583 0.02 0.0 2010-03-21T19:33:00.082Z
20100321 1934.00133 24.71006883 -76.82287017 0.02 180.0 2010-03-21T19:34:00.080Z
20100321 1935.00132 24.71007017 -76.82287567 0.02 270.0 2010-03-21T19:35:00.079Z
20100321 1936.00128 24.71007117 -76.82287483 0.02 180.0 2010-03-21T19:36:00.077Z
20100321 1937.00127 24.71006483 -76.8228725 0.0 0.0 2010-03-21T19:37:00.076Z
20100321 1938.00123 24.7100635 -76.8228735 0.02 180.0 2010-03-21T19:38:00.074Z
20100321 1939.00122 24.71006367 -76.82287683 0.0 0.0 2010-03-21T19:39:00.073Z
20100321 1940.00118 24.71006267 -76.82287383 0.0 0.0 2010-03-21T19:40:00.071Z
20100321 1941.00117 24.71006183 -76.82287667 0.02 0.0 2010-03-21T19:41:00.070Z
20100321 1942.00113 24.71006167 -76.82287917 0.02 180.0 2010-03-21T19:42:00.068Z
20100321 1943.00112 24.71005917 -76.82287783 0.02 90.0 2010-03-21T19:43:00.067Z
20100321 1944.00108 24.71005533 -76.82287333 0.02 137.589 2010-03-21T19:44:00.065Z
20100321 1945.00107 24.71005433 -76.82287367 0.03 135.856 2010-03-21T19:45:00.064Z
20100321 1946.00103 24.71005433 -76.82287467 0.02 0.0 2010-03-21T19:46:00.062Z
20100321 1947.00100 24.71005917 -76.822875 0.03 44.144 2010-03-21T19:47:00.060Z
20100321 1948.00098 24.710062 -76.82287633 0.03 40.687 2010-03-21T19:48:00.059Z
20100321 1949.00095 24.71006417 -76.82287467 0.02 270.0 2010-03-21T19:49:00.057Z
20100321 1950.00093 24.71006533 -76.82287767 0.02 180.0 2010-03-21T19:50:00.056Z
20100321 1951.00090 24.7100625 -76.82287733 0.0 0.0 2010-03-21T19:51:00.054Z
20100321 1952.00088 24.71006217 -76.82287817 0.02 180.0 2010-03-21T19:52:00.053Z
20100321 1953.00085 24.71006383 -76.82288083 0.0 0.0 2010-03-21T19:53:00.051Z
20100321 1954.00083 24.71006367 -76.82287933 0.02 90.0 2010-03-21T19:54:00.050Z
20100321 1955.00080 24.71006067 -76.8228755 0.02 270.0 2010-03-21T19:55:00.048Z
20100321 1956.00078 24.71006067 -76.822876 0.02 0.0 2010-03-21T19:56:00.047Z
20100321 1957.00075 24.71005867 -76.82287683 0.02 180.0 2010-03-21T19:57:00.045Z
20100321 1958.00073 24.71005917 -76.82287533 0.02 270.0 2010-03-21T19:58:00.044Z
20100321 1959.00070 24.71006017 -76.822874 0.0 0.0 2010-03-21T19:59:00.042Z
20100321 2000.00068 24.7100595 -76.82286967 0.02 90.0 2010-03-21T20:00:00.041Z
20100321 2001.00065 24.71005733 -76.82286817 0.03 135.856 2010-03-21T20:01:00.039Z
20100321 2002.00063 24.71005583 -76.82286983 0.0 0.0 2010-03-21T20:02:00.038Z
20100321 2003.00060 24.71005317 -76.82287167 0.02 270.0 2010-03-21T20:03:00.036Z
20100321 2004.00058 24.71005617 -76.822872 0.0 0.0 2010-03-21T20:04:00.035Z
20100321 2005.00055 24.71006133 -76.8228745 0.02 0.0 2010-03-21T20:05:00.033Z
20100321 2006.00052 24.71006383 -76.82287867 0.0 0.0 2010-03-21T20:06:00.031Z
20100321 2007.00050 24.7100615 -76.82287567 0.03 42.411 2010-03-21T20:07:00.030Z
20100321 2008.00047 24.71005767 -76.82287317 0.0 0.0 2010-03-21T20:08:00.028Z
20100321 2009.00045 24.71005267 -76.8228715 0.02 180.0 2010-03-21T20:09:00.027Z
20100321 2010.00042 24.71004933 -76.822871 0.02 270.0 2010-03-21T20:10:00.025Z
20100321 2011.00040 24.71004917 -76.82287217 0.02 180.0 2010-03-21T20:11:00.024Z
20100321 2012.00037 24.71004967 -76.822873 0.0 0.0 2010-03-21T20:12:00.022Z
20100321 2013.00035 24.71004967 -76.82287617 0.02 0.0 2010-03-21T20:13:00.021Z
20100321 2014.00032 24.71004983 -76.82287667 0.03 42.411 2010-03-21T20:14:00.019Z
20100321 2015.00030 24.71005 -76.8228745 0.02 90.0 2010-03-21T20:15:00.018Z
20100321 2016.00027 24.71005017 -76.82287317 0.03 137.589 2010-03-21T20:16:00.016Z
20100321 2017.00025 24.7100475 -76.82286983 0.0 0.0 2010-03-21T20:17:00.015Z
20100321 2018.00022 24.710048 -76.822868 0.02 0.0 2010-03-21T20:18:00.013Z
20100321 2019.00020 24.71005033 -76.82286467 0.02 90.0 2010-03-21T20:19:00.012Z
20100321 2020.00017 24.71005267 -76.8228625 0.02 180.0 2010-03-21T20:20:00.010Z
20100321 2021.00015 24.71005633 -76.822865 0.02 0.0 2010-03-21T20:21:00.009Z
20100321 2022.00012 24.71005767 -76.8228655 0.03 44.144 2010-03-21T20:22:00.007Z
20100321 2023.00008 24.71005883 -76.82286883 0.02 270.0 2010-03-21T20:23:00.005Z
20100321 2024.00007 24.71006017 -76.82287217 0.03 220.687 2010-03-21T20:24:00.004Z
20100321 2025.00003 24.71005933 -76.82287 0.03 135.856 2010-03-21T20:25:00.002Z
20100321 2026.00002 24.71005967 -76.82286833 0.0 0.0 2010-03-21T20:26:00.001Z
20100321 2026.99998 24.71005983 -76.82286633 0.0 0.0 2010-03-21T20:26:59.999Z
20100321 2027.99997 24.71005517 -76.82286633 0.0 0.0 2010-03-21T20:27:59.998Z
20100321 2028.99993 24.71005617 -76.8228675 0.02 180.0 2010-03-21T20:28:59.996Z
20100321 2029.99992 24.7100535 -76.8228695 0.03 137.589 2010-03-21T20:29:59.995Z
20100321 2030.99988 24.71005333 -76.82287333 0.03 317.589 2010-03-21T20:30:59.993Z
20100321 2031.99987 24.71005483 -76.8228785 0.02 180.0 2010-03-21T20:31:59.992Z
20100321 2032.99983 24.7100565 -76.822884 0.0 0.0 2010-03-21T20:32:59.990Z
20100321 2033.99982 24.7100565 -76.82288633 0.02 90.0 2010-03-21T20:33:59.989Z
20100321 2034.99978 24.71005217 -76.82288683 0.0 0.0 2010-03-21T20:34:59.987Z
20100321 2035.99977 24.71004967 -76.82288533 0.0 0.0 2010-03-21T20:35:59.986Z
20100321 2036.99973 24.7100505 -76.822882 0.02 90.0 2010-03-21T20:36:59.984Z
20100321 2037.99972 24.710052 -76.82287933 0.02 0.0 2010-03-21T20:37:59.983Z
20100321 2038.99968 24.710051 -76.82288117 0.02 270.0 2010-03-21T20:38:59.981Z
20100321 2039.99965 24.7100505 -76.82288067 0.0 0.0 2010-03-21T20:39:59.979Z
20100321 2040.99963 24.71004983 -76.82288267 0.0 0.0 2010-03-21T20:40:59.978Z
20100321 2041.99960 24.71004833 -76.82288083 0.02 270.0 2010-03-21T20:41:59.976Z
20100321 2042.99958 24.71004767 -76.822878 0.02 90.0 2010-03-21T20:42:59.975Z
20100321 2043.99955 24.71004567 -76.8228775 0.03 137.589 2010-03-21T20:43:59.973Z
20100321 2044.99953 24.71004567 -76.82287583 0.0 0.0 2010-03-21T20:44:59.972Z
20100321 2045.99950 24.7100435 -76.82287667 0.03 42.411 2010-03-21T20:45:59.970Z
20100321 2046.99948 24.710042 -76.82287433 0.02 180.0 2010-03-21T20:46:59.969Z
20100321 2047.99945 24.71004533 -76.82287167 0.02 90.0 2010-03-21T20:47:59.967Z
20100321 2048.99943 24.71004917 -76.82286983 0.0 0.0 2010-03-21T20:48:59.966Z
20100321 2049.99940 24.71005117 -76.82287333 0.02 270.0 2010-03-21T20:49:59.964Z
20100321 2050.99938 24.71005233 -76.822878 0.0 0.0 2010-03-21T20:50:59.963Z
20100321 2051.99935 24.71005033 -76.82287967 0.0 0.0 2010-03-21T20:51:59.961Z
20100321 2052.99933 24.7100505 -76.82287633 0.03 139.313 2010-03-21T20:52:59.960Z
20100321 2053.99930 24.71005233 -76.82287717 0.02 90.0 2010-03-21T20:53:59.958Z
20100321 2054.99928 24.71005233 -76.822875 0.02 90.0 2010-03-21T20:54:59.957Z
20100321 2055.99925 24.71005017 -76.82287267 0.02 90.0 2010-03-21T20:55:59.955Z
20100321 2056.99923 24.71004233 -76.822868 0.03 135.856 2010-03-21T20:56:59.954Z
20100321 2057.99920 24.71003317 -76.82286833 0.0 0.0 2010-03-21T20:57:59.952Z
20100321 2058.99917 24.71003217 -76.82287283 0.0 0.0 2010-03-21T20:58:59.950Z
20100321 2059.99915 24.71003533 -76.82286933 0.0 0.0 2010-03-21T20:59:59.949Z
20100321 2100.99912 24.7100415 -76.82286917 0.02 270.0 2010-03-21T21:00:59.947Z
20100321 2101.99910 24.71004267 -76.822871 0.0 0.0 2010-03-21T21:01:59.946Z
20100321 2102.99907 24.71004383 -76.82287167 0.02 222.411 2010-03-21T21:02:59.944Z
20100321 2103.99905 24.7100465 -76.82287283 0.02 90.0 2010-03-21T21:03:59.943Z
20100321 2104.99902 24.71005067 -76.822874 0.0 0.0 2010-03-21T21:04:59.941Z
20100321 2105.99900 24.7100525 -76.82287533 0.02 0.0 2010-03-21T21:05:59.940Z
20100321 2106.99897 24.7100515 -76.8228705 0.02 180.0 2010-03-21T21:06:59.938Z
20100321 2107.99895 24.71005867 -76.8228695 0.0 0.0 2010-03-21T21:07:59.937Z
20100321 2108.99892 24.7100645 -76.822867 0.02 90.0 2010-03-21T21:08:59.935Z
20100321 2109.99890 24.71006433 -76.82286567 0.0 0.0 2010-03-21T21:09:59.934Z
20100321 2110.99887 24.71006233 -76.82286883 0.05 223.264 2010-03-21T21:10:59.932Z
20100321 2111.99885 24.71005933 -76.8228715 0.0 0.0 2010-03-21T21:11:59.931Z
20100321 2112.99882 24.71005667 -76.82286917 0.02 270.0 2010-03-21T21:12:59.929Z
20100321 2113.99880 24.71005517 -76.82287083 0.02 0.0 2010-03-21T21:13:59.928Z
20100321 2114.99877 24.71005233 -76.82287183 0.03 224.144 2010-03-21T21:14:59.926Z
20100321 2115.99873 24.710055 -76.822873 0.0 0.0 2010-03-21T21:15:59.924Z
20100321 2116.99872 24.71005583 -76.82287417 0.0 0.0 2010-03-21T21:16:59.923Z
20100321 2117.99868 24.71005933 -76.82287383 0.02 0.0 2010-03-21T21:17:59.921Z
20100321 2118.99867 24.71005217 -76.822867 0.02 270.0 2010-03-21T21:18:59.920Z
20100321 2119.99863 24.71005367 -76.82287117 0.0 0.0 2010-03-21T21:19:59.918Z
20100321 2120.99862 24.71005633 -76.82287133 0.02 270.0 2010-03-21T21:20:59.917Z
20100321 2121.99858 24.71005933 -76.82287433 0.0 0.0 2010-03-21T21:21:59.915Z
20100321 2122.99857 24.710058 -76.8228745 0.03 137.589 2010-03-21T21:22:59.914Z
20100321 2123.99853 24.71005783 -76.82287733 0.0 0.0 2010-03-21T21:23:59.912Z
20100321 2124.99852 24.71005683 -76.82287683 0.02 180.0 2010-03-21T21:24:59.911Z
20100321 2125.99848 24.7100545 -76.82287567 0.02 90.0 2010-03-21T21:25:59.909Z
20100321 2126.99847 24.7100555 -76.82287433 0.0 0.0 2010-03-21T21:26:59.908Z
20100321 2127.99843 24.7100565 -76.82287317 0.0 0.0 2010-03-21T21:27:59.906Z
20100321 2128.99842 24.71005667 -76.82286867 0.0 0.0 2010-03-21T21:28:59.905Z
20100321 2129.99838 24.7100565 -76.82286917 0.02 270.0 2010-03-21T21:29:59.903Z
20100321 2130.99837 24.710054 -76.82286417 0.0 0.0 2010-03-21T21:30:59.902Z
20100321 2131.99833 24.710052 -76.82286117 0.0 0.0 2010-03-21T21:31:59.900Z
20100321 2132.99830 24.7100555 -76.82286533 0.03 222.411 2010-03-21T21:32:59.898Z
20100321 2133.99828 24.71005983 -76.82286667 0.02 90.0 2010-03-21T21:33:59.897Z
20100321 2134.99825 24.710064 -76.822869 0.02 0.0 2010-03-21T21:34:59.895Z
20100321 2135.99823 24.7100675 -76.82286567 0.03 137.589 2010-03-21T21:35:59.894Z
20100321 2136.99820 24.71006833 -76.822869 0.02 180.0 2010-03-21T21:36:59.892Z
20100321 2137.99818 24.71006483 -76.82287317 0.03 319.313 2010-03-21T21:37:59.891Z
20100321 2138.99815 24.71006583 -76.82287467 0.0 0.0 2010-03-21T21:38:59.889Z
20100321 2139.99813 24.71006533 -76.82287633 0.02 0.0 2010-03-21T21:39:59.888Z
20100321 2140.99810 24.710056 -76.82287683 0.02 270.0 2010-03-21T21:40:59.886Z
20100321 2141.99808 24.7100575 -76.82288317 0.0 0.0 2010-03-21T21:41:59.885Z
20100321 2142.99805 24.710055 -76.822878 0.0 0.0 2010-03-21T21:42:59.883Z
20100321 2143.99803 24.710055 -76.8228745 0.0 0.0 2010-03-21T21:43:59.882Z
20100321 2144.99800 24.71005283 -76.8228835 0.02 270.0 2010-03-21T21:44:59.880Z
20100321 2145.99798 24.71005067 -76.82288683 0.02 180.0 2010-03-21T21:45:59.879Z
20100321 2146.99795 24.71005017 -76.822888 0.02 0.0 2010-03-21T21:46:59.877Z
20100321 2148.04792 24.71005517 -76.822895 0.02 270.0 2010-03-21T21:48:02.875Z
20100321 2148.99790 24.7100525 -76.82289567 0.02 90.0 2010-03-21T21:48:59.874Z
20100321 2149.99787 24.71004983 -76.82289833 0.0 0.0 2010-03-21T21:49:59.872Z
20100321 2150.99785 24.7100535 -76.82290417 0.0 0.0 2010-03-21T21:50:59.871Z
20100321 2151.99782 24.710056 -76.82290717 0.0 0.0 2010-03-21T21:51:59.869Z
20100321 2152.99780 24.71005883 -76.82290367 0.02 0.0 2010-03-21T21:52:59.868Z
20100321 2153.99777 24.71006317 -76.822901 0.02 0.0 2010-03-21T21:53:59.866Z
20100321 2154.99775 24.71006567 -76.82289033 0.03 139.313 2010-03-21T21:54:59.865Z
20100321 2155.99772 24.71006783 -76.82288933 0.02 270.0 2010-03-21T21:55:59.863Z
20100321 2156.99770 24.71006817 -76.82289033 0.0 0.0 2010-03-21T21:56:59.862Z
20100321 2157.99767 24.71006833 -76.82288983 0.02 90.0 2010-03-21T21:57:59.860Z
20100321 2158.99765 24.71006083 -76.822889 0.02 90.0 2010-03-21T21:58:59.859Z
20100321 2159.99762 24.71005617 -76.82288817 0.0 0.0 2010-03-21T21:59:59.857Z
20100321 2200.99760 24.7100555 -76.82289083 0.03 139.313 2010-03-21T22:00:59.856Z
20100321 2201.99757 24.710054 -76.82288983 0.02 90.0 2010-03-21T22:01:59.854Z
20100321 2202.99755 24.71005417 -76.82289 0.04 119.421 2010-03-21T22:02:59.853Z
20100321 2203.99752 24.71005533 -76.82288783 0.02 0.0 2010-03-21T22:03:59.851Z
20100321 2204.99750 24.71006233 -76.82288317 0.03 90.0 2010-03-21T22:04:59.850Z
20100321 2205.99747 24.7100625 -76.82288017 0.0 0.0 2010-03-21T22:05:59.848Z
20100321 2206.99743 24.71006583 -76.822877 0.02 270.0 2010-03-21T22:06:59.846Z
20100321 2207.99742 24.7100665 -76.82287617 0.03 137.589 2010-03-21T22:07:59.845Z
20100321 2208.99738 24.71006567 -76.82287617 0.0 0.0 2010-03-21T22:08:59.843Z
20100321 2209.99737 24.710067 -76.82287367 0.0 0.0 2010-03-21T22:09:59.842Z
20100321 2210.99733 24.710066 -76.82287083 0.0 0.0 2010-03-21T22:10:59.840Z
20100321 2211.99732 24.71006717 -76.82287333 0.02 0.0 2010-03-21T22:11:59.839Z
20100321 2212.99728 24.71006367 -76.82287817 0.02 0.0 2010-03-21T22:12:59.837Z
20100321 2213.99727 24.7100665 -76.822882 0.0 0.0 2010-03-21T22:13:59.836Z
20100321 2214.99723 24.71006333 -76.8228855 0.02 180.0 2010-03-21T22:14:59.834Z
20100321 2215.99722 24.71006 -76.82288383 0.03 139.313 2010-03-21T22:15:59.833Z
20100321 2216.99718 24.7100615 -76.82288717 0.0 0.0 2010-03-21T22:16:59.831Z
20100321 2217.99717 24.71005817 -76.822887 0.0 0.0 2010-03-21T22:17:59.830Z
20100321 2218.99713 24.71005383 -76.82289333 0.0 0.0 2010-03-21T22:18:59.828Z
20100321 2219.99712 24.71005533 -76.8228945 0.0 0.0 2010-03-21T22:19:59.827Z
20100321 2220.99708 24.710054 -76.82289467 0.0 0.0 2010-03-21T22:20:59.825Z
20100321 2221.99707 24.710057 -76.82289733 0.0 0.0 2010-03-21T22:21:59.824Z
20100321 2222.99703 24.71005683 -76.82289233 0.03 40.687 2010-03-21T22:22:59.822Z
20100321 2223.99700 24.71005883 -76.822887 0.0 0.0 2010-03-21T22:23:59.820Z
20100321 2224.99698 24.7100595 -76.82288733 0.0 0.0 2010-03-21T22:24:59.819Z
20100321 2225.99695 24.71006167 -76.82289 0.0 0.0 2010-03-21T22:25:59.817Z
20100321 2226.99693 24.71006567 -76.8228895 0.0 0.0 2010-03-21T22:26:59.816Z
20100321 2227.99690 24.71007 -76.82288767 0.03 42.411 2010-03-21T22:27:59.814Z
20100321 2228.99688 24.71007033 -76.82288817 0.02 180.0 2010-03-21T22:28:59.813Z
20100321 2229.99685 24.71006967 -76.8228905 0.02 90.0 2010-03-21T22:29:59.811Z
20100321 2230.99683 24.71006133 -76.82288283 0.04 180.0 2010-03-21T22:30:59.810Z
20100321 2231.99680 24.71005767 -76.82288033 0.02 270.0 2010-03-21T22:31:59.808Z
20100321 2232.99678 24.7100595 -76.822879 0.03 42.411 2010-03-21T22:32:59.807Z
20100321 2233.99675 24.71006083 -76.8228775 0.0 0.0 2010-03-21T22:33:59.805Z
20100321 2234.99673 24.71006 -76.8228815 0.0 0.0 2010-03-21T22:34:59.804Z
20100321 2235.99670 24.71006083 -76.82288183 0.0 0.0 2010-03-21T22:35:59.802Z
20100321 2236.99668 24.710061 -76.82288733 0.03 270.0 2010-03-21T22:36:59.801Z
20100321 2237.99665 24.71006083 -76.82288833 0.02 180.0 2010-03-21T22:37:59.799Z
20100321 2238.99663 24.71005917 -76.82289117 0.02 180.0 2010-03-21T22:38:59.798Z
20100321 2239.99660 24.7100555 -76.8228915 0.02 270.0 2010-03-21T22:39:59.796Z
20100321 2240.99657 24.71005433 -76.82288967 0.03 42.411 2010-03-21T22:40:59.794Z
20100321 2241.99655 24.71005533 -76.82288767 0.0 0.0 2010-03-21T22:41:59.793Z
20100321 2242.99652 24.7100535 -76.82288933 0.0 0.0 2010-03-21T22:42:59.791Z
20100321 2243.99650 24.71005017 -76.82288517 0.02 90.0 2010-03-21T22:43:59.790Z
20100321 2244.99647 24.71005333 -76.8228795 0.02 90.0 2010-03-21T22:44:59.788Z
20100321 2245.99645 24.7100575 -76.82287583 0.02 180.0 2010-03-21T22:45:59.787Z
20100321 2246.99642 24.71006183 -76.82287283 0.02 90.0 2010-03-21T22:46:59.785Z
20100321 2247.99640 24.71006683 -76.82287467 0.02 0.0 2010-03-21T22:47:59.784Z
20100321 2248.99637 24.71006333 -76.8228765 0.03 317.589 2010-03-21T22:48:59.782Z
20100321 2249.99635 24.71006583 -76.82288183 0.02 180.0 2010-03-21T22:49:59.781Z
20100321 2250.99632 24.71006267 -76.82288167 0.02 90.0 2010-03-21T22:50:59.779Z
20100321 2251.99630 24.71006417 -76.82287933 0.02 0.0 2010-03-21T22:51:59.778Z
20100321 2252.99627 24.71006133 -76.82287983 0.02 180.0 2010-03-21T22:52:59.776Z
20100321 2253.99625 24.71005967 -76.82288117 0.02 180.0 2010-03-21T22:53:59.775Z
20100321 2254.99622 24.71005967 -76.82287733 0.02 42.411 2010-03-21T22:54:59.773Z
20100321 2255.99620 24.71006317 -76.82287267 0.03 137.589 2010-03-21T22:55:59.772Z
20100321 2256.99617 24.71006117 -76.82287167 0.0 0.0 2010-03-21T22:56:59.770Z
20100321 2257.99615 24.71005983 -76.822874 0.0 0.0 2010-03-21T22:57:59.769Z
20100321 2258.99612 24.71006117 -76.82287367 0.03 137.589 2010-03-21T22:58:59.767Z
20100321 2259.99608 24.7100625 -76.822874 0.0 0.0 2010-03-21T22:59:59.765Z
20100321 2300.99607 24.71006217 -76.8228745 0.0 0.0 2010-03-21T23:00:59.764Z
20100321 2301.99603 24.71006183 -76.822874 0.03 135.856 2010-03-21T23:01:59.762Z
20100321 2302.99602 24.71006233 -76.822876 0.0 0.0 2010-03-21T23:02:59.761Z
20100321 2303.99598 24.71006483 -76.8228735 0.02 90.0 2010-03-21T23:03:59.759Z
20100321 2304.99597 24.710066 -76.82287417 0.02 90.0 2010-03-21T23:04:59.758Z
20100321 2305.99593 24.71006717 -76.82287217 0.0 0.0 2010-03-21T23:05:59.756Z
20100321 2306.99592 24.71006917 -76.82286967 0.0 0.0 2010-03-21T23:06:59.755Z
20100321 2307.99588 24.71006617 -76.82286867 0.02 90.0 2010-03-21T23:07:59.753Z
20100321 2308.99587 24.7100625 -76.82286783 0.02 180.0 2010-03-21T23:08:59.752Z
20100321 2309.99583 24.71006083 -76.82286917 0.03 319.313 2010-03-21T23:09:59.750Z
20100321 2310.99582 24.71006667 -76.82286717 0.02 90.0 2010-03-21T23:10:59.749Z
20100321 2311.99578 24.7100675 -76.82286617 0.0 0.0 2010-03-21T23:11:59.747Z
20100321 2312.99577 24.7100675 -76.82286833 0.0 0.0 2010-03-21T23:12:59.746Z
20100321 2313.99573 24.71006533 -76.82287017 0.0 0.0 2010-03-21T23:13:59.744Z
20100321 2314.99572 24.7100615 -76.82287033 0.0 0.0 2010-03-21T23:14:59.743Z
20100321 2315.99568 24.71006133 -76.82287217 0.02 90.0 2010-03-21T23:15:59.741Z
20100321 2316.99565 24.71005867 -76.82287417 0.02 270.0 2010-03-21T23:16:59.739Z
20100321 2317.99563 24.71005833 -76.8228765 0.0 0.0 2010-03-21T23:17:59.738Z
20100321 2318.99560 24.71005733 -76.82287917 0.02 270.0 2010-03-21T23:18:59.736Z
20100321 2319.99558 24.71006117 -76.82288017 0.03 44.144 2010-03-21T23:19:59.735Z
20100321 2320.99555 24.7100645 -76.82288383 0.03 317.589 2010-03-21T23:20:59.733Z
20100321 2321.99553 24.710067 -76.82288483 0.03 317.589 2010-03-21T23:21:59.732Z
20100321 2322.99550 24.71006567 -76.82288483 0.02 180.0 2010-03-21T23:22:59.730Z
20100321 2323.99548 24.71005883 -76.822884 0.02 180.0 2010-03-21T23:23:59.729Z
20100321 2324.99545 24.710057 -76.82288233 0.02 90.0 2010-03-21T23:24:59.727Z
20100321 2325.99543 24.71005633 -76.82287933 0.02 0.0 2010-03-21T23:25:59.726Z
20100321 2326.99540 24.71005817 -76.8228765 0.0 0.0 2010-03-21T23:26:59.724Z
20100321 2327.99538 24.71005833 -76.8228755 0.03 42.411 2010-03-21T23:27:59.723Z
20100321 2328.99535 24.71006183 -76.822873 0.02 0.0 2010-03-21T23:28:59.721Z
20100321 2329.99533 24.71006033 -76.82287283 0.0 0.0 2010-03-21T23:29:59.720Z
20100321 2330.99530 24.7100615 -76.8228755 0.03 317.589 2010-03-21T23:30:59.718Z
20100321 2331.99528 24.71006467 -76.8228755 0.02 90.0 2010-03-21T23:31:59.717Z
20100321 2332.99525 24.71006567 -76.8228755 0.02 270.0 2010-03-21T23:32:59.715Z
20100321 2333.99522 24.71006667 -76.8228805 0.02 0.0 2010-03-21T23:33:59.713Z
20100321 2334.99520 24.71006983 -76.82288067 0.02 0.0 2010-03-21T23:34:59.712Z
20100321 2335.99517 24.71007367 -76.82287933 0.0 0.0 2010-03-21T23:35:59.710Z
20100321 2336.99515 24.71007117 -76.82288133 0.0 0.0 2010-03-21T23:36:59.709Z
20100321 2337.99512 24.71006733 -76.82288167 0.0 0.0 2010-03-21T23:37:59.707Z
20100321 2338.99510 24.71006633 -76.82287717 0.03 135.856 2010-03-21T23:38:59.706Z
20100321 2339.99507 24.7100635 -76.82287667 0.0 0.0 2010-03-21T23:39:59.704Z
20100321 2340.99505 24.710067 -76.82287817 0.02 0.0 2010-03-21T23:40:59.703Z
20100321 2341.99502 24.71006733 -76.82288 0.02 270.0 2010-03-21T23:41:59.701Z
20100321 2342.99500 24.7100655 -76.82288183 0.0 0.0 2010-03-21T23:42:59.700Z
20100321 2343.99497 24.71006483 -76.8228845 0.0 0.0 2010-03-21T23:43:59.698Z
20100321 2344.99495 24.71006483 -76.82289033 0.02 270.0 2010-03-21T23:44:59.697Z
20100321 2345.99492 24.71006633 -76.8228935 0.0 0.0 2010-03-21T23:45:59.695Z
20100321 2346.99488 24.710064 -76.822894 0.0 0.0 2010-03-21T23:46:59.693Z
20100321 2347.99487 24.71005833 -76.82289283 0.03 40.687 2010-03-21T23:47:59.692Z
20100321 2348.99483 24.71005467 -76.822892 0.0 0.0 2010-03-21T23:48:59.690Z
20100321 2349.99482 24.7100525 -76.8228885 0.0 0.0 2010-03-21T23:49:59.689Z
20100321 2350.99478 24.71005767 -76.82288317 0.0 0.0 2010-03-21T23:50:59.687Z
20100321 2351.99477 24.71006133 -76.822879 0.02 0.0 2010-03-21T23:51:59.686Z
20100321 2352.99473 24.710063 -76.8228765 0.02 90.0 2010-03-21T23:52:59.684Z
20100321 2353.99472 24.71006217 -76.822873 0.0 0.0 2010-03-21T23:53:59.683Z
20100321 2354.99468 24.71006333 -76.82287283 0.02 90.0 2010-03-21T23:54:59.681Z
20100321 2355.99467 24.71006333 -76.82287133 0.02 0.0 2010-03-21T23:55:59.680Z
20100321 2356.99463 24.71006217 -76.82287467 0.0 0.0 2010-03-21T23:56:59.678Z
20100321 2357.99462 24.7100655 -76.822876 0.0 0.0 2010-03-21T23:57:59.677Z
20100321 2358.99458 24.710062 -76.82287183 0.03 139.313 2010-03-21T23:58:59.675Z
20100321 2359.99455 24.7100615 -76.8228705 0.02 90.0 2010-03-21T23:59:59.673Z
20100322 0000.99453 24.71006167 -76.822875 0.03 315.856 2010-03-22T00:00:59.672Z
20100322 0001.99450 24.7100655 -76.822877 0.02 0.0 2010-03-22T00:01:59.670Z
20100322 0002.99448 24.71006433 -76.822875 0.02 180.0 2010-03-22T00:02:59.669Z
20100322 0003.99445 24.7100615 -76.8228795 0.02 0.0 2010-03-22T00:03:59.667Z
20100322 0004.99443 24.71005917 -76.82288 0.02 180.0 2010-03-22T00:04:59.666Z
20100322 0005.99440 24.71005367 -76.82288017 0.0 0.0 2010-03-22T00:05:59.664Z
20100322 0006.99438 24.71005267 -76.82288183 0.02 90.0 2010-03-22T00:06:59.663Z
20100322 0007.99435 24.71005267 -76.8228805 0.0 0.0 2010-03-22T00:07:59.661Z
20100322 0008.99433 24.7100545 -76.822884 0.02 270.0 2010-03-22T00:08:59.660Z
20100322 0009.99430 24.71005367 -76.8228805 0.0 0.0 2010-03-22T00:09:59.658Z
20100322 0010.99428 24.710055 -76.82288017 0.02 0.0 2010-03-22T00:10:59.657Z
20100322 0011.99425 24.71005767 -76.8228795 0.02 90.0 2010-03-22T00:11:59.655Z
20100322 0012.99423 24.710059 -76.822879 0.02 270.0 2010-03-22T00:12:59.654Z
20100322 0013.99420 24.71006267 -76.822878 0.03 44.144 2010-03-22T00:13:59.652Z
20100322 0014.99418 24.71006117 -76.82287917 0.0 0.0 2010-03-22T00:14:59.651Z
20100322 0015.99415 24.71005833 -76.822877 0.0 0.0 2010-03-22T00:15:59.649Z
20100322 0016.99412 24.71005983 -76.82287683 0.0 0.0 2010-03-22T00:16:59.647Z
20100322 0017.99410 24.71005933 -76.82287617 0.0 0.0 2010-03-22T00:17:59.646Z
20100322 0018.99407 24.71006233 -76.82287317 0.0 0.0 2010-03-22T00:18:59.644Z
20100322 0019.99405 24.71005983 -76.82287083 0.0 0.0 2010-03-22T00:19:59.643Z
20100322 0020.99402 24.710057 -76.82287467 0.03 270.0 2010-03-22T00:20:59.641Z
20100322 0021.99400 24.710059 -76.82288033 0.0 0.0 2010-03-22T00:21:59.640Z
20100322 0022.99397 24.7100555 -76.82288033 0.02 180.0 2010-03-22T00:22:59.638Z
20100322 0023.99395 24.71005417 -76.82288033 0.0 0.0 2010-03-22T00:23:59.637Z
20100322 0024.99392 24.71005567 -76.82287833 0.0 0.0 2010-03-22T00:24:59.635Z
20100322 0025.99390 24.71005983 -76.822878 0.02 90.0 2010-03-22T00:25:59.634Z
20100322 0026.99387 24.710061 -76.8228735 0.02 0.0 2010-03-22T00:26:59.632Z
20100322 0027.99385 24.710061 -76.8228715 0.0 0.0 2010-03-22T00:27:59.631Z
20100322 0028.99382 24.710055 -76.8228665 0.02 180.0 2010-03-22T00:28:59.629Z
20100322 0029.99380 24.71005233 -76.822871 0.02 90.0 2010-03-22T00:29:59.628Z
20100322 0030.99377 24.710053 -76.82287367 0.0 0.0 2010-03-22T00:30:59.626Z
20100322 0031.99373 24.71005333 -76.82287483 0.0 0.0 2010-03-22T00:31:59.624Z
20100322 0032.99372 24.71005367 -76.82287633 0.0 0.0 2010-03-22T00:32:59.623Z
20100322 0033.99368 24.71005333 -76.822876 0.0 0.0 2010-03-22T00:33:59.621Z
20100322 0034.99367 24.7100515 -76.82287617 0.0 0.0 2010-03-22T00:34:59.620Z
20100322 0035.99363 24.71005267 -76.82287833 0.0 0.0 2010-03-22T00:35:59.618Z
20100322 0036.99362 24.7100545 -76.8228795 0.02 180.0 2010-03-22T00:36:59.617Z
20100322 0037.99358 24.71005017 -76.82287983 0.02 270.0 2010-03-22T00:37:59.615Z
20100322 0038.99357 24.7100455 -76.82287817 0.0 0.0 2010-03-22T00:38:59.614Z
20100322 0039.99353 24.710048 -76.82287917 0.0 0.0 2010-03-22T00:39:59.612Z
20100322 0040.99352 24.71005367 -76.822876 0.02 0.0 2010-03-22T00:40:59.611Z
20100322 0041.99348 24.71005933 -76.82287133 0.02 0.0 2010-03-22T00:41:59.609Z
20100322 0042.99347 24.71005933 -76.82287867 0.0 0.0 2010-03-22T00:42:59.608Z
20100322 0043.99343 24.710059 -76.8228825 0.02 180.0 2010-03-22T00:43:59.606Z
20100322 0044.99342 24.71005783 -76.82287717 0.03 42.411 2010-03-22T00:44:59.605Z
20100322 0045.99338 24.7100595 -76.82287133 0.0 0.0 2010-03-22T00:45:59.603Z
20100322 0046.99337 24.71006133 -76.8228735 0.03 224.144 2010-03-22T00:46:59.602Z
20100322 0047.99333 24.7100605 -76.82287167 0.02 180.0 2010-03-22T00:47:59.600Z
20100322 0048.99330 24.71005783 -76.82286533 0.02 90.0 2010-03-22T00:48:59.598Z
20100322 0049.99328 24.71005517 -76.822869 0.02 270.0 2010-03-22T00:49:59.597Z
20100322 0050.99325 24.71005783 -76.82286833 0.0 0.0 2010-03-22T00:50:59.595Z
20100322 0051.99323 24.71005833 -76.822868 0.02 180.0 2010-03-22T00:51:59.594Z
20100322 0052.99320 24.71005983 -76.822874 0.03 317.589 2010-03-22T00:52:59.592Z
20100322 0053.99318 24.71006183 -76.82288167 0.02 90.0 2010-03-22T00:53:59.591Z
20100322 0054.99315 24.71006067 -76.82287917 0.02 90.0 2010-03-22T00:54:59.589Z
20100322 0055.99313 24.71006067 -76.82287817 0.02 0.0 2010-03-22T00:55:59.588Z
20100322 0056.99310 24.71006433 -76.82287717 0.02 0.0 2010-03-22T00:56:59.586Z
20100322 0057.99308 24.7100635 -76.82287083 0.02 90.0 2010-03-22T00:57:59.585Z
20100322 0058.99305 24.7100595 -76.82286483 0.02 90.0 2010-03-22T00:58:59.583Z
20100322 0059.99303 24.7100585 -76.82286467 0.0 0.0 2010-03-22T00:59:59.582Z
20100322 0100.99300 24.71005567 -76.82286933 0.02 0.0 2010-03-22T01:00:59.580Z
20100322 0101.99298 24.71005267 -76.82287417 0.02 180.0 2010-03-22T01:01:59.579Z
20100322 0102.99295 24.71005433 -76.82287433 0.0 0.0 2010-03-22T01:02:59.577Z
20100322 0103.99293 24.71005683 -76.822878 0.0 0.0 2010-03-22T01:03:59.576Z
20100322 0104.99290 24.710061 -76.8228775 0.0 0.0 2010-03-22T01:04:59.574Z
20100322 0105.99287 24.71006367 -76.82287433 0.02 42.411 2010-03-22T01:05:59.572Z
20100322 0106.99285 24.7100695 -76.82287283 0.02 270.0 2010-03-22T01:06:59.571Z
20100322 0107.99282 24.71006883 -76.82287517 0.02 222.411 2010-03-22T01:07:59.569Z
20100322 0108.99280 24.71006417 -76.822873 0.0 0.0 2010-03-22T01:08:59.568Z
20100322 0109.99277 24.71006217 -76.82287333 0.02 180.0 2010-03-22T01:09:59.566Z
20100322 0110.99275 24.7100615 -76.82287033 0.02 90.0 2010-03-22T01:10:59.565Z
20100322 0111.99272 24.71006067 -76.82286983 0.03 222.411 2010-03-22T01:11:59.563Z
20100322 0112.99270 24.71006033 -76.82286667 0.03 42.411 2010-03-22T01:12:59.562Z
20100322 0113.99267 24.71005983 -76.82287 0.0 0.0 2010-03-22T01:13:59.560Z
20100322 0114.99265 24.71006167 -76.82286717 0.0 0.0 2010-03-22T01:14:59.559Z
20100322 0115.99262 24.710062 -76.822867 0.0 0.0 2010-03-22T01:15:59.557Z
20100322 0116.99260 24.7100585 -76.82286583 0.0 0.0 2010-03-22T01:16:59.556Z
20100322 0117.99257 24.71005617 -76.82286983 0.02 0.0 2010-03-22T01:17:59.554Z
20100322 0118.99255 24.7100515 -76.82286983 0.0 0.0 2010-03-22T01:18:59.553Z
20100322 0119.99252 24.7100535 -76.8228725 0.02 270.0 2010-03-22T01:19:59.551Z
20100322 0120.99250 24.71005633 -76.82288 0.02 270.0 2010-03-22T01:20:59.550Z
20100322 0121.99247 24.71005633 -76.82288133 0.02 0.0 2010-03-22T01:21:59.548Z
20100322 0122.99243 24.71005517 -76.82288733 0.0 0.0 2010-03-22T01:22:59.546Z
20100322 0123.99242 24.71005733 -76.82288867 0.02 0.0 2010-03-22T01:23:59.545Z
20100322 0124.99238 24.710061 -76.82288667 0.02 270.0 2010-03-22T01:24:59.543Z
20100322 0125.99237 24.71006133 -76.822888 0.0 0.0 2010-03-22T01:25:59.542Z
20100322 0126.99233 24.710062 -76.82289033 0.02 180.0 2010-03-22T01:26:59.540Z
20100322 0127.99232 24.71005883 -76.82289217 0.0 0.0 2010-03-22T01:27:59.539Z
20100322 0128.99228 24.71005733 -76.8228905 0.0 0.0 2010-03-22T01:28:59.537Z
20100322 0129.99227 24.7100565 -76.822887 0.02 0.0 2010-03-22T01:29:59.536Z
20100322 0130.99223 24.71005367 -76.82288167 0.0 0.0 2010-03-22T01:30:59.534Z
20100322 0131.99222 24.71005667 -76.82287867 0.02 90.0 2010-03-22T01:31:59.533Z
20100322 0132.99218 24.71006283 -76.82287533 0.02 90.0 2010-03-22T01:32:59.531Z
20100322 0133.99217 24.71007167 -76.822876 0.0 0.0 2010-03-22T01:33:59.530Z
20100322 0134.99213 24.71007767 -76.822874 0.02 0.0 2010-03-22T01:34:59.528Z
20100322 0135.99212 24.71007833 -76.8228745 0.0 0.0 2010-03-22T01:35:59.527Z
20100322 0136.99208 24.71007717 -76.8228745 0.03 222.411 2010-03-22T01:36:59.525Z
20100322 0137.99207 24.71007617 -76.82287317 0.03 137.589 2010-03-22T01:37:59.524Z
20100322 0138.99203 24.71007117 -76.82287183 0.0 0.0 2010-03-22T01:38:59.522Z
20100322 0139.99200 24.71006883 -76.82286917 0.0 0.0 2010-03-22T01:39:59.520Z
20100322 0140.99198 24.71007 -76.82287133 0.03 222.411 2010-03-22T01:40:59.519Z
20100322 0141.99195 24.71006867 -76.82287633 0.02 270.0 2010-03-22T01:41:59.517Z
20100322 0142.99193 24.71007267 -76.82287917 0.0 0.0 2010-03-22T01:42:59.516Z
20100322 0143.99190 24.71007133 -76.82288267 0.0 0.0 2010-03-22T01:43:59.514Z
20100322 0144.99188 24.71006767 -76.82288833 0.02 270.0 2010-03-22T01:44:59.513Z
20100322 0145.99185 24.7100665 -76.822893 0.0 0.0 2010-03-22T01:45:59.511Z
20100322 0146.99183 24.71006683 -76.82288533 0.02 90.0 2010-03-22T01:46:59.510Z
20100322 0147.99180 24.71006483 -76.82288 0.02 270.0 2010-03-22T01:47:59.508Z
20100322 0148.99178 24.71006167 -76.822875 0.02 90.0 2010-03-22T01:48:59.507Z
20100322 0149.99175 24.71006133 -76.82287417 0.02 90.0 2010-03-22T01:49:59.505Z
20100322 0150.99173 24.71005783 -76.82287117 0.02 90.0 2010-03-22T01:50:59.504Z
20100322 0151.99170 24.710059 -76.82287183 0.0 0.0 2010-03-22T01:51:59.502Z
20100322 0152.99168 24.71006017 -76.82287933 0.02 270.0 2010-03-22T01:52:59.501Z
20100322 0154.00832 24.71006133 -76.82288117 0.02 270.0 2010-03-22T01:54:00.499Z
20100322 0155.00830 24.7100645 -76.822886 0.02 0.0 2010-03-22T01:55:00.498Z
20100322 0156.00827 24.71006367 -76.822888 0.03 137.589 2010-03-22T01:56:00.496Z
20100322 0157.00823 24.710061 -76.822887 0.0 0.0 2010-03-22T01:57:00.494Z
20100322 0158.00822 24.71006367 -76.82288417 0.0 0.0 2010-03-22T01:58:00.493Z
20100322 0159.00818 24.7100645 -76.82288683 0.02 0.0 2010-03-22T01:59:00.491Z
20100322 0200.00817 24.71006467 -76.82288383 0.0 0.0 2010-03-22T02:00:00.490Z
20100322 0201.00813 24.710066 -76.82288317 0.02 0.0 2010-03-22T02:01:00.488Z
20100322 0202.00812 24.710062 -76.82287983 0.0 0.0 2010-03-22T02:02:00.487Z
20100322 0203.00808 24.71006367 -76.82287367 0.02 0.0 2010-03-22T02:03:00.485Z
20100322 0204.00807 24.71006483 -76.8228725 0.02 0.0 2010-03-22T02:04:00.484Z
20100322 0205.00803 24.710059 -76.822877 0.03 222.411 2010-03-22T02:05:00.482Z
20100322 0206.00802 24.71005633 -76.82288233 0.0 0.0 2010-03-22T02:06:00.481Z
20100322 0207.00798 24.71005467 -76.82288817 0.02 90.0 2010-03-22T02:07:00.479Z
20100322 0208.00797 24.710052 -76.82288667 0.0 0.0 2010-03-22T02:08:00.478Z
20100322 0209.00793 24.710051 -76.82288167 0.0 0.0 2010-03-22T02:09:00.476Z
20100322 0210.00792 24.71005267 -76.82287833 0.02 42.411 2010-03-22T02:10:00.475Z
20100322 0211.00788 24.710057 -76.82287733 0.03 317.589 2010-03-22T02:11:00.473Z
20100322 0212.00785 24.710062 -76.82287833 0.02 270.0 2010-03-22T02:12:00.471Z
20100322 0213.00783 24.710066 -76.82288067 0.02 270.0 2010-03-22T02:13:00.470Z
20100322 0214.00780 24.7100705 -76.822882 0.02 90.0 2010-03-22T02:14:00.468Z
20100322 0215.00778 24.710067 -76.82288233 0.02 180.0 2010-03-22T02:15:00.467Z
20100322 0216.00775 24.71006267 -76.8228845 0.03 222.411 2010-03-22T02:16:00.465Z
20100322 0217.00773 24.71005667 -76.8228835 0.0 0.0 2010-03-22T02:17:00.464Z
20100322 0218.00770 24.71005833 -76.82288267 0.03 319.313 2010-03-22T02:18:00.462Z
20100322 0219.00768 24.71006133 -76.82288817 0.03 42.411 2010-03-22T02:19:00.461Z
20100322 0220.00765 24.71005933 -76.82288967 0.02 270.0 2010-03-22T02:20:00.459Z
20100322 0221.00763 24.71005967 -76.82288767 0.0 0.0 2010-03-22T02:21:00.458Z
20100322 0222.00760 24.710059 -76.82288667 0.02 270.0 2010-03-22T02:22:00.456Z
20100322 0223.00758 24.710059 -76.82288917 0.02 0.0 2010-03-22T02:23:00.455Z
20100322 0224.00755 24.71005867 -76.82289017 0.0 0.0 2010-03-22T02:24:00.453Z
20100322 0225.00753 24.710061 -76.8228875 0.0 0.0 2010-03-22T02:25:00.452Z
20100322 0226.00750 24.71006167 -76.82288683 0.02 90.0 2010-03-22T02:26:00.450Z
20100322 0227.00748 24.71005717 -76.82288467 0.02 180.0 2010-03-22T02:27:00.449Z
20100322 0228.00745 24.71005817 -76.8228855 0.02 270.0 2010-03-22T02:28:00.447Z
20100322 0229.00742 24.710057 -76.822885 0.02 180.0 2010-03-22T02:29:00.445Z
20100322 0230.00740 24.710054 -76.82288617 0.0 0.0 2010-03-22T02:30:00.444Z
20100322 0231.00737 24.71005383 -76.82288483 0.02 90.0 2010-03-22T02:31:00.442Z
20100322 0232.00735 24.7100545 -76.8228835 0.03 137.589 2010-03-22T02:32:00.441Z
20100322 0233.00732 24.71005283 -76.822885 0.02 270.0 2010-03-22T02:33:00.439Z
20100322 0234.00730 24.71005617 -76.8228905 0.0 0.0 2010-03-22T02:34:00.438Z
20100322 0235.00727 24.71005983 -76.82288817 0.0 0.0 2010-03-22T02:35:00.436Z
20100322 0236.00725 24.710064 -76.8228855 0.03 42.411 2010-03-22T02:36:00.435Z
20100322 0237.00722 24.71006 -76.82288267 0.0 0.0 2010-03-22T02:37:00.433Z
20100322 0238.00720 24.71005867 -76.82288033 0.02 0.0 2010-03-22T02:38:00.432Z
20100322 0239.00717 24.71005833 -76.82288067 0.02 270.0 2010-03-22T02:39:00.430Z
20100322 0240.00715 24.71006283 -76.8228805 0.02 0.0 2010-03-22T02:40:00.429Z
20100322 0241.00712 24.7100635 -76.82288117 0.02 90.0 2010-03-22T02:41:00.427Z
20100322 0242.00710 24.71006783 -76.82288317 0.02 180.0 2010-03-22T02:42:00.426Z
20100322 0243.00707 24.7100605 -76.82288017 0.0 0.0 2010-03-22T02:43:00.424Z
20100322 0244.00705 24.71006133 -76.82288167 0.0 0.0 2010-03-22T02:44:00.423Z
20100322 0245.00702 24.71006567 -76.82288183 0.02 270.0 2010-03-22T02:45:00.421Z
20100322 0246.00698 24.71006867 -76.82288067 0.03 44.144 2010-03-22T02:46:00.419Z
20100322 0247.00697 24.710073 -76.822883 0.02 270.0 2010-03-22T02:47:00.418Z
20100322 0248.00693 24.71007283 -76.82288133 0.02 180.0 2010-03-22T02:48:00.416Z
20100322 0249.00692 24.71006933 -76.8228815 0.02 270.0 2010-03-22T02:49:00.415Z
20100322 0250.00688 24.71006617 -76.8228825 0.02 270.0 2010-03-22T02:50:00.413Z
20100322 0251.00687 24.71006083 -76.82288683 0.0 0.0 2010-03-22T02:51:00.412Z
20100322 0252.00683 24.71005583 -76.82288933 0.03 317.589 2010-03-22T02:52:00.410Z
20100322 0253.00682 24.71005633 -76.822889 0.0 0.0 2010-03-22T02:53:00.409Z
20100322 0254.00678 24.71005683 -76.82288817 0.02 180.0 2010-03-22T02:54:00.407Z
20100322 0255.00677 24.710057 -76.82288867 0.02 180.0 2010-03-22T02:55:00.406Z
20100322 0256.00673 24.71005767 -76.8228845 0.0 0.0 2010-03-22T02:56:00.404Z
20100322 0257.00672 24.7100615 -76.822884 0.02 0.0 2010-03-22T02:57:00.403Z
20100322 0258.00668 24.71006383 -76.82288 0.0 0.0 2010-03-22T02:58:00.401Z
20100322 0259.00667 24.71006383 -76.82287617 0.03 135.856 2010-03-22T02:59:00.400Z
20100322 0300.00663 24.710062 -76.82287317 0.0 0.0 2010-03-22T03:00:00.398Z
20100322 0301.00660 24.710064 -76.82287233 0.02 90.0 2010-03-22T03:01:00.396Z
20100322 0302.00658 24.710067 -76.822873 0.02 270.0 2010-03-22T03:02:00.395Z
20100322 0303.00655 24.7100655 -76.82286883 0.0 0.0 2010-03-22T03:03:00.393Z
20100322 0304.00653 24.71006133 -76.82287017 0.02 90.0 2010-03-22T03:04:00.392Z
20100322 0305.00650 24.71005867 -76.822868 0.0 0.0 2010-03-22T03:05:00.390Z
20100322 0306.00648 24.7100605 -76.82286967 0.02 90.0 2010-03-22T03:06:00.389Z
20100322 0307.00645 24.71005817 -76.8228745 0.02 0.0 2010-03-22T03:07:00.387Z
20100322 0308.00643 24.71005817 -76.82287567 0.02 90.0 2010-03-22T03:08:00.386Z
20100322 0309.00640 24.7100605 -76.8228825 0.02 270.0 2010-03-22T03:09:00.384Z
20100322 0310.00638 24.71006383 -76.82288817 0.03 319.313 2010-03-22T03:10:00.383Z
20100322 0311.00635 24.71006367 -76.82288517 0.0 0.0 2010-03-22T03:11:00.381Z
20100322 0312.00633 24.71006633 -76.822883 0.02 180.0 2010-03-22T03:12:00.380Z
20100322 0313.00630 24.71006567 -76.82287733 0.03 90.0 2010-03-22T03:13:00.378Z
20100322 0314.00628 24.710068 -76.82287233 0.02 0.0 2010-03-22T03:14:00.377Z
20100322 0315.00625 24.71007017 -76.82287167 0.0 0.0 2010-03-22T03:15:00.375Z
20100322 0316.00623 24.71006667 -76.82286883 0.0 0.0 2010-03-22T03:16:00.374Z
20100322 0317.00620 24.71006233 -76.8228735 0.03 135.856 2010-03-22T03:17:00.372Z
20100322 0318.00617 24.7100595 -76.82287517 0.02 0.0 2010-03-22T03:18:00.370Z
20100322 0319.00615 24.7100585 -76.82287733 0.02 90.0 2010-03-22T03:19:00.369Z
20100322 0320.00612 24.7100555 -76.82287267 0.03 137.589 2010-03-22T03:20:00.367Z
20100322 0321.00610 24.710053 -76.82286883 0.0 0.0 2010-03-22T03:21:00.366Z
20100322 0322.00607 24.710048 -76.82287 0.02 270.0 2010-03-22T03:22:00.364Z
20100322 0323.00605 24.7100555 -76.8228755 0.02 0.0 2010-03-22T03:23:00.363Z
20100322 0324.00602 24.71005633 -76.82287267 0.0 0.0 2010-03-22T03:24:00.361Z
20100322 0325.00600 24.71006267 -76.82287267 0.02 0.0 2010-03-22T03:25:00.360Z
20100322 0326.00597 24.71006233 -76.82287333 0.02 270.0 2010-03-22T03:26:00.358Z
20100322 0327.00595 24.71005933 -76.8228755 0.02 0.0 2010-03-22T03:27:00.357Z
20100322 0328.00592 24.71005983 -76.82287633 0.0 0.0 2010-03-22T03:28:00.355Z
20100322 0329.00590 24.71005967 -76.82287833 0.03 222.411 2010-03-22T03:29:00.354Z
20100322 0330.00587 24.7100585 -76.8228825 0.0 0.0 2010-03-22T03:30:00.352Z
20100322 0331.00585 24.7100575 -76.822882 0.0 0.0 2010-03-22T03:31:00.351Z
20100322 0332.00582 24.710057 -76.8228815 0.03 42.411 2010-03-22T03:32:00.349Z
20100322 0333.00578 24.710056 -76.82287683 0.0 0.0 2010-03-22T03:33:00.347Z
20100322 0334.00577 24.71005567 -76.822872 0.0 0.0 2010-03-22T03:34:00.346Z
20100322 0335.00573 24.710057 -76.82287317 0.02 270.0 2010-03-22T03:35:00.344Z
20100322 0336.00572 24.71005867 -76.822875 0.02 270.0 2010-03-22T03:36:00.343Z
20100322 0337.00568 24.7100615 -76.822877 0.03 222.411 2010-03-22T03:37:00.341Z
20100322 0338.00567 24.71005917 -76.8228755 0.0 0.0 2010-03-22T03:38:00.340Z
20100322 0339.00563 24.7100565 -76.82287083 0.02 180.0 2010-03-22T03:39:00.338Z
20100322 0340.00562 24.71005683 -76.82286767 0.0 0.0 2010-03-22T03:40:00.337Z
20100322 0341.00558 24.71005567 -76.82287033 0.0 0.0 2010-03-22T03:41:00.335Z
20100322 0342.00557 24.71005483 -76.82287367 0.0 0.0 2010-03-22T03:42:00.334Z
20100322 0343.00553 24.71006 -76.82287617 0.0 0.0 2010-03-22T03:43:00.332Z
20100322 0344.00552 24.710062 -76.82287917 0.02 270.0 2010-03-22T03:44:00.331Z
20100322 0345.00548 24.71006467 -76.82287783 0.02 180.0 2010-03-22T03:45:00.329Z
20100322 0346.00547 24.71006483 -76.82287733 0.03 317.589 2010-03-22T03:46:00.328Z
20100322 0347.00543 24.71006383 -76.82287867 0.03 319.313 2010-03-22T03:47:00.326Z
20100322 0348.00542 24.7100615 -76.82288017 0.0 0.0 2010-03-22T03:48:00.325Z
20100322 0349.00538 24.71006317 -76.82288333 0.03 270.0 2010-03-22T03:49:00.323Z
20100322 0350.00535 24.71006067 -76.8228825 0.0 0.0 2010-03-22T03:50:00.321Z
20100322 0351.00533 24.7100605 -76.82288433 0.02 0.0 2010-03-22T03:51:00.320Z
20100322 0352.00530 24.71006067 -76.82288567 0.0 0.0 2010-03-22T03:52:00.318Z
20100322 0353.00528 24.71005833 -76.8228855 0.02 180.0 2010-03-22T03:53:00.317Z
20100322 0354.00525 24.71005883 -76.822885 0.02 180.0 2010-03-22T03:54:00.315Z
20100322 0355.00523 24.7100585 -76.82288667 0.0 0.0 2010-03-22T03:55:00.314Z
20100322 0356.00520 24.71005733 -76.822883 0.02 90.0 2010-03-22T03:56:00.312Z
20100322 0357.00518 24.71005633 -76.8228805 0.03 317.589 2010-03-22T03:57:00.311Z
20100322 0358.00515 24.71006 -76.82288017 0.0 0.0 2010-03-22T03:58:00.309Z
20100322 0359.00513 24.7100615 -76.822877 0.02 180.0 2010-03-22T03:59:00.308Z
20100322 0400.00510 24.7100625 -76.822875 0.02 90.0 2010-03-22T04:00:00.306Z
20100322 0401.00508 24.71006133 -76.822873 0.0 0.0 2010-03-22T04:01:00.305Z
20100322 0402.00505 24.71006333 -76.82286567 0.02 0.0 2010-03-22T04:02:00.303Z
20100322 0403.00503 24.71006817 -76.822861 0.02 180.0 2010-03-22T04:03:00.302Z
20100322 0404.00500 24.71006467 -76.82286267 0.0 0.0 2010-03-22T04:04:00.300Z
20100322 0405.00497 24.7100655 -76.82286683 0.0 0.0 2010-03-22T04:05:00.298Z
20100322 0406.00495 24.710065 -76.82286833 0.02 270.0 2010-03-22T04:06:00.297Z
20100322 0407.00492 24.71006467 -76.822867 0.02 180.0 2010-03-22T04:07:00.295Z
20100322 0408.00490 24.7100625 -76.82286583 0.02 270.0 2010-03-22T04:08:00.294Z
20100322 0409.00487 24.7100615 -76.8228665 0.0 0.0 2010-03-22T04:09:00.292Z
20100322 0410.00485 24.71006117 -76.822867 0.0 0.0 2010-03-22T04:10:00.291Z
20100322 0411.00482 24.71006283 -76.82286883 0.02 270.0 2010-03-22T04:11:00.289Z
20100322 0412.00480 24.71006883 -76.82287483 0.02 270.0 2010-03-22T04:12:00.288Z
20100322 0413.00477 24.71007017 -76.82288333 0.02 270.0 2010-03-22T04:13:00.286Z
20100322 0414.00475 24.71006783 -76.82288617 0.0 0.0 2010-03-22T04:14:00.285Z
20100322 0415.00472 24.71006483 -76.82288683 0.02 0.0 2010-03-22T04:15:00.283Z
20100322 0416.00470 24.7100675 -76.82288383 0.02 90.0 2010-03-22T04:16:00.282Z
20100322 0417.00467 24.7100625 -76.822883 0.03 222.411 2010-03-22T04:17:00.280Z
20100322 0418.00465 24.71006233 -76.82288317 0.02 90.0 2010-03-22T04:18:00.279Z
20100322 0419.00462 24.71005983 -76.82288117 0.03 135.856 2010-03-22T04:19:00.277Z
20100322 0420.00458 24.71005667 -76.8228775 0.03 222.411 2010-03-22T04:20:00.275Z
20100322 0421.00457 24.71006067 -76.82287417 0.02 180.0 2010-03-22T04:21:00.274Z
20100322 0422.00453 24.71005967 -76.82287267 0.04 155.452 2010-03-22T04:22:00.272Z
20100322 0423.00452 24.71006167 -76.82287017 0.02 0.0 2010-03-22T04:23:00.271Z
20100322 0424.00448 24.710063 -76.82287083 0.0 0.0 2010-03-22T04:24:00.269Z
20100322 0425.00447 24.71005667 -76.822868 0.03 137.589 2010-03-22T04:25:00.268Z
20100322 0426.00443 24.710056 -76.82286467 0.0 0.0 2010-03-22T04:26:00.266Z
20100322 0427.00442 24.71005683 -76.82286133 0.03 40.687 2010-03-22T04:27:00.265Z
20100322 0428.00438 24.71005617 -76.82285967 0.04 297.958 2010-03-22T04:28:00.263Z
20100322 0429.00437 24.71005933 -76.82285717 0.0 0.0 2010-03-22T04:29:00.262Z
20100322 0430.00433 24.71006 -76.822857 0.02 180.0 2010-03-22T04:30:00.260Z
20100322 0431.00432 24.71005883 -76.82285717 0.02 222.411 2010-03-22T04:31:00.259Z
20100322 0432.00428 24.710058 -76.82285767 0.04 118.694 2010-03-22T04:32:00.257Z
20100322 0433.00427 24.71005717 -76.82286033 0.02 90.0 2010-03-22T04:33:00.256Z
20100322 0434.00423 24.71005767 -76.8228625 0.02 90.0 2010-03-22T04:34:00.254Z
20100322 0435.00422 24.71005367 -76.82286867 0.04 240.579 2010-03-22T04:35:00.253Z
20100322 0436.00418 24.71005383 -76.82286983 0.02 270.0 2010-03-22T04:36:00.251Z
20100322 0437.00415 24.710052 -76.82287133 0.03 139.313 2010-03-22T04:37:00.249Z
20100322 0438.00413 24.710052 -76.822873 0.0 0.0 2010-03-22T04:38:00.248Z
20100322 0439.00410 24.71005333 -76.82287283 0.02 180.0 2010-03-22T04:39:00.246Z
20100322 0440.00408 24.71005583 -76.8228745 0.02 90.0 2010-03-22T04:40:00.245Z
20100322 0441.00405 24.71005867 -76.82287583 0.02 90.0 2010-03-22T04:41:00.243Z
20100322 0442.00403 24.7100615 -76.82287517 0.02 270.0 2010-03-22T04:42:00.242Z
20100322 0443.00400 24.71006183 -76.82287783 0.02 270.0 2010-03-22T04:43:00.240Z
20100322 0444.00398 24.71006367 -76.82287717 0.0 0.0 2010-03-22T04:44:00.239Z
20100322 0445.00395 24.71006083 -76.82287417 0.03 135.856 2010-03-22T04:45:00.237Z
20100322 0446.00393 24.7100575 -76.822873 0.02 180.0 2010-03-22T04:46:00.236Z
20100322 0447.00390 24.71005667 -76.822874 0.02 180.0 2010-03-22T04:47:00.234Z
20100322 0448.00388 24.71005633 -76.822878 0.03 135.856 2010-03-22T04:48:00.233Z
20100322 0449.00385 24.71005883 -76.82287983 0.02 270.0 2010-03-22T04:49:00.231Z
20100322 0450.00383 24.7100555 -76.822879 0.02 0.0 2010-03-22T04:50:00.230Z
20100322 0451.00380 24.71005083 -76.822882 0.03 224.144 2010-03-22T04:51:00.228Z
20100322 0452.00378 24.71004683 -76.822882 0.02 180.0 2010-03-22T04:52:00.227Z
20100322 0453.00375 24.71005033 -76.82288133 0.02 0.0 2010-03-22T04:53:00.225Z
20100322 0454.00372 24.7100535 -76.82288033 0.02 180.0 2010-03-22T04:54:00.223Z
20100322 0455.00370 24.71005633 -76.82288067 0.0 0.0 2010-03-22T04:55:00.222Z
20100322 0456.00367 24.71005867 -76.82288083 0.02 42.411 2010-03-22T04:56:00.220Z
20100322 0457.00365 24.71006033 -76.82287867 0.02 90.0 2010-03-22T04:57:00.219Z
20100322 0458.00362 24.71006017 -76.82287667 0.02 180.0 2010-03-22T04:58:00.217Z
20100322 0459.00360 24.7100635 -76.822877 0.0 0.0 2010-03-22T04:59:00.216Z
20100322 0500.00357 24.71006233 -76.82287517 0.0 0.0 2010-03-22T05:00:00.214Z
20100322 0501.00355 24.7100615 -76.82287483 0.02 90.0 2010-03-22T05:01:00.213Z
20100322 0502.00352 24.71006233 -76.82287717 0.03 42.411 2010-03-22T05:02:00.211Z
20100322 0503.00350 24.71006033 -76.82287933 0.03 317.589 2010-03-22T05:03:00.210Z
20100322 0504.00347 24.71005783 -76.82287733 0.02 90.0 2010-03-22T05:04:00.208Z
20100322 0505.00345 24.71005667 -76.822873 0.02 0.0 2010-03-22T05:05:00.207Z
20100322 0506.00342 24.71005867 -76.82286917 0.03 137.589 2010-03-22T05:06:00.205Z
20100322 0507.00340 24.710061 -76.82286967 0.02 270.0 2010-03-22T05:07:00.204Z
20100322 0508.00337 24.71006 -76.82287267 0.02 270.0 2010-03-22T05:08:00.202Z
20100322 0509.00333 24.7100595 -76.82287717 0.03 220.687 2010-03-22T05:09:00.200Z
20100322 0510.00332 24.71005817 -76.82287933 0.02 270.0 2010-03-22T05:10:00.199Z
20100322 0511.00328 24.71005867 -76.8228805 0.02 90.0 2010-03-22T05:11:00.197Z
20100322 0512.00327 24.71006017 -76.822881 0.02 270.0 2010-03-22T05:12:00.196Z
20100322 0513.00323 24.71005983 -76.82288317 0.02 270.0 2010-03-22T05:13:00.194Z
20100322 0514.00322 24.71006183 -76.82288683 0.02 270.0 2010-03-22T05:14:00.193Z
20100322 0515.00318 24.71006067 -76.82288433 0.02 180.0 2010-03-22T05:15:00.191Z
20100322 0516.00317 24.71005617 -76.82287983 0.02 270.0 2010-03-22T05:16:00.190Z
20100322 0517.00313 24.71005833 -76.82287733 0.02 0.0 2010-03-22T05:17:00.188Z
20100322 0518.00312 24.71006067 -76.822879 0.03 315.856 2010-03-22T05:18:00.187Z
20100322 0519.00308 24.71006233 -76.82288217 0.02 270.0 2010-03-22T05:19:00.185Z
20100322 0520.00307 24.71006467 -76.822887 0.02 270.0 2010-03-22T05:20:00.184Z
20100322 0521.00303 24.71005967 -76.8228875 0.02 180.0 2010-03-22T05:21:00.182Z
20100322 0522.00302 24.71005883 -76.822887 0.0 0.0 2010-03-22T05:22:00.181Z
20100322 0523.00298 24.71006133 -76.82288517 0.02 0.0 2010-03-22T05:23:00.179Z
20100322 0524.00297 24.71006317 -76.82288417 0.02 180.0 2010-03-22T05:24:00.178Z
20100322 0525.00293 24.7100595 -76.82288567 0.0 0.0 2010-03-22T05:25:00.176Z
20100322 0526.00290 24.71005983 -76.82288583 0.0 0.0 2010-03-22T05:26:00.174Z
20100322 0527.00288 24.71005733 -76.82288517 0.02 90.0 2010-03-22T05:27:00.173Z
20100322 0528.00285 24.71005767 -76.8228845 0.02 90.0 2010-03-22T05:28:00.171Z
20100322 0529.00283 24.7100585 -76.82288133 0.03 139.313 2010-03-22T05:29:00.170Z
20100322 0530.00280 24.71005817 -76.822879 0.0 0.0 2010-03-22T05:30:00.168Z
20100322 0531.00278 24.7100615 -76.82288083 0.02 90.0 2010-03-22T05:31:00.167Z
20100322 0532.00275 24.71006417 -76.822878 0.02 180.0 2010-03-22T05:32:00.165Z
20100322 0533.00273 24.71006267 -76.822874 0.0 0.0 2010-03-22T05:33:00.164Z
20100322 0534.00270 24.7100615 -76.82287333 0.03 139.313 2010-03-22T05:34:00.162Z
20100322 0535.00268 24.71006333 -76.82288167 0.04 0.0 2010-03-22T05:35:00.161Z
20100322 0536.00265 24.71006817 -76.82288783 0.0 0.0 2010-03-22T05:36:00.159Z
20100322 0537.00263 24.71006483 -76.82289267 0.02 180.0 2010-03-22T05:37:00.158Z
20100322 0538.00260 24.710063 -76.822893 0.03 90.0 2010-03-22T05:38:00.156Z
20100322 0539.00258 24.7100595 -76.8228855 0.02 90.0 2010-03-22T05:39:00.155Z
20100322 0540.00255 24.71005867 -76.822878 0.0 0.0 2010-03-22T05:40:00.153Z
20100322 0541.00253 24.71006033 -76.82287183 0.02 180.0 2010-03-22T05:41:00.152Z
20100322 0542.00250 24.710062 -76.8228715 0.02 270.0 2010-03-22T05:42:00.150Z
20100322 0543.00247 24.7100625 -76.82287067 0.02 180.0 2010-03-22T05:43:00.148Z
20100322 0544.00245 24.71006217 -76.82287233 0.03 315.856 2010-03-22T05:44:00.147Z
20100322 0545.00242 24.71006017 -76.82287217 0.02 317.589 2010-03-22T05:45:00.145Z
20100322 0546.00240 24.710058 -76.82287317 0.03 220.687 2010-03-22T05:46:00.144Z
20100322 0547.00237 24.71005983 -76.82287617 0.02 180.0 2010-03-22T05:47:00.142Z
20100322 0548.00235 24.71006267 -76.82287817 0.0 0.0 2010-03-22T05:48:00.141Z
20100322 0549.00232 24.71006367 -76.8228765 0.0 0.0 2010-03-22T05:49:00.139Z
20100322 0550.00230 24.7100625 -76.82287767 0.02 0.0 2010-03-22T05:50:00.138Z
20100322 0551.00227 24.710059 -76.82287917 0.0 0.0 2010-03-22T05:51:00.136Z
20100322 0552.00225 24.710056 -76.82287633 0.02 90.0 2010-03-22T05:52:00.135Z
20100322 0553.00222 24.71005383 -76.82287883 0.03 317.589 2010-03-22T05:53:00.133Z
20100322 0554.00220 24.71005433 -76.82288 0.03 224.144 2010-03-22T05:54:00.132Z
20100322 0555.00217 24.71005333 -76.8228875 0.0 0.0 2010-03-22T05:55:00.130Z
20100322 0556.00215 24.71005133 -76.82289133 0.02 90.0 2010-03-22T05:56:00.129Z
20100322 0557.00212 24.710049 -76.8228945 0.02 180.0 2010-03-22T05:57:00.127Z
20100322 0558.00208 24.71004883 -76.82289317 0.02 0.0 2010-03-22T05:58:00.125Z
20100322 0559.00207 24.7100535 -76.82289183 0.02 0.0 2010-03-22T05:59:00.124Z
20100322 0600.00203 24.71005867 -76.82289083 0.02 0.0 2010-03-22T06:00:00.122Z
20100322 0601.00202 24.71005933 -76.822887 0.03 135.856 2010-03-22T06:01:00.121Z
20100322 0602.00198 24.71005967 -76.82288733 0.0 0.0 2010-03-22T06:02:00.119Z
20100322 0603.00197 24.71006083 -76.8228865 0.03 224.144 2010-03-22T06:03:00.118Z
20100322 0604.00193 24.7100565 -76.8228865 0.02 270.0 2010-03-22T06:04:00.116Z
20100322 0605.00192 24.71005433 -76.822887 0.02 90.0 2010-03-22T06:05:00.115Z
20100322 0606.00188 24.7100515 -76.8228865 0.02 90.0 2010-03-22T06:06:00.113Z
20100322 0607.00187 24.71005067 -76.82288183 0.02 180.0 2010-03-22T06:07:00.112Z
20100322 0608.00183 24.71005333 -76.82287767 0.0 0.0 2010-03-22T06:08:00.110Z
20100322 0609.00182 24.7100545 -76.82286967 0.0 0.0 2010-03-22T06:09:00.109Z
20100322 0610.00178 24.71005467 -76.82286933 0.0 0.0 2010-03-22T06:10:00.107Z
20100322 0611.00177 24.71005367 -76.82286917 0.02 90.0 2010-03-22T06:11:00.106Z
20100322 0612.00173 24.71004967 -76.82286767 0.04 180.0 2010-03-22T06:12:00.104Z
20100322 0613.00172 24.710047 -76.82286767 0.03 90.0 2010-03-22T06:13:00.103Z
20100322 0614.00168 24.71004483 -76.8228725 0.0 0.0 2010-03-22T06:14:00.101Z
20100322 0615.00165 24.710044 -76.8228745 0.02 90.0 2010-03-22T06:15:00.099Z
20100322 0616.00163 24.71004583 -76.822879 0.0 0.0 2010-03-22T06:16:00.098Z
20100322 0617.00160 24.71004717 -76.82288333 0.02 0.0 2010-03-22T06:17:00.096Z
20100322 0618.00158 24.71004983 -76.82288317 0.03 90.0 2010-03-22T06:18:00.095Z
20100322 0619.00155 24.710057 -76.822879 0.0 0.0 2010-03-22T06:19:00.093Z
20100322 0620.00153 24.71006167 -76.82287783 0.02 42.411 2010-03-22T06:20:00.092Z
20100322 0621.00150 24.7100655 -76.82287533 0.02 270.0 2010-03-22T06:21:00.090Z
20100322 0622.00148 24.71006333 -76.82287367 0.03 42.411 2010-03-22T06:22:00.089Z
20100322 0623.00145 24.71006567 -76.822873 0.02 180.0 2010-03-22T06:23:00.087Z
20100322 0624.00143 24.7100655 -76.82287533 0.0 0.0 2010-03-22T06:24:00.086Z
20100322 0625.00140 24.71006367 -76.82287633 0.0 0.0 2010-03-22T06:25:00.084Z
20100322 0626.00138 24.71006333 -76.82287983 0.02 270.0 2010-03-22T06:26:00.083Z
20100322 0627.00135 24.71005933 -76.822883 0.03 317.589 2010-03-22T06:27:00.081Z
20100322 0628.00133 24.710059 -76.822886 0.02 0.0 2010-03-22T06:28:00.080Z
20100322 0629.00130 24.71006083 -76.82288817 0.0 0.0 2010-03-22T06:29:00.078Z
20100322 0630.00128 24.71006033 -76.82288733 0.02 90.0 2010-03-22T06:30:00.077Z
20100322 0631.00125 24.71005867 -76.82288733 0.02 270.0 2010-03-22T06:31:00.075Z
20100322 0632.00122 24.7100635 -76.8228915 0.02 270.0 2010-03-22T06:32:00.073Z
20100322 0633.00120 24.710066 -76.82288517 0.03 42.411 2010-03-22T06:33:00.072Z
20100322 0634.00117 24.7100645 -76.822883 0.0 0.0 2010-03-22T06:34:00.070Z
20100322 0635.00115 24.71005933 -76.82287833 0.0 0.0 2010-03-22T06:35:00.069Z
20100322 0636.00112 24.71005683 -76.822877 0.0 0.0 2010-03-22T06:36:00.067Z
20100322 0637.00110 24.71005567 -76.82287783 0.03 315.856 2010-03-22T06:37:00.066Z
20100322 0638.00107 24.71005817 -76.82287783 0.02 42.411 2010-03-22T06:38:00.064Z
20100322 0639.00105 24.71006083 -76.82287733 0.04 23.262 2010-03-22T06:39:00.063Z
20100322 0640.00102 24.71006617 -76.82287433 0.02 180.0 2010-03-22T06:40:00.061Z
20100322 0641.00100 24.710066 -76.8228745 0.03 317.589 2010-03-22T06:41:00.060Z
20100322 0642.00097 24.71006633 -76.822877 0.0 0.0 2010-03-22T06:42:00.058Z
20100322 0643.00095 24.7100665 -76.82287817 0.0 0.0 2010-03-22T06:43:00.057Z
20100322 0644.00092 24.71006567 -76.82287967 0.0 0.0 2010-03-22T06:44:00.055Z
20100322 0645.00090 24.71006633 -76.822877 0.04 24.548 2010-03-22T06:45:00.054Z
20100322 0646.00087 24.71006383 -76.82287333 0.02 270.0 2010-03-22T06:46:00.052Z
20100322 0647.00085 24.71006533 -76.82287817 0.02 270.0 2010-03-22T06:47:00.051Z
20100322 0648.00082 24.710066 -76.82287733 0.04 0.0 2010-03-22T06:48:00.049Z
20100322 0649.00078 24.71007217 -76.82287667 0.03 44.144 2010-03-22T06:49:00.047Z
20100322 0650.00077 24.7100735 -76.82287483 0.02 0.0 2010-03-22T06:50:00.046Z
20100322 0651.00073 24.7100765 -76.82287083 0.0 0.0 2010-03-22T06:51:00.044Z
20100322 0652.00072 24.71007467 -76.82286917 0.0 0.0 2010-03-22T06:52:00.043Z
20100322 0653.00068 24.71007017 -76.82287517 0.0 0.0 2010-03-22T06:53:00.041Z
20100322 0654.00067 24.71006233 -76.82287633 0.02 90.0 2010-03-22T06:54:00.040Z
20100322 0655.00063 24.7100565 -76.822875 0.02 90.0 2010-03-22T06:55:00.038Z
20100322 0656.00062 24.71005617 -76.82287067 0.02 180.0 2010-03-22T06:56:00.037Z
20100322 0657.00058 24.71005767 -76.82286917 0.0 0.0 2010-03-22T06:57:00.035Z
20100322 0658.00057 24.7100595 -76.8228665 0.0 0.0 2010-03-22T06:58:00.034Z
20100322 0659.00053 24.71006067 -76.82286367 0.03 44.144 2010-03-22T06:59:00.032Z
20100322 0700.00052 24.71006083 -76.82286683 0.0 0.0 2010-03-22T07:00:00.031Z
20100322 0701.00048 24.710062 -76.822871 0.02 0.0 2010-03-22T07:01:00.029Z
20100322 0702.00047 24.71006483 -76.82287317 0.02 0.0 2010-03-22T07:02:00.028Z
20100322 0703.00043 24.71006283 -76.82287 0.0 0.0 2010-03-22T07:03:00.026Z
20100322 0704.00042 24.71006283 -76.822868 0.0 0.0 2010-03-22T07:04:00.025Z
20100322 0705.00038 24.71006317 -76.82287283 0.0 0.0 2010-03-22T07:05:00.023Z
20100322 0706.00035 24.7100615 -76.8228725 0.0 0.0 2010-03-22T07:06:00.021Z
20100322 0707.00033 24.71006117 -76.82287417 0.02 0.0 2010-03-22T07:07:00.020Z
20100322 0708.00030 24.71005983 -76.82287217 0.0 0.0 2010-03-22T07:08:00.018Z
20100322 0709.00028 24.71006067 -76.82287483 0.02 270.0 2010-03-22T07:09:00.017Z
20100322 0710.00025 24.710062 -76.82287333 0.0 0.0 2010-03-22T07:10:00.015Z
20100322 0711.00023 24.71005883 -76.82287433 0.02 180.0 2010-03-22T07:11:00.014Z
20100322 0712.00020 24.71005717 -76.82287633 0.02 42.411 2010-03-22T07:12:00.012Z
20100322 0713.00018 24.71005433 -76.8228775 0.0 0.0 2010-03-22T07:13:00.011Z
20100322 0714.00015 24.71005517 -76.82287733 0.02 90.0 2010-03-22T07:14:00.009Z
20100322 0715.00013 24.71006017 -76.82287867 0.02 90.0 2010-03-22T07:15:00.008Z
20100322 0716.00010 24.71006233 -76.82287767 0.0 0.0 2010-03-22T07:16:00.006Z
20100322 0717.00008 24.71006667 -76.822882 0.02 0.0 2010-03-22T07:17:00.005Z
20100322 0718.00005 24.71006783 -76.8228785 0.03 90.0 2010-03-22T07:18:00.003Z
20100322 0719.00003 24.71006317 -76.822876 0.02 180.0 2010-03-22T07:19:00.002Z
20100322 0720.00000 24.71006217 -76.82287383 0.0 0.0 2010-03-22T07:20:00.000Z
20100322 0720.99998 24.71006733 -76.822874 0.03 42.411 2010-03-22T07:20:59.999Z
20100322 0721.99995 24.71006817 -76.82287767 0.02 270.0 2010-03-22T07:21:59.997Z
20100322 0722.99992 24.7100685 -76.822883 0.02 0.0 2010-03-22T07:22:59.995Z
20100322 0723.99990 24.7100715 -76.8228835 0.03 90.0 2010-03-22T07:23:59.994Z
20100322 0724.99987 24.71007567 -76.822885 0.04 334.799 2010-03-22T07:24:59.992Z
20100322 0725.99985 24.71007583 -76.82288517 0.02 180.0 2010-03-22T07:25:59.991Z
2010